# Wetter Temperatur Luftdruck Luftfeuchtigkeit Sichtweite Windgeschwindigkeit Windrichtung Zeit
1 Clouds 19 1015 89 0 4.96 148 07:40 11.07.2020
2 Clouds 19 1015 89 0 4.94 148 07:20 11.07.2020
3 Clouds 19 1015 89 0 4.94 148 06:53 11.07.2020
4 Clouds 19 1015 89 0 4.33 147 06:20 11.07.2020
5 Clouds 19 1015 89 0 4.06 146 05:21 11.07.2020
6 Clouds 19 1015 89 0 4.06 146 04:55 11.07.2020
7 Clouds 19 1015 89 0 4.06 146 04:31 11.07.2020
8 Clouds 20 1014 88 0 4.81 157 02:59 11.07.2020
9 Clouds 20 1014 88 0 4.81 157 02:36 11.07.2020
10 Clouds 20 1013 87 0 5.41 164 01:32 11.07.2020
11 Clouds 20 1013 86 0 5.32 165 00:59 11.07.2020
12 Clouds 20 1013 86 0 5.32 165 00:40 11.07.2020
13 Clouds 20 1012 86 0 5.54 168 00:21 11.07.2020
14 Clouds 20 1012 86 0 5.54 168 23:57 10.07.2020
15 Clouds 20 1012 86 0 5.54 168 23:38 10.07.2020
16 Clouds 20 1012 86 0 5.54 168 23:38 10.07.2020
17 Clouds 20 1012 86 0 5.61 171 23:18 10.07.2020
18 Clouds 20 1012 86 0 5.61 171 22:43 10.07.2020
19 Clouds 20 1013 86 0 5.56 172 22:19 10.07.2020
20 Clouds 20 1013 86 0 5.56 172 21:41 10.07.2020
21 Clouds 20 1014 86 0 5.6 174 21:21 10.07.2020
22 Clouds 20 1014 86 0 5.6 174 20:59 10.07.2020
23 Clouds 20 1014 86 0 5.6 174 20:41 10.07.2020
24 Clouds 20 1015 86 0 5.57 174 20:21 10.07.2020
25 Clouds 20 1015 86 0 5.57 174 19:57 10.07.2020
26 Clouds 20 1015 86 0 5.57 174 19:39 10.07.2020
27 Clouds 20 1016 86 0 5.48 174 19:19 10.07.2020
28 Clouds 20 1016 86 0 5.48 174 18:41 10.07.2020
29 Clouds 20 1016 87 0 5.41 174 18:20 10.07.2020
30 Clouds 20 1016 87 0 5.41 174 17:57 10.07.2020
31 Clouds 20 1016 87 0 5.41 174 17:38 10.07.2020
32 Clouds 20 1016 87 0 5.42 172 17:20 10.07.2020
33 Clouds 20 1016 87 0 5.42 172 16:42 10.07.2020
34 Clouds 20 1015 88 0 5.23 171 16:20 10.07.2020
35 Clouds 20 1015 88 0 5.23 171 15:45 10.07.2020
36 Clouds 20 1014 88 0 4.94 169 15:23 10.07.2020
37 Clouds 20 1014 88 0 4.94 169 14:55 10.07.2020
38 Clouds 20 1014 89 0 4.8 169 14:37 10.07.2020
39 Clouds 20 1014 89 0 4.89 171 14:19 10.07.2020
40 Clouds 20 1014 89 0 4.89 171 13:56 10.07.2020
41 Clouds 20 1014 89 0 4.89 171 13:37 10.07.2020
42 Clouds 20 1014 89 0 4.89 171 13:37 10.07.2020
43 Clouds 20 1014 89 0 4.89 171 13:37 10.07.2020
44 Clouds 20 1013 88 0 4.92 170 13:19 10.07.2020
45 Clouds 20 1013 88 0 4.92 170 12:44 10.07.2020
46 Clouds 20 1013 89 0 5 168 12:24 10.07.2020
47 Clouds 20 1013 89 0 5 168 11:59 10.07.2020
48 Clouds 20 1013 89 0 5 168 11:38 10.07.2020
49 Clouds 20 1013 89 0 5.29 168 11:19 10.07.2020
50 Clouds 20 1013 89 0 5.29 168 10:55 10.07.2020
51 Clouds 20 1013 89 0 5.29 168 10:36 10.07.2020
52 Clouds 20 1013 90 0 5.2 167 10:18 10.07.2020
53 Clouds 20 1013 90 0 5.2 167 09:38 10.07.2020
54 Clouds 20 1013 90 0 5.08 168 09:19 10.07.2020
55 Clouds 20 1014 90 0 4.9 168 08:57 10.07.2020
56 Clouds 20 1014 90 0 4.9 168 08:38 10.07.2020
57 Clouds 20 1014 91 0 4.89 169 08:20 10.07.2020
58 Clouds 20 1014 91 0 4.89 169 07:42 10.07.2020
59 Clouds 20 1014 90 0 4.82 168 07:22 10.07.2020
60 Clouds 20 1014 90 0 4.82 168 06:49 10.07.2020
61 Clouds 20 1014 90 0 4.68 168 05:58 10.07.2020
62 Clouds 20 1014 89 0 4.44 167 04:39 10.07.2020
63 Clouds 20 1013 90 0 4.49 166 03:37 10.07.2020
64 Clouds 20 1013 90 0 5.01 167 02:52 10.07.2020
65 Clouds 20 1012 89 0 5.06 166 01:49 10.07.2020
66 Clouds 21 1011 88 0 5.34 165 00:48 10.07.2020
67 Clouds 21 1011 88 0 5.3 164 00:20 10.07.2020
68 Clouds 21 1011 88 0 5.3 164 23:46 09.07.2020
69 Clouds 21 1011 88 0 5.05 164 23:22 09.07.2020
70 Clouds 21 1011 88 0 5.05 164 22:58 09.07.2020
71 Clouds 21 1011 88 0 5.05 164 22:40 09.07.2020
72 Clouds 21 1012 87 0 4.99 164 22:21 09.07.2020
73 Clouds 21 1012 87 0 4.99 164 21:56 09.07.2020
74 Clouds 21 1012 87 0 4.99 164 21:38 09.07.2020
75 Clouds 21 1012 87 0 4.99 164 21:38 09.07.2020
76 Clouds 21 1012 87 0 5.26 164 21:19 09.07.2020
77 Clouds 21 1012 87 0 5.26 164 20:44 09.07.2020
78 Clouds 21 1013 87 0 5.09 160 20:25 09.07.2020
79 Clouds 21 1013 87 0 5.09 160 19:58 09.07.2020
80 Clouds 21 1013 87 0 5.09 160 19:40 09.07.2020
81 Clouds 21 1014 87 0 5.24 158 19:20 09.07.2020
82 Clouds 21 1014 87 0 5.24 158 18:42 09.07.2020
83 Clouds 21 1014 87 0 5.54 155 18:21 09.07.2020
84 Clouds 21 1014 87 0 5.54 155 17:55 09.07.2020
85 Clouds 21 1014 87 0 5.54 155 17:37 09.07.2020
86 Clouds 20 1014 88 0 5.84 154 17:18 09.07.2020
87 Clouds 20 1014 88 0 5.84 154 16:55 09.07.2020
88 Clouds 20 1014 88 0 5.84 154 16:36 09.07.2020
89 Clouds 20 1013 89 0 6.22 153 16:18 09.07.2020
90 Clouds 20 1013 89 0 6.22 153 15:45 09.07.2020
91 Clouds 20 1012 89 0 6.69 153 15:27 09.07.2020
92 Clouds 20 1012 89 0 6.69 153 14:59 09.07.2020
93 Clouds 20 1012 89 0 6.69 153 14:41 09.07.2020
94 Clouds 20 1012 88 0 6.54 154 14:22 09.07.2020
95 Clouds 20 1012 88 0 6.54 154 13:58 09.07.2020
96 Clouds 20 1012 88 0 6.54 154 13:40 09.07.2020
97 Clouds 20 1012 89 0 6.57 154 13:20 09.07.2020
98 Clouds 20 1012 89 0 6.57 154 12:57 09.07.2020
99 Clouds 20 1012 89 0 6.57 154 12:38 09.07.2020
100 Clouds 20 1011 89 0 6.42 153 12:19 09.07.2020
101 Clouds 20 1011 89 0 6.42 153 11:43 09.07.2020
102 Clouds 20 1011 90 0 6.42 152 11:24 09.07.2020
103 Clouds 20 1011 90 0 6.42 152 10:58 09.07.2020
104 Clouds 20 1011 90 0 6.42 152 10:40 09.07.2020
105 Clouds 20 1011 90 0 6.42 152 10:40 09.07.2020
106 Clouds 20 1012 90 0 6.41 154 10:22 09.07.2020
107 Clouds 20 1012 90 0 6.41 154 09:55 09.07.2020
108 Clouds 20 1012 90 0 6.41 154 09:37 09.07.2020
109 Clouds 20 1013 91 0 5.51 156 09:18 09.07.2020
110 Clouds 20 1013 91 0 5.51 156 08:43 09.07.2020
111 Clouds 20 1013 91 0 5.37 156 08:24 09.07.2020
112 Clouds 20 1013 91 0 5.37 156 07:45 09.07.2020
113 Clouds 20 1014 91 0 5.43 155 07:22 09.07.2020
114 Clouds 20 1014 91 0 5.43 155 06:41 09.07.2020
115 Clouds 20 1013 90 0 5.67 159 06:19 09.07.2020
116 Clouds 20 1012 90 0 5.59 154 04:29 09.07.2020
117 Clouds 20 1012 90 0 5.59 158 03:25 09.07.2020
118 Clouds 20 1011 89 0 5.54 160 02:19 09.07.2020
119 Clouds 20 1011 89 0 5.54 160 01:32 09.07.2020
120 Clouds 21 1011 88 0 5.71 160 00:46 09.07.2020
121 Clouds 21 1011 87 0 5.6 157 00:23 09.07.2020
122 Clouds 21 1011 87 0 5.6 157 23:46 08.07.2020
123 Clouds 21 1012 85 0 5.3 154 23:27 08.07.2020
124 Clouds 21 1012 85 0 5.3 154 22:57 08.07.2020
125 Clouds 21 1012 85 0 5.3 154 22:38 08.07.2020
126 Clouds 21 1013 86 0 5.2 153 22:20 08.07.2020
127 Clouds 21 1013 86 0 5.2 153 21:57 08.07.2020
128 Clouds 21 1013 86 0 5.2 153 21:38 08.07.2020
129 Clouds 20 1013 86 0 4.99 156 21:20 08.07.2020
130 Clouds 20 1013 86 0 4.99 156 20:42 08.07.2020
131 Clouds 21 1014 85 0 5.19 161 20:24 08.07.2020
132 Clouds 21 1014 85 0 5.19 161 19:57 08.07.2020
133 Clouds 21 1014 85 0 5.19 161 19:38 08.07.2020
134 Clouds 21 1014 85 0 6.02 162 19:20 08.07.2020
135 Clouds 21 1014 85 0 6.02 162 18:42 08.07.2020
136 Clouds 20 1015 85 0 6.53 157 18:21 08.07.2020
137 Clouds 20 1015 85 0 6.53 157 17:58 08.07.2020
138 Clouds 20 1015 85 0 6.53 157 17:39 08.07.2020
139 Clouds 20 1015 86 0 6.63 153 17:20 08.07.2020
140 Clouds 20 1015 86 0 6.63 153 16:58 08.07.2020
141 Clouds 20 1015 86 0 6.63 153 16:38 08.07.2020
142 Clouds 20 1014 86 0 6.43 149 16:19 08.07.2020
143 Clouds 20 1014 86 0 6.43 149 15:58 08.07.2020
144 Clouds 20 1014 86 0 6.43 149 15:38 08.07.2020
145 Clouds 20 1014 86 0 6.43 149 15:38 08.07.2020
146 Clouds 20 1013 87 0 6.05 152 15:19 08.07.2020
147 Clouds 20 1013 87 0 6.05 152 15:19 08.07.2020
148 Clouds 20 1013 87 0 6.05 152 14:42 08.07.2020
149 Clouds 20 1012 88 0 6.05 150 14:23 08.07.2020
150 Clouds 20 1012 88 0 6.05 150 13:56 08.07.2020
151 Clouds 20 1012 88 0 6.05 150 13:37 08.07.2020
152 Clouds 20 1012 88 0 5.9 153 13:18 08.07.2020
153 Clouds 20 1012 88 0 5.9 153 12:40 08.07.2020
154 Clear 20 1012 89 0 5.96 153 12:20 08.07.2020
155 Clear 20 1012 89 0 5.96 153 12:20 08.07.2020
156 Clear 20 1012 89 0 5.96 153 11:40 08.07.2020
157 Clear 20 1013 88 0 5.39 151 11:21 08.07.2020
158 Clear 20 1013 88 0 5.39 151 11:00 08.07.2020
159 Clear 20 1013 88 0 5.39 151 10:41 08.07.2020
160 Clear 20 1013 88 0 4.85 146 10:23 08.07.2020
161 Clear 20 1013 88 0 4.85 146 09:45 08.07.2020
162 Clouds 20 1014 88 0 4.44 138 09:25 08.07.2020
163 Clear 20 1014 88 0 4.26 134 08:44 08.07.2020
164 Clouds 20 1014 88 0 4.36 125 08:25 08.07.2020
165 Clouds 20 1014 88 0 4.36 125 07:50 08.07.2020
166 Clouds 20 1015 88 0 4.94 123 07:25 08.07.2020
167 Clouds 20 1015 88 0 4.94 123 06:58 08.07.2020
168 Clouds 20 1015 88 0 4.94 123 06:39 08.07.2020
169 Clouds 20 1015 88 0 5 130 06:20 08.07.2020
170 Clouds 20 1015 88 0 5 130 05:44 08.07.2020
171 Clouds 20 1015 88 0 4.93 132 04:39 08.07.2020
172 Clouds 20 1013 87 0 5.13 135 03:25 08.07.2020
173 Clouds 20 1013 88 0 5.28 139 01:57 08.07.2020
174 Clouds 20 1013 88 0 5.28 139 01:37 08.07.2020
175 Clouds 20 1012 87 0 5.51 143 00:39 08.07.2020
176 Clouds 20 1012 87 0 5.98 145 00:19 08.07.2020
177 Clouds 20 1012 87 0 5.98 145 23:41 07.07.2020
178 Clouds 20 1012 87 0 6.39 149 23:20 07.07.2020
179 Clouds 20 1012 87 0 6.39 149 22:45 07.07.2020
180 Clouds 20 1013 87 0 6.56 152 22:24 07.07.2020
181 Clouds 20 1013 87 0 6.56 152 21:59 07.07.2020
182 Clouds 20 1013 87 0 6.56 152 21:41 07.07.2020
183 Clouds 20 1013 87 0 6.66 152 21:21 07.07.2020
184 Clouds 20 1014 86 0 6.57 152 20:58 07.07.2020
185 Clouds 20 1014 86 0 6.57 152 20:39 07.07.2020
186 Clouds 20 1014 86 0 6.57 152 20:39 07.07.2020
187 Clouds 20 1014 87 0 6.55 149 20:21 07.07.2020
188 Clouds 20 1014 87 0 6.55 149 19:43 07.07.2020
189 Clouds 20 1015 87 0 6.52 148 19:21 07.07.2020
190 Clouds 20 1015 87 0 6.52 148 18:59 07.07.2020
191 Clouds 20 1015 87 0 6.52 148 18:40 07.07.2020
192 Clouds 20 1015 87 0 6.49 147 18:22 07.07.2020
193 Clouds 20 1015 87 0 6.49 147 17:58 07.07.2020
194 Clouds 20 1015 87 0 6.49 147 17:39 07.07.2020
195 Clouds 20 1015 88 0 6.51 147 17:20 07.07.2020
196 Clouds 20 1015 88 0 6.51 147 16:43 07.07.2020
197 Clouds 20 1015 88 0 6.5 149 16:24 07.07.2020
198 Clouds 20 1015 88 0 6.5 149 15:58 07.07.2020
199 Clouds 20 1015 88 0 6.5 149 15:39 07.07.2020
200 Clouds 20 1014 88 0 6.2 152 15:20 07.07.2020
201 Clouds 20 1014 88 0 6.2 152 14:47 07.07.2020
202 Clouds 20 1014 89 0 5.87 155 14:26 07.07.2020
203 Clouds 20 1013 88 0 5.97 156 13:57 07.07.2020
204 Clouds 20 1013 88 0 5.97 156 13:38 07.07.2020
205 Clouds 20 1013 89 0 5.67 155 13:18 07.07.2020
206 Clouds 20 1013 89 0 5.67 155 12:40 07.07.2020
207 Clouds 20 1012 89 0 5.68 152 12:22 07.07.2020
208 Clouds 20 1012 89 0 5.68 152 12:22 07.07.2020
209 Clouds 20 1012 89 0 5.68 152 11:50 07.07.2020
210 Clouds 20 1012 89 0 5.68 151 11:26 07.07.2020
211 Clouds 20 1012 89 0 5.68 151 10:59 07.07.2020
212 Clouds 20 1012 89 0 5.68 151 10:41 07.07.2020
213 Clouds 20 1013 89 0 5.57 152 10:22 07.07.2020
214 Clouds 20 1013 89 0 5.57 152 09:56 07.07.2020
215 Clouds 20 1013 89 0 5.57 152 09:37 07.07.2020
216 Clouds 20 1014 90 0 5.48 150 09:18 07.07.2020
217 Clouds 20 1014 90 0 5.26 148 08:41 07.07.2020
218 Clouds 20 1015 90 0 5.03 143 08:22 07.07.2020
219 Clouds 20 1015 90 0 5.03 143 07:42 07.07.2020
220 Clouds 20 1015 90 0 4.69 142 07:22 07.07.2020
221 Clouds 20 1015 90 0 4.69 142 06:49 07.07.2020
222 Clouds 20 1014 91 0 4.42 140 06:28 07.07.2020
223 Clouds 20 1014 91 0 4.42 140 05:51 07.07.2020
224 Clouds 20 1014 91 0 4.76 148 05:20 07.07.2020
225 Clouds 20 1014 91 0 4.76 148 04:36 07.07.2020
226 Clouds 20 1013 90 0 4.62 150 03:35 07.07.2020
227 Clouds 21 1012 88 0 4.95 153 02:18 07.07.2020
228 Clouds 21 1011 87 0 5.85 155 01:21 07.07.2020
229 Clouds 21 1011 87 0 5.85 155 00:42 07.07.2020
230 Clouds 24 1010 73 10000 7.7 160 00:23 07.07.2020
231 Clouds 24 1010 73 10000 7.7 160 00:23 07.07.2020
232 Clouds 24 1010 73 10000 7.7 160 23:45 06.07.2020
233 Clouds 24 1010 73 10000 7.7 160 23:26 06.07.2020
234 Clouds 25 1011 69 10000 8.7 160 22:59 06.07.2020
235 Clouds 25 1011 69 10000 8.7 160 22:40 06.07.2020
236 Clouds 25 1011 69 10000 8.7 160 22:19 06.07.2020
237 Clouds 25 1012 69 10000 9.3 170 21:57 06.07.2020
238 Clouds 25 1012 69 10000 9.3 170 21:37 06.07.2020
239 Clouds 25 1012 69 10000 9.3 170 21:19 06.07.2020
240 Clouds 25 1012 69 10000 9.3 170 21:19 06.07.2020
241 Clouds 24 1012 78 10000 8.7 170 20:55 06.07.2020
242 Clouds 24 1012 78 10000 8.7 170 20:36 06.07.2020
243 Clouds 24 1012 78 10000 8.7 170 20:18 06.07.2020
244 Clouds 23 1012 83 10000 7.7 160 19:42 06.07.2020
245 Clouds 23 1012 83 10000 7.7 160 19:23 06.07.2020
246 Drizzle 24 1012 78 10000 7.7 180 18:59 06.07.2020
247 Drizzle 24 1012 78 10000 7.7 180 18:41 06.07.2020
248 Drizzle 24 1012 78 10000 7.7 180 18:41 06.07.2020
249 Drizzle 24 1012 78 10000 7.7 180 18:22 06.07.2020
250 Clouds 22 1013 83 10000 4.1 160 17:57 06.07.2020
251 Clouds 22 1013 83 10000 4.1 160 17:38 06.07.2020
252 Clouds 22 1013 83 10000 4.1 160 17:19 06.07.2020
253 Clouds 21 1015 88 0 6.27 158 16:43 06.07.2020
254 Clouds 21 1015 88 0 6.21 159 16:23 06.07.2020
255 Clouds 21 1015 88 0 6.21 159 15:55 06.07.2020
256 Clouds 21 1015 88 0 6.21 159 15:37 06.07.2020
257 Clouds 21 1015 88 0 6.21 159 15:37 06.07.2020
258 Clouds 20 1014 88 0 6.16 163 15:18 06.07.2020
259 Clouds 20 1014 88 0 6.16 163 14:40 06.07.2020
260 Clouds 20 1014 89 0 5.62 163 14:22 06.07.2020
261 Clouds 20 1014 89 0 5.62 163 13:59 06.07.2020
262 Clouds 20 1014 89 0 5.62 163 13:40 06.07.2020
263 Clouds 20 1013 89 0 5.37 161 13:20 06.07.2020
264 Clouds 20 1013 89 0 5.37 161 12:43 06.07.2020
265 Clouds 20 1013 90 0 4.98 160 12:20 06.07.2020
266 Clouds 20 1013 90 0 4.98 160 11:58 06.07.2020
267 Clouds 20 1013 90 0 4.98 160 11:39 06.07.2020
268 Clouds 20 1013 89 0 4.82 162 11:21 06.07.2020
269 Clouds 20 1013 89 0 4.82 162 10:57 06.07.2020
270 Clouds 20 1013 89 0 4.82 162 10:39 06.07.2020
271 Clouds 20 1014 90 0 5.2 169 10:18 06.07.2020
272 Clouds 20 1014 90 0 5.2 169 09:42 06.07.2020
273 Clouds 20 1014 90 0 4.9 169 09:22 06.07.2020
274 Clouds 20 1014 89 0 4.5 163 08:58 06.07.2020
275 Clouds 20 1014 89 0 4.5 163 08:38 06.07.2020
276 Clouds 20 1015 89 0 4.22 163 08:20 06.07.2020
277 Clouds 20 1015 89 0 4.22 163 07:46 06.07.2020
278 Clouds 21 1015 89 0 3.9 160 07:24 06.07.2020
279 Clouds 21 1015 89 0 3.9 160 06:42 06.07.2020
280 Clouds 21 1015 89 0 3.9 160 06:42 06.07.2020
281 Clouds 21 1015 89 0 3.94 161 06:23 06.07.2020
282 Clouds 21 1015 89 0 3.94 161 05:41 06.07.2020
283 Clouds 21 1014 89 0 4.42 162 04:55 06.07.2020
284 Clouds 21 1013 89 0 4.33 163 03:42 06.07.2020
285 Clouds 21 1013 87 0 4.86 168 02:23 06.07.2020
286 Clouds 21 1013 87 0 4.86 168 01:34 06.07.2020
287 Clouds 24 1009 73 10000 6.7 180 00:38 06.07.2020
288 Clouds 24 1009 73 10000 6.7 180 00:19 06.07.2020
289 Clouds 24 1009 73 10000 6.7 180 23:42 05.07.2020
290 Clouds 24 1009 73 10000 6.7 180 23:23 05.07.2020
291 Clouds 24 1010 78 10000 6.7 160 22:59 05.07.2020
292 Clouds 24 1010 78 10000 6.7 160 22:40 05.07.2020
293 Clouds 24 1010 78 10000 6.7 160 22:20 05.07.2020
294 Clouds 24 1011 73 10000 7.2 180 21:57 05.07.2020
295 Clouds 24 1011 73 10000 7.2 180 21:38 05.07.2020
296 Clouds 24 1011 73 10000 7.2 180 21:18 05.07.2020
297 Clouds 24 1011 73 10000 7.2 180 21:18 05.07.2020
298 Clouds 25 1011 69 10000 8.7 160 20:57 05.07.2020
299 Clouds 25 1011 69 10000 8.7 160 20:38 05.07.2020
300 Clouds 25 1011 69 10000 8.7 160 20:20 05.07.2020
301 Clouds 24 1012 73 10000 8.2 170 19:43 05.07.2020
302 Clouds 24 1012 73 10000 8.2 170 19:43 05.07.2020
303 Clouds 24 1012 73 10000 8.2 170 19:21 05.07.2020
304 Clouds 23 1012 78 10000 5.7 140 18:56 05.07.2020
305 Clouds 23 1012 78 10000 5.7 140 18:38 05.07.2020
306 Clouds 23 1012 78 10000 5.7 140 18:37 05.07.2020
307 Clouds 22 1012 88 10000 5.1 160 18:19 05.07.2020
308 Clouds 22 1012 88 10000 5.1 160 17:43 05.07.2020
309 Clouds 22 1012 88 10000 5.1 160 17:20 05.07.2020
310 Clouds 21 1014 86 0 6.25 168 16:59 05.07.2020
311 Clouds 21 1014 86 0 6.25 168 16:40 05.07.2020
312 Clouds 21 1014 86 0 6.16 163 16:21 05.07.2020
313 Clouds 21 1014 86 0 6.16 163 15:41 05.07.2020
314 Clouds 21 1013 85 0 6.33 164 15:20 05.07.2020
315 Clouds 21 1013 85 0 6.33 164 14:56 05.07.2020
316 Clouds 21 1013 85 0 6.33 164 14:38 05.07.2020
317 Clouds 21 1012 85 0 6.02 168 14:20 05.07.2020
318 Clouds 21 1013 84 0 5.45 170 13:41 05.07.2020
319 Clouds 21 1012 84 0 5.28 167 13:23 05.07.2020
320 Clouds 21 1012 84 0 5.28 167 13:23 05.07.2020
321 Clouds 21 1012 84 0 5.28 167 12:46 05.07.2020
322 Clouds 21 1012 86 0 5.11 163 12:21 05.07.2020
323 Clouds 21 1012 86 0 5.11 163 11:56 05.07.2020
324 Clouds 21 1012 86 0 5.11 163 11:38 05.07.2020
325 Clouds 21 1012 87 0 4.86 155 11:19 05.07.2020
326 Clouds 21 1012 87 0 4.86 155 10:55 05.07.2020
327 Clouds 21 1012 87 0 4.86 155 10:36 05.07.2020
328 Clouds 21 1012 87 0 5.27 156 10:18 05.07.2020
329 Clouds 21 1012 87 0 5.27 156 09:41 05.07.2020
330 Clouds 21 1013 87 0 5.26 156 09:20 05.07.2020
331 Clouds 21 1013 87 0 5.26 156 08:57 05.07.2020
332 Clouds 21 1013 87 0 5.26 156 08:38 05.07.2020
333 Clouds 21 1014 87 0 5.35 156 08:18 05.07.2020
334 Clouds 21 1014 87 0 5.35 156 07:39 05.07.2020
335 Clouds 21 1014 87 0 5.52 160 07:21 05.07.2020
336 Clouds 21 1014 87 0 5.52 160 06:30 05.07.2020
337 Clouds 21 1013 88 0 5.2 166 04:24 05.07.2020
338 Clouds 21 1012 87 0 4.85 165 02:59 05.07.2020
339 Clouds 21 1012 87 0 4.85 165 02:37 05.07.2020
340 Clouds 21 1012 86 0 5.14 167 01:44 05.07.2020
341 Clouds 21 1011 84 0 5.76 173 01:26 05.07.2020
342 Clouds 21 1011 84 0 5.76 173 00:50 05.07.2020
343 Clouds 24 1010 73 10000 7.2 170 00:28 05.07.2020
344 Clouds 24 1010 73 10000 7.2 170 23:55 04.07.2020
345 Clouds 24 1010 73 10000 7.2 170 23:32 04.07.2020
346 Clouds 24 1009 73 10000 8.7 170 22:59 04.07.2020
347 Clouds 24 1009 73 10000 8.7 170 22:40 04.07.2020
348 Clouds 24 1009 73 10000 8.7 170 22:22 04.07.2020
349 Clouds 24 1011 73 10000 7.2 160 21:56 04.07.2020
350 Clouds 24 1011 73 10000 7.2 160 21:38 04.07.2020
351 Clouds 24 1011 73 10000 7.2 160 21:20 04.07.2020
352 Clouds 25 1012 69 10000 6.7 160 20:41 04.07.2020
353 Clouds 25 1012 69 10000 6.7 160 20:20 04.07.2020
354 Clouds 24 1013 73 10000 7.2 150 19:55 04.07.2020
355 Clouds 24 1013 73 10000 7.2 150 19:37 04.07.2020
356 Clouds 24 1013 78 10000 7.2 160 19:19 04.07.2020
357 Clouds 24 1013 78 10000 7.2 160 18:42 04.07.2020
358 Clouds 23 1012 83 10000 6.7 170 18:22 04.07.2020
359 Clouds 23 1012 83 10000 6.7 170 17:45 04.07.2020
360 Clouds 23 1012 83 10000 6.7 170 17:26 04.07.2020
361 Clouds 21 1015 84 0 6.18 177 16:59 04.07.2020
362 Clouds 21 1015 84 0 6.18 177 16:59 04.07.2020
363 Clouds 21 1015 84 0 6.18 177 16:39 04.07.2020
364 Clouds 21 1014 85 0 5.86 173 16:21 04.07.2020
365 Clouds 21 1014 85 0 5.86 173 15:57 04.07.2020
366 Clouds 21 1014 85 0 5.86 173 15:38 04.07.2020
367 Clouds 21 1014 86 0 5.55 168 15:20 04.07.2020
368 Clouds 21 1014 86 0 5.55 168 14:55 04.07.2020
369 Clouds 21 1014 86 0 5.55 168 14:36 04.07.2020
370 Clouds 21 1014 86 0 5.55 168 14:36 04.07.2020
371 Clouds 21 1013 88 0 5.33 161 14:18 04.07.2020
372 Clouds 21 1013 88 0 5.33 161 14:18 04.07.2020
373 Clouds 21 1013 88 0 5.33 161 13:41 04.07.2020
374 Clouds 21 1013 88 0 5.38 158 13:18 04.07.2020
375 Clouds 21 1013 88 0 5.38 158 12:43 04.07.2020
376 Clouds 21 1013 88 0 5.33 156 12:22 04.07.2020
377 Clouds 21 1013 88 0 5.33 156 11:57 04.07.2020
378 Clouds 21 1013 88 0 5.33 156 11:38 04.07.2020
379 Clouds 21 1013 87 0 5.11 153 11:19 04.07.2020
380 Clouds 21 1013 87 0 5.11 153 10:42 04.07.2020
381 Clouds 21 1013 87 0 5.04 151 10:22 04.07.2020
382 Clouds 21 1013 87 0 5.04 151 09:59 04.07.2020
383 Clouds 21 1013 87 0 5.04 151 09:40 04.07.2020
384 Clouds 21 1014 88 0 5.19 151 09:20 04.07.2020
385 Clouds 21 1014 88 0 5.36 153 08:48 04.07.2020
386 Clouds 21 1014 88 0 5.36 153 08:30 04.07.2020
387 Clouds 21 1014 88 0 5.36 153 08:30 04.07.2020
388 Clouds 21 1014 88 0 5.44 154 07:50 04.07.2020
389 Clouds 21 1014 88 0 5.44 154 07:31 04.07.2020
390 Clouds 21 1015 88 0 5.5 157 06:56 04.07.2020
391 Clouds 21 1014 89 0 5.78 158 06:23 04.07.2020
392 Clouds 21 1014 89 0 5.78 158 05:36 04.07.2020
393 Clouds 21 1014 88 0 5.69 156 04:50 04.07.2020
394 Clouds 21 1012 89 0 5.45 155 03:18 04.07.2020
395 Clouds 21 1011 88 0 5.59 152 02:26 04.07.2020
396 Clouds 21 1011 88 0 5.59 152 01:32 04.07.2020
397 Clouds 21 1011 88 0 5.56 154 00:44 04.07.2020
398 Clouds 24 1009 73 10000 7.2 140 00:24 04.07.2020
399 Clouds 24 1009 73 10000 7.2 140 23:40 03.07.2020
400 Clouds 24 1009 73 10000 7.2 140 23:19 03.07.2020
401 Clouds 25 1009 69 10000 6.7 140 22:58 03.07.2020
402 Clouds 25 1009 69 10000 6.7 140 22:39 03.07.2020
403 Clouds 25 1009 69 10000 6.7 140 22:20 03.07.2020
404 Clouds 24 1011 78 10000 7.2 170 21:41 03.07.2020
405 Clouds 24 1011 78 10000 7.2 170 21:20 03.07.2020
406 Clouds 24 1011 78 10000 7.7 160 20:55 03.07.2020
407 Clouds 24 1011 78 10000 7.7 160 20:55 03.07.2020
408 Clouds 24 1011 78 10000 7.7 160 20:37 03.07.2020
409 Clouds 24 1011 78 10000 7.7 160 20:19 03.07.2020
410 Clouds 22 1013 85 0 5.92 164 19:41 03.07.2020
411 Clouds 24 1012 73 10000 6.2 150 19:20 03.07.2020
412 Clouds 24 1012 73 10000 6.2 150 18:56 03.07.2020
413 Clouds 24 1012 73 10000 6.2 150 18:38 03.07.2020
414 Clouds 22 1012 83 10000 4.6 160 18:19 03.07.2020
415 Clouds 22 1012 83 10000 4.6 160 17:42 03.07.2020
416 Clouds 22 1012 83 10000 4.6 160 17:22 03.07.2020
417 Clouds 21 1015 87 0 5.37 164 16:46 03.07.2020
418 Clouds 21 1014 87 0 5.16 164 16:27 03.07.2020
419 Clouds 21 1014 87 0 5.16 164 15:48 03.07.2020
420 Clouds 21 1013 87 0 4.79 166 15:25 03.07.2020
421 Clouds 21 1013 87 0 4.79 166 14:58 03.07.2020
422 Clouds 21 1013 87 0 4.95 163 14:40 03.07.2020
423 Clouds 21 1013 88 0 4.25 164 14:21 03.07.2020
424 Clouds 21 1013 88 0 4.44 162 13:48 03.07.2020
425 Clouds 21 1012 88 0 4.11 161 13:29 03.07.2020
426 Clouds 21 1012 88 0 4.11 161 12:57 03.07.2020
427 Clouds 21 1012 88 0 4.11 161 12:39 03.07.2020
428 Clouds 21 1012 89 0 4.02 162 12:20 03.07.2020
429 Clouds 21 1012 89 0 4.02 162 11:43 03.07.2020
430 Clouds 21 1012 88 0 3.77 160 11:25 03.07.2020
431 Clouds 21 1012 88 0 3.77 160 10:58 03.07.2020
432 Clouds 21 1012 88 0 3.77 160 10:39 03.07.2020
433 Clouds 21 1012 88 0 3.42 154 10:20 03.07.2020
434 Clouds 21 1012 88 0 3.42 154 09:55 03.07.2020
435 Clouds 21 1012 88 0 3.42 154 09:37 03.07.2020
436 Clouds 21 1013 88 0 3.18 146 09:18 03.07.2020
437 Clouds 21 1013 88 0 3.18 146 08:40 03.07.2020
438 Clouds 21 1013 88 0 3.29 148 08:19 03.07.2020
439 Clouds 21 1013 88 0 3.29 148 07:48 03.07.2020
440 Clouds 21 1014 88 0 3.43 152 07:26 03.07.2020
441 Clouds 21 1014 88 0 3.43 152 06:49 03.07.2020
442 Clouds 21 1014 89 0 3.59 156 06:19 03.07.2020
443 Clouds 21 1014 88 0 3.99 159 04:53 03.07.2020
444 Clouds 21 1012 87 0 4.49 157 03:28 03.07.2020
445 Clouds 21 1012 87 0 4.49 157 02:47 03.07.2020
446 Clouds 21 1011 86 0 4.7 162 02:25 03.07.2020
447 Clouds 22 1011 86 0 4.67 162 01:28 03.07.2020
448 Clouds 22 1011 86 0 4.67 162 00:44 03.07.2020
449 Clouds 23 1010 83 10000 7.2 150 00:26 03.07.2020
450 Clouds 23 1010 83 10000 7.2 150 23:44 02.07.2020
451 Clouds 23 1010 83 10000 7.2 150 23:20 02.07.2020
452 Rain 24 1010 78 10000 5.1 170 22:57 02.07.2020
453 Rain 24 1010 78 10000 5.1 170 22:39 02.07.2020
454 Rain 24 1010 78 10000 5.1 170 22:20 02.07.2020
455 Drizzle 23 1011 83 8000 6.2 180 21:55 02.07.2020
456 Drizzle 23 1011 83 8000 6.2 180 21:36 02.07.2020
457 Drizzle 23 1011 83 8000 6.2 180 21:18 02.07.2020
458 Clouds 24 1012 78 10000 6.7 180 20:42 02.07.2020
459 Clouds 24 1012 78 10000 6.7 180 20:21 02.07.2020
460 Clouds 23 1012 83 10000 7.2 160 19:59 02.07.2020
461 Clouds 23 1012 83 10000 7.2 160 19:38 02.07.2020
462 Clouds 23 1012 83 10000 7.2 160 19:20 02.07.2020
463 Clouds 23 1012 83 10000 6.7 170 18:57 02.07.2020
464 Clouds 23 1012 83 10000 6.7 170 18:38 02.07.2020
465 Clouds 23 1012 83 10000 6.7 170 18:20 02.07.2020
466 Clouds 22 1012 83 10000 4.6 170 17:40 02.07.2020
467 Clouds 22 1012 83 10000 4.6 170 17:20 02.07.2020
468 Clouds 22 1014 86 0 5.84 158 16:56 02.07.2020
469 Clouds 22 1014 86 0 5.84 158 16:38 02.07.2020
470 Clouds 21 1014 86 0 5.7 157 16:19 02.07.2020
471 Clouds 21 1014 86 0 5.7 157 15:54 02.07.2020
472 Clouds 21 1014 86 0 5.7 157 15:36 02.07.2020
473 Clouds 21 1013 87 0 5.38 157 15:18 02.07.2020
474 Clouds 21 1013 87 0 5.38 157 14:42 02.07.2020
475 Clouds 21 1012 86 0 5.17 157 14:19 02.07.2020
476 Clouds 21 1012 87 0 5.15 158 14:19 02.07.2020
477 Clouds 21 1012 86 0 5.17 157 13:54 02.07.2020
478 Clouds 21 1012 86 0 5.17 157 13:36 02.07.2020
479 Clouds 21 1012 86 0 5.16 156 13:18 02.07.2020
480 Clouds 21 1012 86 0 5.16 156 12:39 02.07.2020
481 Clouds 21 1012 86 0 5.21 157 12:21 02.07.2020
482 Clouds 21 1012 86 0 5.21 157 11:44 02.07.2020
483 Clouds 21 1012 86 0 5.1 157 11:26 02.07.2020
484 Clouds 21 1012 86 0 5.1 157 10:56 02.07.2020
485 Clouds 21 1012 86 0 5.1 157 10:37 02.07.2020
486 Clouds 21 1012 86 0 5.16 155 10:19 02.07.2020
487 Clouds 21 1012 86 0 5.16 155 09:42 02.07.2020
488 Clouds 21 1013 85 0 5.21 154 09:21 02.07.2020
489 Clouds 21 1013 86 0 5.33 153 08:57 02.07.2020
490 Clouds 21 1013 86 0 5.33 153 08:38 02.07.2020
491 Clouds 22 1014 85 0 5.38 155 08:18 02.07.2020
492 Clouds 22 1014 85 0 5.38 155 07:41 02.07.2020
493 Clouds 22 1014 84 0 5.03 159 07:20 02.07.2020
494 Clouds 22 1014 84 0 5.03 159 06:41 02.07.2020
495 Clouds 22 1014 83 0 4.95 163 06:20 02.07.2020
496 Clouds 22 1014 83 0 4.95 163 05:46 02.07.2020
497 Clouds 22 1013 83 0 4.96 164 04:40 02.07.2020
498 Clouds 22 1013 83 0 4.91 162 03:33 02.07.2020
499 Clouds 22 1011 83 0 5.41 162 01:44 02.07.2020
500 Clouds 24 1009 73 10000 6.7 160 00:26 02.07.2020
501 Clouds 24 1009 73 10000 6.7 160 23:51 01.07.2020
502 Clouds 24 1009 73 10000 6.7 160 23:31 01.07.2020
503 Rain 24 1009 73 10000 6.2 160 22:57 01.07.2020
504 Rain 24 1009 73 10000 6.2 160 22:38 01.07.2020
505 Rain 24 1009 73 10000 6.2 160 22:20 01.07.2020
506 Clouds 24 1010 73 10000 8.7 170 21:59 01.07.2020
507 Clouds 24 1010 73 10000 8.7 170 21:59 01.07.2020
508 Clouds 24 1010 73 10000 8.7 170 21:41 01.07.2020
509 Clouds 24 1010 73 10000 8.7 170 21:22 01.07.2020
510 Clouds 24 1011 73 10000 7.2 180 20:59 01.07.2020
511 Clouds 24 1011 73 10000 7.2 180 20:41 01.07.2020
512 Clouds 24 1011 73 10000 7.2 180 20:23 01.07.2020
513 Clouds 23 1011 78 10000 5.7 150 19:55 01.07.2020
514 Clouds 23 1011 78 10000 5.7 150 19:37 01.07.2020
515 Clouds 23 1011 78 10000 5.7 150 19:18 01.07.2020
516 Clouds 23 1012 78 10000 7.2 170 18:42 01.07.2020
517 Clouds 23 1012 78 10000 7.2 170 18:21 01.07.2020
518 Clouds 22 1012 83 10000 5.1 180 17:58 01.07.2020
519 Clouds 22 1012 83 10000 5.1 180 17:38 01.07.2020
520 Clouds 22 1012 83 10000 5.1 180 17:19 01.07.2020
521 Clouds 22 1012 83 10000 5.1 180 17:19 01.07.2020
522 Clouds 22 1014 83 0 5.23 167 16:46 01.07.2020
523 Clouds 22 1013 84 0 5.38 168 16:26 01.07.2020
524 Clouds 22 1013 84 0 5.38 168 15:55 01.07.2020
525 Clouds 22 1013 84 0 5.38 168 15:37 01.07.2020
526 Clouds 22 1012 84 0 5.21 166 15:18 01.07.2020
527 Clouds 22 1012 84 0 5.21 166 14:42 01.07.2020
528 Clouds 22 1012 84 0 5.54 168 14:21 01.07.2020
529 Clouds 22 1012 84 0 5.54 168 13:57 01.07.2020
530 Clouds 22 1012 84 0 5.54 168 13:38 01.07.2020
531 Clouds 22 1012 85 0 5.34 165 13:20 01.07.2020
532 Clouds 22 1012 85 0 5.34 165 12:56 01.07.2020
533 Clouds 22 1012 85 0 5.34 165 12:38 01.07.2020
534 Clouds 22 1012 84 0 4.99 162 12:19 01.07.2020
535 Clouds 22 1012 84 0 4.99 162 11:40 01.07.2020
536 Clouds 22 1012 84 0 4.84 165 11:21 01.07.2020
537 Clouds 22 1012 84 0 4.84 165 10:57 01.07.2020
538 Clouds 22 1012 84 0 4.84 165 10:39 01.07.2020
539 Clouds 22 1012 84 0 4.89 168 10:20 01.07.2020
540 Clouds 22 1012 84 0 4.89 168 09:40 01.07.2020
541 Clouds 22 1013 84 0 4.82 168 09:20 01.07.2020
542 Clouds 22 1013 84 0 4.82 168 08:59 01.07.2020
543 Clouds 22 1013 84 0 4.82 168 08:40 01.07.2020
544 Clouds 22 1013 84 0 4.68 166 08:20 01.07.2020
545 Clouds 22 1013 84 0 4.68 166 07:43 01.07.2020
546 Clouds 22 1013 84 0 4.57 163 07:25 01.07.2020
547 Clouds 22 1013 84 0 4.57 163 06:57 01.07.2020
548 Clouds 22 1013 84 0 4.57 163 06:38 01.07.2020
549 Clouds 22 1013 84 0 5.02 168 06:20 01.07.2020
550 Clouds 22 1013 85 0 5.35 170 04:30 01.07.2020
551 Clouds 22 1013 86 0 5.6 170 03:42 01.07.2020
552 Clouds 22 1012 86 0 5.65 169 03:22 01.07.2020
553 Clouds 23 1009 83 10000 7.7 170 02:19 01.07.2020
554 Clouds 24 1009 73 10000 9.3 160 00:49 01.07.2020
555 Clouds 24 1009 73 10000 9.3 160 00:29 01.07.2020
556 Clouds 24 1009 78 10000 8.7 160 00:00 01.07.2020
557 Clouds 24 1009 78 10000 8.7 160 23:39 30.06.2020
558 Clouds 24 1009 78 10000 8.7 160 23:19 30.06.2020
559 Drizzle 22 1010 88 8000 8.2 170 22:42 30.06.2020
560 Drizzle 22 1010 88 8000 8.2 170 22:19 30.06.2020
561 Clouds 25 1011 73 10000 8.2 180 21:43 30.06.2020
562 Clouds 25 1011 73 10000 8.2 180 21:20 30.06.2020
563 Clouds 25 1011 73 10000 8.7 170 20:59 30.06.2020
564 Clouds 25 1011 73 10000 8.7 170 20:41 30.06.2020
565 Clouds 25 1011 73 10000 8.7 170 20:20 30.06.2020
566 Clouds 25 1012 73 10000 7.2 150 19:44 30.06.2020
567 Clouds 25 1012 73 10000 7.2 150 19:21 30.06.2020
568 Clouds 25 1012 73 10000 7.2 150 19:21 30.06.2020
569 Clouds 25 1012 73 10000 7.2 150 19:21 30.06.2020
570 Rain 23 1013 88 10000 6.7 170 18:57 30.06.2020
571 Rain 23 1013 88 10000 6.7 170 18:38 30.06.2020
572 Rain 23 1013 88 10000 6.7 170 18:20 30.06.2020
573 Rain 22 1013 88 10000 5.1 160 17:39 30.06.2020
574 Rain 22 1013 88 10000 5.1 160 17:20 30.06.2020
575 Clouds 22 1014 85 0 6.73 165 16:56 30.06.2020
576 Clouds 22 1014 85 0 6.73 165 16:37 30.06.2020
577 Clouds 22 1014 85 0 6.78 165 16:19 30.06.2020
578 Clouds 22 1014 85 0 6.78 165 15:42 30.06.2020
579 Clouds 22 1013 85 0 6.59 167 15:22 30.06.2020
580 Clouds 22 1013 85 0 6.59 167 14:58 30.06.2020
581 Clouds 22 1013 85 0 6.59 167 14:40 30.06.2020
582 Clouds 22 1012 84 0 6.18 170 14:18 30.06.2020
583 Clouds 22 1013 84 0 6.17 170 13:42 30.06.2020
584 Clouds 22 1012 83 0 6.14 170 13:21 30.06.2020
585 Clouds 22 1012 83 0 6.14 170 12:59 30.06.2020
586 Clouds 22 1012 83 0 6.14 170 12:40 30.06.2020
587 Clouds 22 1012 83 0 5.75 169 12:21 30.06.2020
588 Clouds 22 1012 83 0 5.75 169 11:58 30.06.2020
589 Clouds 22 1012 83 0 5.75 169 11:39 30.06.2020
590 Clouds 21 1012 84 0 5.58 169 11:19 30.06.2020
591 Clouds 21 1012 84 0 5.58 169 10:58 30.06.2020
592 Clouds 21 1012 84 0 5.58 169 10:58 30.06.2020
593 Clouds 22 1013 82 0 5.03 176 16:40 28.06.2020
594 Clouds 22 1013 82 0 4.98 178 16:22 28.06.2020
595 Clouds 22 1013 82 0 4.98 178 15:56 28.06.2020
596 Clouds 22 1013 82 0 4.98 178 15:38 28.06.2020
597 Clouds 22 1012 83 0 4.9 174 15:18 28.06.2020
598 Clouds 22 1012 83 0 4.9 174 14:44 28.06.2020
599 Clouds 21 1012 83 0 4.74 170 14:25 28.06.2020
600 Clouds 21 1012 83 0 4.74 170 13:57 28.06.2020
601 Clouds 21 1012 83 0 4.74 170 13:37 28.06.2020
602 Clouds 21 1011 82 0 4.81 172 13:18 28.06.2020
603 Clouds 21 1011 82 0 4.81 172 12:55 28.06.2020
604 Clouds 21 1011 82 0 4.81 172 12:37 28.06.2020
605 Clouds 21 1011 83 0 4.99 178 12:18 28.06.2020
606 Clouds 21 1011 83 0 4.99 178 11:55 28.06.2020
607 Clouds 21 1011 83 0 4.99 178 11:37 28.06.2020
608 Clouds 21 1011 83 0 4.99 178 11:37 28.06.2020
609 Clouds 21 1011 83 0 4.69 183 11:19 28.06.2020
610 Clouds 21 1011 83 0 4.69 183 10:41 28.06.2020
611 Clouds 21 1011 83 0 4.16 181 10:23 28.06.2020
612 Clouds 21 1011 83 0 4.16 181 09:43 28.06.2020
613 Clouds 21 1012 83 0 3.62 178 09:23 28.06.2020
614 Clouds 21 1012 83 0 3.62 178 09:23 28.06.2020
615 Clouds 21 1012 83 0 3.62 178 08:57 28.06.2020
616 Clouds 21 1012 83 0 3.62 178 08:39 28.06.2020
617 Clouds 22 1013 83 0 3.43 177 08:20 28.06.2020
618 Clouds 22 1013 83 0 3.43 177 07:37 28.06.2020
619 Clouds 22 1013 83 0 3.61 176 06:57 28.06.2020
620 Clouds 22 1013 83 0 3.61 176 06:32 28.06.2020
621 Clouds 22 1013 84 0 4.21 173 05:50 28.06.2020
622 Clouds 21 1012 86 0 4.75 173 04:27 28.06.2020
623 Clouds 22 1011 86 0 4.91 171 02:58 28.06.2020
624 Clouds 21 1011 85 0 5.04 172 02:21 28.06.2020
625 Clouds 21 1011 85 0 5.04 172 01:30 28.06.2020
626 Clouds 21 1010 85 0 4.79 169 00:56 28.06.2020
627 Clouds 24 1008 73 10000 8.2 170 00:30 28.06.2020
628 Clouds 24 1008 73 10000 8.2 170 23:58 27.06.2020
629 Clouds 24 1008 73 10000 8.2 170 23:39 27.06.2020
630 Clouds 24 1008 73 10000 8.2 170 23:19 27.06.2020
631 Clouds 25 1008 69 10000 9.3 160 22:42 27.06.2020
632 Clouds 25 1008 69 10000 9.3 160 22:23 27.06.2020
633 Clouds 25 1008 69 10000 9.3 160 22:23 27.06.2020
634 Clouds 25 1009 69 10000 10.3 170 21:58 27.06.2020
635 Clouds 25 1009 69 10000 10.3 170 21:40 27.06.2020
636 Clouds 25 1009 69 10000 10.3 170 21:20 27.06.2020
637 Clouds 25 1009 69 10000 10.3 170 21:20 27.06.2020
638 Clouds 25 1009 73 10000 10.8 160 20:46 27.06.2020
639 Clouds 25 1009 73 10000 10.8 160 20:20 27.06.2020
640 Clouds 25 1010 73 10000 9.8 160 20:00 27.06.2020
641 Clouds 25 1010 73 10000 9.8 160 19:37 27.06.2020
642 Clouds 25 1010 73 10000 9.8 160 19:19 27.06.2020
643 Clouds 24 1011 78 10000 7.2 160 18:48 27.06.2020
644 Clouds 24 1011 78 10000 7.2 160 18:28 27.06.2020
645 Clouds 24 1011 78 10000 6.7 150 17:59 27.06.2020
646 Clouds 24 1011 78 10000 6.7 150 17:59 27.06.2020
647 Clouds 24 1011 78 10000 6.7 150 17:40 27.06.2020
648 Clouds 24 1011 78 10000 6.7 150 17:20 27.06.2020
649 Clouds 22 1013 83 0 5.61 159 16:56 27.06.2020
650 Clouds 22 1013 83 0 5.61 159 16:38 27.06.2020
651 Clouds 22 1013 83 0 5.61 159 16:38 27.06.2020
652 Clouds 21 1013 84 0 5.77 157 16:18 27.06.2020
653 Clouds 21 1013 84 0 5.77 157 15:42 27.06.2020
654 Clouds 21 1012 84 0 6.22 156 15:22 27.06.2020
655 Clouds 21 1012 84 0 6.22 156 14:43 27.06.2020
656 Clouds 21 1012 85 0 6.11 156 14:25 27.06.2020
657 Clouds 21 1012 85 0 6.11 156 13:59 27.06.2020
658 Clouds 21 1012 85 0 6.11 156 13:38 27.06.2020
659 Clouds 21 1012 85 0 6.01 157 13:20 27.06.2020
660 Clouds 21 1012 85 0 6.01 157 12:58 27.06.2020
661 Clouds 21 1012 85 0 6.01 157 12:39 27.06.2020
662 Clouds 21 1011 85 0 5.59 158 12:21 27.06.2020
663 Clouds 21 1011 85 0 5.59 158 11:55 27.06.2020
664 Clouds 21 1011 85 0 5.59 158 11:36 27.06.2020
665 Clouds 21 1012 84 0 5.2 161 11:18 27.06.2020
666 Clouds 21 1012 84 0 5.2 161 11:18 27.06.2020
667 Clouds 21 1012 84 0 5.2 161 10:38 27.06.2020
668 Clouds 21 1012 84 0 5.01 163 10:19 27.06.2020
669 Clouds 21 1012 84 0 5.01 163 09:41 27.06.2020
670 Clouds 21 1013 85 0 4.65 164 09:22 27.06.2020
671 Clouds 21 1013 85 0 4.65 164 08:58 27.06.2020
672 Clouds 21 1013 85 0 4.65 164 08:39 27.06.2020
673 Clouds 21 1014 85 0 4.89 166 08:20 27.06.2020
674 Clouds 21 1014 85 0 4.89 166 07:42 27.06.2020
675 Clouds 21 1014 85 0 4.89 166 07:42 27.06.2020
676 Clouds 21 1014 84 0 5.15 166 07:24 27.06.2020
677 Clouds 21 1014 84 0 5.15 166 06:38 27.06.2020
678 Clouds 21 1014 84 0 5.28 163 06:20 27.06.2020
679 Clouds 21 1013 85 0 5.6 162 04:23 27.06.2020
680 Clouds 21 1013 85 0 5.6 162 03:52 27.06.2020
681 Clouds 21 1012 84 0 5.4 161 02:49 27.06.2020
682 Clouds 21 1012 84 0 5.4 161 02:30 27.06.2020
683 Clouds 22 1012 85 0 4.92 154 01:42 27.06.2020
684 Clouds 22 1011 85 0 5.07 160 00:56 27.06.2020
685 Clouds 25 1009 69 10000 8.2 140 00:28 27.06.2020
686 Clouds 25 1009 69 10000 8.2 140 23:41 26.06.2020
687 Clouds 25 1009 69 10000 8.2 140 23:22 26.06.2020
688 Clouds 25 1010 73 10000 7.2 180 22:56 26.06.2020
689 Clouds 25 1010 73 10000 7.2 180 22:37 26.06.2020
690 Clouds 25 1010 73 10000 7.2 180 22:19 26.06.2020
691 Clouds 25 1011 73 10000 7.7 150 21:57 26.06.2020
692 Clouds 25 1011 73 10000 7.7 150 21:37 26.06.2020
693 Clouds 25 1011 73 10000 7.7 150 21:18 26.06.2020
694 Clouds 25 1011 73 10000 8.2 170 20:42 26.06.2020
695 Clouds 25 1011 73 10000 8.2 170 20:19 26.06.2020
696 Clouds 25 1011 73 10000 8.7 170 19:42 26.06.2020
697 Clouds 25 1011 73 10000 8.7 170 19:23 26.06.2020
698 Clouds 25 1012 73 10000 6.7 160 18:54 26.06.2020
699 Clouds 25 1012 73 10000 6.7 160 18:36 26.06.2020
700 Clouds 25 1012 73 10000 6.7 160 18:18 26.06.2020
701 Clouds 24 1011 78 10000 7.2 170 17:43 26.06.2020
702 Clouds 24 1011 78 10000 7.2 170 17:23 26.06.2020
703 Clouds 22 1011 88 10000 7.2 160 16:47 26.06.2020
704 Clouds 22 1011 88 10000 7.2 160 16:25 26.06.2020
705 Clouds 21 1013 87 0 5.07 157 15:54 26.06.2020
706 Clouds 21 1013 87 0 5.07 157 15:36 26.06.2020
707 Clouds 21 1013 88 0 5.12 163 15:18 26.06.2020
708 Clouds 21 1013 88 0 5.12 163 14:40 26.06.2020
709 Clouds 21 1013 89 0 4.7 165 14:22 26.06.2020
710 Clouds 21 1013 89 0 4.7 165 13:57 26.06.2020
711 Clouds 21 1013 89 0 4.7 165 13:38 26.06.2020
712 Clouds 21 1012 90 0 4.9 169 13:18 26.06.2020
713 Clouds 21 1012 90 0 4.9 169 12:41 26.06.2020
714 Clouds 21 1012 89 0 5.18 170 12:23 26.06.2020
715 Clouds 21 1012 89 0 5.18 170 11:58 26.06.2020
716 Clouds 21 1012 89 0 5.18 170 11:39 26.06.2020
717 Clouds 21 1012 89 0 5.25 171 11:21 26.06.2020
718 Clouds 21 1012 89 0 5.25 171 10:57 26.06.2020
719 Clouds 21 1012 89 0 5.25 171 10:38 26.06.2020
720 Clouds 21 1012 89 0 5.16 173 10:18 26.06.2020
721 Clouds 21 1012 89 0 5.16 173 09:44 26.06.2020
722 Clouds 21 1013 90 0 4.54 173 09:24 26.06.2020
723 Clouds 21 1013 90 0 4.54 173 08:56 26.06.2020
724 Clouds 21 1013 92 0 4.04 173 08:28 26.06.2020
725 Clouds 21 1013 90 0 4.3 180 07:53 26.06.2020
726 Clouds 21 1013 90 0 3.94 179 07:24 26.06.2020
727 Clouds 21 1013 90 0 3.94 179 06:58 26.06.2020
728 Clouds 21 1013 90 0 3.94 179 06:36 26.06.2020
729 Clouds 21 1013 90 0 4.05 172 06:18 26.06.2020
730 Clouds 21 1013 90 0 4.05 172 05:40 26.06.2020
731 Clouds 22 1009 83 10000 6.2 160 03:30 26.06.2020
732 Clouds 22 1009 83 10000 6.2 160 02:22 26.06.2020
733 Clouds 24 1009 78 10000 6.7 170 01:19 26.06.2020
734 Clouds 24 1009 78 10000 7.2 160 00:39 26.06.2020
735 Clouds 24 1009 78 10000 7.2 160 00:18 26.06.2020
736 Clouds 26 1008 69 10000 8.2 170 23:39 25.06.2020
737 Clouds 26 1008 69 10000 8.2 170 23:18 25.06.2020
738 Clouds 26 1009 69 10000 6.2 170 22:54 25.06.2020
739 Clouds 26 1009 69 10000 6.2 170 22:54 25.06.2020
740 Clouds 26 1009 69 10000 6.2 170 22:36 25.06.2020
741 Clouds 26 1009 69 10000 6.2 170 22:18 25.06.2020
742 Clouds 26 1010 69 10000 5.7 150 21:54 25.06.2020
743 Clouds 26 1010 69 10000 5.7 150 21:36 25.06.2020
744 Clouds 26 1010 69 10000 5.7 150 21:18 25.06.2020
745 Clouds 25 1010 73 10000 7.7 160 20:43 25.06.2020
746 Clouds 25 1010 73 10000 7.7 160 20:23 25.06.2020
747 Clouds 25 1011 73 10000 7.2 160 19:56 25.06.2020
748 Clouds 25 1011 73 10000 7.2 160 19:37 25.06.2020
749 Clouds 24 1011 78 10000 7.2 150 19:18 25.06.2020
750 Clouds 24 1011 78 10000 7.2 150 18:40 25.06.2020
751 Clouds 24 1011 78 10000 7.2 150 18:22 25.06.2020
752 Clouds 23 1012 83 10000 6.7 150 17:55 25.06.2020
753 Clouds 23 1012 83 10000 6.7 150 17:37 25.06.2020
754 Clouds 23 1012 83 10000 6.7 150 17:19 25.06.2020
755 Clouds 23 1012 83 10000 6.7 150 17:19 25.06.2020
756 Clouds 21 1014 88 0 5.27 175 16:41 25.06.2020
757 Clouds 21 1013 88 0 5.51 182 16:20 25.06.2020
758 Clouds 21 1013 88 0 5.51 182 15:45 25.06.2020
759 Clouds 21 1012 89 0 4.9 181 15:27 25.06.2020
760 Clouds 21 1012 89 0 4.9 181 14:57 25.06.2020
761 Clouds 21 1012 89 0 4.9 181 14:39 25.06.2020
762 Clouds 21 1012 89 0 4.52 181 14:21 25.06.2020
763 Clouds 21 1012 89 0 4.52 181 13:55 25.06.2020
764 Clouds 21 1012 89 0 4.52 181 13:36 25.06.2020
765 Clouds 21 1011 90 0 4.55 178 13:18 25.06.2020
766 Clouds 21 1011 90 0 4.55 178 12:42 25.06.2020
767 Clouds 21 1011 89 0 3.99 178 12:20 25.06.2020
768 Clouds 21 1011 89 0 3.99 178 11:43 25.06.2020
769 Clouds 21 1011 89 0 4.03 180 11:25 25.06.2020
770 Clouds 21 1011 89 0 4.03 180 10:46 25.06.2020
771 Clouds 21 1011 90 0 3.63 178 10:27 25.06.2020
772 Clouds 21 1011 90 0 3.63 178 09:59 25.06.2020
773 Clouds 21 1011 90 0 3.63 178 09:40 25.06.2020
774 Clouds 21 1012 89 0 3.72 179 09:20 25.06.2020
775 Clouds 21 1012 89 0 3.72 179 08:43 25.06.2020
776 Clouds 21 1013 89 0 4.12 178 08:19 25.06.2020
777 Clouds 21 1013 89 0 4.12 178 07:45 25.06.2020
778 Clouds 21 1013 88 0 3.81 175 07:26 25.06.2020
779 Clouds 21 1013 88 0 3.81 175 06:48 25.06.2020
780 Clouds 21 1013 88 0 3.11 172 06:26 25.06.2020
781 Clouds 21 1013 88 0 3.11 172 05:51 25.06.2020
782 Clouds 21 1012 87 0 3.55 178 03:56 25.06.2020
783 Clear 21 1012 87 0 3.84 176 03:26 25.06.2020
784 Clear 21 1012 87 0 3.84 176 02:41 25.06.2020
785 Clouds 21 1011 85 0 4.59 175 01:46 25.06.2020
786 Clouds 21 1010 84 0 5.01 176 01:19 25.06.2020
787 Clouds 21 1010 84 0 5.01 176 01:19 25.06.2020
788 Clouds 21 1010 84 0 5.01 176 00:40 25.06.2020
789 Clouds 24 1008 78 10000 7.2 180 00:18 25.06.2020
790 Clouds 24 1008 78 10000 7.2 180 23:42 24.06.2020
791 Clouds 24 1008 78 10000 7.2 180 23:23 24.06.2020
792 Clouds 24 1009 78 10000 7.7 160 22:57 24.06.2020
793 Clouds 24 1009 78 10000 7.7 160 22:37 24.06.2020
794 Clouds 24 1009 78 10000 7.7 160 22:37 24.06.2020
795 Clouds 24 1009 78 10000 7.7 160 22:18 24.06.2020
796 Clouds 24 1009 78 10000 7.2 180 21:55 24.06.2020
797 Clouds 24 1009 78 10000 7.2 180 21:36 24.06.2020
798 Clouds 24 1009 78 10000 7.2 180 21:18 24.06.2020
799 Clouds 24 1010 78 10000 7.7 150 20:55 24.06.2020
800 Clouds 24 1010 78 10000 7.7 150 20:37 24.06.2020
801 Clouds 24 1010 78 10000 7.7 150 20:37 24.06.2020
802 Clouds 24 1010 78 10000 7.7 150 20:18 24.06.2020
803 Clouds 23 1011 83 10000 6.7 150 19:39 24.06.2020
804 Clouds 23 1011 83 10000 6.7 150 19:21 24.06.2020
805 Clouds 23 1011 83 10000 6.2 180 18:59 24.06.2020
806 Clouds 23 1011 83 10000 6.2 180 18:41 24.06.2020
807 Clouds 23 1011 83 10000 6.2 180 18:23 24.06.2020
808 Clouds 22 1011 88 10000 6.7 170 17:58 24.06.2020
809 Clouds 22 1011 88 10000 6.7 170 17:40 24.06.2020
810 Clouds 22 1011 88 10000 6.7 170 17:19 24.06.2020
811 Clouds 21 1013 86 0 5.81 180 16:56 24.06.2020
812 Clouds 21 1013 86 0 5.81 180 16:38 24.06.2020
813 Clouds 21 1013 86 0 5.81 180 16:38 24.06.2020
814 Clouds 21 1013 87 0 5.88 179 16:20 24.06.2020
815 Clouds 21 1013 87 0 5.88 179 16:20 24.06.2020
816 Clouds 21 1013 87 0 5.88 179 15:56 24.06.2020
817 Clouds 21 1013 87 0 5.88 179 15:37 24.06.2020
818 Clouds 21 1012 88 0 5.65 180 15:19 24.06.2020
819 Clouds 21 1012 88 0 5.65 180 14:42 24.06.2020
820 Clouds 21 1011 88 0 4.86 182 14:24 24.06.2020
821 Clouds 21 1012 89 0 3.82 182 13:43 24.06.2020
822 Clouds 21 1011 89 0 4.46 185 13:22 24.06.2020
823 Clouds 21 1011 89 0 4.46 185 12:56 24.06.2020
824 Clouds 21 1011 89 0 4.46 185 12:37 24.06.2020
825 Clouds 21 1011 89 0 5.41 185 12:18 24.06.2020
826 Clouds 21 1011 89 0 5.41 185 11:54 24.06.2020
827 Clouds 21 1011 89 0 5.41 185 11:36 24.06.2020
828 Clouds 21 1011 89 0 5.41 185 11:36 24.06.2020
829 Clouds 21 1011 89 0 5.75 187 11:18 24.06.2020
830 Clouds 21 1011 89 0 5.75 187 10:41 24.06.2020
831 Clear 21 1012 89 0 5.63 188 10:18 24.06.2020
832 Clear 21 1012 89 0 5.63 188 09:42 24.06.2020
833 Clear 21 1012 89 0 5.25 185 09:21 24.06.2020
834 Clear 21 1012 89 0 5.25 185 08:42 24.06.2020
835 Clouds 21 1012 89 0 5.26 182 08:21 24.06.2020
836 Clouds 21 1012 89 0 5.26 182 07:50 24.06.2020
837 Clouds 21 1012 89 0 5.26 182 07:31 24.06.2020
838 Clouds 21 1013 88 0 5.16 179 06:50 24.06.2020
839 Clouds 21 1013 88 0 5.07 176 06:25 24.06.2020
840 Clouds 21 1013 88 0 5.07 176 05:54 24.06.2020
841 Clouds 21 1013 88 0 4.83 171 04:42 24.06.2020
842 Clear 21 1012 87 0 4.82 169 04:18 24.06.2020
843 Clear 21 1012 87 0 4.82 169 03:34 24.06.2020
844 Clouds 21 1011 87 0 4.69 167 02:43 24.06.2020
845 Clouds 21 1011 88 0 4.33 169 01:29 24.06.2020
846 Clouds 21 1010 87 0 3.95 164 00:47 24.06.2020
847 Clouds 25 1009 73 10000 5.7 160 00:27 24.06.2020
848 Clouds 25 1009 73 10000 5.7 160 23:44 23.06.2020
849 Clouds 25 1009 73 10000 5.7 160 23:19 23.06.2020
850 Clouds 25 1009 73 10000 5.1 160 22:42 23.06.2020
851 Clouds 25 1009 73 10000 5.1 160 22:19 23.06.2020
852 Rain 24 1010 78 10000 5.7 160 21:59 23.06.2020
853 Rain 24 1010 78 10000 5.7 160 21:39 23.06.2020
854 Rain 24 1010 78 10000 5.7 160 21:19 23.06.2020
855 Clouds 25 1011 73 10000 5.1 170 20:55 23.06.2020
856 Clouds 25 1011 73 10000 5.1 170 20:37 23.06.2020
857 Clouds 25 1011 73 10000 6.2 150 20:18 23.06.2020
858 Clouds 25 1011 73 10000 6.2 150 19:44 23.06.2020
859 Clouds 25 1011 73 10000 6.2 150 19:24 23.06.2020
860 Clouds 24 1011 78 10000 7.2 160 18:40 23.06.2020
861 Clouds 23 1012 83 10000 4.1 170 18:19 23.06.2020
862 Clouds 23 1012 83 10000 4.1 170 18:19 23.06.2020
863 Clouds 23 1012 83 10000 4.1 170 17:56 23.06.2020
864 Clouds 23 1012 83 10000 4.1 170 17:56 23.06.2020
865 Clouds 23 1012 83 10000 4.1 170 17:38 23.06.2020
866 Clouds 23 1012 83 10000 4.1 170 17:18 23.06.2020
867 Clouds 21 1014 87 0 4.55 164 16:54 23.06.2020
868 Clouds 21 1014 87 0 4.55 164 16:36 23.06.2020
869 Clouds 21 1013 87 0 4.59 164 16:18 23.06.2020
870 Clouds 21 1013 87 0 4.59 164 15:42 23.06.2020
871 Clouds 21 1012 89 0 4.46 165 15:23 23.06.2020
872 Clouds 21 1012 89 0 4.46 165 14:54 23.06.2020
873 Clouds 21 1012 89 0 4.46 165 14:36 23.06.2020
874 Clear 21 1011 89 0 4.53 162 14:18 23.06.2020
875 Clear 21 1011 89 0 4.53 162 13:45 23.06.2020
876 Clear 21 1011 89 0 4.62 165 13:25 23.06.2020
877 Clear 21 1011 89 0 4.62 165 12:46 23.06.2020
878 Clear 21 1011 89 0 4.4 171 12:23 23.06.2020
879 Clear 21 1011 89 0 4.4 171 11:59 23.06.2020
880 Clear 21 1011 89 0 4.4 171 11:40 23.06.2020
881 Clear 21 1011 88 0 4.29 176 11:21 23.06.2020
882 Clear 21 1011 88 0 4.29 176 10:58 23.06.2020
883 Clear 21 1011 88 0 4.29 176 10:39 23.06.2020
884 Clear 21 1011 89 0 4.48 175 10:21 23.06.2020
885 Clear 21 1011 89 0 4.48 175 09:55 23.06.2020
886 Clear 21 1011 89 0 4.48 175 09:36 23.06.2020
887 Clouds 21 1012 90 0 4.46 174 09:18 23.06.2020
888 Clouds 21 1012 90 0 4.46 174 08:42 23.06.2020
889 Clouds 21 1012 91 0 4.19 176 08:22 23.06.2020
890 Clouds 21 1012 91 0 4.19 176 07:44 23.06.2020
891 Clouds 21 1013 90 0 4.22 174 07:24 23.06.2020
892 Clouds 21 1013 90 0 4.22 174 06:51 23.06.2020
893 Clouds 21 1013 90 0 4.22 174 06:31 23.06.2020
894 Clouds 21 1013 90 0 4.76 173 05:47 23.06.2020
895 Clouds 21 1013 89 0 4.79 170 04:39 23.06.2020
896 Clouds 21 1012 87 0 4.58 169 03:18 23.06.2020
897 Clouds 21 1012 87 0 4.58 169 02:42 23.06.2020
898 Clouds 21 1011 86 0 4.77 167 02:24 23.06.2020
899 Clear 21 1011 86 0 4.66 164 01:43 23.06.2020
900 Clear 21 1010 85 0 5.11 168 01:20 23.06.2020
901 Clouds 25 1010 69 10000 7.7 130 00:24 23.06.2020
902 Clouds 25 1010 69 10000 7.7 130 23:58 22.06.2020
903 Clouds 25 1010 69 10000 7.7 130 23:39 22.06.2020
904 Clouds 25 1010 69 10000 7.7 130 23:19 22.06.2020
905 Clouds 26 1010 65 10000 6.7 170 22:57 22.06.2020
906 Clouds 26 1010 65 10000 6.7 170 22:39 22.06.2020
907 Clouds 26 1010 65 10000 6.7 170 22:20 22.06.2020
908 Clouds 26 1011 65 10000 7.2 150 21:57 22.06.2020
909 Clouds 26 1011 65 10000 7.2 150 21:38 22.06.2020
910 Clouds 26 1011 65 10000 7.2 150 21:20 22.06.2020
911 Clouds 25 1011 69 10000 8.2 170 20:44 22.06.2020
912 Clouds 25 1011 69 10000 8.2 170 20:25 22.06.2020
913 Clouds 24 1012 78 10000 7.2 160 19:58 22.06.2020
914 Clouds 24 1012 78 10000 7.2 160 19:38 22.06.2020
915 Clouds 24 1012 78 10000 7.2 160 19:18 22.06.2020
916 Clouds 23 1012 88 10000 5.7 160 18:41 22.06.2020
917 Clouds 23 1012 88 10000 5.7 160 18:23 22.06.2020
918 Clouds 22 1012 88 10000 3.6 170 17:57 22.06.2020
919 Clouds 22 1012 88 10000 3.6 170 17:38 22.06.2020
920 Clouds 22 1012 88 10000 3.6 170 17:20 22.06.2020
921 Clouds 21 1015 86 0 3.94 151 16:55 22.06.2020
922 Clouds 21 1015 86 0 3.94 151 16:37 22.06.2020
923 Clouds 21 1014 87 0 3.98 152 16:18 22.06.2020
924 Clouds 21 1014 87 0 3.98 152 15:44 22.06.2020
925 Clouds 21 1013 88 0 4.34 149 15:25 22.06.2020
926 Clouds 21 1013 88 0 4.34 149 14:57 22.06.2020
927 Clouds 21 1013 88 0 4.48 149 14:36 22.06.2020
928 Clear 21 1012 89 0 4.97 151 14:18 22.06.2020
929 Clouds 21 1012 89 0 4.99 152 13:40 22.06.2020
930 Clouds 21 1012 89 0 5.05 154 13:21 22.06.2020
931 Clouds 21 1012 89 0 5.05 154 12:59 22.06.2020
932 Clouds 21 1012 89 0 5.05 154 12:40 22.06.2020
933 Clouds 21 1012 89 0 5.1 156 12:22 22.06.2020
934 Clouds 21 1012 89 0 5.1 156 11:37 22.06.2020
935 Clouds 21 1012 90 0 5.35 158 11:19 22.06.2020
936 Clouds 21 1012 90 0 5.35 158 10:57 22.06.2020
937 Clouds 21 1012 90 0 5.35 158 10:38 22.06.2020
938 Clouds 21 1012 90 0 5.26 159 10:19 22.06.2020
939 Clouds 21 1012 90 0 5.26 159 09:56 22.06.2020
940 Clouds 21 1012 90 0 5.26 159 09:38 22.06.2020
941 Clouds 21 1012 91 0 5.01 153 09:18 22.06.2020
942 Clouds 21 1012 91 0 5.01 153 08:54 22.06.2020
943 Clouds 21 1012 91 0 5.01 153 08:36 22.06.2020
944 Clouds 21 1013 91 0 4.99 154 08:18 22.06.2020
945 Clouds 21 1013 91 0 4.99 154 07:45 22.06.2020
946 Clouds 21 1013 91 0 4.68 153 07:24 22.06.2020
947 Clouds 21 1013 91 0 4.68 153 06:38 22.06.2020
948 Clouds 21 1013 91 0 4.17 151 06:19 22.06.2020
949 Clouds 21 1013 91 0 4.17 151 05:41 22.06.2020
950 Clouds 21 1012 89 0 4.38 151 03:22 22.06.2020
951 Clouds 21 1011 88 0 4.17 155 01:39 22.06.2020
952 Clouds 21 1010 87 0 4.07 153 00:44 22.06.2020
953 Clouds 24 1009 73 10000 6.2 160 00:25 22.06.2020
954 Clouds 24 1009 73 10000 6.2 160 23:56 21.06.2020
955 Clouds 24 1009 73 10000 6.2 160 23:37 21.06.2020
956 Clouds 24 1009 73 10000 6.2 160 23:19 21.06.2020
957 Clouds 25 1010 69 10000 6.7 160 22:55 21.06.2020
958 Clouds 25 1010 69 10000 6.7 160 22:36 21.06.2020
959 Clouds 25 1011 69 10000 6.7 180 22:18 21.06.2020
960 Clouds 25 1011 69 10000 6.7 180 21:55 21.06.2020
961 Clouds 25 1011 69 10000 6.7 180 21:37 21.06.2020
962 Clouds 26 1012 65 10000 7.7 160 21:18 21.06.2020
963 Clouds 26 1012 65 10000 7.7 160 20:40 21.06.2020
964 Clouds 26 1012 65 10000 7.7 160 20:20 21.06.2020
965 Clouds 25 1012 73 10000 5.1 170 19:59 21.06.2020
966 Clouds 25 1012 73 10000 5.1 170 19:40 21.06.2020
967 Clouds 25 1012 73 10000 5.1 170 19:20 21.06.2020
968 Clouds 24 1012 78 10000 4.6 150 18:55 21.06.2020
969 Clouds 24 1012 78 10000 4.6 150 18:37 21.06.2020
970 Clouds 24 1012 78 10000 4.6 150 18:19 21.06.2020
971 Clouds 24 1012 78 10000 4.6 150 18:19 21.06.2020
972 Clouds 23 1012 83 10000 3.6 160 17:41 21.06.2020
973 Clouds 23 1012 83 10000 3.6 160 17:21 21.06.2020
974 Clouds 21 1014 87 0 4.94 155 16:57 21.06.2020
975 Clouds 21 1014 87 0 4.94 155 16:39 21.06.2020
976 Clouds 21 1013 88 0 5.04 159 16:20 21.06.2020
977 Clouds 21 1013 88 0 5.04 159 15:39 21.06.2020
978 Clouds 21 1013 89 0 5.22 161 15:21 21.06.2020
979 Clouds 21 1013 89 0 5.22 161 14:55 21.06.2020
980 Clouds 21 1013 89 0 5.22 161 14:55 21.06.2020
981 Clouds 21 1013 89 0 4.98 162 14:36 21.06.2020
982 Clouds 21 1012 89 0 5.13 165 14:18 21.06.2020
983 Clouds 21 1012 89 0 5.13 165 13:42 21.06.2020
984 Clouds 21 1012 89 0 5.13 165 13:42 21.06.2020
985 Clouds 21 1012 88 0 5.2 164 13:23 21.06.2020
986 Clouds 21 1012 88 0 5.2 164 12:57 21.06.2020
987 Clouds 21 1012 88 0 5.2 164 12:39 21.06.2020
988 Clouds 21 1011 89 0 5.14 160 12:20 21.06.2020
989 Clouds 21 1011 89 0 5.14 160 11:42 21.06.2020
990 Clouds 21 1012 88 0 5.47 157 11:24 21.06.2020
991 Clouds 21 1012 88 0 5.47 157 10:58 21.06.2020
992 Clouds 21 1012 88 0 5.47 157 10:39 21.06.2020
993 Clouds 21 1012 89 0 5.7 158 10:21 21.06.2020
994 Clouds 21 1012 89 0 5.7 158 09:44 21.06.2020
995 Clouds 21 1013 90 0 5.49 160 09:24 21.06.2020
996 Clouds 21 1013 90 0 5.49 160 08:58 21.06.2020
997 Clouds 21 1013 90 0 5.49 160 08:40 21.06.2020
998 Clouds 21 1013 89 0 5.28 158 08:20 21.06.2020
999 Clouds 21 1013 89 0 5.28 158 07:42 21.06.2020
1000 Clouds 21 1014 89 0 5.02 157 07:24 21.06.2020
1001 Clouds 21 1014 89 0 5.02 157 06:51 21.06.2020
1002 Clouds 21 1014 90 0 5.09 158 06:28 21.06.2020
1003 Clouds 21 1014 90 0 5.09 158 05:57 21.06.2020
1004 Clouds 21 1013 90 0 5.32 155 04:36 21.06.2020
1005 Clouds 21 1011 90 0 5.77 153 03:19 21.06.2020
1006 Clouds 21 1011 89 0 5.8 157 02:36 21.06.2020
1007 Clouds 21 1011 88 0 5.41 155 01:39 21.06.2020
1008 Clouds 21 1010 87 0 4.86 153 01:19 21.06.2020
1009 Clouds 21 1010 87 0 4.86 153 00:45 21.06.2020
1010 Clouds 25 1009 73 10000 6.2 150 00:25 21.06.2020
1011 Clouds 25 1009 73 10000 6.2 150 23:45 20.06.2020
1012 Clouds 25 1009 73 10000 6.2 150 23:23 20.06.2020
1013 Clouds 25 1010 73 10000 5.7 160 22:57 20.06.2020
1014 Clouds 25 1010 73 10000 5.7 160 22:39 20.06.2020
1015 Clouds 25 1010 73 10000 5.7 160 22:20 20.06.2020
1016 Clouds 25 1011 73 10000 6.7 140 21:58 20.06.2020
1017 Clouds 25 1011 73 10000 6.7 140 21:58 20.06.2020
1018 Clouds 25 1011 73 10000 6.7 140 21:40 20.06.2020
1019 Clouds 25 1011 73 10000 6.7 140 21:21 20.06.2020
1020 Clouds 25 1011 73 10000 6.7 180 20:58 20.06.2020
1021 Clouds 25 1011 73 10000 6.7 180 20:40 20.06.2020
1022 Clouds 25 1011 73 10000 6.7 180 20:20 20.06.2020
1023 Clouds 24 1011 78 10000 5.1 150 19:57 20.06.2020
1024 Clouds 24 1011 78 10000 5.1 150 19:38 20.06.2020
1025 Clouds 24 1011 78 10000 5.1 150 19:19 20.06.2020
1026 Clouds 24 1012 78 10000 6.2 160 18:42 20.06.2020
1027 Rain 22 1012 88 10000 5.1 150 18:20 20.06.2020
1028 Rain 22 1012 88 10000 5.1 150 17:57 20.06.2020
1029 Rain 22 1012 88 10000 5.1 150 17:39 20.06.2020
1030 Rain 22 1012 88 10000 5.1 150 17:20 20.06.2020
1031 Clouds 22 1013 89 0 4.6 137 16:42 20.06.2020
1032 Clouds 22 1013 89 0 4.6 137 16:42 20.06.2020
1033 Clouds 21 1013 89 0 4.67 138 16:19 20.06.2020
1034 Clouds 21 1013 89 0 4.67 138 15:57 20.06.2020
1035 Clouds 21 1013 89 0 4.67 138 15:39 20.06.2020
1036 Clouds 21 1012 90 0 4.97 142 15:18 20.06.2020
1037 Clouds 21 1012 90 0 4.97 142 14:42 20.06.2020
1038 Clouds 21 1012 90 0 5.26 145 14:21 20.06.2020
1039 Clouds 21 1012 88 0 5.06 148 13:42 20.06.2020
1040 Clouds 21 1011 88 0 5.31 149 13:21 20.06.2020
1041 Clouds 21 1011 88 0 5.31 149 12:57 20.06.2020
1042 Clouds 21 1011 88 0 5.31 149 12:38 20.06.2020
1043 Clouds 21 1011 88 0 5.31 149 12:38 20.06.2020
1044 Clouds 21 1011 88 0 4.89 147 12:19 20.06.2020
1045 Clouds 21 1011 88 0 4.89 147 11:41 20.06.2020
1046 Clouds 21 1011 88 0 4.8 147 11:21 20.06.2020
1047 Clouds 21 1011 88 0 4.8 147 10:59 20.06.2020
1048 Clouds 21 1011 88 0 4.8 147 10:41 20.06.2020
1049 Clouds 21 1012 89 0 4.78 147 10:20 20.06.2020
1050 Clouds 21 1012 89 0 4.78 147 09:43 20.06.2020
1051 Clouds 21 1012 89 0 4.68 143 09:25 20.06.2020
1052 Clouds 21 1012 89 0 4.75 146 08:58 20.06.2020
1053 Clouds 21 1012 89 0 4.75 146 08:39 20.06.2020
1054 Clouds 21 1013 89 0 4.6 145 08:21 20.06.2020
1055 Clouds 21 1013 89 0 4.6 145 07:50 20.06.2020
1056 Clouds 21 1013 90 0 4.77 149 07:25 20.06.2020
1057 Clouds 21 1013 90 0 4.77 149 06:49 20.06.2020
1058 Clouds 21 1013 90 0 4.81 154 06:21 20.06.2020
1059 Clouds 21 1013 90 0 4.81 154 05:48 20.06.2020
1060 Clouds 21 1012 90 0 4.53 153 03:55 20.06.2020
1061 Clouds 22 1010 88 0 5.93 160 01:55 20.06.2020
1062 Clouds 22 1010 88 0 5.93 160 01:37 20.06.2020
1063 Clouds 22 1010 87 0 6.26 162 00:47 20.06.2020
1064 Clouds 24 1009 78 10000 8.2 160 00:20 20.06.2020
1065 Clouds 24 1009 78 10000 8.2 160 23:44 19.06.2020
1066 Clouds 24 1009 78 10000 8.2 160 23:20 19.06.2020
1067 Clouds 25 1010 78 10000 8.2 150 22:56 19.06.2020
1068 Clouds 25 1010 78 10000 8.2 150 22:37 19.06.2020
1069 Clouds 25 1010 78 10000 8.2 150 22:19 19.06.2020
1070 Clouds 25 1010 73 10000 9.8 160 21:55 19.06.2020
1071 Clouds 25 1010 73 10000 9.8 160 21:37 19.06.2020
1072 Clouds 25 1011 78 10000 8.7 150 21:18 19.06.2020
1073 Clouds 25 1011 78 10000 8.7 150 20:56 19.06.2020
1074 Clouds 25 1011 78 10000 8.7 150 20:38 19.06.2020
1075 Clouds 25 1011 78 10000 8.7 150 20:20 19.06.2020
1076 Clouds 24 1012 83 10000 9.3 140 19:42 19.06.2020
1077 Clouds 24 1012 83 10000 9.3 140 19:23 19.06.2020
1078 Clouds 23 1012 88 10000 8.7 160 18:59 19.06.2020
1079 Clouds 23 1012 88 10000 8.7 160 18:39 19.06.2020
1080 Clouds 23 1012 88 10000 8.7 160 18:20 19.06.2020
1081 Clouds 23 1012 88 10000 8.7 160 18:20 19.06.2020
1082 Clouds 23 1012 88 10000 7.7 150 17:42 19.06.2020
1083 Clouds 23 1012 88 10000 7.7 150 17:23 19.06.2020
1084 Clouds 22 1014 87 0 6.15 166 16:58 19.06.2020
1085 Clouds 22 1014 87 0 6.15 166 16:39 19.06.2020
1086 Clouds 22 1013 87 0 6.23 163 16:21 19.06.2020
1087 Clouds 22 1013 87 0 6.23 163 15:45 19.06.2020
1088 Clouds 22 1012 87 0 6.5 166 15:26 19.06.2020
1089 Clouds 22 1012 87 0 6.5 166 14:58 19.06.2020
1090 Clouds 22 1012 87 0 6.5 166 14:39 19.06.2020
1091 Clouds 22 1012 87 0 6.63 163 14:21 19.06.2020
1092 Clouds 22 1012 87 0 6.63 163 13:58 19.06.2020
1093 Clouds 22 1012 87 0 6.63 163 13:39 19.06.2020
1094 Clouds 22 1012 86 0 6.29 160 13:21 19.06.2020
1095 Clouds 22 1012 86 0 6.29 160 12:44 19.06.2020
1096 Clouds 22 1012 86 0 6.43 162 12:20 19.06.2020
1097 Clouds 22 1012 86 0 6.43 162 11:41 19.06.2020
1098 Clouds 22 1012 86 0 6.32 169 11:19 19.06.2020
1099 Clouds 22 1012 86 0 6.32 169 10:59 19.06.2020
1100 Clouds 22 1012 86 0 6.32 169 10:41 19.06.2020
1101 Clouds 22 1012 87 0 6.19 173 10:21 19.06.2020
1102 Clouds 22 1012 87 0 6.19 173 09:45 19.06.2020
1103 Clouds 22 1013 87 0 6.2 177 09:25 19.06.2020
1104 Clouds 22 1013 87 0 6.2 177 09:25 19.06.2020
1105 Clouds 22 1013 87 0 6.2 177 08:59 19.06.2020
1106 Clouds 22 1013 87 0 6.2 177 08:39 19.06.2020
1107 Clouds 21 1013 87 0 6.61 179 08:20 19.06.2020
1108 Clouds 21 1013 87 0 6.61 179 07:41 19.06.2020
1109 Clouds 21 1014 87 0 6.5 176 07:21 19.06.2020
1110 Clouds 21 1014 87 0 6.5 176 06:45 19.06.2020
1111 Clouds 22 1014 86 0 6.43 171 06:21 19.06.2020
1112 Clouds 22 1013 86 0 6.42 167 04:59 19.06.2020
1113 Clouds 21 1013 86 0 6.52 168 03:31 19.06.2020
1114 Clouds 21 1011 86 0 5.91 170 01:45 19.06.2020
1115 Clouds 22 1011 84 0 5.85 171 00:43 19.06.2020
1116 Clouds 25 1009 73 10000 7.7 160 00:22 19.06.2020
1117 Clouds 25 1009 73 10000 7.7 160 23:56 18.06.2020
1118 Clouds 25 1009 73 10000 7.7 160 23:56 18.06.2020
1119 Clouds 25 1009 73 10000 7.7 160 23:37 18.06.2020
1120 Clouds 25 1009 73 10000 7.7 160 23:19 18.06.2020
1121 Clouds 25 1010 73 10000 9.3 180 22:39 18.06.2020
1122 Clouds 25 1010 73 10000 9.3 180 22:20 18.06.2020
1123 Clouds 25 1011 73 10000 8.2 170 21:56 18.06.2020
1124 Clouds 25 1011 73 10000 8.2 170 21:36 18.06.2020
1125 Clouds 25 1012 73 10000 8.2 170 21:18 18.06.2020
1126 Clouds 25 1012 73 10000 8.2 170 20:40 18.06.2020
1127 Clouds 25 1012 73 10000 8.2 170 20:20 18.06.2020
1128 Clouds 24 1013 78 10000 7.7 150 19:56 18.06.2020
1129 Clouds 24 1013 78 10000 7.7 150 19:38 18.06.2020
1130 Clouds 24 1013 78 10000 7.7 150 19:19 18.06.2020
1131 Clouds 24 1013 78 10000 7.7 150 18:38 18.06.2020
1132 Clouds 24 1013 78 10000 7.7 150 18:19 18.06.2020
1133 Clouds 23 1013 83 10000 7.7 160 17:46 18.06.2020
1134 Clouds 23 1013 83 10000 7.7 160 17:26 18.06.2020
1135 Clouds 21 1015 81 0 6.14 165 16:57 18.06.2020
1136 Clouds 21 1015 81 0 6.14 165 16:39 18.06.2020
1137 Clouds 21 1015 82 0 5.77 163 16:20 18.06.2020
1138 Clouds 21 1015 82 0 5.77 163 15:57 18.06.2020
1139 Clouds 21 1015 82 0 5.77 163 15:39 18.06.2020
1140 Clouds 21 1014 82 0 5.72 166 15:19 18.06.2020
1141 Clouds 21 1014 82 0 5.72 166 14:55 18.06.2020
1142 Clouds 21 1014 83 0 5.57 162 14:37 18.06.2020
1143 Clear 21 1014 83 0 5.81 169 14:18 18.06.2020
1144 Clouds 21 1014 84 0 5.71 164 13:47 18.06.2020
1145 Clear 21 1013 84 0 5.85 166 13:27 18.06.2020
1146 Clear 21 1013 84 0 5.85 166 12:56 18.06.2020
1147 Clear 21 1013 84 0 5.85 166 12:38 18.06.2020
1148 Clear 21 1013 85 0 6.09 170 12:19 18.06.2020
1149 Clear 21 1013 85 0 6.09 170 11:47 18.06.2020
1150 Clear 21 1013 86 0 6.05 172 11:21 18.06.2020
1151 Clear 21 1013 86 0 6.05 172 10:56 18.06.2020
1152 Clear 21 1013 86 0 6.05 172 10:38 18.06.2020
1153 Clear 21 1013 86 0 5.71 168 10:18 18.06.2020
1154 Clear 21 1013 86 0 5.71 168 09:42 18.06.2020
1155 Clouds 21 1013 86 0 5.3 164 09:23 18.06.2020
1156 Clear 21 1013 86 0 5.36 165 08:41 18.06.2020
1157 Clouds 21 1014 86 0 4.92 164 08:23 18.06.2020
1158 Clouds 21 1014 86 0 4.92 164 07:58 18.06.2020
1159 Clouds 21 1014 86 0 4.92 164 07:40 18.06.2020
1160 Clouds 21 1014 85 0 4.65 158 07:21 18.06.2020
1161 Clouds 21 1014 85 0 4.79 158 06:22 18.06.2020
1162 Clouds 21 1013 85 0 4.6 150 04:26 18.06.2020
1163 Clouds 21 1012 84 0 4.58 143 03:18 18.06.2020
1164 Clouds 21 1012 84 0 4.79 148 01:30 18.06.2020
1165 Clouds 21 1011 83 0 4.93 150 00:58 18.06.2020
1166 Rain 22 1011 88 10000 5.1 170 00:39 18.06.2020
1167 Rain 22 1011 88 10000 5.1 170 00:20 18.06.2020
1168 Rain 22 1011 88 10000 5.1 170 23:44 17.06.2020
1169 Rain 22 1011 88 10000 5.1 170 23:21 17.06.2020
1170 Drizzle 22 1012 94 10000 4.6 150 22:57 17.06.2020
1171 Drizzle 22 1012 94 10000 4.6 150 22:57 17.06.2020
1172 Drizzle 22 1012 94 10000 4.6 150 22:38 17.06.2020
1173 Drizzle 22 1012 94 10000 4.6 150 22:20 17.06.2020
1174 Rain 23 1012 88 10000 5.1 150 21:55 17.06.2020
1175 Rain 23 1012 88 10000 5.1 150 21:37 17.06.2020
1176 Clouds 24 1012 83 10000 6.7 160 21:18 17.06.2020
1177 Clouds 24 1012 83 10000 6.7 160 20:38 17.06.2020
1178 Clouds 24 1012 83 10000 6.7 160 20:20 17.06.2020
1179 Rain 23 1013 88 10000 7.2 140 19:56 17.06.2020
1180 Rain 23 1013 88 10000 7.2 140 19:37 17.06.2020
1181 Rain 23 1013 88 10000 4.6 170 19:18 17.06.2020
1182 Rain 23 1013 88 10000 4.6 170 18:44 17.06.2020
1183 Rain 23 1013 88 10000 4.6 170 18:26 17.06.2020
1184 Drizzle 22 1013 94 8000 5.1 150 17:44 17.06.2020
1185 Drizzle 22 1013 94 8000 5.1 150 17:22 17.06.2020
1186 Drizzle 21 1013 100 8000 3.6 160 16:57 17.06.2020
1187 Drizzle 21 1013 100 8000 3.6 160 16:57 17.06.2020
1188 Drizzle 21 1013 100 8000 3.6 160 16:39 17.06.2020
1189 Drizzle 21 1013 100 8000 3.6 160 16:39 17.06.2020
1190 Drizzle 21 1013 100 8000 3.6 160 16:20 17.06.2020
1191 Drizzle 21 1012 100 5000 3.1 200 15:56 17.06.2020
1192 Drizzle 21 1012 100 5000 3.1 200 15:38 17.06.2020
1193 Clouds 21 1013 84 0 5.42 144 15:19 17.06.2020
1194 Clouds 21 1013 84 0 5.42 144 14:57 17.06.2020
1195 Clouds 21 1013 84 0 5.42 144 14:57 17.06.2020
1196 Clouds 21 1013 84 0 5.42 144 14:38 17.06.2020
1197 Clouds 21 1013 86 0 5.07 148 14:19 17.06.2020
1198 Clouds 21 1013 84 0 4.65 151 13:42 17.06.2020
1199 Clouds 21 1013 85 0 4.5 154 13:22 17.06.2020
1200 Clouds 21 1013 85 0 4.5 154 12:59 17.06.2020
1201 Clouds 21 1013 85 0 4.5 154 12:40 17.06.2020
1202 Clouds 21 1013 87 0 4.09 158 12:20 17.06.2020
1203 Clouds 21 1013 87 0 4.09 158 11:44 17.06.2020
1204 Clouds 21 1013 88 0 3.95 160 11:26 17.06.2020
1205 Clouds 21 1013 88 0 3.95 160 11:26 17.06.2020
1206 Clouds 21 1013 88 0 3.95 160 10:56 17.06.2020
1207 Clouds 21 1013 88 0 3.95 160 10:37 17.06.2020
1208 Clouds 21 1013 87 0 3.87 160 10:18 17.06.2020
1209 Clouds 21 1013 87 0 3.87 160 09:55 17.06.2020
1210 Clouds 21 1013 87 0 3.87 160 09:36 17.06.2020
1211 Clouds 21 1013 87 0 3.87 160 09:36 17.06.2020
1212 Clouds 21 1013 86 0 4.03 149 09:18 17.06.2020
1213 Clouds 21 1013 86 0 4.03 149 08:42 17.06.2020
1214 Clouds 21 1013 87 0 4.18 143 08:19 17.06.2020
1215 Clouds 21 1013 87 0 4.18 143 07:43 17.06.2020
1216 Clouds 21 1014 87 0 4.16 140 07:23 17.06.2020
1217 Clouds 21 1014 87 0 4.16 140 06:57 17.06.2020
1218 Clouds 21 1014 87 0 4.16 140 06:39 17.06.2020
1219 Clouds 21 1014 86 0 4.38 147 06:21 17.06.2020
1220 Clouds 21 1014 86 0 4.38 147 05:45 17.06.2020
1221 Clouds 22 1013 86 0 4.37 160 04:18 17.06.2020
1222 Clouds 22 1012 87 0 4.12 168 01:55 17.06.2020
1223 Clouds 22 1011 86 0 4.82 176 00:48 17.06.2020
1224 Clouds 25 1009 78 10000 6.7 160 00:25 17.06.2020
1225 Clouds 25 1009 78 10000 6.7 160 23:57 16.06.2020
1226 Clouds 25 1009 78 10000 6.7 160 23:38 16.06.2020
1227 Clouds 25 1009 78 10000 6.7 160 23:19 16.06.2020
1228 Clouds 25 1010 73 10000 7.2 150 22:56 16.06.2020
1229 -273 0 0 0 0 0 22:37 16.06.2020
1230 Clouds 25 1011 78 10000 6.7 160 22:18 16.06.2020
1231 Clouds 25 1011 78 10000 6.7 160 21:47 16.06.2020
1232 Clouds 25 1011 78 10000 6.7 160 21:24 16.06.2020
1233 Clouds 26 1012 74 10000 9.8 170 20:58 16.06.2020
1234 Clouds 26 1012 74 10000 9.8 170 20:40 16.06.2020
1235 Clouds 26 1012 74 10000 9.8 170 20:19 16.06.2020
1236 Clouds 26 1012 74 10000 9.8 170 20:19 16.06.2020
1237 Clouds 26 1012 74 10000 9.3 180 19:57 16.06.2020
1238 Clouds 26 1012 74 10000 9.3 180 19:39 16.06.2020
1239 Clouds 26 1012 74 10000 9.3 180 19:21 16.06.2020
1240 Clouds 25 1012 78 10000 8.2 150 18:55 16.06.2020
1241 Clouds 25 1012 78 10000 8.2 150 18:36 16.06.2020
1242 Clouds 25 1013 78 10000 6.2 150 18:18 16.06.2020
1243 Clouds 25 1013 78 10000 6.2 150 17:54 16.06.2020
1244 Clouds 25 1013 78 10000 6.2 150 17:36 16.06.2020
1245 Clouds 22 1015 84 0 5.9 169 17:18 16.06.2020
1246 Clouds 22 1015 84 0 5.9 169 16:42 16.06.2020
1247 Clouds 22 1015 84 0 6.26 167 16:20 16.06.2020
1248 Clouds 22 1015 84 0 6.26 167 15:57 16.06.2020
1249 Clouds 22 1015 84 0 6.26 167 15:57 16.06.2020
1250 Clouds 22 1015 84 0 6.26 167 15:39 16.06.2020
1251 Clouds 22 1014 86 0 6.25 164 15:21 16.06.2020
1252 Clouds 22 1014 86 0 6.25 164 14:56 16.06.2020
1253 Clouds 22 1014 86 0 6.25 164 14:38 16.06.2020
1254 Clouds 21 1013 87 0 6.38 160 14:20 16.06.2020
1255 Clouds 22 1014 85 0 6.79 161 13:46 16.06.2020
1256 Clouds 22 1013 87 0 6.6 161 13:25 16.06.2020
1257 Clouds 22 1013 87 0 6.6 161 12:55 16.06.2020
1258 Clouds 22 1013 87 0 6.6 161 12:37 16.06.2020
1259 Clouds 21 1013 88 0 6.29 160 12:18 16.06.2020
1260 Clouds 21 1013 88 0 6.29 160 11:41 16.06.2020
1261 Clouds 21 1013 88 0 5.76 157 11:23 16.06.2020
1262 Clouds 21 1013 88 0 5.76 157 10:59 16.06.2020
1263 Clouds 21 1013 88 0 5.76 157 10:40 16.06.2020
1264 Clouds 21 1013 88 0 5.43 158 10:20 16.06.2020
1265 Clouds 21 1013 88 0 5.43 158 09:45 16.06.2020
1266 Clouds 21 1013 89 0 4.81 159 09:24 16.06.2020
1267 Clouds 21 1013 89 0 4.81 159 08:55 16.06.2020
1268 Clouds 21 1013 89 0 4.81 159 08:55 16.06.2020
1269 Clouds 21 1013 89 0 4.81 159 08:34 16.06.2020
1270 Clouds 21 1014 89 0 4.17 159 07:55 16.06.2020
1271 Clouds 21 1014 89 0 4.17 159 07:37 16.06.2020
1272 Clouds 21 1014 88 0 4.03 151 07:19 16.06.2020
1273 Clouds 21 1014 88 0 4.03 151 06:34 16.06.2020
1274 Clouds 21 1015 88 0 4.36 152 05:52 16.06.2020
1275 Clouds 21 1015 87 0 4.51 148 04:55 16.06.2020
1276 Clouds 21 1014 86 0 4.64 143 03:56 16.06.2020
1277 Clouds 22 1013 86 0 5 140 02:35 16.06.2020
1278 Clouds 22 1012 86 0 5.37 141 01:34 16.06.2020
1279 Clouds 22 1012 84 0 5.37 138 00:57 16.06.2020
1280 Clouds 25 1010 69 10000 7.2 150 00:22 16.06.2020
1281 Clouds 25 1010 69 10000 7.2 150 23:56 15.06.2020
1282 Clouds 25 1010 69 10000 7.2 150 23:37 15.06.2020
1283 Clouds 25 1010 69 10000 7.2 150 23:19 15.06.2020
1284 Clouds 27 1010 57 10000 5.1 150 22:42 15.06.2020
1285 Clouds 27 1010 57 10000 5.1 150 22:22 15.06.2020
1286 Clouds 27 1011 54 10000 4.6 150 21:58 15.06.2020
1287 Clouds 27 1011 54 10000 4.6 150 21:58 15.06.2020
1288 Clouds 27 1011 54 10000 4.6 150 21:58 15.06.2020
1289 Clouds 27 1011 54 10000 4.6 150 21:38 15.06.2020
1290 Clouds 27 1011 54 10000 4.6 150 21:20 15.06.2020
1291 Clouds 26 1012 65 10000 5.1 140 20:57 15.06.2020
1292 Clouds 26 1012 65 10000 5.1 140 20:38 15.06.2020
1293 Clouds 26 1012 65 10000 5.1 140 20:19 15.06.2020
1294 Clouds 26 1013 65 10000 7.7 150 19:57 15.06.2020
1295 Clouds 26 1013 65 10000 7.7 150 19:38 15.06.2020
1296 Clouds 25 1013 69 10000 6.2 150 19:20 15.06.2020
1297 Clouds 25 1013 69 10000 6.2 150 18:56 15.06.2020
1298 Clouds 25 1013 69 10000 6.2 150 18:37 15.06.2020
1299 Clouds 25 1014 73 10000 6.2 140 18:19 15.06.2020
1300 Clouds 25 1014 73 10000 6.2 140 17:42 15.06.2020
1301 Clouds 25 1014 73 10000 6.2 140 17:22 15.06.2020
1302 Clouds 22 1015 82 0 5.36 162 16:59 15.06.2020
1303 Clouds 22 1015 82 0 5.36 162 16:59 15.06.2020
1304 Clouds 22 1015 82 0 5.36 162 16:41 15.06.2020
1305 Clouds 22 1015 82 0 5.34 156 16:19 15.06.2020
1306 Clouds 22 1015 82 0 5.34 156 15:56 15.06.2020
1307 Clouds 22 1015 82 0 5.34 156 15:37 15.06.2020
1308 Clouds 21 1013 83 0 5.37 153 15:18 15.06.2020
1309 Clouds 21 1013 83 0 5.37 153 14:42 15.06.2020
1310 Clouds 21 1013 82 0 4.84 152 14:21 15.06.2020
1311 Clouds 21 1013 82 0 4.84 152 13:59 15.06.2020
1312 Clouds 21 1013 82 0 4.84 152 13:39 15.06.2020
1313 Clouds 21 1012 83 0 4.68 153 13:20 15.06.2020
1314 Clouds 21 1012 83 0 4.68 153 12:55 15.06.2020
1315 Clouds 21 1012 83 0 4.68 153 12:36 15.06.2020
1316 Clear 21 1012 84 0 4.53 152 12:18 15.06.2020
1317 Clear 21 1012 84 0 4.53 152 11:42 15.06.2020
1318 Clear 21 1012 84 0 4.32 150 11:24 15.06.2020
1319 Clear 21 1012 84 0 4.32 150 10:44 15.06.2020
1320 Clear 21 1012 83 0 4.23 150 10:22 15.06.2020
1321 Clear 21 1012 83 0 4.23 150 09:45 15.06.2020
1322 Clear 21 1012 84 0 4.26 150 09:25 15.06.2020
1323 Clear 21 1013 83 0 4.28 153 08:56 15.06.2020
1324 Clear 21 1013 83 0 4.28 153 08:37 15.06.2020
1325 Clear 21 1013 83 0 4.4 150 08:18 15.06.2020
1326 Clear 21 1013 83 0 4.4 150 07:41 15.06.2020
1327 Clear 21 1014 83 0 4.49 147 07:20 15.06.2020
1328 Clear 21 1014 83 0 4.49 147 06:30 15.06.2020
1329 Clear 21 1014 82 0 4.51 144 05:51 15.06.2020
1330 Clear 21 1014 82 0 4.51 144 05:31 15.06.2020
1331 Clear 22 1013 82 0 4.67 143 04:23 15.06.2020
1332 Clear 22 1013 82 0 4.67 143 03:49 15.06.2020
1333 Clear 22 1012 81 0 4.63 148 02:58 15.06.2020
1334 Clear 22 1012 81 0 4.63 148 02:32 15.06.2020
1335 Clouds 22 1012 81 0 4.61 158 01:47 15.06.2020
1336 Clouds 22 1011 80 0 4.52 164 01:27 15.06.2020
1337 Clouds 22 1011 80 0 4.52 164 00:45 15.06.2020
1338 Clouds 26 1009 65 10000 4.1 180 00:23 15.06.2020
1339 Clouds 26 1009 65 10000 4.1 180 23:58 14.06.2020
1340 Clouds 26 1009 65 10000 4.1 180 23:40 14.06.2020
1341 Clouds 26 1009 65 10000 4.1 180 23:22 14.06.2020
1342 Clouds 25 1010 69 10000 5.1 160 22:57 14.06.2020
1343 Clouds 25 1010 69 10000 5.1 160 22:37 14.06.2020
1344 Clouds 26 1010 65 10000 4.6 150 22:18 14.06.2020
1345 Clouds 26 1010 65 10000 4.6 150 21:56 14.06.2020
1346 Clouds 26 1010 65 10000 4.6 150 21:37 14.06.2020
1347 Clouds 25 1011 69 10000 4.6 150 21:18 14.06.2020
1348 Clouds 25 1011 69 10000 4.6 150 20:56 14.06.2020
1349 Clouds 25 1011 69 10000 4.6 150 20:37 14.06.2020
1350 Clouds 26 1012 74 10000 7.7 150 20:18 14.06.2020
1351 Clouds 26 1012 74 10000 7.7 150 19:55 14.06.2020
1352 Clouds 26 1012 74 10000 7.7 150 19:37 14.06.2020
1353 Clouds 25 1012 78 10000 7.7 150 19:18 14.06.2020
1354 Clouds 25 1012 78 10000 7.7 150 18:55 14.06.2020
1355 Clouds 25 1012 78 10000 7.7 150 18:37 14.06.2020
1356 Clouds 22 1014 79 0 4.98 157 18:18 14.06.2020
1357 Clouds 22 1014 79 0 4.98 157 17:40 14.06.2020
1358 Clouds 22 1012 83 10000 3.1 180 17:20 14.06.2020
1359 Clouds 22 1012 83 10000 3.1 180 16:58 14.06.2020
1360 Clouds 22 1012 83 10000 3.1 180 16:39 14.06.2020
1361 Clouds 22 1014 79 0 4.73 158 16:19 14.06.2020
1362 Clouds 22 1014 79 0 4.73 158 15:56 14.06.2020
1363 Clouds 22 1014 79 0 4.73 158 15:37 14.06.2020
1364 Clouds 22 1013 80 0 4.64 157 15:18 14.06.2020
1365 Clouds 22 1013 80 0 4.64 157 14:41 14.06.2020
1366 Clouds 22 1012 79 0 4.5 158 14:23 14.06.2020
1367 Clouds 22 1012 79 0 4.5 158 13:59 14.06.2020
1368 Clouds 22 1012 79 0 4.5 158 13:40 14.06.2020
1369 Clouds 22 1012 79 0 4.51 156 13:21 14.06.2020
1370 Clouds 22 1012 79 0 4.51 156 12:57 14.06.2020
1371 Clouds 22 1012 79 0 4.51 156 12:39 14.06.2020
1372 Clouds 22 1012 80 0 4.43 152 12:21 14.06.2020
1373 Clouds 22 1012 80 0 4.43 152 11:57 14.06.2020
1374 Clouds 22 1012 80 0 4.43 152 11:38 14.06.2020
1375 Clouds 22 1012 82 0 4.8 152 11:20 14.06.2020
1376 Clouds 22 1012 82 0 4.8 152 11:20 14.06.2020
1377 Clouds 22 1012 82 0 4.8 152 10:42 14.06.2020
1378 Clouds 22 1012 84 0 4.91 154 10:20 14.06.2020
1379 Clouds 22 1012 84 0 4.91 154 09:51 14.06.2020
1380 Clouds 22 1012 84 0 4.91 161 09:26 14.06.2020
1381 Clouds 22 1012 85 0 4.59 156 08:59 14.06.2020
1382 Clouds 22 1012 85 0 4.59 156 08:41 14.06.2020
1383 Clouds 22 1013 85 0 4.61 157 08:18 14.06.2020
1384 Clouds 22 1013 85 0 4.61 157 07:51 14.06.2020
1385 Clouds 22 1013 85 0 4.61 157 07:32 14.06.2020
1386 Clouds 22 1013 86 0 4.61 155 06:35 14.06.2020
1387 Clouds 22 1013 86 0 4.61 151 05:44 14.06.2020
1388 Clouds 22 1013 87 0 4.53 148 04:58 14.06.2020
1389 Clouds 22 1013 87 0 4.53 148 04:31 14.06.2020
1390 Clouds 22 1012 85 0 3.91 150 03:23 14.06.2020
1391 Clouds 22 1011 85 0 4.53 150 02:30 14.06.2020
1392 Clouds 22 1010 83 0 4.72 154 01:42 14.06.2020
1393 Clouds 24 1008 78 10000 5.1 150 01:23 14.06.2020
1394 Clouds 24 1008 78 10000 5.1 150 00:38 14.06.2020
1395 Clouds 24 1008 78 10000 6.2 160 00:18 14.06.2020
1396 Clouds 24 1008 78 10000 6.2 160 23:43 13.06.2020
1397 Clouds 24 1008 78 10000 6.2 160 23:23 13.06.2020
1398 Clouds 24 1010 78 10000 6.7 180 22:57 13.06.2020
1399 Clouds 24 1010 78 10000 6.7 180 22:37 13.06.2020
1400 Clouds 23 1011 83 10000 5.1 180 22:18 13.06.2020
1401 Clouds 23 1011 83 10000 5.1 180 22:18 13.06.2020
1402 Clouds 23 1011 83 10000 5.1 180 21:55 13.06.2020
1403 Clouds 23 1011 83 10000 5.1 180 21:37 13.06.2020
1404 Clouds 23 1011 83 10000 7.2 150 21:18 13.06.2020
1405 Clouds 23 1011 83 10000 7.2 150 20:42 13.06.2020
1406 Clouds 23 1011 83 10000 5.7 150 20:19 13.06.2020
1407 Clouds 23 1011 83 10000 5.7 150 19:42 13.06.2020
1408 Clouds 23 1011 83 10000 5.7 150 19:21 13.06.2020
1409 Clouds 23 1012 83 10000 7.2 180 18:59 13.06.2020
1410 Clouds 23 1012 83 10000 7.2 180 18:41 13.06.2020
1411 Clouds 23 1012 83 10000 7.2 180 18:21 13.06.2020
1412 Clouds 23 1011 83 10000 6.2 180 17:59 13.06.2020
1413 Clouds 23 1011 83 10000 6.2 180 17:40 13.06.2020
1414 Clouds 23 1011 83 10000 6.2 180 17:22 13.06.2020
1415 Clouds 21 1011 94 10000 4.6 150 16:56 13.06.2020
1416 Clouds 21 1011 94 10000 4.6 150 16:37 13.06.2020
1417 Clouds 22 1014 83 0 6.37 152 16:19 13.06.2020
1418 Clouds 22 1014 83 0 6.37 152 15:44 13.06.2020
1419 Clouds 22 1013 82 0 6.1 153 15:26 13.06.2020
1420 Clouds 22 1013 82 0 6.1 153 14:55 13.06.2020
1421 Clouds 22 1013 82 0 6.1 153 14:36 13.06.2020
1422 Clouds 22 1012 82 0 6 154 14:18 13.06.2020
1423 Clouds 22 1012 82 0 5.86 157 13:41 13.06.2020
1424 Clouds 22 1012 81 0 5.7 160 13:23 13.06.2020
1425 Clouds 22 1012 81 0 5.7 160 12:44 13.06.2020
1426 Clouds 22 1011 80 0 5.45 161 12:26 13.06.2020
1427 Clouds 22 1011 80 0 5.45 161 11:59 13.06.2020
1428 Clouds 22 1011 80 0 5.45 161 11:39 13.06.2020
1429 Clouds 22 1011 81 0 5.25 161 11:19 13.06.2020
1430 Clouds 22 1011 81 0 5.25 161 10:56 13.06.2020
1431 Clouds 22 1011 81 0 5.25 161 10:38 13.06.2020
1432 Clouds 22 1012 81 0 5.39 160 10:18 13.06.2020
1433 Clouds 22 1012 81 0 5.39 160 09:44 13.06.2020
1434 Clouds 22 1013 81 0 5.71 157 09:22 13.06.2020
1435 Clouds 22 1013 81 0 5.71 157 08:49 13.06.2020
1436 Clouds 22 1013 81 0 5.71 157 08:30 13.06.2020
1437 Clouds 22 1013 81 0 5.62 159 07:54 13.06.2020
1438 Clouds 22 1013 81 0 5.87 161 07:28 13.06.2020
1439 Clouds 22 1013 81 0 5.87 161 06:49 13.06.2020
1440 Clouds 22 1014 81 0 6.04 161 06:28 13.06.2020
1441 Clouds 22 1014 81 0 6.04 161 05:42 13.06.2020
1442 Clouds 22 1014 81 0 5.89 160 05:23 13.06.2020
1443 Clouds 22 1013 82 0 5.91 159 03:47 13.06.2020
1444 Clouds 22 1012 82 0 5.87 161 02:53 13.06.2020
1445 Clouds 22 1012 81 0 5.78 160 02:29 13.06.2020
1446 Clouds 25 1015 73 10000 7.2 150 01:37 13.06.2020
1447 Clouds 25 1015 73 10000 7.2 150 01:18 13.06.2020
1448 Clouds 25 1015 73 10000 7.2 150 00:39 13.06.2020
1449 Clouds 25 1011 73 10000 6.7 150 00:21 13.06.2020
1450 Clouds 25 1011 73 10000 6.7 150 23:41 12.06.2020
1451 Clouds 26 1011 69 10000 6.7 150 23:19 12.06.2020
1452 Clouds 26 1011 69 10000 6.7 150 22:56 12.06.2020
1453 Clouds 26 1011 69 10000 6.7 150 22:38 12.06.2020
1454 Clouds 26 1012 69 10000 5.7 140 22:18 12.06.2020
1455 Clouds 26 1012 69 10000 5.7 140 21:44 12.06.2020
1456 Clouds 26 1012 69 10000 5.7 140 21:24 12.06.2020
1457 Clouds 26 1013 69 10000 7.7 150 20:57 12.06.2020
1458 Clouds 26 1013 69 10000 7.7 150 20:39 12.06.2020
1459 Clouds 23 1013 88 10000 6.2 180 20:20 12.06.2020
1460 Clouds 23 1013 88 10000 6.2 180 19:46 12.06.2020
1461 Clouds 23 1013 88 10000 6.2 180 19:22 12.06.2020
1462 Clouds 23 1013 88 10000 6.2 180 19:22 12.06.2020
1463 Clouds 23 1014 88 10000 5.1 150 18:59 12.06.2020
1464 Clouds 23 1014 88 10000 5.1 150 18:37 12.06.2020
1465 Clouds 24 1014 83 10000 5.7 180 18:18 12.06.2020
1466 Clouds 24 1014 83 10000 5.7 180 17:44 12.06.2020
1467 Clouds 24 1014 83 10000 5.7 180 17:26 12.06.2020
1468 Clouds 24 1014 83 10000 6.2 150 16:47 12.06.2020
1469 Clouds 24 1014 83 10000 6.2 150 16:24 12.06.2020
1470 Clouds 22 1016 79 0 6.63 151 15:56 12.06.2020
1471 Clouds 22 1016 79 0 6.63 151 15:37 12.06.2020
1472 Clouds 22 1015 79 0 6.64 153 15:18 12.06.2020
1473 Clouds 22 1015 79 0 6.64 153 14:41 12.06.2020
1474 Clouds 22 1015 81 0 6.53 150 14:22 12.06.2020
1475 Clouds 22 1015 81 0 6.53 150 13:56 12.06.2020
1476 Clouds 22 1015 81 0 6.53 150 13:38 12.06.2020
1477 Clouds 22 1015 81 0 6.57 152 13:18 12.06.2020
1478 Clouds 22 1015 81 0 6.57 152 12:40 12.06.2020
1479 Clouds 22 1014 81 0 6.69 155 12:19 12.06.2020
1480 Clouds 22 1014 81 0 6.69 155 11:45 12.06.2020
1481 Clouds 22 1014 80 0 6.59 159 11:23 12.06.2020
1482 Clouds 22 1014 80 0 6.59 159 11:23 12.06.2020
1483 Clouds 22 1014 80 0 6.59 159 10:57 12.06.2020
1484 Clouds 22 1014 80 0 6.59 159 10:39 12.06.2020
1485 Clouds 22 1014 80 0 6.26 160 10:21 12.06.2020
1486 Clouds 22 1014 80 0 6.26 160 09:44 12.06.2020
1487 Clouds 22 1015 79 0 6.4 159 09:20 12.06.2020
1488 Clouds 22 1015 79 0 6.4 159 08:42 12.06.2020
1489 Clouds 22 1015 80 0 6.95 159 08:23 12.06.2020
1490 Clouds 22 1015 80 0 6.95 159 07:43 12.06.2020
1491 Clouds 22 1016 81 0 7.27 159 07:24 12.06.2020
1492 Clouds 22 1016 81 0 7.27 159 06:44 12.06.2020
1493 Clouds 22 1016 80 0 7.3 160 06:23 12.06.2020
1494 Clouds 22 1016 80 0 7.3 160 05:50 12.06.2020
1495 Clouds 22 1015 81 0 7.13 159 05:25 12.06.2020
1496 Clouds 22 1014 81 0 6.84 157 03:56 12.06.2020
1497 Clouds 22 1013 81 0 6.65 156 02:43 12.06.2020
1498 Clouds 22 1013 81 0 6.11 155 01:47 12.06.2020
1499 Clouds 23 1011 83 10000 4.6 180 01:20 12.06.2020
1500 Clouds 23 1011 83 10000 4.6 180 00:39 12.06.2020
1501 Clouds 23 1011 83 10000 4.6 180 00:20 12.06.2020
1502 Clouds 23 1011 83 10000 7.2 180 23:57 11.06.2020
1503 Clouds 23 1011 83 10000 7.2 180 23:38 11.06.2020
1504 Clouds 24 1012 78 10000 4.1 180 23:19 11.06.2020
1505 Clouds 24 1012 78 10000 4.1 180 22:54 11.06.2020
1506 Clouds 24 1012 78 10000 4.1 180 22:36 11.06.2020
1507 Clouds 26 1013 69 10000 6.2 190 22:18 11.06.2020
1508 Clouds 26 1013 69 10000 6.2 190 21:42 11.06.2020
1509 Clouds 26 1013 69 10000 6.2 190 21:20 11.06.2020
1510 Clouds 26 1014 69 10000 5.7 160 20:57 11.06.2020
1511 Clouds 26 1014 69 10000 5.7 160 20:38 11.06.2020
1512 Clouds 26 1014 69 10000 5.7 160 20:20 11.06.2020
1513 Clouds 25 1014 73 10000 7.2 150 19:43 11.06.2020
1514 Clouds 25 1014 73 10000 7.2 150 19:22 11.06.2020
1515 Clouds 25 1015 69 10000 6.2 180 18:54 11.06.2020
1516 Clouds 25 1015 69 10000 6.2 180 18:36 11.06.2020
1517 Clouds 25 1014 69 10000 5.7 180 18:18 11.06.2020
1518 Clouds 25 1014 69 10000 5.7 180 17:39 11.06.2020
1519 Clouds 25 1014 69 10000 5.7 180 17:20 11.06.2020
1520 Clouds 24 1014 73 10000 4.6 180 16:59 11.06.2020
1521 Clouds 24 1014 73 10000 4.6 180 16:41 11.06.2020
1522 Clouds 24 1014 73 10000 4.6 180 16:23 11.06.2020
1523 Clouds 22 1016 80 0 7.27 148 15:57 11.06.2020
1524 Clouds 22 1016 80 0 7.27 148 15:38 11.06.2020
1525 Clouds 22 1015 80 0 7.25 147 15:19 11.06.2020
1526 Clouds 22 1015 80 0 7.25 147 14:43 11.06.2020
1527 Clouds 22 1015 80 0 7.12 151 14:21 11.06.2020
1528 Clouds 22 1015 80 0 7.12 151 13:56 11.06.2020
1529 Clouds 22 1015 80 0 7.12 151 13:38 11.06.2020
1530 Clouds 22 1015 80 0 7.12 151 13:38 11.06.2020
1531 Clouds 22 1014 79 0 6.86 153 13:20 11.06.2020
1532 Clouds 22 1014 79 0 6.86 153 12:56 11.06.2020
1533 Clouds 22 1014 79 0 6.86 153 12:56 11.06.2020
1534 Clouds 22 1014 79 0 6.86 153 12:37 11.06.2020
1535 Clouds 22 1014 80 0 6.78 156 12:19 11.06.2020
1536 Clouds 22 1014 80 0 6.78 156 11:56 11.06.2020
1537 Clouds 22 1014 80 0 6.78 156 11:37 11.06.2020
1538 Clouds 22 1014 80 0 6.55 157 11:18 11.06.2020
1539 Clouds 22 1014 80 0 6.55 157 10:43 11.06.2020
1540 Clouds 22 1014 80 0 6.4 159 10:20 11.06.2020
1541 Clouds 22 1014 80 0 6.4 159 09:59 11.06.2020
1542 Clouds 22 1014 80 0 6.4 159 09:40 11.06.2020
1543 Clouds 22 1015 80 0 6.33 156 09:21 11.06.2020
1544 Clouds 22 1015 80 0 6.33 156 08:42 11.06.2020
1545 Clear 22 1015 81 0 6.52 156 08:19 11.06.2020
1546 Clear 22 1015 81 0 6.52 156 07:42 11.06.2020
1547 Clear 22 1016 82 0 6.68 160 07:24 11.06.2020
1548 Clear 22 1016 82 0 6.68 160 06:37 11.06.2020
1549 Clear 22 1016 82 0 6.57 160 05:57 11.06.2020
1550 Clear 22 1015 82 0 6.5 159 04:48 11.06.2020
1551 Clear 22 1014 81 0 5.96 160 03:25 11.06.2020
1552 Clear 22 1014 81 0 5.96 160 02:49 11.06.2020
1553 Clouds 23 1013 80 0 6.25 163 01:57 11.06.2020
1554 Clouds 25 1011 73 10000 9.3 150 01:35 11.06.2020
1555 Clouds 25 1011 73 10000 9.3 150 00:57 11.06.2020
1556 Clouds 25 1011 73 10000 9.3 150 00:39 11.06.2020
1557 Clouds 26 1011 69 10000 7.7 170 00:19 11.06.2020
1558 Clouds 26 1011 69 10000 7.7 170 23:41 10.06.2020
1559 Clouds 26 1011 69 10000 7.7 170 23:22 10.06.2020
1560 Clouds 26 1011 69 10000 7.2 180 22:54 10.06.2020
1561 Clouds 26 1011 69 10000 7.2 180 22:36 10.06.2020
1562 Clouds 26 1011 69 10000 7.2 180 22:18 10.06.2020
1563 Clouds 26 1013 69 10000 5.7 180 21:55 10.06.2020
1564 Clouds 26 1013 69 10000 5.7 180 21:37 10.06.2020
1565 Clouds 26 1013 69 10000 5.7 180 21:18 10.06.2020
1566 Clouds 25 1013 73 10000 5.7 180 20:54 10.06.2020
1567 Clouds 25 1013 73 10000 5.7 180 20:36 10.06.2020
1568 Clouds 25 1013 73 10000 5.1 180 20:18 10.06.2020
1569 Clouds 25 1013 73 10000 5.1 180 19:38 10.06.2020
1570 Clouds 26 1014 69 10000 4.6 180 19:18 10.06.2020
1571 Clouds 26 1014 69 10000 4.6 180 18:54 10.06.2020
1572 Clouds 26 1014 69 10000 4.6 180 18:36 10.06.2020
1573 Clouds 26 1014 69 10000 4.6 180 18:36 10.06.2020
1574 Clouds 25 1014 73 10000 3.1 180 18:18 10.06.2020
1575 Clouds 25 1014 73 10000 3.1 180 17:42 10.06.2020
1576 Clouds 25 1014 73 10000 3.1 180 17:21 10.06.2020
1577 Clouds 24 1014 78 10000 4.6 190 16:59 10.06.2020
1578 Clouds 24 1014 78 10000 4.6 190 16:41 10.06.2020
1579 Clouds 24 1014 78 10000 4.6 190 16:22 10.06.2020
1580 Clouds 23 1015 79 0 6.93 168 15:59 10.06.2020
1581 Clouds 23 1015 79 0 6.93 168 15:38 10.06.2020
1582 Clouds 23 1014 78 0 7.28 172 15:19 10.06.2020
1583 Clouds 23 1014 78 0 7.28 172 14:41 10.06.2020
1584 Clouds 23 1014 77 0 7.43 174 14:22 10.06.2020
1585 Clouds 23 1014 78 0 7.17 172 13:57 10.06.2020
1586 Clouds 23 1014 78 0 7.17 172 13:39 10.06.2020
1587 Clouds 23 1014 76 0 7 171 13:21 10.06.2020
1588 Clouds 23 1014 76 0 7 171 12:41 10.06.2020
1589 Clouds 22 1013 77 0 7.38 169 12:19 10.06.2020
1590 Clouds 22 1013 77 0 7.38 169 11:55 10.06.2020
1591 Clouds 22 1013 77 0 7.38 169 11:37 10.06.2020
1592 Clouds 23 1014 77 0 6.99 169 11:19 10.06.2020
1593 Clouds 23 1014 77 0 6.99 169 10:41 10.06.2020
1594 Clouds 23 1014 78 0 6.81 168 10:22 10.06.2020
1595 Clouds 23 1014 78 0 6.81 168 09:57 10.06.2020
1596 Clouds 23 1014 78 0 6.81 168 09:37 10.06.2020
1597 Clouds 23 1015 80 0 6.68 165 09:19 10.06.2020
1598 Clouds 23 1015 80 0 6.68 165 08:42 10.06.2020
1599 Clouds 23 1015 81 0 6.05 160 08:23 10.06.2020
1600 Clouds 23 1015 81 0 6.05 160 07:43 10.06.2020
1601 Clouds 23 1016 82 0 5.14 159 07:23 10.06.2020
1602 Clouds 23 1016 82 0 5.14 159 06:55 10.06.2020
1603 Clouds 23 1016 82 0 5.14 159 06:37 10.06.2020
1604 Clouds 23 1016 81 0 4.81 162 06:18 10.06.2020
1605 Clouds 23 1016 81 0 4.81 162 06:18 10.06.2020
1606 Clouds 23 1016 81 0 4.81 162 05:32 10.06.2020
1607 Clouds 23 1016 80 0 4.21 156 04:49 10.06.2020
1608 Clouds 23 1015 80 0 4.59 160 04:28 10.06.2020
1609 Clouds 23 1014 80 0 4.74 164 02:33 10.06.2020
1610 Clouds 23 1013 80 0 5.06 168 01:42 10.06.2020
1611 Clouds 25 1011 69 10000 5.1 180 00:55 10.06.2020
1612 Clouds 25 1011 69 10000 5.1 180 00:36 10.06.2020
1613 Clouds 25 1011 73 10000 5.7 180 00:18 10.06.2020
1614 Clouds 25 1011 73 10000 5.7 180 23:41 09.06.2020
1615 Clouds 25 1011 73 10000 5.7 180 23:23 09.06.2020
1616 Clouds 25 1012 73 10000 4.1 180 22:57 09.06.2020
1617 Clouds 25 1012 73 10000 4.1 180 22:39 09.06.2020
1618 Clouds 25 1012 73 10000 4.1 180 22:20 09.06.2020
1619 Clouds 26 1012 74 10000 4.6 180 21:57 09.06.2020
1620 Clouds 26 1012 74 10000 4.6 180 21:39 09.06.2020
1621 Clouds 26 1012 74 10000 4.6 180 21:21 09.06.2020
1622 Clouds 26 1013 74 10000 6.2 180 20:57 09.06.2020
1623 Clouds 26 1013 74 10000 6.2 180 20:57 09.06.2020
1624 Clouds 26 1013 74 10000 6.2 180 20:38 09.06.2020
1625 Clouds 26 1013 74 10000 6.2 180 20:20 09.06.2020
1626 Clouds 26 1013 65 10000 5.7 180 19:57 09.06.2020
1627 Clouds 26 1013 65 10000 5.7 180 19:39 09.06.2020
1628 Clouds 26 1013 65 10000 5.7 180 19:20 09.06.2020
1629 Clouds 24 1014 83 10000 3.1 180 18:56 09.06.2020
1630 Clouds 24 1014 83 10000 3.1 180 18:37 09.06.2020
1631 Clouds 23 1016 83 0 6.78 168 18:18 09.06.2020
1632 Clouds 23 1016 83 0 6.78 168 17:54 09.06.2020
1633 Clouds 23 1016 83 0 6.78 168 17:36 09.06.2020
1634 Clouds 23 1015 83 0 7.07 169 17:18 09.06.2020
1635 Clouds 23 1015 83 0 7.07 169 16:42 09.06.2020
1636 Clouds 23 1015 83 0 7.33 173 16:22 09.06.2020
1637 Clouds 23 1015 83 0 7.33 173 15:55 09.06.2020
1638 Clouds 23 1015 83 0 7.33 173 15:36 09.06.2020
1639 Clouds 23 1014 83 0 7.35 175 15:18 09.06.2020
1640 Clouds 23 1014 83 0 7.35 175 14:40 09.06.2020
1641 Clouds 23 1013 84 0 7.07 176 14:20 09.06.2020
1642 Clouds 23 1013 84 0 7.16 176 13:57 09.06.2020
1643 Clouds 23 1013 84 0 7.16 176 13:57 09.06.2020
1644 Clouds 23 1013 84 0 7.16 176 13:38 09.06.2020
1645 Clouds 23 1013 84 0 7.09 178 13:20 09.06.2020
1646 Clouds 23 1013 84 0 7.09 178 12:42 09.06.2020
1647 Clouds 23 1013 83 0 6.86 180 12:21 09.06.2020
1648 Clouds 23 1013 83 0 6.86 180 11:58 09.06.2020
1649 Clouds 23 1013 83 0 6.86 180 11:40 09.06.2020
1650 Clouds 23 1013 82 0 6.88 180 11:20 09.06.2020
1651 Clouds 23 1013 82 0 6.88 180 10:55 09.06.2020
1652 Clouds 23 1013 82 0 6.88 180 10:36 09.06.2020
1653 Clouds 23 1013 82 0 7.15 178 10:18 09.06.2020
1654 Clouds 23 1013 82 0 7.15 178 10:18 09.06.2020
1655 Clouds 23 1013 82 0 7.15 178 09:41 09.06.2020
1656 Clouds 23 1014 82 0 7.26 178 09:19 09.06.2020
1657 Clouds 23 1014 83 0 6.53 182 08:40 09.06.2020
1658 Clouds 23 1014 83 0 6.61 180 08:21 09.06.2020
1659 Clouds 23 1014 83 0 6.61 180 07:59 09.06.2020
1660 Clouds 23 1014 83 0 6.61 180 07:36 09.06.2020
1661 Clouds 23 1015 83 0 6.75 178 07:18 09.06.2020
1662 Clouds 23 1015 83 0 6.75 178 06:51 09.06.2020
1663 Clouds 23 1015 84 0 6.32 176 06:27 09.06.2020
1664 Clouds 23 1014 84 0 5.72 169 04:35 09.06.2020
1665 Clouds 23 1012 84 0 5.06 172 02:50 09.06.2020
1666 Clouds 25 1009 78 10000 6.2 180 01:39 09.06.2020
1667 Clouds 25 1009 78 10000 6.2 180 01:19 09.06.2020
1668 Clouds 25 1009 78 10000 6.2 180 00:44 09.06.2020
1669 Clouds 26 1010 74 10000 6.7 180 00:20 09.06.2020
1670 Clouds 26 1010 74 10000 6.7 180 23:43 08.06.2020
1671 Clouds 26 1010 74 10000 6.7 180 23:22 08.06.2020
1672 Clouds 27 1010 69 10000 6.2 160 22:59 08.06.2020
1673 Clouds 27 1010 69 10000 6.2 160 22:39 08.06.2020
1674 Clouds 27 1010 69 10000 6.2 160 22:20 08.06.2020
1675 Clouds 26 1011 74 10000 5.1 150 21:56 08.06.2020
1676 Clouds 26 1011 74 10000 5.1 150 21:38 08.06.2020
1677 Clouds 23 1013 78 0 3.81 155 21:19 08.06.2020
1678 Clouds 23 1014 79 0 3.81 147 20:55 08.06.2020
1679 Clouds 25 1013 78 10000 5.7 150 20:37 08.06.2020
1680 Clouds 25 1013 78 10000 5.7 150 20:18 08.06.2020
1681 Clouds 25 1013 78 10000 5.7 150 19:43 08.06.2020
1682 Clouds 25 1014 78 10000 7.2 150 19:22 08.06.2020
1683 Clouds 25 1014 78 10000 7.2 150 18:44 08.06.2020
1684 Clouds 25 1014 78 10000 7.2 150 18:23 08.06.2020
1685 Clouds 24 1014 83 10000 3.1 150 17:58 08.06.2020
1686 Clouds 24 1014 83 10000 3.1 150 17:40 08.06.2020
1687 Clouds 24 1014 83 10000 3.1 150 17:22 08.06.2020
1688 Clouds 24 1013 83 10000 5.7 150 16:59 08.06.2020
1689 Clouds 24 1013 83 10000 5.7 150 16:41 08.06.2020
1690 Clouds 24 1013 83 10000 5.7 150 16:22 08.06.2020
1691 Clouds 23 1015 84 0 5.64 151 15:44 08.06.2020
1692 Clouds 23 1013 84 0 6.31 149 15:22 08.06.2020
1693 Clouds 23 1013 84 0 6.31 149 14:58 08.06.2020
1694 Clouds 23 1013 84 0 6.31 149 14:39 08.06.2020
1695 Clouds 23 1013 84 0 5.31 140 14:19 08.06.2020
1696 Clouds 23 1013 84 0 5.31 140 13:44 08.06.2020
1697 Clouds 23 1013 83 0 5.17 143 13:24 08.06.2020
1698 Clouds 23 1013 83 0 5.17 143 12:43 08.06.2020
1699 Clouds 23 1012 84 0 5.23 153 12:20 08.06.2020
1700 Clouds 23 1012 84 0 5.23 153 11:59 08.06.2020
1701 Clouds 23 1012 84 0 5.23 153 11:40 08.06.2020
1702 Clouds 23 1012 84 0 5.04 160 11:22 08.06.2020
1703 Clouds 23 1012 84 0 5.04 160 11:22 08.06.2020
1704 Clouds 23 1012 84 0 5.04 160 10:58 08.06.2020
1705 Clouds 23 1012 84 0 5.04 160 10:38 08.06.2020
1706 Clouds 23 1012 85 0 4.82 160 10:20 08.06.2020
1707 Clouds 23 1012 85 0 4.82 160 09:57 08.06.2020
1708 Clouds 23 1012 85 0 4.82 160 09:57 08.06.2020
1709 Clouds 23 1012 85 0 4.82 160 09:57 08.06.2020
1710 Clouds 23 1012 85 0 4.82 160 09:39 08.06.2020
1711 Clouds 23 1013 86 0 4.61 155 09:20 08.06.2020
1712 Clouds 22 1013 86 0 4.52 156 08:42 08.06.2020
1713 Clouds 22 1013 86 0 4.73 153 08:20 08.06.2020
1714 Clouds 22 1013 86 0 4.73 153 07:43 08.06.2020
1715 Clouds 23 1014 86 0 4.48 149 07:21 08.06.2020
1716 Clouds 23 1014 86 0 4.48 149 06:48 08.06.2020
1717 Clouds 23 1014 86 0 4.25 149 06:28 08.06.2020
1718 Clouds 23 1014 86 0 4.25 149 05:43 08.06.2020
1719 Clouds 23 1013 86 0 4.24 146 03:43 08.06.2020
1720 Clouds 23 1011 84 0 4.44 145 02:27 08.06.2020
1721 Clouds 23 1011 85 0 4.19 144 01:45 08.06.2020
1722 Clouds 27 1009 65 10000 6.7 180 01:20 08.06.2020
1723 Clouds 27 1009 65 10000 6.7 180 00:28 08.06.2020
1724 Clouds 27 1009 65 10000 5.1 190 23:40 07.06.2020
1725 Clouds 27 1009 65 10000 5.1 190 23:19 07.06.2020
1726 Clouds 27 1009 65 10000 5.1 190 23:19 07.06.2020
1727 Clouds 27 1010 65 10000 5.1 150 22:58 07.06.2020
1728 Clouds 27 1010 65 10000 5.1 150 22:38 07.06.2020
1729 Clouds 27 1010 65 10000 5.1 150 22:19 07.06.2020
1730 Clouds 27 1011 65 10000 4.1 150 21:58 07.06.2020
1731 Clouds 27 1011 65 10000 4.1 150 21:37 07.06.2020
1732 Clouds 27 1011 65 10000 4.1 150 21:19 07.06.2020
1733 Clouds 27 1012 65 10000 7.2 150 20:40 07.06.2020
1734 Clouds 27 1012 65 10000 7.2 150 20:21 07.06.2020
1735 Clouds 25 1013 78 10000 6.2 180 19:59 07.06.2020
1736 Clouds 25 1013 78 10000 6.2 180 19:41 07.06.2020
1737 Clouds 25 1013 78 10000 4.6 150 19:21 07.06.2020
1738 Clouds 25 1013 78 10000 4.6 150 18:59 07.06.2020
1739 Clouds 25 1013 78 10000 4.6 150 18:38 07.06.2020
1740 Clouds 24 1013 88 10000 4.6 150 18:20 07.06.2020
1741 Clouds 24 1013 88 10000 4.6 150 17:57 07.06.2020
1742 Clouds 24 1013 88 10000 4.6 150 17:38 07.06.2020
1743 Clouds 24 1013 88 10000 4.6 150 17:20 07.06.2020
1744 Clouds 24 1013 83 10000 4.1 150 16:43 07.06.2020
1745 Clouds 24 1013 83 10000 4.1 150 16:22 07.06.2020
1746 Clouds 23 1014 84 0 5.4 149 15:44 07.06.2020
1747 Clouds 23 1014 85 0 5.31 148 15:22 07.06.2020
1748 Clouds 23 1014 85 0 5.31 148 14:41 07.06.2020
1749 Clouds 23 1014 85 0 5.31 148 14:41 07.06.2020
1750 Clouds 22 1013 85 0 5.3 147 14:22 07.06.2020
1751 Clouds 23 1014 82 0 5.25 144 13:55 07.06.2020
1752 Clouds 23 1013 82 0 4.91 146 13:23 07.06.2020
1753 Clouds 23 1013 82 0 4.91 146 12:58 07.06.2020
1754 Clouds 23 1013 82 0 4.91 146 12:40 07.06.2020
1755 Clouds 23 1013 83 0 4.56 147 12:20 07.06.2020
1756 Clouds 23 1013 83 0 4.56 147 11:55 07.06.2020
1757 Clouds 23 1013 83 0 4.56 147 11:37 07.06.2020
1758 Clouds 23 1013 83 0 4.56 147 11:37 07.06.2020
1759 Clouds 23 1013 83 0 4.29 147 11:18 07.06.2020
1760 Clouds 23 1013 83 0 4.29 147 10:45 07.06.2020
1761 Clouds 23 1014 82 0 4.39 149 10:21 07.06.2020
1762 Clouds 23 1014 82 0 4.39 149 09:59 07.06.2020
1763 Clouds 23 1014 82 0 4.39 149 09:39 07.06.2020
1764 Clouds 23 1014 82 0 4.39 149 09:39 07.06.2020
1765 Clouds 23 1014 83 0 4.79 151 09:20 07.06.2020
1766 Clouds 23 1014 82 0 4.86 147 08:58 07.06.2020
1767 Clouds 23 1014 82 0 4.86 147 08:39 07.06.2020
1768 Clouds 23 1015 82 0 4.93 144 08:21 07.06.2020
1769 Clouds 23 1015 82 0 4.93 144 07:38 07.06.2020
1770 Clouds 23 1016 83 0 5.04 156 06:54 07.06.2020
1771 Clouds 23 1016 83 0 5.27 163 05:53 07.06.2020
1772 Clouds 23 1015 83 0 5.48 167 04:21 07.06.2020
1773 Clouds 23 1015 83 0 5.48 167 03:46 07.06.2020
1774 Clouds 23 1013 82 0 5.39 168 02:18 07.06.2020
1775 Clouds 25 1011 73 10000 5.7 150 01:25 07.06.2020
1776 Clouds 25 1011 73 10000 5.7 150 00:48 07.06.2020
1777 Clouds 25 1011 73 10000 5.7 150 00:20 07.06.2020
1778 Clouds 26 1011 69 10000 4.6 150 23:59 06.06.2020
1779 Clouds 26 1011 69 10000 4.6 150 23:38 06.06.2020
1780 Clouds 26 1011 69 10000 4.6 150 23:38 06.06.2020
1781 Clouds 26 1011 69 10000 4.6 150 23:19 06.06.2020
1782 Clouds 27 1012 61 10000 6.2 150 22:56 06.06.2020
1783 Clouds 27 1012 61 10000 6.2 150 22:38 06.06.2020
1784 Clouds 27 1012 61 10000 6.2 150 22:19 06.06.2020
1785 Clouds 27 1013 65 10000 6.2 180 21:46 06.06.2020
1786 Clouds 27 1013 65 10000 6.2 180 21:22 06.06.2020
1787 Clouds 27 1014 61 10000 7.2 180 20:58 06.06.2020
1788 Clouds 27 1014 61 10000 7.2 180 20:39 06.06.2020
1789 Clouds 27 1014 61 10000 7.2 180 20:18 06.06.2020
1790 Clouds 26 1014 74 10000 6.2 180 19:57 06.06.2020
1791 Clouds 26 1014 74 10000 6.2 180 19:38 06.06.2020
1792 Clouds 26 1014 74 10000 4.6 150 19:19 06.06.2020
1793 Clouds 26 1014 74 10000 4.6 150 18:43 06.06.2020
1794 Clouds 26 1014 74 10000 4.6 150 18:24 06.06.2020
1795 Clouds 26 1014 74 10000 4.1 180 17:58 06.06.2020
1796 Clouds 26 1014 74 10000 4.1 180 17:39 06.06.2020
1797 Clouds 26 1014 74 10000 4.1 180 17:19 06.06.2020
1798 Clouds 24 1014 83 10000 3.1 180 16:44 06.06.2020
1799 Clouds 24 1014 83 10000 3.1 180 16:22 06.06.2020
1800 Clouds 23 1015 84 0 4.01 184 15:56 06.06.2020
1801 Clouds 23 1015 84 0 4.01 184 15:37 06.06.2020
1802 Clouds 23 1014 85 0 3.92 191 15:19 06.06.2020
1803 Clouds 23 1014 85 0 3.92 191 14:43 06.06.2020
1804 Clouds 23 1014 85 0 3.74 178 14:25 06.06.2020
1805 Clouds 23 1014 85 0 3.74 178 13:58 06.06.2020
1806 Clouds 23 1014 85 0 3.74 178 13:40 06.06.2020
1807 Clouds 23 1013 85 0 3.88 183 13:18 06.06.2020
1808 Clouds 23 1013 85 0 3.88 183 12:43 06.06.2020
1809 Clouds 23 1013 85 0 4.02 186 12:23 06.06.2020
1810 Clouds 23 1013 85 0 4.02 186 11:58 06.06.2020
1811 Clouds 23 1013 85 0 4.02 186 11:38 06.06.2020
1812 Clouds 23 1012 85 0 3.91 184 11:20 06.06.2020
1813 Clouds 23 1012 85 0 3.91 184 10:58 06.06.2020
1814 Clouds 23 1012 85 0 3.91 184 10:39 06.06.2020
1815 Clouds 23 1013 86 0 4.02 186 10:20 06.06.2020
1816 Clouds 23 1013 86 0 4.02 186 09:45 06.06.2020
1817 Clouds 23 1013 83 0 3.61 178 09:27 06.06.2020
1818 Clouds 23 1013 83 0 3.61 178 08:56 06.06.2020
1819 Clouds 23 1013 83 0 3.61 178 08:38 06.06.2020
1820 Clear 23 1014 83 0 3.56 173 08:19 06.06.2020
1821 Clear 23 1014 83 0 3.56 173 08:19 06.06.2020
1822 Clear 23 1014 83 0 3.56 173 07:45 06.06.2020
1823 Clear 23 1014 84 0 3.68 157 07:21 06.06.2020
1824 Clear 23 1014 84 0 3.68 157 06:46 06.06.2020
1825 Clear 23 1015 84 0 3.83 151 06:27 06.06.2020
1826 Clear 23 1015 84 0 3.83 151 05:52 06.06.2020
1827 Clear 23 1015 85 0 4.15 150 05:26 06.06.2020
1828 Clear 23 1015 85 0 4.15 150 04:38 06.06.2020
1829 Clear 23 1013 84 0 4.69 150 02:45 06.06.2020
1830 Clouds 26 1010 74 10000 3.6 120 01:45 06.06.2020
1831 Clouds 27 1010 69 10000 6.2 120 01:18 06.06.2020
1832 Clouds 27 1010 69 10000 6.2 120 00:43 06.06.2020
1833 Clouds 27 1010 69 10000 6.2 120 00:25 06.06.2020
1834 Clouds 26 1010 69 10000 6.2 140 23:40 05.06.2020
1835 Clouds 26 1010 69 10000 6.2 140 23:21 05.06.2020
1836 Clouds 26 1010 74 10000 6.7 180 22:59 05.06.2020
1837 Clouds 26 1010 74 10000 6.7 180 22:41 05.06.2020
1838 Clouds 26 1010 74 10000 6.7 180 22:23 05.06.2020
1839 Clouds 26 1011 74 10000 5.1 150 21:57 05.06.2020
1840 Clouds 26 1011 74 10000 5.1 150 21:39 05.06.2020
1841 Clouds 26 1011 74 10000 5.1 150 21:19 05.06.2020
1842 Clouds 25 1011 83 10000 5.7 150 20:55 05.06.2020
1843 Clouds 25 1011 83 10000 5.7 150 20:37 05.06.2020
1844 Clouds 26 1012 74 10000 6.7 150 20:18 05.06.2020
1845 Clouds 26 1012 74 10000 6.7 150 19:40 05.06.2020
1846 Clouds 26 1012 74 10000 6.7 150 19:21 05.06.2020
1847 Clouds 26 1013 78 10000 6.2 150 18:40 05.06.2020
1848 Clouds 26 1013 78 10000 6.2 150 18:21 05.06.2020
1849 Rain 25 1013 78 8000 4.6 150 17:59 05.06.2020
1850 Rain 25 1013 78 8000 4.6 150 17:41 05.06.2020
1851 Rain 25 1013 78 8000 4.6 150 17:21 05.06.2020
1852 Rain 23 1012 88 10000 4.6 150 16:58 05.06.2020
1853 Rain 23 1012 88 10000 4.6 150 16:37 05.06.2020
1854 Rain 23 1012 88 10000 4.6 150 16:19 05.06.2020
1855 Clouds 23 1014 82 0 4.06 170 15:39 05.06.2020
1856 Clouds 23 1014 83 0 3.99 170 15:20 05.06.2020
1857 Clouds 23 1014 83 0 3.99 170 14:57 05.06.2020
1858 Clouds 23 1014 83 0 3.99 170 14:39 05.06.2020
1859 Clouds 23 1013 79 0 3.92 162 14:21 05.06.2020
1860 Clouds 23 1013 79 0 3.92 162 13:46 05.06.2020
1861 Clouds 23 1013 78 0 4.01 164 13:27 05.06.2020
1862 Clouds 23 1013 78 0 4.01 164 12:56 05.06.2020
1863 Clouds 23 1013 78 0 4.01 164 12:37 05.06.2020
1864 Clouds 23 1013 78 0 4.37 166 12:18 05.06.2020
1865 Clouds 23 1013 78 0 4.37 166 11:42 05.06.2020
1866 Clouds 24 1012 77 0 4.63 167 11:23 05.06.2020
1867 Clouds 24 1012 77 0 4.63 167 10:57 05.06.2020
1868 Clouds 24 1012 77 0 4.63 167 10:39 05.06.2020
1869 Clouds 24 1013 77 0 4.79 170 10:19 05.06.2020
1870 Clouds 24 1013 77 0 4.79 170 09:56 05.06.2020
1871 Clouds 24 1013 77 0 4.79 170 09:37 05.06.2020
1872 Clouds 24 1013 79 0 4.55 168 09:18 05.06.2020
1873 Clouds 24 1013 79 0 4.55 168 08:56 05.06.2020
1874 Clouds 24 1013 79 0 4.55 168 08:38 05.06.2020
1875 Clouds 24 1013 79 0 4.55 168 08:38 05.06.2020
1876 Clouds 24 1013 81 0 4.85 167 08:18 05.06.2020
1877 Clouds 24 1013 81 0 4.85 167 07:43 05.06.2020
1878 Clouds 23 1013 83 0 4.93 166 07:23 05.06.2020
1879 Clouds 23 1013 84 0 4.81 166 06:20 05.06.2020
1880 Clouds 23 1013 84 0 5.33 171 05:21 05.06.2020
1881 Clouds 23 1013 84 0 5.28 175 04:26 05.06.2020
1882 Clouds 23 1012 85 0 5.02 174 02:56 05.06.2020
1883 Clouds 23 1011 85 0 5.46 172 02:24 05.06.2020
1884 Clouds 23 1011 85 0 5.19 179 01:55 05.06.2020
1885 Rain 24 1008 83 8000 4.6 180 01:26 05.06.2020
1886 Rain 24 1008 83 8000 4.6 180 00:42 05.06.2020
1887 Rain 23 1008 88 8000 4.6 180 00:20 05.06.2020
1888 Rain 23 1008 88 8000 4.6 180 23:46 04.06.2020
1889 Rain 23 1008 88 8000 4.6 180 23:26 04.06.2020
1890 Clouds 26 1009 78 10000 4.6 180 22:55 04.06.2020
1891 Clouds 26 1009 78 10000 4.6 180 22:36 04.06.2020
1892 Clouds 26 1009 78 10000 4.6 180 22:18 04.06.2020
1893 Rain 25 1010 83 8000 3.6 150 21:41 04.06.2020
1894 Rain 25 1010 83 8000 3.6 150 21:23 04.06.2020
1895 Clouds 25 1011 78 10000 4.1 150 20:59 04.06.2020
1896 Clouds 25 1011 78 10000 4.1 150 20:40 04.06.2020
1897 Clouds 25 1011 78 10000 4.1 150 20:21 04.06.2020
1898 Clouds 26 1012 74 10000 3.1 180 19:57 04.06.2020
1899 Clouds 26 1012 74 10000 3.1 180 19:38 04.06.2020
1900 Clouds 26 1012 69 10000 6.2 120 19:20 04.06.2020
1901 Clouds 26 1012 69 10000 6.2 120 18:40 04.06.2020
1902 Clouds 26 1012 69 10000 6.2 120 18:21 04.06.2020
1903 Clouds 25 1012 83 10000 6.2 180 17:59 04.06.2020
1904 Clouds 25 1012 83 10000 6.2 180 17:41 04.06.2020
1905 Clouds 25 1012 83 10000 6.2 180 17:20 04.06.2020
1906 Clouds 24 1011 83 10000 3.1 150 16:41 04.06.2020
1907 Clouds 24 1011 83 10000 3.1 150 16:21 04.06.2020
1908 Clouds 23 1013 85 0 5.1 154 15:55 04.06.2020
1909 Clouds 23 1013 85 0 5.1 154 15:37 04.06.2020
1910 Clouds 23 1012 86 0 5.19 154 15:19 04.06.2020
1911 Clouds 23 1012 86 0 5.19 154 14:38 04.06.2020
1912 Clouds 23 1012 87 0 5.68 157 14:19 04.06.2020
1913 Clouds 23 1012 87 0 5.68 157 13:43 04.06.2020
1914 Clouds 23 1011 88 0 6.29 156 13:21 04.06.2020
1915 Clouds 23 1011 88 0 6.29 156 13:21 04.06.2020
1916 Clouds 23 1011 88 0 6.29 156 12:59 04.06.2020
1917 Clouds 23 1011 88 0 6.29 156 12:41 04.06.2020
1918 Clouds 23 1012 87 0 6.29 159 12:23 04.06.2020
1919 Clouds 23 1012 87 0 6.29 159 11:58 04.06.2020
1920 Clouds 23 1012 87 0 6.29 159 11:38 04.06.2020
1921 Clouds 23 1012 87 0 5.8 155 11:20 04.06.2020
1922 Clouds 23 1012 87 0 5.8 155 10:56 04.06.2020
1923 Clouds 23 1012 87 0 5.8 155 10:56 04.06.2020
1924 Clouds 23 1012 87 0 5.8 155 10:37 04.06.2020
1925 Clouds 23 1012 87 0 5.54 155 10:18 04.06.2020
1926 Clouds 23 1012 87 0 5.54 155 09:42 04.06.2020
1927 Clouds 23 1012 87 0 5.41 157 09:23 04.06.2020
1928 Clouds 23 1012 87 0 5.89 152 08:44 04.06.2020
1929 Clouds 23 1013 88 0 5.68 150 08:26 04.06.2020
1930 Clouds 23 1013 88 0 5.68 150 07:47 04.06.2020
1931 Clouds 23 1014 88 0 5.05 149 07:27 04.06.2020
1932 Clouds 23 1014 88 0 5.05 149 06:44 04.06.2020
1933 Clouds 23 1014 88 0 5.04 154 06:25 04.06.2020
1934 Clouds 23 1014 88 0 5.04 154 06:25 04.06.2020
1935 Clouds 23 1014 88 0 5.04 154 05:35 04.06.2020
1936 Clouds 23 1013 87 0 5.3 155 04:33 04.06.2020
1937 Clouds 23 1011 87 0 5.58 160 03:25 04.06.2020
1938 Clouds 24 1011 86 0 5.76 163 01:56 04.06.2020
1939 Clouds 26 1008 78 10000 6.2 150 01:19 04.06.2020
1940 Clouds 26 1008 78 10000 6.2 150 00:40 04.06.2020
1941 Clouds 26 1008 78 10000 6.2 150 23:44 03.06.2020
1942 Clouds 26 1008 78 10000 6.2 150 23:21 03.06.2020
1943 Clouds 27 1009 74 10000 4.1 180 22:59 03.06.2020
1944 Clouds 27 1009 74 10000 4.1 180 22:39 03.06.2020
1945 Clouds 27 1009 74 10000 4.1 180 22:19 03.06.2020
1946 Clouds 27 1010 74 10000 4.1 180 21:57 03.06.2020
1947 Clouds 27 1010 74 10000 4.1 180 21:38 03.06.2020
1948 Clouds 27 1010 74 10000 4.1 180 21:20 03.06.2020
1949 Clouds 26 1011 78 10000 5.1 180 20:55 03.06.2020
1950 Clouds 26 1011 78 10000 5.1 180 20:36 03.06.2020
1951 Clouds 26 1011 78 10000 5.1 180 20:36 03.06.2020
1952 Clouds 27 1012 74 10000 5.1 150 20:18 03.06.2020
1953 Clouds 27 1012 74 10000 5.1 150 19:54 03.06.2020
1954 Clouds 27 1012 74 10000 5.1 150 19:36 03.06.2020
1955 Clouds 26 1013 83 10000 6.7 150 19:18 03.06.2020
1956 Clouds 26 1013 83 10000 6.7 150 18:41 03.06.2020
1957 Clouds 25 1013 83 10000 4.1 150 18:21 03.06.2020
1958 Clouds 25 1013 83 10000 4.1 150 17:55 03.06.2020
1959 Clouds 25 1013 83 10000 4.1 150 17:37 03.06.2020
1960 Clouds 25 1013 83 10000 4.1 150 17:18 03.06.2020
1961 Clouds 25 1013 83 10000 3.6 150 16:41 03.06.2020
1962 Clouds 25 1013 83 10000 3.6 150 16:20 03.06.2020
1963 Clouds 23 1014 84 0 5.11 159 15:57 03.06.2020
1964 Clouds 23 1014 84 0 5.11 159 15:38 03.06.2020
1965 Clouds 23 1014 84 0 4.84 161 15:20 03.06.2020
1966 Clouds 23 1014 84 0 4.84 161 14:46 03.06.2020
1967 Clouds 23 1013 85 0 5.07 162 14:24 03.06.2020
1968 Clouds 23 1013 85 0 4.8 157 13:55 03.06.2020
1969 Clouds 23 1013 85 0 4.8 157 13:37 03.06.2020
1970 Clouds 23 1013 85 0 5.1 156 13:18 03.06.2020
1971 Clouds 23 1013 85 0 5.1 156 12:42 03.06.2020
1972 Clouds 23 1013 85 0 5.41 158 12:20 03.06.2020
1973 Clouds 23 1013 85 0 5.41 158 11:44 03.06.2020
1974 Clouds 23 1013 85 0 5.46 161 11:26 03.06.2020
1975 Clouds 23 1013 85 0 5.46 161 10:55 03.06.2020
1976 Clouds 23 1013 85 0 5.46 161 10:36 03.06.2020
1977 Clouds 23 1013 85 0 5.41 162 10:18 03.06.2020
1978 Clouds 23 1013 85 0 5.41 162 09:41 03.06.2020
1979 Clouds 23 1014 86 0 4.95 163 09:19 03.06.2020
1980 Clouds 23 1014 86 0 4.95 163 08:47 03.06.2020
1981 Clouds 23 1014 86 0 4.83 160 08:22 03.06.2020
1982 Clouds 23 1014 86 0 4.83 160 07:58 03.06.2020
1983 Clouds 23 1014 86 0 4.83 160 07:36 03.06.2020
1984 Clouds 23 1015 86 0 4.88 157 07:18 03.06.2020
1985 Clouds 23 1015 86 0 4.88 157 06:44 03.06.2020
1986 Clouds 23 1015 87 0 5.15 158 06:22 03.06.2020
1987 Clouds 23 1015 87 0 5.15 158 05:44 03.06.2020
1988 Clouds 23 1014 88 0 4.94 167 04:20 03.06.2020
1989 Clouds 23 1014 88 0 4.94 167 03:41 03.06.2020
1990 Clouds 23 1012 87 0 4.8 168 02:34 03.06.2020
1991 Clouds 24 1012 86 0 5.08 168 01:42 03.06.2020
1992 Clouds 26 1010 74 10000 5.7 180 00:38 03.06.2020
1993 Clouds 26 1010 74 10000 5.7 180 00:19 03.06.2020
1994 Clouds 26 1010 74 0 6.7 180 23:43 02.06.2020
1995 Clouds 26 1010 74 0 6.7 180 23:24 02.06.2020
1996 Rain 25 1011 78 4000 3.1 150 22:40 02.06.2020
1997 Rain 25 1011 78 4000 3.1 150 22:19 02.06.2020
1998 Clouds 28 1012 61 10000 5.1 180 21:57 02.06.2020
1999 Clouds 28 1012 61 10000 5.1 180 21:39 02.06.2020
2000 Clouds 28 1012 61 10000 5.1 180 21:21 02.06.2020
2001 Clouds 28 1012 61 10000 5.1 180 21:21 02.06.2020
2002 Clouds 26 1013 74 10000 5.1 150 20:59 02.06.2020
2003 Clouds 26 1013 74 10000 5.1 150 20:40 02.06.2020
2004 Clouds 26 1013 74 10000 5.1 150 20:22 02.06.2020
2005 Clouds 24 1014 83 0 5.06 170 19:45 02.06.2020
2006 Clouds 26 1014 78 10000 6.2 180 19:26 02.06.2020
2007 Clouds 26 1014 78 10000 6.2 180 18:59 02.06.2020
2008 Clouds 26 1014 78 10000 6.2 180 18:40 02.06.2020
2009 Clouds 26 1014 78 10000 6.2 180 18:20 02.06.2020
2010 Clouds 25 1014 78 10000 4.6 180 17:59 02.06.2020
2011 Clouds 25 1014 78 10000 4.6 180 17:40 02.06.2020
2012 Clouds 25 1014 78 10000 4.6 180 17:21 02.06.2020
2013 Clouds 24 1013 83 10000 5.7 180 16:55 02.06.2020
2014 Clouds 24 1013 83 10000 5.7 180 16:37 02.06.2020
2015 Clouds 24 1013 83 10000 5.7 180 16:19 02.06.2020
2016 Clouds 24 1015 84 0 4.65 158 15:40 02.06.2020
2017 Clouds 24 1014 85 0 4.86 157 15:21 02.06.2020
2018 Clouds 24 1014 85 0 4.86 157 14:47 02.06.2020
2019 Clouds 24 1014 85 0 5.07 158 14:28 02.06.2020
2020 Clouds 24 1014 85 0 4.62 153 13:55 02.06.2020
2021 Clouds 24 1014 85 0 4.62 153 13:37 02.06.2020
2022 Clouds 23 1013 85 0 4.86 151 13:18 02.06.2020
2023 Clouds 23 1013 85 0 4.86 151 12:56 02.06.2020
2024 Clouds 23 1013 85 0 4.86 151 12:37 02.06.2020
2025 Clouds 23 1013 86 0 4.96 149 12:19 02.06.2020
2026 Clouds 23 1013 86 0 4.96 149 11:41 02.06.2020
2027 Clouds 23 1013 87 0 5 149 11:22 02.06.2020
2028 Clouds 23 1013 87 0 5 149 10:56 02.06.2020
2029 Clouds 23 1013 87 0 5 149 10:56 02.06.2020
2030 Clouds 23 1013 87 0 5 149 10:38 02.06.2020
2031 Clouds 23 1013 87 0 4.71 147 10:20 02.06.2020
2032 Clouds 23 1013 87 0 4.71 147 09:43 02.06.2020
2033 Clouds 23 1014 88 0 3.62 146 09:21 02.06.2020
2034 Clouds 23 1014 88 0 3.62 146 08:53 02.06.2020
2035 Clouds 23 1015 88 0 3.96 145 08:28 02.06.2020
2036 Clouds 23 1015 88 0 3.96 145 07:58 02.06.2020
2037 Clouds 23 1015 88 0 3.96 145 07:32 02.06.2020
2038 Clouds 23 1015 87 0 4.63 148 06:58 02.06.2020
2039 Clouds 23 1015 87 0 4.63 148 06:36 02.06.2020
2040 Clouds 23 1016 87 0 4.74 152 05:31 02.06.2020
2041 Clouds 24 1014 85 0 4.3 148 03:54 02.06.2020
2042 Clouds 24 1013 86 0 4.68 151 02:31 02.06.2020
2043 Clouds 24 1012 85 0 4.98 161 01:43 02.06.2020
2044 Clouds 25 1011 78 10000 6.2 150 00:27 02.06.2020
2045 Clouds 28 1011 65 10000 6.7 150 23:59 01.06.2020
2046 Clouds 28 1011 65 10000 6.7 150 23:38 01.06.2020
2047 Clouds 28 1011 65 10000 6.7 150 23:19 01.06.2020
2048 Clouds 24 1012 82 0 5.79 162 22:56 01.06.2020
2049 Clouds 24 1012 82 0 5.79 162 22:56 01.06.2020
2050 Clouds 28 1012 65 10000 5.1 180 22:37 01.06.2020
2051 Clouds 28 1012 65 10000 5.1 180 22:18 01.06.2020
2052 Clouds 28 1012 65 10000 5.1 180 21:41 01.06.2020
2053 Clouds 28 1012 65 10000 5.1 180 21:20 01.06.2020
2054 Clouds 28 1013 65 10000 6.2 150 20:58 01.06.2020
2055 Clouds 24 1014 82 0 5.36 159 20:40 01.06.2020
2056 Clouds 27 1014 69 10000 6.2 150 20:19 01.06.2020
2057 Clouds 27 1014 69 10000 6.2 150 19:56 01.06.2020
2058 Clouds 27 1014 69 10000 6.2 150 19:38 01.06.2020
2059 Clouds 27 1014 69 10000 4.6 180 19:19 01.06.2020
2060 Clouds 27 1014 69 10000 4.6 180 18:55 01.06.2020
2061 Clouds 27 1014 69 10000 4.6 180 18:37 01.06.2020
2062 Clouds 26 1014 78 10000 6.7 150 18:18 01.06.2020
2063 Clouds 26 1014 78 10000 6.7 150 17:40 01.06.2020
2064 Clouds 26 1014 78 10000 6.7 150 17:20 01.06.2020
2065 Clouds 25 1013 78 10000 5.57 153 16:42 01.06.2020
2066 Clouds 25 1013 78 10000 5.57 153 16:42 01.06.2020
2067 Clouds 25 1013 78 10000 5.36 154 16:24 01.06.2020
2068 Clouds 24 1016 84 0 5.36 154 15:59 01.06.2020
2069 Clouds 24 1016 84 0 5.36 154 15:40 01.06.2020
2070 Clouds 24 1015 84 0 5.2 156 15:20 01.06.2020
2071 Clouds 24 1015 84 0 5.2 156 14:58 01.06.2020
2072 Clouds 24 1015 84 0 5.2 156 14:40 01.06.2020
2073 Clouds 23 1014 85 0 4.57 145 14:21 01.06.2020
2074 Clouds 23 1014 85 0 4.57 145 13:54 01.06.2020
2075 Clouds 23 1014 85 0 4.57 145 13:36 01.06.2020
2076 Clouds 23 1014 85 0 4.76 145 13:18 01.06.2020
2077 Clouds 23 1014 85 0 4.76 145 12:54 01.06.2020
2078 Clouds 23 1014 85 0 4.76 145 12:36 01.06.2020
2079 Clouds 23 1013 84 0 4.87 147 12:18 01.06.2020
2080 Clouds 23 1013 84 0 4.87 147 11:38 01.06.2020
2081 Clouds 23 1014 83 0 4.85 146 11:19 01.06.2020
2082 Clouds 23 1014 83 0 4.85 146 10:57 01.06.2020
2083 Clouds 23 1014 83 0 4.85 146 10:37 01.06.2020
2084 Clouds 23 1014 84 0 4.83 149 10:18 01.06.2020
2085 Clouds 23 1014 84 0 4.83 149 09:46 01.06.2020
2086 Clouds 23 1014 86 0 4.68 152 09:27 01.06.2020
2087 Clouds 23 1014 83 0 4.76 151 08:57 01.06.2020
2088 Clouds 23 1014 83 0 4.76 151 08:37 01.06.2020
2089 Clouds 23 1014 85 0 4.87 151 08:18 01.06.2020
2090 Clouds 23 1014 85 0 4.87 151 07:41 01.06.2020
2091 Clouds 23 1014 86 0 4.7 149 07:22 01.06.2020
2092 Clouds 23 1014 86 0 4.7 149 06:49 01.06.2020
2093 Clouds 23 1015 86 0 4.72 156 05:57 01.06.2020
2094 Clear 23 1015 86 0 4.7 161 04:58 01.06.2020
2095 Clear 23 1014 86 0 4.67 165 03:57 01.06.2020
2096 Clear 23 1014 86 0 4.67 165 03:37 01.06.2020
2097 Clear 23 1013 85 0 4.66 160 02:49 01.06.2020
2098 Clouds 23 1012 84 0 4.94 157 01:40 01.06.2020
2099 Clouds 26 1010 78 10000 6.7 160 01:18 01.06.2020
2100 Clouds 26 1010 78 10000 6.7 160 00:46 01.06.2020
2101 Clouds 26 1010 78 10000 6.7 160 00:21 01.06.2020
2102 Clouds 26 1010 78 10000 6.7 160 00:21 01.06.2020
2103 Clouds 26 1010 78 10000 7.2 170 23:59 31.05.2020
2104 Clouds 26 1010 78 10000 7.2 170 23:40 31.05.2020
2105 Clouds 26 1010 78 10000 7.2 170 23:22 31.05.2020
2106 Clouds 27 1011 74 10000 6.7 190 22:58 31.05.2020
2107 Clouds 27 1011 74 10000 6.7 190 22:58 31.05.2020
2108 Clouds 27 1011 74 10000 6.7 190 22:58 31.05.2020
2109 Clouds 27 1011 74 10000 6.7 190 22:40 31.05.2020
2110 Clouds 27 1011 74 10000 6.7 190 22:21 31.05.2020
2111 Clouds 27 1012 74 10000 7.2 180 21:56 31.05.2020
2112 Clouds 27 1012 74 10000 7.2 180 21:38 31.05.2020
2113 Clouds 27 1012 74 10000 7.2 180 21:19 31.05.2020
2114 Clouds 27 1013 74 10000 9.3 150 20:42 31.05.2020
2115 Clouds 27 1013 74 10000 9.3 150 20:23 31.05.2020
2116 Clouds 26 1014 78 10000 6.2 150 19:56 31.05.2020
2117 Clouds 26 1014 78 10000 6.2 150 19:56 31.05.2020
2118 Clouds 26 1014 78 10000 6.2 150 19:37 31.05.2020
2119 Clouds 26 1014 78 10000 6.2 150 19:19 31.05.2020
2120 Clouds 26 1014 78 10000 6.2 150 19:19 31.05.2020
2121 Clouds 26 1014 78 10000 7.2 170 18:44 31.05.2020
2122 Clouds 26 1014 78 10000 7.2 170 18:44 31.05.2020
2123 Clouds 26 1014 78 10000 7.2 170 18:25 31.05.2020
2124 Clouds 26 1014 83 10000 7.2 140 17:54 31.05.2020
2125 Clouds 26 1014 83 10000 7.2 140 17:36 31.05.2020
2126 Clouds 26 1014 83 10000 7.2 140 17:18 31.05.2020
2127 Clouds 25 1014 88 10000 5.1 150 16:40 31.05.2020
2128 Clouds 25 1014 88 10000 5.1 150 16:21 31.05.2020
2129 Clouds 23 1015 84 0 5.18 161 15:40 31.05.2020
2130 Clouds 23 1015 84 0 5.18 161 15:40 31.05.2020
2131 Clouds 23 1014 84 0 5.59 162 15:21 31.05.2020
2132 Clouds 23 1014 84 0 5.59 162 15:21 31.05.2020
2133 Clouds 23 1014 84 0 5.59 162 14:47 31.05.2020
2134 Clouds 23 1014 86 0 5.34 165 14:23 31.05.2020
2135 Clouds 23 1014 86 0 5.34 165 13:57 31.05.2020
2136 Clouds 23 1014 86 0 5.34 165 13:38 31.05.2020
2137 Clouds 23 1014 86 0 5.5 163 13:20 31.05.2020
2138 Clouds 23 1014 86 0 5.5 163 12:58 31.05.2020
2139 Clouds 23 1014 86 0 5.5 163 12:39 31.05.2020
2140 Clouds 23 1013 86 0 5.55 162 12:21 31.05.2020
2141 Clouds 23 1013 86 0 5.55 162 11:49 31.05.2020
2142 Clouds 23 1013 86 0 5.52 163 11:24 31.05.2020
2143 Clouds 23 1013 86 0 5.52 163 10:57 31.05.2020
2144 Clouds 23 1013 86 0 5.52 163 10:39 31.05.2020
2145 Clouds 23 1014 86 0 5.18 165 10:21 31.05.2020
2146 Clouds 23 1014 86 0 5.18 165 09:45 31.05.2020
2147 Clouds 23 1014 87 0 4.84 160 09:23 31.05.2020
2148 Clouds 23 1014 87 0 4.84 160 08:59 31.05.2020
2149 Clouds 23 1014 87 0 4.84 160 08:40 31.05.2020
2150 Clouds 23 1014 88 0 4.58 158 08:21 31.05.2020
2151 Clouds 23 1014 88 0 4.58 158 07:46 31.05.2020
2152 Clouds 23 1015 87 0 4.47 158 07:21 31.05.2020
2153 Clouds 23 1015 87 0 4.47 158 06:54 31.05.2020
2154 Clouds 23 1015 87 0 4.47 158 06:32 31.05.2020
2155 Clouds 23 1015 87 0 4.59 165 05:45 31.05.2020
2156 Clouds 23 1015 87 0 4.58 169 04:33 31.05.2020
2157 Clouds 23 1014 86 0 4.64 175 03:51 31.05.2020
2158 Clouds 23 1013 86 0 4.22 174 02:59 31.05.2020
2159 Clouds 23 1012 85 0 4.31 177 01:50 31.05.2020
2160 Clouds 26 1010 78 10000 6.2 170 01:28 31.05.2020
2161 Clouds 26 1010 78 10000 6.2 170 00:31 31.05.2020
2162 Clouds 26 1010 78 10000 7.7 160 23:59 30.05.2020
2163 Clouds 26 1010 78 10000 7.7 160 23:39 30.05.2020
2164 Clouds 26 1010 78 10000 7.7 160 23:21 30.05.2020
2165 Clouds 27 1010 74 10000 7.2 160 22:41 30.05.2020
2166 Clouds 27 1010 74 10000 7.2 160 22:23 30.05.2020
2167 Clouds 27 1011 74 10000 8.2 170 21:56 30.05.2020
2168 Clouds 27 1011 74 10000 8.2 170 21:37 30.05.2020
2169 Clouds 27 1011 74 10000 8.2 170 21:19 30.05.2020
2170 Clouds 27 1012 78 10000 9.8 150 20:56 30.05.2020
2171 Clouds 27 1012 78 10000 9.8 150 20:38 30.05.2020
2172 Clouds 27 1012 78 10000 9.8 150 20:20 30.05.2020
2173 Clouds 27 1013 78 10000 7.7 160 19:42 30.05.2020
2174 Clouds 27 1013 78 10000 7.7 160 19:22 30.05.2020
2175 Clouds 26 1014 83 10000 5.1 190 18:46 30.05.2020
2176 Clouds 26 1014 83 10000 5.1 190 18:24 30.05.2020
2177 Clouds 25 1013 88 10000 5.7 180 17:55 30.05.2020
2178 Clouds 25 1013 88 10000 5.7 180 17:37 30.05.2020
2179 Clouds 25 1013 88 10000 5.7 180 17:18 30.05.2020
2180 Clouds 25 1013 88 10000 5.1 170 16:43 30.05.2020
2181 Clouds 25 1013 88 10000 5.1 170 16:22 30.05.2020
2182 Clouds 23 1015 86 0 4.52 179 15:49 30.05.2020
2183 Clouds 23 1015 86 0 4.52 179 15:29 30.05.2020
2184 Clouds 23 1014 87 0 4.49 178 14:59 30.05.2020
2185 Clouds 23 1014 87 0 4.49 178 14:41 30.05.2020
2186 Clouds 23 1013 87 0 4.37 171 14:18 30.05.2020
2187 Clouds 23 1013 87 0 4.37 171 13:41 30.05.2020
2188 Clouds 23 1013 88 0 4.45 172 13:18 30.05.2020
2189 Clouds 23 1013 88 0 4.45 172 12:39 30.05.2020
2190 Clouds 23 1013 89 0 4.63 178 12:20 30.05.2020
2191 Clouds 23 1013 89 0 4.63 178 11:42 30.05.2020
2192 Clouds 23 1013 90 0 5.13 182 11:23 30.05.2020
2193 Clouds 23 1013 90 0 5.13 182 10:58 30.05.2020
2194 Clouds 23 1013 90 0 5.13 182 10:38 30.05.2020
2195 Clouds 23 1013 90 0 5.45 183 10:20 30.05.2020
2196 Clouds 23 1013 90 0 5.45 183 09:45 30.05.2020
2197 Clouds 23 1014 91 0 5.02 179 09:26 30.05.2020
2198 Clouds 23 1014 91 0 5.02 179 08:45 30.05.2020
2199 Clouds 23 1014 91 0 4.42 173 08:27 30.05.2020
2200 Clouds 23 1014 91 0 4.42 173 07:40 30.05.2020
2201 Clouds 23 1014 90 0 4.49 176 07:19 30.05.2020
2202 Clouds 23 1014 90 0 4.49 176 06:30 30.05.2020
2203 Clouds 23 1015 90 0 4.58 179 05:52 30.05.2020
2204 Clouds 23 1015 89 0 4.59 171 04:59 30.05.2020
2205 Clouds 24 1013 88 0 5.35 164 02:53 30.05.2020
2206 Clouds 24 1012 88 0 5.01 166 02:23 30.05.2020
2207 Clouds 27 1010 74 10000 8.2 160 00:45 30.05.2020
2208 Clouds 27 1010 74 10000 8.2 160 00:25 30.05.2020
2209 Clouds 27 1010 74 10000 8.7 170 23:59 29.05.2020
2210 Clouds 27 1010 74 10000 8.7 170 23:38 29.05.2020
2211 Clouds 27 1010 74 10000 8.7 170 23:19 29.05.2020
2212 Clouds 27 1010 74 10000 8.7 170 23:19 29.05.2020
2213 Clouds 27 1010 74 10000 8.7 170 23:19 29.05.2020
2214 Clouds 27 1011 74 10000 8.2 150 22:54 29.05.2020
2215 Clouds 27 1011 74 10000 8.2 150 22:36 29.05.2020
2216 Clouds 27 1011 74 10000 8.2 150 22:18 29.05.2020
2217 Clouds 27 1011 74 10000 8.2 150 22:18 29.05.2020
2218 Clouds 27 1012 74 10000 10.3 160 21:39 29.05.2020
2219 Clouds 27 1012 74 10000 10.3 160 21:21 29.05.2020
2220 Clouds 27 1012 74 10000 10.3 160 21:21 29.05.2020
2221 Clouds 27 1012 74 10000 9.8 170 20:57 29.05.2020
2222 Clouds 27 1012 74 10000 9.8 170 20:38 29.05.2020
2223 Clouds 27 1012 74 10000 9.8 170 20:19 29.05.2020
2224 Clouds 27 1013 74 10000 9.3 160 19:42 29.05.2020
2225 Clouds 27 1013 74 10000 9.3 160 19:24 29.05.2020
2226 Clouds 26 1014 78 10000 8.7 170 18:48 29.05.2020
2227 Clouds 26 1014 78 10000 8.7 170 18:23 29.05.2020
2228 Clouds 25 1013 83 10000 7.2 150 17:58 29.05.2020
2229 Clouds 25 1013 83 10000 7.2 150 17:39 29.05.2020
2230 Clouds 25 1013 83 10000 7.2 150 17:20 29.05.2020
2231 Clouds 25 1013 83 10000 6.2 160 16:46 29.05.2020
2232 Clouds 25 1013 83 10000 6.2 160 16:28 29.05.2020
2233 -273 0 0 0 0 0 15:58 29.05.2020
2234 Clouds 23 1015 86 0 5.34 173 15:40 29.05.2020
2235 Clouds 23 1014 87 0 4.83 169 15:20 29.05.2020
2236 Clouds 23 1014 87 0 4.83 169 14:52 29.05.2020
2237 Clouds 23 1014 87 0 5.19 175 14:25 29.05.2020
2238 Clouds 23 1014 87 0 5.19 175 13:59 29.05.2020
2239 Clouds 23 1014 87 0 5.19 175 13:41 29.05.2020
2240 Clouds 23 1013 88 0 5 178 13:21 29.05.2020
2241 Clouds 23 1013 88 0 5 178 12:45 29.05.2020
2242 Clouds 23 1013 88 0 4.96 179 12:26 29.05.2020
2243 Clouds 23 1013 88 0 4.96 179 11:58 29.05.2020
2244 Clouds 23 1013 88 0 4.96 179 11:58 29.05.2020
2245 Clouds 23 1013 88 0 4.96 179 11:40 29.05.2020
2246 Clouds 23 1013 89 0 4.94 182 11:22 29.05.2020
2247 Clouds 23 1013 89 0 4.94 182 10:42 29.05.2020
2248 Clouds 23 1013 90 0 4.97 190 10:21 29.05.2020
2249 Clouds 23 1013 90 0 4.97 190 09:55 29.05.2020
2250 Clouds 23 1013 90 0 4.97 190 09:55 29.05.2020
2251 Clouds 23 1013 90 0 4.97 190 09:37 29.05.2020
2252 Clouds 23 1014 89 0 5.26 192 09:18 29.05.2020
2253 Clouds 23 1014 89 0 5.26 192 08:44 29.05.2020
2254 Clouds 23 1015 89 0 4.93 194 08:21 29.05.2020
2255 Clouds 23 1015 89 0 4.93 194 07:44 29.05.2020
2256 Clouds 23 1015 89 0 4.65 194 07:26 29.05.2020
2257 Clouds 23 1015 89 0 4.65 194 06:49 29.05.2020
2258 Clouds 23 1015 89 0 4.86 192 06:28 29.05.2020
2259 Clouds 23 1015 89 0 4.86 192 05:53 29.05.2020
2260 Clouds 23 1014 88 0 4.94 187 03:44 29.05.2020
2261 Clouds 24 1013 86 0 5.62 193 01:46 29.05.2020
2262 Clouds 25 1011 83 10000 5.1 170 01:23 29.05.2020
2263 Clouds 25 1011 83 10000 5.1 170 00:47 29.05.2020
2264 Clouds 25 1011 83 10000 5.1 170 00:22 29.05.2020
2265 Clouds 26 1011 83 10000 4.6 180 23:40 28.05.2020
2266 Clouds 26 1011 83 10000 4.6 180 23:19 28.05.2020
2267 Clouds 27 1012 78 10000 4.1 180 22:44 28.05.2020
2268 Clouds 27 1012 78 10000 4.1 180 22:26 28.05.2020
2269 Clouds 27 1012 74 10000 5.1 170 21:58 28.05.2020
2270 Clouds 27 1012 74 10000 5.1 170 21:40 28.05.2020
2271 Clouds 27 1012 74 10000 5.1 170 21:20 28.05.2020
2272 Clouds 27 1013 74 10000 5.7 180 20:57 28.05.2020
2273 Clouds 27 1013 74 10000 5.7 180 20:39 28.05.2020
2274 Clouds 27 1013 74 10000 5.7 180 20:19 28.05.2020
2275 Clouds 27 1013 78 10000 6.2 170 19:56 28.05.2020
2276 Clouds 27 1013 78 10000 6.2 170 19:38 28.05.2020
2277 Clouds 27 1013 78 10000 6.2 170 19:20 28.05.2020
2278 Clouds 26 1014 78 10000 5.7 180 18:43 28.05.2020
2279 Clouds 26 1014 78 10000 5.7 180 18:25 28.05.2020
2280 Clouds 26 1014 78 10000 4.6 180 17:56 28.05.2020
2281 Clouds 26 1014 78 10000 4.6 180 17:38 28.05.2020
2282 Clouds 26 1014 78 10000 4.6 180 17:18 28.05.2020
2283 Clouds 25 1013 83 10000 3.6 150 16:44 28.05.2020
2284 Clouds 25 1013 83 10000 3.6 150 16:20 28.05.2020
2285 Clouds 24 1014 86 0 5.46 197 15:46 28.05.2020
2286 Clouds 23 1014 87 0 5 194 15:25 28.05.2020
2287 Clouds 23 1014 87 0 5 194 15:25 28.05.2020
2288 Clouds 23 1014 87 0 5 194 14:59 28.05.2020
2289 Clouds 23 1014 87 0 5 194 14:40 28.05.2020
2290 Clouds 23 1013 87 0 4.69 194 14:21 28.05.2020
2291 Clouds 23 1013 87 0 4.69 194 13:44 28.05.2020
2292 Clouds 23 1013 87 0 5.07 199 13:25 28.05.2020
2293 Clouds 23 1013 87 0 5.07 199 12:43 28.05.2020
2294 Clouds 23 1012 88 0 4.62 201 12:19 28.05.2020
2295 Clouds 23 1012 88 0 4.62 201 11:54 28.05.2020
2296 Clouds 23 1012 88 0 4.62 201 11:36 28.05.2020
2297 Clouds 23 1013 88 0 4.35 203 11:18 28.05.2020
2298 Clouds 23 1013 88 0 4.35 203 10:42 28.05.2020
2299 Clouds 23 1013 88 0 4.35 201 10:23 28.05.2020
2300 Clouds 23 1013 88 0 4.35 201 09:40 28.05.2020
2301 Clouds 23 1013 88 0 4.17 208 09:22 28.05.2020
2302 Clouds 23 1013 88 0 4.17 208 09:22 28.05.2020
2303 Clouds 23 1013 88 0 4.17 208 08:52 28.05.2020
2304 Clouds 23 1013 88 0 4.17 208 08:33 28.05.2020
2305 Clouds 23 1014 88 0 3.77 209 07:59 28.05.2020
2306 Clouds 23 1014 88 0 3.77 209 07:41 28.05.2020
2307 Clouds 23 1014 88 0 3.65 201 07:23 28.05.2020
2308 Clouds 23 1014 88 0 3.65 201 06:39 28.05.2020
2309 Clouds 23 1014 88 0 3.65 201 06:39 28.05.2020
2310 Clouds 23 1014 88 0 3.66 201 06:21 28.05.2020
2311 Clouds 23 1014 88 0 3.66 201 05:38 28.05.2020
2312 Clouds 24 1014 88 0 3.89 208 04:35 28.05.2020
2313 Clouds 24 1014 87 0 3.95 211 03:52 28.05.2020
2314 Clouds 24 1012 87 0 4.42 212 02:52 28.05.2020
2315 Clouds 24 1012 86 0 5.49 214 01:57 28.05.2020
2316 Clouds 26 1010 78 10000 4.6 210 01:29 28.05.2020
2317 Clouds 26 1010 78 10000 4.6 210 00:46 28.05.2020
2318 Clouds 26 1010 78 10000 4.6 210 00:19 28.05.2020
2319 Clouds 27 1010 78 10000 4.1 180 23:54 27.05.2020
2320 Clouds 27 1010 78 10000 4.1 180 23:36 27.05.2020
2321 Clouds 27 1010 78 10000 4.1 180 23:18 27.05.2020
2322 Clouds 27 1010 78 10000 4.1 180 23:18 27.05.2020
2323 Clouds 27 1011 78 10000 5.7 240 22:41 27.05.2020
2324 Clouds 27 1011 78 10000 5.7 240 22:22 27.05.2020
2325 Clouds 27 1011 78 10000 3.6 210 21:55 27.05.2020
2326 Clouds 27 1011 78 10000 3.6 210 21:37 27.05.2020
2327 Clouds 27 1011 78 10000 3.6 210 21:18 27.05.2020
2328 Clouds 27 1011 78 10000 5.1 170 20:54 27.05.2020
2329 Clouds 27 1011 78 10000 5.1 170 20:36 27.05.2020
2330 Clouds 27 1012 74 10000 6.2 190 20:18 27.05.2020
2331 Clouds 27 1012 74 10000 6.2 190 19:41 27.05.2020
2332 Clouds 27 1012 74 10000 6.2 190 19:19 27.05.2020
2333 Clouds 27 1012 74 10000 6.2 190 19:19 27.05.2020
2334 Clouds 26 1012 83 10000 6.2 160 18:41 27.05.2020
2335 Clouds 26 1012 83 10000 6.2 160 18:20 27.05.2020
2336 Clouds 25 1012 88 10000 6.7 160 17:57 27.05.2020
2337 Clouds 25 1012 88 10000 6.7 160 17:38 27.05.2020
2338 Clouds 25 1012 88 10000 6.7 160 17:19 27.05.2020
2339 Clouds 24 1012 94 10000 4.6 180 16:55 27.05.2020
2340 Clouds 24 1012 94 10000 4.6 180 16:37 27.05.2020
2341 Clouds 24 1012 94 10000 4.6 180 16:18 27.05.2020
2342 Clouds 23 1014 86 0 4.55 200 15:41 27.05.2020
2343 Clouds 23 1013 87 0 4.34 203 15:21 27.05.2020
2344 Clouds 23 1013 87 0 4.34 203 14:45 27.05.2020
2345 Clouds 23 1012 87 0 4.12 209 14:22 27.05.2020
2346 Clouds 23 1013 88 0 3.97 203 13:55 27.05.2020
2347 Clouds 23 1013 88 0 3.97 203 13:37 27.05.2020
2348 Clouds 23 1013 88 0 3.97 203 13:37 27.05.2020
2349 Clouds 23 1013 88 0 3.97 203 13:37 27.05.2020
2350 Clouds 23 1012 88 0 4.02 204 13:19 27.05.2020
2351 Clouds 23 1012 88 0 4.02 204 12:40 27.05.2020
2352 Clouds 23 1012 88 0 4.02 204 12:40 27.05.2020
2353 Clouds 23 1012 88 0 4.04 206 12:22 27.05.2020
2354 Clouds 23 1012 88 0 4.04 206 11:40 27.05.2020
2355 Clouds 23 1012 88 0 3.41 212 11:22 27.05.2020
2356 Clouds 23 1012 88 0 3.41 212 10:59 27.05.2020
2357 Clouds 23 1012 88 0 3.41 212 10:39 27.05.2020
2358 Clouds 23 1012 88 0 3.41 212 10:39 27.05.2020
2359 Clouds 23 1012 88 0 3.41 212 10:39 27.05.2020
2360 Clouds 23 1012 88 0 3.39 218 10:20 27.05.2020
2361 Clouds 23 1012 88 0 3.39 218 09:42 27.05.2020
2362 Clouds 23 1012 88 0 3.94 212 09:23 27.05.2020
2363 Clouds 23 1012 88 0 3.89 210 08:58 27.05.2020
2364 Clouds 23 1012 88 0 3.89 210 08:38 27.05.2020
2365 Clouds 23 1013 88 0 4.08 210 08:19 27.05.2020
2366 Clouds 23 1013 88 0 4.08 210 07:50 27.05.2020
2367 Clouds 23 1013 88 0 4.08 210 07:32 27.05.2020
2368 Clouds 23 1013 88 0 3.84 211 06:49 27.05.2020
2369 Clouds 23 1013 88 0 3.9 213 06:21 27.05.2020
2370 Clouds 23 1013 88 0 3.9 213 05:49 27.05.2020
2371 Clouds 23 1013 88 0 4.1 210 05:22 27.05.2020
2372 Clouds 24 1011 86 0 4.33 203 02:34 27.05.2020
2373 Clouds 24 1010 86 0 4.76 204 01:53 27.05.2020
2374 Clouds 26 1008 78 10000 4.6 200 01:30 27.05.2020
2375 Clouds 26 1008 78 10000 4.6 200 00:46 27.05.2020
2376 Clouds 26 1008 78 10000 4.6 200 00:20 27.05.2020
2377 Clouds 26 1008 78 10000 4.1 170 23:56 26.05.2020
2378 Clouds 26 1008 78 10000 4.1 170 23:38 26.05.2020
2379 Clouds 26 1008 78 10000 4.1 170 23:19 26.05.2020
2380 Clouds 27 1009 74 10000 5.1 190 22:40 26.05.2020
2381 Clouds 27 1009 74 10000 5.1 190 22:21 26.05.2020
2382 Clouds 26 1010 78 10000 4.1 180 21:58 26.05.2020
2383 Clouds 26 1010 78 10000 4.1 180 21:40 26.05.2020
2384 Clouds 26 1010 78 10000 4.1 180 21:21 26.05.2020
2385 Clouds 26 1010 78 10000 4.6 190 20:55 26.05.2020
2386 Clouds 26 1010 78 10000 4.6 190 20:37 26.05.2020
2387 Clouds 26 1010 78 10000 4.6 190 20:18 26.05.2020
2388 Clouds 25 1011 88 10000 4.6 180 19:39 26.05.2020
2389 Clouds 25 1011 88 10000 4.6 180 19:19 26.05.2020
2390 Drizzle 24 1011 94 5000 5.1 190 18:43 26.05.2020
2391 Drizzle 24 1011 94 5000 5.1 190 18:24 26.05.2020
2392 Clouds 24 1014 86 0 4.56 177 17:59 26.05.2020
2393 Drizzle 25 1011 88 10000 3.6 170 17:38 26.05.2020
2394 Drizzle 25 1011 88 10000 3.6 170 17:38 26.05.2020
2395 Drizzle 25 1011 88 10000 3.6 170 17:20 26.05.2020
2396 Drizzle 24 1011 94 8000 4.1 180 16:42 26.05.2020
2397 Drizzle 24 1011 94 8000 4.1 180 16:20 26.05.2020
2398 Clouds 23 1013 88 0 4.3 179 15:55 26.05.2020
2399 Clouds 23 1013 88 0 4.3 179 15:37 26.05.2020
2400 Clouds 23 1012 88 0 4.41 184 15:18 26.05.2020
2401 Clouds 23 1012 88 0 4.41 184 14:43 26.05.2020
2402 Clouds 23 1012 90 0 4.38 188 14:22 26.05.2020
2403 Clouds 23 1012 90 0 4.38 188 13:55 26.05.2020
2404 Clouds 23 1012 90 0 4.38 188 13:37 26.05.2020
2405 Clouds 23 1011 90 0 4.38 189 13:18 26.05.2020
2406 Clouds 23 1011 90 0 4.38 189 12:41 26.05.2020
2407 Clouds 23 1011 90 0 4.14 186 12:20 26.05.2020
2408 Clouds 23 1011 90 0 4.14 186 11:41 26.05.2020
2409 Clouds 23 1011 90 0 3.87 184 11:21 26.05.2020
2410 Clouds 23 1011 90 0 3.87 184 10:59 26.05.2020
2411 Clouds 23 1011 90 0 3.87 184 10:39 26.05.2020
2412 Clouds 23 1012 91 0 3.62 181 10:18 26.05.2020
2413 Clouds 23 1012 91 0 3.62 181 09:39 26.05.2020
2414 Clouds 23 1012 91 0 3.51 182 09:19 26.05.2020
2415 Clouds 23 1012 90 0 3.69 176 08:43 26.05.2020
2416 Clear 23 1013 91 0 3.67 174 08:22 26.05.2020
2417 Clear 23 1013 91 0 3.67 174 07:44 26.05.2020
2418 Clear 23 1013 90 0 3.77 174 07:24 26.05.2020
2419 Clear 23 1013 90 0 3.77 174 06:54 26.05.2020
2420 Clear 23 1013 90 0 3.77 174 06:36 26.05.2020
2421 Clear 23 1013 90 0 3.99 169 05:53 26.05.2020
2422 Clear 23 1013 90 0 3.99 169 05:29 26.05.2020
2423 Clear 23 1013 89 0 4.12 166 04:50 26.05.2020
2424 Clear 23 1013 89 0 4.12 166 04:31 26.05.2020
2425 Clear 23 1012 88 0 4.07 168 03:55 26.05.2020
2426 Clear 23 1010 87 0 4.22 172 02:44 26.05.2020
2427 Clouds 23 1010 86 0 4.3 179 01:48 26.05.2020
2428 Clouds 27 1007 69 10000 6.7 160 01:21 26.05.2020
2429 Clouds 27 1007 69 10000 6.7 160 00:37 26.05.2020
2430 Clouds 27 1007 69 10000 6.7 160 00:18 26.05.2020
2431 Clouds 28 1007 65 10000 6.7 170 23:55 25.05.2020
2432 Clouds 28 1007 65 10000 6.7 170 23:36 25.05.2020
2433 Clouds 28 1008 65 10000 6.7 190 23:18 25.05.2020
2434 Clouds 28 1008 65 10000 6.7 190 23:18 25.05.2020
2435 Clouds 28 1008 65 10000 6.7 190 22:54 25.05.2020
2436 Clouds 28 1008 65 10000 6.7 190 22:36 25.05.2020
2437 Clouds 27 1009 74 10000 9.3 180 22:18 25.05.2020
2438 Clouds 27 1009 74 10000 9.3 180 21:54 25.05.2020
2439 Clouds 27 1009 74 10000 9.3 180 21:36 25.05.2020
2440 Clouds 28 1009 69 10000 6.7 150 21:18 25.05.2020
2441 Clouds 28 1009 69 10000 6.7 150 20:41 25.05.2020
2442 Clouds 28 1009 69 10000 6.7 150 20:21 25.05.2020
2443 Clouds 27 1011 74 10000 7.2 160 19:58 25.05.2020
2444 Clouds 27 1011 74 10000 7.2 160 19:39 25.05.2020
2445 Clouds 27 1011 74 10000 7.2 160 19:18 25.05.2020
2446 Clouds 26 1011 74 10000 6.2 160 18:45 25.05.2020
2447 Clouds 26 1011 74 10000 6.2 160 18:22 25.05.2020
2448 Clouds 26 1011 74 10000 5.1 170 17:57 25.05.2020
2449 Clouds 26 1011 74 10000 5.1 170 17:38 25.05.2020
2450 Clouds 26 1011 74 10000 5.1 170 17:20 25.05.2020
2451 Clouds 25 1010 78 10000 4.6 150 16:55 25.05.2020
2452 Clouds 25 1010 78 10000 4.6 150 16:36 25.05.2020
2453 Clouds 25 1010 78 10000 4.6 150 16:18 25.05.2020
2454 Clouds 23 1013 87 0 4.01 178 15:42 25.05.2020
2455 Clouds 23 1012 87 0 3.98 174 15:18 25.05.2020
2456 Clouds 23 1012 87 0 3.98 174 14:43 25.05.2020
2457 Clouds 23 1011 88 0 3.88 176 14:25 25.05.2020
2458 Clouds 23 1011 88 0 3.88 176 14:25 25.05.2020
2459 Clouds 23 1011 87 0 3.82 182 13:57 25.05.2020
2460 Clouds 23 1011 87 0 3.82 182 13:38 25.05.2020
2461 Clouds 23 1011 87 0 3.71 180 13:20 25.05.2020
2462 Clouds 23 1011 87 0 3.71 180 12:55 25.05.2020
2463 Clouds 23 1011 87 0 3.71 180 12:36 25.05.2020
2464 Clouds 23 1010 87 0 3.68 177 12:18 25.05.2020
2465 Clouds 23 1010 87 0 3.68 177 11:38 25.05.2020
2466 Clouds 23 1011 87 0 3.75 174 11:19 25.05.2020
2467 Clouds 23 1011 87 0 3.75 174 10:45 25.05.2020
2468 Clouds 23 1011 87 0 3.71 172 10:21 25.05.2020
2469 Clouds 23 1011 87 0 3.71 172 09:59 25.05.2020
2470 Clouds 23 1011 87 0 3.71 172 09:40 25.05.2020
2471 Clouds 23 1012 86 0 3.94 175 09:19 25.05.2020
2472 Clouds 23 1012 86 0 3.94 175 08:58 25.05.2020
2473 Clouds 23 1012 86 0 3.94 175 08:36 25.05.2020
2474 Clouds 23 1012 86 0 3.72 174 08:18 25.05.2020
2475 Clouds 23 1012 86 0 3.72 174 07:43 25.05.2020
2476 Clouds 23 1013 88 0 3.49 176 07:21 25.05.2020
2477 Clouds 23 1013 88 0 3.49 176 06:50 25.05.2020
2478 Clouds 23 1013 88 0 3.49 176 06:31 25.05.2020
2479 Clouds 23 1012 86 0 3.74 177 04:18 25.05.2020
2480 Clouds 23 1011 86 0 3.91 182 03:23 25.05.2020
2481 Clouds 23 1011 86 0 3.91 182 02:45 25.05.2020
2482 Clouds 24 1011 83 0 4.42 184 01:51 25.05.2020
2483 Clouds 26 1009 69 10000 5.1 160 01:28 25.05.2020
2484 Clouds 26 1009 69 10000 5.1 160 00:37 25.05.2020
2485 Clouds 26 1009 69 10000 5.1 160 00:18 25.05.2020
2486 Clouds 27 1009 65 10000 6.7 150 23:43 24.05.2020
2487 Clouds 27 1009 65 10000 6.7 150 23:23 24.05.2020
2488 Clouds 28 1009 61 10000 6.7 160 22:58 24.05.2020
2489 Clouds 28 1009 61 10000 6.7 160 22:40 24.05.2020
2490 Clouds 28 1009 61 10000 6.7 160 22:19 24.05.2020
2491 Clouds 27 1010 69 10000 6.7 130 21:55 24.05.2020
2492 Clouds 27 1010 69 10000 6.7 130 21:37 24.05.2020
2493 Clouds 27 1010 69 10000 6.7 130 21:19 24.05.2020
2494 Clouds 27 1010 69 10000 7.2 180 20:43 24.05.2020
2495 Clouds 27 1010 69 10000 7.2 180 20:43 24.05.2020
2496 Clouds 27 1010 69 10000 7.2 180 20:22 24.05.2020
2497 Clouds 27 1011 69 10000 7.2 170 19:59 24.05.2020
2498 Clouds 27 1011 69 10000 7.2 170 19:59 24.05.2020
2499 Clouds 27 1011 69 10000 7.2 170 19:40 24.05.2020
2500 Clouds 27 1011 69 10000 7.2 170 19:19 24.05.2020
2501 Clouds 27 1011 69 10000 6.7 150 18:54 24.05.2020
2502 Clouds 27 1011 69 10000 6.7 150 18:36 24.05.2020
2503 Clouds 27 1011 69 10000 6.7 150 18:36 24.05.2020
2504 Clouds 27 1011 69 10000 6.7 150 18:18 24.05.2020
2505 Clouds 26 1011 74 10000 5.1 160 17:40 24.05.2020
2506 Clouds 26 1011 74 10000 5.1 160 17:21 24.05.2020
2507 Clouds 25 1011 78 10000 5.1 160 16:57 24.05.2020
2508 Clouds 25 1011 78 10000 5.1 160 16:38 24.05.2020
2509 Clouds 25 1011 78 10000 5.1 160 16:38 24.05.2020
2510 Clouds 25 1011 78 10000 5.1 160 16:20 24.05.2020
2511 Clouds 23 1014 82 0 4.15 163 15:56 24.05.2020
2512 Clouds 23 1014 82 0 4.15 163 15:38 24.05.2020
2513 Clouds 23 1013 82 0 4.23 160 15:18 24.05.2020
2514 Clouds 23 1013 82 0 4.23 160 14:45 24.05.2020
2515 Clouds 23 1013 83 0 4.27 159 14:24 24.05.2020
2516 Clouds 23 1013 83 0 4.27 159 13:58 24.05.2020
2517 Clouds 23 1013 83 0 4.27 159 13:39 24.05.2020
2518 Clouds 23 1012 83 0 4.51 161 13:21 24.05.2020
2519 Clouds 23 1012 83 0 4.51 161 12:58 24.05.2020
2520 Clouds 23 1012 83 0 4.51 161 12:58 24.05.2020
2521 Clouds 23 1012 83 0 4.51 161 12:40 24.05.2020
2522 Clouds 23 1012 83 0 4.73 171 12:22 24.05.2020
2523 Clouds 23 1012 83 0 4.73 171 11:56 24.05.2020
2524 Clouds 23 1012 83 0 4.73 171 11:38 24.05.2020
2525 Clouds 23 1011 83 0 4.64 174 11:20 24.05.2020
2526 Clouds 23 1011 83 0 4.64 174 10:55 24.05.2020
2527 Clouds 23 1011 83 0 4.64 174 10:36 24.05.2020
2528 Clouds 23 1012 84 0 4.69 171 10:18 24.05.2020
2529 Clouds 23 1012 84 0 4.69 171 09:41 24.05.2020
2530 Clouds 23 1013 84 0 4.63 169 09:18 24.05.2020
2531 Clouds 23 1013 84 0 4.63 169 08:55 24.05.2020
2532 Clouds 23 1013 84 0 4.63 169 08:37 24.05.2020
2533 Clouds 23 1014 83 0 4.72 167 08:18 24.05.2020
2534 Clouds 23 1014 83 0 4.72 167 07:41 24.05.2020
2535 Clouds 23 1014 83 0 4.91 166 07:22 24.05.2020
2536 Clouds 23 1014 83 0 4.91 166 06:47 24.05.2020
2537 Clouds 23 1014 83 0 5.02 166 05:50 24.05.2020
2538 Clear 23 1013 84 0 4.67 171 04:51 24.05.2020
2539 Clear 23 1013 83 0 4.58 172 03:41 24.05.2020
2540 Clear 23 1012 82 0 4.76 174 02:30 24.05.2020
2541 Clear 23 1011 80 0 4.99 174 01:39 24.05.2020
2542 Clouds 26 1009 74 10000 6.2 180 00:39 24.05.2020
2543 Clouds 26 1009 74 10000 6.2 180 00:20 24.05.2020
2544 Clouds 26 1009 74 10000 7.2 160 23:43 23.05.2020
2545 Clouds 26 1009 74 10000 7.2 160 23:21 23.05.2020
2546 Clouds 27 1009 69 10000 7.7 180 22:57 23.05.2020
2547 Clouds 27 1009 69 10000 7.7 180 22:38 23.05.2020
2548 Clouds 27 1009 69 10000 7.7 180 22:19 23.05.2020
2549 Clouds 27 1010 65 10000 7.7 170 21:57 23.05.2020
2550 Clouds 27 1010 65 10000 7.7 170 21:37 23.05.2020
2551 Clouds 27 1010 65 10000 7.7 170 21:19 23.05.2020
2552 Clouds 27 1010 65 10000 7.7 170 21:19 23.05.2020
2553 Clouds 26 1011 74 10000 7.2 170 20:56 23.05.2020
2554 Clouds 26 1011 74 10000 7.2 170 20:37 23.05.2020
2555 Clouds 26 1011 74 10000 7.2 170 20:18 23.05.2020
2556 Clouds 26 1012 74 10000 7.7 160 19:41 23.05.2020
2557 Clouds 26 1012 74 10000 7.7 160 19:19 23.05.2020
2558 Clouds 27 1012 69 10000 6.7 140 18:57 23.05.2020
2559 Clouds 27 1012 69 10000 6.7 140 18:39 23.05.2020
2560 Clouds 27 1012 69 10000 6.7 140 18:20 23.05.2020
2561 Clouds 26 1012 74 10000 7.2 160 17:54 23.05.2020
2562 Clouds 26 1012 74 10000 7.2 160 17:36 23.05.2020
2563 Clouds 26 1012 74 10000 7.2 160 17:18 23.05.2020
2564 Clouds 26 1012 74 10000 7.2 160 17:18 23.05.2020
2565 Clouds 25 1012 78 10000 6.7 130 16:55 23.05.2020
2566 Clouds 25 1012 78 10000 6.7 130 16:37 23.05.2020
2567 Clouds 25 1012 78 10000 6.7 130 16:18 23.05.2020
2568 Clouds 23 1015 79 0 5.21 165 15:41 23.05.2020
2569 Clouds 23 1014 79 0 4.97 162 15:23 23.05.2020
2570 Clouds 23 1014 79 0 4.97 162 14:43 23.05.2020
2571 Clouds 23 1013 81 0 5.47 163 14:24 23.05.2020
2572 Clouds 23 1013 81 0 5.47 163 13:57 23.05.2020
2573 Clouds 23 1013 81 0 5.47 163 13:38 23.05.2020
2574 Clouds 23 1012 81 0 5.18 165 13:18 23.05.2020
2575 Clouds 23 1012 81 0 5.18 165 12:41 23.05.2020
2576 Clouds 23 1012 81 0 5.15 164 12:20 23.05.2020
2577 Clouds 23 1012 81 0 5.15 164 11:59 23.05.2020
2578 Clouds 23 1012 81 0 5.15 164 11:40 23.05.2020
2579 Clouds 23 1012 82 0 5.3 160 11:19 23.05.2020
2580 Clouds 23 1012 82 0 5.3 160 10:55 23.05.2020
2581 Clouds 23 1012 82 0 5.3 160 10:37 23.05.2020
2582 Clouds 23 1012 82 0 5.3 160 10:37 23.05.2020
2583 Clouds 23 1013 82 0 5.4 158 10:18 23.05.2020
2584 Clouds 23 1013 82 0 5.4 158 09:43 23.05.2020
2585 Clouds 23 1013 83 0 5.46 157 09:24 23.05.2020
2586 Clouds 23 1013 83 0 5.31 157 08:58 23.05.2020
2587 Clouds 23 1013 83 0 5.31 157 08:38 23.05.2020
2588 Clouds 23 1014 83 0 5.53 156 08:19 23.05.2020
2589 Clouds 23 1014 83 0 5.53 156 07:44 23.05.2020
2590 Clouds 23 1014 83 0 5.53 156 07:44 23.05.2020
2591 Clouds 24 1014 83 0 5.24 160 07:22 23.05.2020
2592 Clouds 24 1014 83 0 5.24 160 06:42 23.05.2020
2593 Clouds 24 1014 83 0 4.93 160 05:55 23.05.2020
2594 Clouds 24 1013 84 0 4.5 162 03:52 23.05.2020
2595 Clouds 24 1012 83 0 4.45 167 03:23 23.05.2020
2596 Clouds 24 1012 83 0 4.45 167 02:33 23.05.2020
2597 Clouds 24 1011 82 0 3.82 173 01:46 23.05.2020
2598 Clouds 27 1009 65 10000 7.7 170 01:18 23.05.2020
2599 Clouds 27 1009 65 10000 7.7 170 00:41 23.05.2020
2600 Clouds 27 1009 65 10000 7.7 190 23:59 22.05.2020
2601 Clouds 27 1009 65 10000 7.7 190 23:40 22.05.2020
2602 Clouds 27 1009 65 10000 7.7 190 23:20 22.05.2020
2603 Clouds 27 1009 65 10000 6.2 180 22:57 22.05.2020
2604 Clouds 27 1009 65 10000 6.2 180 22:39 22.05.2020
2605 Clouds 27 1009 65 10000 6.2 180 22:19 22.05.2020
2606 Clouds 28 1011 65 10000 6.7 180 21:45 22.05.2020
2607 Clouds 28 1011 65 10000 6.7 180 21:22 22.05.2020
2608 Clouds 27 1011 69 10000 7.2 170 20:55 22.05.2020
2609 Clouds 27 1011 69 10000 7.2 170 20:36 22.05.2020
2610 Clouds 27 1011 69 10000 7.2 170 20:18 22.05.2020
2611 Clouds 27 1011 69 10000 6.7 160 19:43 22.05.2020
2612 Clouds 27 1011 69 10000 6.7 160 19:24 22.05.2020
2613 Clouds 27 1012 69 10000 7.2 160 18:40 22.05.2020
2614 Clouds 27 1012 69 10000 7.2 160 18:21 22.05.2020
2615 Clouds 27 1012 69 10000 6.2 160 17:59 22.05.2020
2616 Clouds 27 1012 69 10000 6.2 160 17:39 22.05.2020
2617 Clouds 27 1012 69 10000 6.2 160 17:19 22.05.2020
2618 Clouds 26 1011 74 10000 5.1 150 16:45 22.05.2020
2619 Clouds 26 1011 74 10000 5.1 150 16:21 22.05.2020
2620 Clouds 24 1013 83 0 4.64 146 15:59 22.05.2020
2621 Clouds 24 1013 83 0 4.64 146 15:41 22.05.2020
2622 Clouds 24 1012 83 0 4.43 146 15:21 22.05.2020
2623 Clouds 24 1012 83 0 4.43 146 14:44 22.05.2020
2624 Clouds 24 1012 83 0 4.39 145 14:25 22.05.2020
2625 Clouds 24 1012 83 0 4.39 145 13:49 22.05.2020
2626 Clouds 23 1011 84 0 4.72 149 13:21 22.05.2020
2627 Clouds 23 1011 84 0 4.72 149 12:59 22.05.2020
2628 Clouds 23 1011 84 0 4.72 149 12:39 22.05.2020
2629 Clouds 23 1011 84 0 4.62 149 12:20 22.05.2020
2630 Clouds 23 1011 84 0 4.62 149 11:44 22.05.2020
2631 Clouds 23 1011 84 0 4.55 152 11:21 22.05.2020
2632 Clouds 23 1011 84 0 4.55 152 11:21 22.05.2020
2633 Clouds 23 1011 84 0 4.55 152 10:55 22.05.2020
2634 Clouds 23 1011 84 0 4.55 152 10:37 22.05.2020
2635 Clouds 23 1011 84 0 4.45 154 10:18 22.05.2020
2636 Clouds 23 1011 84 0 4.45 154 09:42 22.05.2020
2637 Clouds 24 1012 82 0 4.43 149 09:19 22.05.2020
2638 Clouds 24 1012 82 0 4.43 149 08:45 22.05.2020
2639 Clouds 24 1013 83 0 4.3 150 08:22 22.05.2020
2640 Clouds 24 1013 83 0 4.3 150 07:57 22.05.2020
2641 Clouds 24 1013 83 0 4.28 153 07:27 22.05.2020
2642 Clouds 24 1013 83 0 4.28 153 06:59 22.05.2020
2643 Clouds 24 1013 83 0 4.28 153 06:40 22.05.2020
2644 Clouds 24 1013 84 0 4.34 152 05:53 22.05.2020
2645 Clouds 24 1013 84 0 4.34 152 05:32 22.05.2020
2646 Clouds 24 1013 83 0 4.59 157 04:44 22.05.2020
2647 Clear 24 1012 83 0 4.88 159 03:49 22.05.2020
2648 Clouds 24 1011 83 0 4.92 158 03:23 22.05.2020
2649 Clouds 24 1011 82 0 4.99 157 01:57 22.05.2020
2650 Clouds 27 1009 69 10000 5.7 160 01:29 22.05.2020
2651 Clouds 27 1009 69 10000 5.7 160 00:49 22.05.2020
2652 Clouds 27 1009 69 10000 5.7 160 00:28 22.05.2020
2653 Clouds 28 1009 65 10000 6.2 180 23:45 21.05.2020
2654 Clouds 28 1009 65 10000 6.2 180 23:25 21.05.2020
2655 Clouds 28 1009 65 10000 6.7 160 22:59 21.05.2020
2656 Clouds 28 1009 65 10000 6.7 160 22:59 21.05.2020
2657 Clouds 28 1009 65 10000 6.7 160 22:40 21.05.2020
2658 Clouds 28 1009 65 10000 6.7 160 22:22 21.05.2020
2659 Clouds 28 1010 65 10000 6.7 170 21:59 21.05.2020
2660 Clouds 28 1010 65 10000 6.7 170 21:40 21.05.2020
2661 Clouds 28 1010 65 10000 6.7 170 21:22 21.05.2020
2662 Clouds 28 1011 65 10000 7.2 160 20:45 21.05.2020
2663 Clouds 28 1011 65 10000 7.2 160 20:22 21.05.2020
2664 Clouds 28 1011 65 10000 6.7 130 19:55 21.05.2020
2665 Clouds 28 1011 65 10000 6.7 130 19:36 21.05.2020
2666 Clouds 27 1012 69 10000 7.2 130 19:18 21.05.2020
2667 Clouds 27 1012 69 10000 7.2 130 18:39 21.05.2020
2668 Clouds 26 1012 74 10000 6.7 150 18:19 21.05.2020
2669 Clouds 26 1012 74 10000 6.7 150 17:58 21.05.2020
2670 Clouds 26 1012 74 10000 6.7 150 17:39 21.05.2020
2671 Clouds 26 1012 74 10000 6.7 150 17:21 21.05.2020
2672 Clouds 25 1011 83 10000 7.2 150 16:46 21.05.2020
2673 Clouds 25 1011 83 10000 7.2 150 16:24 21.05.2020
2674 Clear 24 1013 82 0 4.95 145 15:47 21.05.2020
2675 Clear 23 1012 84 0 5.02 147 15:24 21.05.2020
2676 Clear 23 1012 84 0 5.02 147 14:56 21.05.2020
2677 Clear 23 1012 84 0 5.02 147 14:37 21.05.2020
2678 Clear 23 1011 84 0 5.08 148 14:18 21.05.2020
2679 Clear 23 1011 84 0 5.18 149 13:39 21.05.2020
2680 Clear 23 1011 84 0 5.18 149 13:39 21.05.2020
2681 Clear 23 1011 85 0 5.45 152 13:21 21.05.2020
2682 Clear 23 1011 85 0 5.45 152 12:55 21.05.2020
2683 Clear 23 1011 85 0 5.45 152 12:36 21.05.2020
2684 Clear 23 1011 85 0 5.2 156 12:18 21.05.2020
2685 Clear 23 1011 85 0 5.2 156 11:40 21.05.2020
2686 Clear 23 1011 85 0 5.09 159 11:22 21.05.2020
2687 Clear 23 1011 85 0 5.09 159 10:55 21.05.2020
2688 Clear 23 1011 85 0 5.09 159 10:37 21.05.2020
2689 Clear 23 1011 84 0 4.94 165 10:18 21.05.2020
2690 Clear 23 1011 84 0 4.94 165 09:42 21.05.2020
2691 Clear 23 1011 83 0 5.14 168 09:24 21.05.2020
2692 Clear 23 1011 83 0 5.14 168 08:58 21.05.2020
2693 Clear 23 1011 83 0 5.14 168 08:39 21.05.2020
2694 Clear 23 1012 84 0 4.93 162 08:21 21.05.2020
2695 Clear 23 1012 84 0 4.93 162 07:43 21.05.2020
2696 Clear 23 1012 84 0 4.76 159 07:22 21.05.2020
2697 Clear 23 1012 84 0 4.76 159 06:44 21.05.2020
2698 Clear 24 1012 84 0 4.68 162 05:50 21.05.2020
2699 Clear 24 1011 83 0 4.38 164 04:25 21.05.2020
2700 Clear 24 1010 83 0 4.4 162 03:21 21.05.2020
2701 Clear 24 1010 83 0 4.4 162 03:21 21.05.2020
2702 Clear 24 1010 83 0 4.4 162 03:21 21.05.2020
2703 Clear 24 1010 83 0 4.4 162 03:21 21.05.2020
2704 Clear 24 1010 84 0 4.13 162 02:31 21.05.2020
2705 Clear 24 1010 82 0 4.72 164 01:52 21.05.2020
2706 Clouds 27 1008 69 10000 8.2 170 01:24 21.05.2020
2707 Clouds 27 1008 69 10000 8.2 170 00:59 21.05.2020
2708 Clouds 27 1008 69 10000 8.2 170 00:41 21.05.2020
2709 Clouds 27 1008 69 10000 8.2 170 00:18 21.05.2020
2710 Clouds 28 1008 65 10000 6.7 170 23:40 20.05.2020
2711 Clouds 28 1008 65 10000 6.7 170 23:19 20.05.2020
2712 Clouds 28 1009 65 10000 7.2 150 22:43 20.05.2020
2713 Clouds 28 1009 65 10000 7.2 150 22:25 20.05.2020
2714 Clouds 28 1010 69 10000 6.7 170 21:58 20.05.2020
2715 Clouds 28 1010 69 10000 6.7 170 21:38 20.05.2020
2716 Clouds 28 1010 69 10000 6.7 170 21:19 20.05.2020
2717 Clouds 28 1011 69 10000 7.2 140 20:44 20.05.2020
2718 Clouds 28 1011 69 10000 7.2 140 20:23 20.05.2020
2719 Clouds 28 1012 69 10000 8.2 160 19:44 20.05.2020
2720 Clouds 28 1012 69 10000 8.2 160 19:25 20.05.2020
2721 Clouds 28 1012 69 10000 7.7 160 18:59 20.05.2020
2722 Clouds 28 1012 69 10000 7.7 160 18:40 20.05.2020
2723 Clouds 28 1012 69 10000 7.7 160 18:20 20.05.2020
2724 Clouds 28 1012 69 10000 7.7 160 18:20 20.05.2020
2725 Clouds 27 1012 74 10000 7.7 140 17:40 20.05.2020
2726 Clouds 27 1012 74 10000 7.7 140 17:21 20.05.2020
2727 Clouds 26 1011 78 10000 6.7 150 16:55 20.05.2020
2728 Clouds 26 1011 78 10000 6.7 150 16:36 20.05.2020
2729 Clouds 24 1013 82 0 5.32 157 16:18 20.05.2020
2730 Clouds 24 1013 82 0 5.32 157 15:42 20.05.2020
2731 Clouds 24 1012 83 0 5.45 157 15:23 20.05.2020
2732 Clouds 24 1012 83 0 5.45 157 14:44 20.05.2020
2733 Clouds 24 1012 85 0 5.68 153 14:21 20.05.2020
2734 Clouds 24 1012 85 0 5.68 153 13:43 20.05.2020
2735 Clouds 24 1012 85 0 5.74 155 13:21 20.05.2020
2736 Clouds 24 1012 85 0 5.74 155 12:59 20.05.2020
2737 Clouds 24 1012 85 0 5.74 155 12:39 20.05.2020
2738 Clouds 24 1012 85 0 5.49 155 12:20 20.05.2020
2739 Clouds 24 1012 85 0 5.49 155 11:36 20.05.2020
2740 Clouds 24 1011 86 0 5.08 154 11:18 20.05.2020
2741 Clouds 24 1011 86 0 5.08 154 10:43 20.05.2020
2742 Clouds 24 1012 86 0 4.97 156 10:20 20.05.2020
2743 Clouds 24 1012 86 0 4.97 156 09:46 20.05.2020
2744 Clouds 24 1012 86 0 4.97 156 09:46 20.05.2020
2745 Clouds 24 1012 88 0 4.24 157 09:22 20.05.2020
2746 Clouds 24 1012 88 0 4.24 157 09:22 20.05.2020
2747 Clouds 24 1012 88 0 4.24 157 08:58 20.05.2020
2748 Clouds 24 1012 88 0 4.24 157 08:40 20.05.2020
2749 Clear 24 1013 89 0 3.46 156 08:18 20.05.2020
2750 Clear 24 1013 89 0 3.46 156 07:47 20.05.2020
2751 Clear 24 1013 89 0 3.28 158 07:21 20.05.2020
2752 Clear 24 1013 89 0 3.28 158 06:43 20.05.2020
2753 Clear 24 1013 88 0 4.34 166 05:24 20.05.2020
2754 Clear 24 1013 88 0 4.34 166 04:33 20.05.2020
2755 Clear 24 1012 88 0 4.71 167 03:51 20.05.2020
2756 Clear 24 1011 88 0 4.66 168 02:30 20.05.2020
2757 Clouds 26 1007 83 10000 8.7 170 01:29 20.05.2020
2758 Clouds 26 1007 83 10000 8.7 170 00:45 20.05.2020
2759 Clouds 26 1007 83 10000 8.7 170 00:24 20.05.2020
2760 Clouds 28 1008 69 10000 10.8 160 23:42 19.05.2020
2761 Clouds 28 1008 69 10000 10.8 160 23:19 19.05.2020
2762 Clouds 28 1009 69 10000 8.2 180 22:56 19.05.2020
2763 Clouds 28 1009 69 10000 8.2 180 22:38 19.05.2020
2764 Clouds 28 1009 69 10000 8.2 180 22:19 19.05.2020
2765 Clouds 27 1009 74 10000 8.7 160 21:58 19.05.2020
2766 Clouds 27 1009 74 10000 8.7 160 21:38 19.05.2020
2767 Clouds 27 1009 74 10000 8.7 160 21:19 19.05.2020
2768 Clouds 28 1011 74 10000 6.7 180 20:57 19.05.2020
2769 Clouds 28 1011 74 10000 6.7 180 20:39 19.05.2020
2770 Clouds 28 1011 74 10000 6.7 180 20:20 19.05.2020
2771 Clouds 28 1011 74 10000 7.7 160 19:40 19.05.2020
2772 Clouds 28 1011 74 10000 7.7 160 19:21 19.05.2020
2773 Clouds 27 1012 78 10000 7.7 150 18:58 19.05.2020
2774 Clouds 27 1012 78 10000 7.7 150 18:40 19.05.2020
2775 Clouds 27 1012 78 10000 7.7 150 18:40 19.05.2020
2776 Clouds 27 1012 78 10000 7.7 150 18:20 19.05.2020
2777 Clouds 27 1012 74 10000 6.7 150 17:43 19.05.2020
2778 Clouds 27 1012 74 10000 6.7 150 17:21 19.05.2020
2779 Clouds 26 1011 83 10000 8.2 160 16:58 19.05.2020
2780 Clouds 26 1011 83 10000 8.2 160 16:38 19.05.2020
2781 Clouds 26 1011 83 10000 8.2 160 16:19 19.05.2020
2782 Clear 24 1013 87 0 4.71 142 15:46 19.05.2020
2783 Clouds 24 1013 88 0 4.38 141 15:21 19.05.2020
2784 Clouds 24 1013 88 0 4.38 141 14:57 19.05.2020
2785 Clouds 24 1013 88 0 4.38 141 14:38 19.05.2020
2786 Clouds 24 1012 88 0 4.32 149 14:20 19.05.2020
2787 Clouds 24 1012 90 0 3.41 148 13:57 19.05.2020
2788 Clouds 24 1012 90 0 3.41 148 13:57 19.05.2020
2789 Clouds 24 1012 90 0 3.41 148 13:38 19.05.2020
2790 Clouds 24 1012 90 0 3.41 148 13:38 19.05.2020
2791 Clear 24 1012 90 0 3.1 154 13:20 19.05.2020
2792 Clear 24 1012 90 0 3.1 154 12:56 19.05.2020
2793 Clear 24 1012 90 0 3.1 154 12:36 19.05.2020
2794 Clear 24 1011 90 0 2.84 153 12:18 19.05.2020
2795 Clear 24 1011 90 0 2.84 153 12:18 19.05.2020
2796 Clear 24 1011 90 0 2.84 153 11:42 19.05.2020
2797 Clear 24 1012 90 0 3.14 158 11:22 19.05.2020
2798 Clear 24 1012 90 0 3.14 158 10:57 19.05.2020
2799 Clear 24 1012 90 0 3.14 158 10:39 19.05.2020
2800 Clear 24 1012 90 0 3.23 163 10:21 19.05.2020
2801 Clear 24 1012 90 0 3.23 163 09:46 19.05.2020
2802 Clear 24 1013 90 0 3.18 166 09:25 19.05.2020
2803 Clear 24 1013 90 0 3.09 168 08:48 19.05.2020
2804 Clear 24 1013 90 0 2.46 163 08:25 19.05.2020
2805 Clear 24 1013 90 0 2.46 163 07:49 19.05.2020
2806 Clear 24 1014 91 0 1.65 152 07:28 19.05.2020
2807 Clear 24 1014 91 0 1.65 152 06:56 19.05.2020
2808 Clear 24 1014 91 0 1.65 152 06:56 19.05.2020
2809 Clear 24 1014 91 0 1.65 152 06:32 19.05.2020
2810 Clear 24 1014 91 0 1.28 141 05:53 19.05.2020
2811 Clear 24 1014 91 0 1.28 141 05:35 19.05.2020
2812 Clear 24 1014 91 0 1.17 151 04:50 19.05.2020
2813 Clear 24 1012 89 0 2.59 180 02:59 19.05.2020
2814 Clouds 27 1009 78 10000 7.2 170 00:59 19.05.2020
2815 Clouds 27 1009 78 10000 7.2 170 00:36 19.05.2020
2816 Clouds 27 1009 78 10000 8.2 160 00:18 19.05.2020
2817 Clouds 27 1009 78 10000 8.2 160 23:40 18.05.2020
2818 Clouds 27 1009 78 10000 8.2 160 23:20 18.05.2020
2819 Clouds 27 1009 78 10000 7.7 190 22:55 18.05.2020
2820 Clouds 27 1009 78 10000 7.7 190 22:37 18.05.2020
2821 Clouds 27 1009 78 10000 7.7 190 22:19 18.05.2020
2822 Clouds 28 1011 74 10000 8.7 170 21:42 18.05.2020
2823 Clouds 28 1011 74 10000 8.7 170 21:21 18.05.2020
2824 Clouds 27 1011 74 10000 7.2 150 20:57 18.05.2020
2825 Clouds 27 1011 74 10000 7.2 150 20:37 18.05.2020
2826 Clouds 27 1012 74 10000 7.7 150 20:19 18.05.2020
2827 Clouds 27 1012 74 10000 7.7 150 19:42 18.05.2020
2828 Clouds 27 1012 78 10000 6.7 170 19:20 18.05.2020
2829 Clouds 27 1012 78 10000 6.7 170 18:59 18.05.2020
2830 Clouds 27 1012 78 10000 6.7 170 18:41 18.05.2020
2831 Clouds 27 1012 78 10000 6.7 170 18:20 18.05.2020
2832 Clouds 27 1012 78 10000 5.7 160 17:38 18.05.2020
2833 Clouds 27 1012 78 10000 5.7 160 17:18 18.05.2020
2834 Clouds 27 1012 78 10000 5.7 160 17:18 18.05.2020
2835 Clouds 26 1012 78 10000 6.7 170 16:56 18.05.2020
2836 Clouds 26 1012 78 10000 6.7 170 16:37 18.05.2020
2837 Clear 24 1014 86 0 2.83 175 16:18 18.05.2020
2838 Clear 24 1014 86 0 2.83 175 16:18 18.05.2020
2839 Clear 24 1014 86 0 2.83 175 15:46 18.05.2020
2840 Clear 24 1013 87 0 2.96 177 15:25 18.05.2020
2841 Clear 24 1013 88 0 2.8 175 14:59 18.05.2020
2842 Clear 24 1013 87 0 2.96 177 14:39 18.05.2020
2843 Clear 24 1012 88 0 3.34 177 14:21 18.05.2020
2844 Clear 24 1012 88 0 3.34 177 13:54 18.05.2020
2845 Clear 24 1012 88 0 3.34 177 13:36 18.05.2020
2846 Clear 24 1011 88 0 3.85 180 13:18 18.05.2020
2847 Clear 24 1011 88 0 3.85 180 12:54 18.05.2020
2848 Clear 24 1011 88 0 3.85 180 12:36 18.05.2020
2849 Clear 24 1011 88 0 3.85 180 12:36 18.05.2020
2850 Clear 24 1011 88 0 3.86 187 12:18 18.05.2020
2851 Clear 24 1011 88 0 3.86 187 11:42 18.05.2020
2852 Clear 24 1012 88 0 4.05 190 11:23 18.05.2020
2853 Clear 24 1012 88 0 4.05 190 10:47 18.05.2020
2854 Clear 24 1012 88 0 3.71 191 10:27 18.05.2020
2855 Clear 24 1012 88 0 3.71 191 09:46 18.05.2020
2856 Clear 24 1012 88 0 3.61 187 09:28 18.05.2020
2857 Clear 24 1012 88 0 3.61 187 08:59 18.05.2020
2858 Clear 24 1012 88 0 3.61 187 08:40 18.05.2020
2859 Clear 24 1013 87 0 3.06 183 08:21 18.05.2020
2860 Clear 24 1013 87 0 3.06 183 07:45 18.05.2020
2861 Clear 24 1013 87 0 2.53 176 07:24 18.05.2020
2862 Clear 24 1013 87 0 2.53 176 06:48 18.05.2020
2863 Clear 24 1014 87 0 2.28 164 06:23 18.05.2020
2864 Clear 24 1014 87 0 2.28 164 05:44 18.05.2020
2865 Clear 24 1013 86 0 2.64 170 03:53 18.05.2020
2866 Clear 24 1012 85 0 2.7 174 03:22 18.05.2020
2867 Clear 24 1011 84 0 3.18 174 01:45 18.05.2020
2868 Clear 24 1010 82 0 3.87 175 00:45 18.05.2020
2869 Clouds 26 1009 78 10000 4.6 150 00:19 18.05.2020
2870 Clouds 26 1009 78 10000 4.6 150 23:55 17.05.2020
2871 Clouds 26 1009 78 10000 4.6 150 23:36 17.05.2020
2872 Clouds 28 1009 69 10000 5.1 180 23:18 17.05.2020
2873 Clouds 28 1009 69 10000 5.1 180 22:40 17.05.2020
2874 Clouds 28 1009 69 10000 5.1 180 22:40 17.05.2020
2875 Clouds 28 1009 69 10000 5.1 180 22:21 17.05.2020
2876 Clouds 28 1010 69 10000 3.6 150 21:59 17.05.2020
2877 Clouds 28 1010 69 10000 3.6 150 21:41 17.05.2020
2878 Clouds 28 1010 69 10000 3.6 150 21:19 17.05.2020
2879 Clouds 28 1011 69 10000 6.2 170 20:55 17.05.2020
2880 Clouds 28 1011 69 10000 6.2 170 20:55 17.05.2020
2881 Clouds 28 1011 69 10000 6.2 170 20:36 17.05.2020
2882 Clouds 28 1012 69 10000 4.6 160 20:18 17.05.2020
2883 Clouds 28 1012 69 10000 4.6 160 19:42 17.05.2020
2884 Clouds 28 1012 69 10000 4.6 160 19:23 17.05.2020
2885 Clouds 28 1011 69 10000 5.1 170 18:56 17.05.2020
2886 Clouds 28 1011 69 10000 5.1 170 18:37 17.05.2020
2887 Clouds 28 1011 69 10000 5.1 170 18:19 17.05.2020
2888 Clouds 27 1011 74 10000 4.1 180 17:40 17.05.2020
2889 Clouds 27 1011 74 10000 4.1 180 17:21 17.05.2020
2890 Clouds 27 1011 74 10000 4.1 180 17:21 17.05.2020
2891 Clouds 27 1011 74 10000 4.1 180 17:21 17.05.2020
2892 Clear 26 1010 78 10000 5.1 170 16:56 17.05.2020
2893 Clear 26 1010 78 10000 5.1 170 16:37 17.05.2020
2894 Clear 26 1010 78 10000 5.1 170 16:19 17.05.2020
2895 Clear 24 1013 86 0 2.96 162 15:45 17.05.2020
2896 Clouds 24 1012 87 0 2.76 166 15:24 17.05.2020
2897 Clouds 24 1012 87 0 2.76 166 14:57 17.05.2020
2898 Clouds 24 1012 87 0 2.76 166 14:38 17.05.2020
2899 Clear 24 1011 87 0 2.49 168 14:19 17.05.2020
2900 Clouds 24 1011 86 0 2.2 169 13:41 17.05.2020
2901 Clouds 24 1010 85 0 2.4 174 13:20 17.05.2020
2902 Clouds 24 1012 84 0 2.64 171 04:54 17.05.2020
2903 Clouds 24 1011 84 0 2.76 172 03:30 17.05.2020
2904 Clouds 24 1009 82 0 2.82 175 02:24 17.05.2020
2905 Clouds 24 1009 82 0 2.84 168 01:50 17.05.2020
2906 Clouds 26 1007 78 10000 4.1 130 00:45 17.05.2020
2907 Clouds 26 1007 78 10000 4.1 130 00:24 17.05.2020
2908 Clouds 26 1007 78 10000 5.1 150 23:42 16.05.2020
2909 Clouds 26 1007 78 10000 5.1 150 23:21 16.05.2020
2910 Clouds 27 1008 74 10000 4.6 140 22:59 16.05.2020
2911 Clouds 27 1008 74 10000 4.6 140 22:41 16.05.2020
2912 Clouds 27 1008 74 10000 4.6 140 22:20 16.05.2020
2913 Clouds 27 1009 74 10000 5.1 170 21:55 16.05.2020
2914 Clouds 27 1009 74 10000 5.1 170 21:37 16.05.2020
2915 Clouds 27 1009 74 10000 5.1 170 21:18 16.05.2020
2916 Clouds 28 1010 74 10000 5.7 180 20:42 16.05.2020
2917 Clouds 28 1010 74 10000 5.7 180 20:22 16.05.2020
2918 Clouds 28 1010 74 10000 4.6 140 19:59 16.05.2020
2919 Clouds 28 1010 74 10000 4.6 140 19:40 16.05.2020
2920 Clouds 28 1010 74 10000 4.6 140 19:40 16.05.2020
2921 Clouds 28 1010 74 10000 4.6 140 19:22 16.05.2020
2922 Clouds 28 1010 74 10000 4.6 140 19:22 16.05.2020
2923 Clouds 27 1010 78 10000 5.1 150 18:45 16.05.2020
2924 Clouds 27 1010 78 10000 5.1 150 18:25 16.05.2020
2925 Clouds 27 1011 78 10000 6.7 180 17:58 16.05.2020
2926 Clouds 27 1011 78 10000 6.7 180 17:40 16.05.2020
2927 Clouds 27 1011 78 10000 6.7 180 17:20 16.05.2020
2928 Clouds 25 1010 88 10000 4.6 150 16:42 16.05.2020
2929 Clouds 25 1010 88 10000 4.6 150 16:23 16.05.2020
2930 Clouds 25 1010 88 10000 4.6 150 16:23 16.05.2020
2931 Clouds 24 1013 82 0 4.65 149 15:58 16.05.2020
2932 Clouds 24 1013 82 0 4.65 149 15:40 16.05.2020
2933 Clouds 24 1012 83 0 4.55 153 15:20 16.05.2020
2934 Clouds 24 1012 83 0 4.55 153 14:48 16.05.2020
2935 Clouds 24 1011 84 0 4.29 150 14:21 16.05.2020
2936 Clouds 24 1011 84 0 4.29 150 14:21 16.05.2020
2937 Clouds 24 1011 84 0 4.29 150 13:59 16.05.2020
2938 Clouds 24 1011 84 0 4.29 150 13:59 16.05.2020
2939 Clouds 24 1011 84 0 4.29 150 13:40 16.05.2020
2940 Clouds 24 1010 85 0 4.33 149 13:22 16.05.2020
2941 Clouds 24 1010 85 0 4.33 149 12:45 16.05.2020
2942 Clouds 24 1010 86 0 4.19 156 12:23 16.05.2020
2943 Clouds 24 1010 86 0 4.19 156 11:59 16.05.2020
2944 Clouds 24 1010 86 0 4.19 156 11:39 16.05.2020
2945 Clear 24 1010 87 0 4.16 159 11:20 16.05.2020
2946 Clear 24 1010 87 0 4.16 159 10:56 16.05.2020
2947 Clear 24 1010 87 0 4.16 159 10:37 16.05.2020
2948 Clear 24 1010 87 0 3.91 159 10:18 16.05.2020
2949 Clear 24 1010 87 0 3.91 159 09:44 16.05.2020
2950 Clear 24 1011 87 0 3.57 152 09:26 16.05.2020
2951 Clear 24 1011 87 0 3.57 152 08:43 16.05.2020
2952 Clouds 24 1011 87 0 3.75 147 08:22 16.05.2020
2953 Clouds 24 1011 87 0 3.75 147 07:46 16.05.2020
2954 Clouds 24 1011 87 0 3.93 145 07:27 16.05.2020
2955 Clouds 24 1011 87 0 3.93 145 06:59 16.05.2020
2956 Clouds 24 1011 87 0 3.93 145 06:41 16.05.2020
2957 Clouds 24 1011 87 0 4.04 136 06:18 16.05.2020
2958 Clouds 24 1011 87 0 4.04 136 05:38 16.05.2020
2959 Clouds 24 1011 86 0 3.63 139 03:58 16.05.2020
2960 Clouds 24 1010 85 0 3.59 138 02:59 16.05.2020
2961 Clouds 24 1010 83 0 3.73 137 02:21 16.05.2020
2962 Clouds 24 1010 83 0 3.73 137 01:53 16.05.2020
2963 Clouds 27 1007 78 10000 4.1 150 01:23 16.05.2020
2964 Clouds 27 1007 78 10000 4.1 150 00:49 16.05.2020
2965 Clouds 27 1007 78 10000 4.1 150 00:22 16.05.2020
2966 Clouds 27 1007 74 10000 3.6 150 23:41 15.05.2020
2967 Clouds 27 1007 74 10000 3.6 150 23:20 15.05.2020
2968 Clouds 28 1008 74 10000 5.1 150 22:58 15.05.2020
2969 Clouds 28 1008 74 10000 5.1 150 22:38 15.05.2020
2970 Clouds 28 1008 74 10000 5.1 150 22:18 15.05.2020
2971 Clouds 28 1008 74 10000 5.1 150 22:18 15.05.2020
2972 Clouds 28 1009 74 10000 4.1 150 21:40 15.05.2020
2973 Clouds 28 1009 74 10000 4.1 150 21:21 15.05.2020
2974 Clouds 28 1010 74 10000 6.2 170 20:59 15.05.2020
2975 Clouds 28 1010 74 10000 6.2 170 20:40 15.05.2020
2976 Clouds 28 1010 74 10000 6.2 170 20:22 15.05.2020
2977 Clouds 28 1010 74 10000 6.7 150 19:56 15.05.2020
2978 Clouds 28 1010 74 10000 6.7 150 19:37 15.05.2020
2979 Clouds 28 1010 74 10000 6.7 150 19:37 15.05.2020
2980 Clouds 28 1010 74 10000 6.7 150 19:19 15.05.2020
2981 Clouds 28 1011 74 10000 6.2 160 18:43 15.05.2020
2982 Clouds 28 1011 74 10000 6.2 160 18:24 15.05.2020
2983 Clouds 27 1011 78 10000 4.6 130 17:40 15.05.2020
2984 Clouds 27 1011 78 10000 4.6 130 17:20 15.05.2020
2985 Clouds 26 1010 83 10000 5.7 100 16:57 15.05.2020
2986 Clouds 26 1010 83 10000 5.7 100 16:38 15.05.2020
2987 Clouds 26 1010 83 10000 5.7 100 16:19 15.05.2020
2988 Clouds 24 1013 86 0 3.17 129 15:54 15.05.2020
2989 Clouds 24 1013 84 0 3.96 124 15:36 15.05.2020
2990 Clouds 24 1012 87 0 3.34 136 15:18 15.05.2020
2991 Clouds 24 1012 85 0 3.77 122 15:18 15.05.2020
2992 Clouds 24 1012 85 0 3.77 122 14:41 15.05.2020
2993 Clouds 24 1011 87 0 3.43 140 14:23 15.05.2020
2994 Clouds 24 1011 87 0 3.43 140 13:58 15.05.2020
2995 Clouds 24 1011 87 0 3.43 140 13:39 15.05.2020
2996 Clouds 24 1011 88 0 3.3 140 13:19 15.05.2020
2997 Clouds 24 1011 88 0 3.3 140 12:39 15.05.2020
2998 Clouds 24 1010 88 0 3.32 136 12:18 15.05.2020
2999 Clouds 24 1010 88 0 3.32 136 11:56 15.05.2020
3000 Clouds 24 1010 88 0 3.32 136 11:38 15.05.2020
3001 Clouds 24 1010 88 0 3.46 128 11:19 15.05.2020
3002 Clouds 24 1010 88 0 3.46 128 10:57 15.05.2020
3003 Clouds 24 1010 88 0 3.46 128 10:38 15.05.2020
3004 Clouds 24 1011 87 0 3.6 118 10:20 15.05.2020
3005 Clouds 24 1011 87 0 3.6 118 09:56 15.05.2020
3006 Clouds 24 1011 89 0 3.68 124 09:36 15.05.2020
3007 Clouds 24 1012 89 0 3.74 124 09:18 15.05.2020
3008 Clouds 24 1012 89 0 3.74 124 08:38 15.05.2020
3009 Clouds 24 1013 89 0 3.39 134 08:20 15.05.2020
3010 Clouds 24 1013 89 0 3.39 134 07:46 15.05.2020
3011 Clouds 24 1013 89 0 3.04 148 07:28 15.05.2020
3012 Clouds 24 1013 89 0 3.04 148 06:59 15.05.2020
3013 Clouds 24 1013 88 0 2.79 155 05:56 15.05.2020
3014 Clouds 24 1012 87 0 2.75 156 04:38 15.05.2020
3015 Clouds 24 1012 85 0 2.96 157 03:49 15.05.2020
3016 Clouds 24 1011 83 0 3.09 159 02:44 15.05.2020
3017 Clouds 27 1008 83 10000 5.1 180 01:32 15.05.2020
3018 Clouds 27 1008 83 10000 5.1 180 00:57 15.05.2020
3019 Clouds 27 1008 83 10000 5.1 180 00:39 15.05.2020
3020 Clouds 27 1008 83 10000 5.1 180 00:20 15.05.2020
3021 Clouds 28 1008 74 10000 4.6 190 23:40 14.05.2020
3022 Clouds 29 1009 74 10000 5.1 180 23:18 14.05.2020
3023 Clouds 29 1009 74 10000 5.1 180 23:18 14.05.2020
3024 Clouds 29 1009 74 10000 5.1 180 22:42 14.05.2020
3025 Clouds 29 1009 74 10000 5.1 180 22:21 14.05.2020
3026 Clouds 29 1010 70 10000 1.5 240 21:58 14.05.2020
3027 Clouds 29 1010 70 10000 1.5 240 21:40 14.05.2020
3028 Clouds 29 1010 70 10000 1.5 240 21:19 14.05.2020
3029 Clouds 28 1011 74 10000 2.1 360 20:56 14.05.2020
3030 Clouds 28 1011 74 10000 2.1 360 20:38 14.05.2020
3031 Clouds 28 1011 74 10000 2.1 360 20:18 14.05.2020
3032 Clouds 28 1012 74 10000 2.1 30 19:55 14.05.2020
3033 Clouds 28 1012 74 10000 2.1 30 19:36 14.05.2020
3034 Clouds 27 1011 78 10000 4.6 180 19:18 14.05.2020
3035 Clouds 27 1011 78 10000 4.6 180 18:54 14.05.2020
3036 Clouds 27 1011 78 10000 4.6 180 18:36 14.05.2020
3037 Clouds 26 1012 83 10000 3.6 160 18:18 14.05.2020
3038 Clouds 26 1012 83 10000 3.6 160 18:18 14.05.2020
3039 Clouds 26 1012 83 10000 3.6 160 17:55 14.05.2020
3040 Clouds 26 1012 83 10000 3.6 160 17:36 14.05.2020
3041 Clouds 25 1011 88 10000 3.1 120 17:18 14.05.2020
3042 Clouds 25 1011 88 10000 3.1 120 16:39 14.05.2020
3043 Clouds 25 1011 88 10000 3.1 120 16:20 14.05.2020
3044 Clouds 24 1013 87 0 4.52 146 15:57 14.05.2020
3045 Clouds 24 1013 87 0 4.52 146 15:39 14.05.2020
3046 Clouds 24 1012 87 0 4.77 150 15:19 14.05.2020
3047 Clouds 24 1012 87 0 4.77 150 14:55 14.05.2020
3048 Clouds 24 1012 87 0 4.77 150 14:37 14.05.2020
3049 Clouds 24 1011 87 0 4.92 157 14:19 14.05.2020
3050 Clouds 24 1011 87 0 4.92 157 13:44 14.05.2020
3051 Clouds 24 1011 87 0 4.57 158 13:21 14.05.2020
3052 Clouds 24 1011 87 0 4.57 158 12:59 14.05.2020
3053 Clouds 24 1011 87 0 4.57 158 12:40 14.05.2020
3054 Clouds 24 1010 88 0 4.57 161 12:21 14.05.2020
3055 Clouds 24 1010 88 0 4.57 161 11:59 14.05.2020
3056 Clouds 24 1010 88 0 4.57 161 11:40 14.05.2020
3057 Clouds 24 1010 89 0 4.45 166 11:22 14.05.2020
3058 Clouds 24 1010 89 0 4.45 166 10:57 14.05.2020
3059 Clouds 24 1010 89 0 4.45 166 10:38 14.05.2020
3060 Clouds 24 1011 90 0 3.93 167 10:20 14.05.2020
3061 Clouds 24 1011 90 0 3.93 167 09:42 14.05.2020
3062 Clouds 24 1012 90 0 3.7 156 09:23 14.05.2020
3063 Clouds 24 1012 90 0 3.7 156 08:43 14.05.2020
3064 Clouds 24 1012 90 0 3.92 154 08:21 14.05.2020
3065 Clouds 24 1012 90 0 3.92 154 07:47 14.05.2020
3066 Clouds 24 1013 90 0 4.31 156 07:25 14.05.2020
3067 Clouds 24 1013 90 0 4.31 156 06:55 14.05.2020
3068 Clouds 24 1013 90 0 4.31 156 06:34 14.05.2020
3069 Clouds 24 1013 90 0 4.38 156 05:58 14.05.2020
3070 Clouds 24 1013 90 0 4.38 156 05:36 14.05.2020
3071 Clouds 24 1012 89 0 4.14 158 04:34 14.05.2020
3072 Clouds 25 1012 88 0 4.1 153 03:30 14.05.2020
3073 Clouds 25 1012 88 0 4.49 150 02:43 14.05.2020
3074 Clouds 25 1011 86 0 4.89 157 02:18 14.05.2020
3075 Clouds 27 1008 78 10000 5.7 150 01:28 14.05.2020
3076 Clouds 27 1008 78 10000 5.7 150 00:50 14.05.2020
3077 Clouds 27 1008 78 10000 5.7 150 00:25 14.05.2020
3078 Clouds 28 1008 69 10000 4.6 150 23:44 13.05.2020
3079 Clouds 28 1008 69 10000 4.6 150 23:22 13.05.2020
3080 Clouds 28 1008 69 10000 3.1 180 22:54 13.05.2020
3081 Clouds 28 1008 69 10000 3.1 180 22:36 13.05.2020
3082 Clouds 28 1008 69 10000 3.1 180 22:18 13.05.2020
3083 Clouds 28 1010 69 10000 7.7 150 21:55 13.05.2020
3084 Clouds 28 1010 69 10000 7.7 150 21:37 13.05.2020
3085 Clouds 28 1010 69 10000 7.7 150 21:18 13.05.2020
3086 Clouds 27 1010 83 10000 7.7 150 20:41 13.05.2020
3087 Clouds 27 1010 83 10000 7.7 150 20:22 13.05.2020
3088 Rain 26 1012 88 10000 8.2 130 19:43 13.05.2020
3089 Rain 26 1012 88 10000 8.2 130 19:24 13.05.2020
3090 Drizzle 25 1012 94 10000 9.3 130 18:56 13.05.2020
3091 Drizzle 25 1012 94 10000 9.3 130 18:37 13.05.2020
3092 -273 0 0 0 0 0 18:19 13.05.2020
3093 Drizzle 25 1012 94 10000 9.3 130 18:19 13.05.2020
3094 Drizzle 25 1012 94 10000 9.3 130 18:19 13.05.2020
3095 Clouds 27 1012 83 10000 7.2 130 17:39 13.05.2020
3096 Clouds 27 1012 83 10000 7.2 130 17:19 13.05.2020
3097 Clouds 26 1011 88 10000 6.7 140 16:55 13.05.2020
3098 Clouds 26 1011 88 10000 6.7 140 16:37 13.05.2020
3099 Clouds 26 1011 88 10000 6.7 140 16:37 13.05.2020
3100 Clouds 26 1011 88 10000 6.7 140 16:18 13.05.2020
3101 Clouds 25 1014 85 0 5.87 153 15:42 13.05.2020
3102 Clouds 24 1013 86 0 6.02 153 15:19 13.05.2020
3103 Clouds 24 1013 86 0 6.02 153 14:57 13.05.2020
3104 Clouds 24 1013 86 0 6.02 153 14:39 13.05.2020
3105 Clouds 24 1013 87 0 5.81 152 14:20 13.05.2020
3106 Clouds 24 1013 87 0 5.81 152 13:55 13.05.2020
3107 Clouds 24 1013 87 0 5.81 152 13:37 13.05.2020
3108 Clouds 24 1012 87 0 5.61 153 13:19 13.05.2020
3109 Clouds 24 1012 87 0 5.61 153 12:42 13.05.2020
3110 Clouds 24 1012 88 0 5.62 151 12:21 13.05.2020
3111 Clouds 24 1012 88 0 5.62 151 11:57 13.05.2020
3112 Clouds 24 1012 88 0 5.62 151 11:57 13.05.2020
3113 Clouds 24 1012 88 0 5.62 151 11:38 13.05.2020
3114 Clouds 24 1012 88 0 5.62 147 11:20 13.05.2020
3115 Clouds 24 1012 88 0 5.62 147 10:58 13.05.2020
3116 Clouds 24 1012 88 0 5.62 147 10:38 13.05.2020
3117 Clouds 24 1012 88 0 5.61 151 10:19 13.05.2020
3118 Clouds 24 1012 88 0 5.61 151 10:19 13.05.2020
3119 Clouds 24 1012 88 0 5.61 151 09:49 13.05.2020
3120 Clouds 24 1012 88 0 5.61 151 09:49 13.05.2020
3121 Clouds 24 1013 88 0 5.28 149 09:25 13.05.2020
3122 Clouds 24 1013 88 0 5.28 149 08:59 13.05.2020
3123 Clouds 24 1013 88 0 5.28 149 08:39 13.05.2020
3124 Clouds 24 1014 88 0 4.72 147 08:20 13.05.2020
3125 Clouds 24 1014 88 0 4.72 147 07:56 13.05.2020
3126 Clouds 24 1014 88 0 4.72 147 07:33 13.05.2020
3127 Clear 24 1014 88 0 4.86 146 06:55 13.05.2020
3128 Clear 24 1014 88 0 4.86 146 06:35 13.05.2020
3129 Clouds 24 1014 88 0 4.8 148 05:48 13.05.2020
3130 Clouds 24 1014 87 0 4.41 155 04:20 13.05.2020
3131 Clear 25 1013 86 0 4.15 152 02:38 13.05.2020
3132 Clouds 25 1012 86 0 5.53 164 01:46 13.05.2020
3133 Clouds 26 1009 83 10000 8.7 140 00:58 13.05.2020
3134 Clouds 26 1009 83 10000 8.7 140 00:25 13.05.2020
3135 Clouds 27 1008 78 10000 9.8 160 23:59 12.05.2020
3136 Clouds 27 1008 78 10000 9.8 160 23:59 12.05.2020
3137 Clouds 27 1008 78 10000 9.8 160 23:39 12.05.2020
3138 Clouds 27 1008 78 10000 9.8 160 23:20 12.05.2020
3139 Clouds 27 1008 78 10000 8.7 150 22:42 12.05.2020
3140 Clouds 27 1008 78 10000 8.7 150 22:22 12.05.2020
3141 Clouds 27 1009 83 10000 8.2 150 21:57 12.05.2020
3142 Clouds 27 1009 83 10000 8.2 150 21:38 12.05.2020
3143 Clouds 27 1009 83 10000 8.2 150 21:19 12.05.2020
3144 Clouds 27 1009 83 10000 8.2 150 21:19 12.05.2020
3145 Clouds 27 1009 78 10000 9.3 170 20:59 12.05.2020
3146 Clouds 27 1009 78 10000 9.3 170 20:39 12.05.2020
3147 Clouds 27 1009 78 10000 9.3 170 20:21 12.05.2020
3148 Clouds 28 1011 78 10000 7.7 150 19:57 12.05.2020
3149 Clouds 28 1011 78 10000 7.7 150 19:39 12.05.2020
3150 Clouds 28 1011 78 10000 7.7 150 19:20 12.05.2020
3151 Clouds 28 1012 74 10000 7.2 160 18:55 12.05.2020
3152 Clouds 28 1012 74 10000 7.2 160 18:36 12.05.2020
3153 Clouds 27 1012 83 10000 6.7 150 18:18 12.05.2020
3154 Clouds 27 1012 83 10000 6.7 150 17:42 12.05.2020
3155 Clouds 27 1012 83 10000 6.7 150 17:23 12.05.2020
3156 Clouds 26 1012 83 10000 5.1 180 16:47 12.05.2020
3157 Clouds 26 1012 83 10000 5.1 180 16:26 12.05.2020
3158 Clouds 25 1014 87 0 5.19 161 15:56 12.05.2020
3159 Clouds 25 1014 87 0 5.19 161 15:37 12.05.2020
3160 Clouds 25 1014 88 0 4.89 161 15:19 12.05.2020
3161 Clouds 25 1014 88 0 4.89 161 14:56 12.05.2020
3162 Clouds 25 1014 88 0 4.89 161 14:37 12.05.2020
3163 Clouds 25 1013 88 0 5.71 167 14:19 12.05.2020
3164 Clouds 25 1013 88 0 5.71 167 13:57 12.05.2020
3165 Clouds 25 1013 88 0 5.71 167 13:39 12.05.2020
3166 Clouds 25 1012 87 0 5.67 165 13:19 12.05.2020
3167 Clouds 25 1012 87 0 5.67 165 12:57 12.05.2020
3168 Clouds 25 1012 87 0 5.67 165 12:39 12.05.2020
3169 Clouds 25 1012 87 0 5.27 166 12:21 12.05.2020
3170 Clouds 25 1012 87 0 5.27 166 11:57 12.05.2020
3171 Clouds 25 1012 87 0 5.27 166 11:38 12.05.2020
3172 Clouds 25 1012 87 0 4.42 168 11:20 12.05.2020
3173 Clouds 25 1012 87 0 4.42 168 10:56 12.05.2020
3174 Clouds 25 1012 87 0 4.42 168 10:38 12.05.2020
3175 Clouds 25 1012 87 0 3.41 159 10:18 12.05.2020
3176 Clouds 25 1012 87 0 3.41 159 09:57 12.05.2020
3177 Clouds 25 1012 87 0 3.41 159 09:38 12.05.2020
3178 Clouds 25 1012 87 0 3.41 159 09:38 12.05.2020
3179 Clouds 25 1013 87 0 3.61 157 09:20 12.05.2020
3180 Clouds 25 1013 87 0 3.61 157 08:41 12.05.2020
3181 Clouds 25 1014 87 0 4.1 158 08:21 12.05.2020
3182 Clouds 25 1014 87 0 4.1 158 07:55 12.05.2020
3183 Clouds 25 1014 87 0 4.1 158 07:37 12.05.2020
3184 Clouds 25 1015 86 0 4.1 163 07:18 12.05.2020
3185 Clouds 25 1015 86 0 4.1 163 06:37 12.05.2020
3186 Clouds 25 1015 85 0 4.05 166 06:19 12.05.2020
3187 Clouds 25 1015 85 0 4.05 166 05:45 12.05.2020
3188 Clouds 25 1014 85 0 3.61 168 03:55 12.05.2020
3189 Clouds 25 1013 85 0 3.4 167 03:19 12.05.2020
3190 Clouds 25 1012 84 0 3.42 163 02:27 12.05.2020
3191 Clouds 29 1009 70 10000 5.7 150 01:35 12.05.2020
3192 Clouds 29 1009 70 10000 5.7 150 00:58 12.05.2020
3193 Clouds 29 1009 70 10000 5.7 150 00:24 12.05.2020
3194 Clouds 29 1009 70 10000 4.6 150 23:57 11.05.2020
3195 Clouds 29 1009 70 10000 4.6 150 23:37 11.05.2020
3196 Clouds 29 1009 70 10000 4.6 150 23:19 11.05.2020
3197 Clouds 29 1010 70 10000 5.1 180 22:55 11.05.2020
3198 Clouds 29 1010 70 10000 5.1 180 22:37 11.05.2020
3199 Clouds 29 1010 70 10000 5.1 180 22:19 11.05.2020
3200 Clouds 29 1010 66 10000 4.1 150 21:54 11.05.2020
3201 Clouds 29 1010 66 10000 4.1 150 21:36 11.05.2020
3202 Clouds 28 1011 74 10000 4.6 180 21:18 11.05.2020
3203 Clouds 28 1011 74 10000 4.6 180 20:42 11.05.2020
3204 Clouds 28 1011 74 10000 4.6 180 20:21 11.05.2020
3205 Clouds 28 1012 78 10000 4.1 180 19:58 11.05.2020
3206 Clouds 28 1012 78 10000 4.1 180 19:40 11.05.2020
3207 Clouds 28 1012 78 10000 4.1 180 19:21 11.05.2020
3208 Clouds 28 1012 78 10000 6.2 150 18:57 11.05.2020
3209 Clouds 28 1012 78 10000 6.2 150 18:38 11.05.2020
3210 Clouds 28 1012 78 10000 6.2 150 18:19 11.05.2020
3211 Clouds 27 1012 83 10000 4.1 150 17:57 11.05.2020
3212 Clouds 27 1012 83 10000 4.1 150 17:57 11.05.2020
3213 Clouds 27 1012 83 10000 4.1 150 17:57 11.05.2020
3214 Clouds 27 1012 83 10000 4.1 150 17:38 11.05.2020
3215 Clouds 27 1012 83 10000 4.1 150 17:19 11.05.2020
3216 Clouds 27 1012 83 10000 4.1 150 16:42 11.05.2020
3217 Clouds 27 1012 83 10000 4.1 150 16:23 11.05.2020
3218 Clouds 25 1014 86 0 4.63 167 15:59 11.05.2020
3219 Clouds 25 1014 86 0 4.63 167 15:40 11.05.2020
3220 Clouds 25 1013 87 0 4.52 166 15:19 11.05.2020
3221 Clouds 25 1013 87 0 4.52 166 14:56 11.05.2020
3222 Clouds 25 1013 87 0 4.52 166 14:56 11.05.2020
3223 Clouds 25 1013 87 0 4.52 166 14:38 11.05.2020
3224 Clear 25 1012 88 0 4.35 164 14:19 11.05.2020
3225 Clear 25 1012 88 0 4.35 162 13:42 11.05.2020
3226 Clear 25 1012 88 0 4.31 164 13:22 11.05.2020
3227 Clear 25 1012 88 0 4.31 164 12:58 11.05.2020
3228 Clear 25 1012 88 0 4.31 164 12:40 11.05.2020
3229 Clear 25 1011 88 0 4.14 164 12:22 11.05.2020
3230 Clear 25 1011 88 0 4.14 164 11:57 11.05.2020
3231 Clear 25 1011 88 0 4.14 164 11:57 11.05.2020
3232 Clear 25 1011 88 0 4.14 164 11:38 11.05.2020
3233 Clear 25 1011 89 0 3.94 157 11:20 11.05.2020
3234 Clear 25 1011 89 0 3.94 157 10:56 11.05.2020
3235 Clear 25 1011 89 0 3.94 157 10:38 11.05.2020
3236 Clear 25 1012 89 0 3.95 150 10:19 11.05.2020
3237 Clear 25 1012 89 0 3.95 150 09:56 11.05.2020
3238 Clear 25 1012 89 0 3.95 150 09:37 11.05.2020
3239 Clear 25 1012 89 0 3.95 150 09:37 11.05.2020
3240 Clear 25 1012 89 0 3.81 152 09:18 11.05.2020
3241 Clear 25 1012 89 0 3.83 153 08:40 11.05.2020
3242 Clouds 25 1013 89 0 3.43 147 08:21 11.05.2020
3243 Clouds 25 1013 89 0 3.43 147 07:50 11.05.2020
3244 Clouds 25 1013 89 0 3.43 147 07:32 11.05.2020
3245 Clouds 25 1013 89 0 3.28 142 06:55 11.05.2020
3246 Clouds 25 1013 89 0 3.28 142 06:31 11.05.2020
3247 Clouds 25 1014 89 0 3.46 139 05:31 11.05.2020
3248 Clouds 25 1013 88 0 3.7 139 04:58 11.05.2020
3249 Clouds 25 1012 87 0 3.83 137 03:46 11.05.2020
3250 Clear 25 1011 86 0 3.88 135 02:35 11.05.2020
3251 Clouds 25 1010 84 0 4.09 138 01:47 11.05.2020
3252 Clouds 28 1008 74 10000 5.1 150 00:54 11.05.2020
3253 Clouds 28 1008 74 10000 5.1 150 00:27 11.05.2020
3254 Clouds 28 1008 74 10000 4.6 50 23:46 10.05.2020
3255 Clouds 28 1008 74 10000 4.6 50 23:27 10.05.2020
3256 Clouds 29 1009 70 10000 6.2 160 22:59 10.05.2020
3257 Clouds 29 1009 70 10000 6.2 160 22:41 10.05.2020
3258 Clouds 29 1009 70 10000 6.2 160 22:23 10.05.2020
3259 Clouds 29 1010 70 10000 6.7 160 21:46 10.05.2020
3260 Clouds 29 1010 70 10000 6.7 160 21:21 10.05.2020
3261 Clouds 29 1010 70 10000 6.7 160 21:21 10.05.2020
3262 Clouds 29 1011 70 10000 5.1 150 20:56 10.05.2020
3263 Clouds 29 1011 70 10000 5.1 150 20:38 10.05.2020
3264 Clouds 29 1011 70 10000 5.1 150 20:20 10.05.2020
3265 Clouds 29 1012 70 10000 5.7 170 19:54 10.05.2020
3266 Clouds 29 1012 70 10000 5.7 170 19:36 10.05.2020
3267 Clouds 28 1012 78 10000 6.7 180 19:18 10.05.2020
3268 Clouds 28 1012 78 10000 6.7 180 18:54 10.05.2020
3269 Clouds 28 1012 78 10000 6.7 180 18:36 10.05.2020
3270 Clouds 28 1012 78 10000 3.6 150 18:18 10.05.2020
3271 Clouds 28 1012 78 10000 3.6 150 17:41 10.05.2020
3272 Clouds 28 1012 78 10000 3.6 150 17:22 10.05.2020
3273 Clouds 27 1012 83 10000 4.6 180 16:59 10.05.2020
3274 Clouds 27 1012 83 10000 4.6 180 16:41 10.05.2020
3275 Clouds 27 1012 83 10000 4.6 180 16:19 10.05.2020
3276 Clouds 25 1013 86 0 3.28 138 15:55 10.05.2020
3277 Clouds 25 1013 86 0 3.28 138 15:36 10.05.2020
3278 Clear 25 1012 87 0 3.43 134 15:18 10.05.2020
3279 Clear 25 1012 87 0 3.43 134 14:39 10.05.2020
3280 Clear 25 1012 89 0 3.05 129 14:20 10.05.2020
3281 Clear 25 1012 89 0 3.05 129 13:59 10.05.2020
3282 Clear 25 1012 89 0 3.05 129 13:39 10.05.2020
3283 Clear 25 1011 90 0 3.04 135 13:21 10.05.2020
3284 Clear 25 1011 90 0 3.04 135 12:58 10.05.2020
3285 Clear 25 1011 90 0 3.04 135 12:40 10.05.2020
3286 Clear 25 1011 89 0 3.43 146 12:21 10.05.2020
3287 Clear 25 1011 89 0 3.43 146 11:58 10.05.2020
3288 Clear 25 1011 89 0 3.43 146 11:58 10.05.2020
3289 Clear 25 1011 89 0 3.43 146 11:39 10.05.2020
3290 Clear 25 1011 89 0 3.43 146 11:39 10.05.2020
3291 Clear 25 1011 89 0 3.67 151 11:20 10.05.2020
3292 Clear 25 1011 89 0 3.67 151 10:48 10.05.2020
3293 Clear 25 1011 89 0 3.67 151 10:29 10.05.2020
3294 Clear 25 1012 90 0 3.84 153 09:59 10.05.2020
3295 Clear 25 1012 90 0 3.84 153 09:40 10.05.2020
3296 Clear 25 1012 90 0 3.54 151 09:21 10.05.2020
3297 Clear 25 1012 90 0 3.54 151 08:52 10.05.2020
3298 Clear 25 1013 91 0 3.26 146 08:24 10.05.2020
3299 Clear 25 1013 91 0 3.26 146 07:46 10.05.2020
3300 Clear 25 1013 90 0 3.12 140 07:21 10.05.2020
3301 Clear 25 1013 90 0 3.12 140 06:59 10.05.2020
3302 Clear 25 1013 90 0 3.12 140 06:37 10.05.2020
3303 Clear 25 1013 89 0 3.11 142 06:18 10.05.2020
3304 Clear 25 1013 89 0 3.11 142 05:42 10.05.2020
3305 Clear 25 1012 88 0 3.03 150 04:39 10.05.2020
3306 Clear 25 1011 88 0 3.16 157 04:20 10.05.2020
3307 Clear 25 1011 88 0 3.16 157 03:39 10.05.2020
3308 Clear 25 1010 87 0 3.28 156 02:53 10.05.2020
3309 Clouds 25 1009 87 0 3.63 153 02:24 10.05.2020
3310 Clouds 25 1009 87 0 3.63 153 01:43 10.05.2020
3311 Clouds 28 1007 78 10000 7.7 120 01:23 10.05.2020
3312 Clouds 28 1007 78 10000 7.7 120 00:57 10.05.2020
3313 Clouds 28 1007 78 10000 7.7 120 00:36 10.05.2020
3314 Clouds 28 1007 78 10000 4.1 150 00:18 10.05.2020
3315 Clouds 28 1007 78 10000 4.1 150 23:39 09.05.2020
3316 Clouds 28 1007 78 10000 4.1 150 23:20 09.05.2020
3317 Clouds 28 1008 78 10000 5.1 160 22:44 09.05.2020
3318 Clouds 28 1008 78 10000 5.1 160 22:24 09.05.2020
3319 Clouds 28 1008 78 10000 6.2 150 21:59 09.05.2020
3320 Clouds 28 1008 78 10000 6.2 150 21:41 09.05.2020
3321 Clouds 28 1008 78 10000 6.2 150 21:22 09.05.2020
3322 Clouds 28 1009 74 10000 5.7 180 20:58 09.05.2020
3323 Clouds 28 1009 74 10000 5.7 180 20:39 09.05.2020
3324 Clouds 28 1009 74 10000 5.7 180 20:20 09.05.2020
3325 Clouds 28 1010 74 10000 4.6 150 19:56 09.05.2020
3326 Clouds 28 1010 74 10000 4.6 150 19:38 09.05.2020
3327 Clouds 28 1010 74 10000 4.6 150 19:19 09.05.2020
3328 Clouds 28 1010 69 10000 7.7 160 18:44 09.05.2020
3329 Clouds 28 1010 69 10000 7.7 160 18:44 09.05.2020
3330 Clouds 28 1010 69 10000 7.7 160 18:26 09.05.2020
3331 Clouds 28 1011 78 10000 5.1 150 17:46 09.05.2020
3332 Clouds 28 1011 78 10000 5.1 150 17:23 09.05.2020
3333 Clouds 27 1010 83 10000 4.6 150 16:58 09.05.2020
3334 Clouds 27 1010 83 10000 4.6 150 16:40 09.05.2020
3335 Clouds 27 1010 83 10000 4.6 150 16:19 09.05.2020
3336 Clouds 25 1012 88 0 4.77 127 15:45 09.05.2020
3337 Clouds 25 1011 88 0 4.85 130 15:26 09.05.2020
3338 Clouds 25 1011 88 0 4.85 130 14:57 09.05.2020
3339 Clouds 25 1011 88 0 4.85 130 14:39 09.05.2020
3340 Clouds 25 1011 90 0 4.86 137 14:18 09.05.2020
3341 Clouds 25 1011 90 0 4.86 137 13:56 09.05.2020
3342 Clouds 25 1011 90 0 4.86 137 13:38 09.05.2020
3343 Clouds 25 1010 90 0 4.93 142 13:18 09.05.2020
3344 Clouds 25 1010 90 0 4.93 142 13:18 09.05.2020
3345 Clouds 25 1010 90 0 4.93 142 12:41 09.05.2020
3346 Clouds 25 1010 90 0 4.76 145 12:22 09.05.2020
3347 Clouds 25 1010 90 0 4.76 145 11:45 09.05.2020
3348 Clouds 25 1010 90 0 4.52 143 11:20 09.05.2020
3349 Clouds 25 1010 90 0 4.52 143 10:56 09.05.2020
3350 Clouds 25 1010 90 0 4.52 143 10:38 09.05.2020
3351 Clouds 25 1011 90 0 4.26 134 10:20 09.05.2020
3352 Clouds 25 1011 90 0 4.26 134 09:54 09.05.2020
3353 Clouds 25 1011 90 0 4.26 134 09:36 09.05.2020
3354 Clouds 25 1011 90 0 4.11 132 09:18 09.05.2020
3355 Clouds 25 1011 90 0 4.11 132 08:43 09.05.2020
3356 Clouds 25 1012 90 0 3.94 131 08:25 09.05.2020
3357 Clouds 25 1012 90 0 3.94 131 07:48 09.05.2020
3358 Clouds 25 1012 90 0 3.94 131 07:30 09.05.2020
3359 Clouds 25 1012 90 0 3.65 133 06:45 09.05.2020
3360 Clouds 25 1012 90 0 3.69 132 06:21 09.05.2020
3361 Clouds 25 1012 90 0 3.69 132 05:44 09.05.2020
3362 Clouds 25 1011 88 0 3.89 134 03:44 09.05.2020
3363 Clouds 25 1010 87 0 3.88 143 02:55 09.05.2020
3364 Clouds 25 1010 87 0 3.88 143 02:30 09.05.2020
3365 Clouds 25 1010 86 0 3.49 152 01:51 09.05.2020
3366 Clouds 28 1007 78 10000 4.1 120 01:23 09.05.2020
3367 Clouds 28 1007 78 10000 4.1 120 00:44 09.05.2020
3368 Clouds 28 1007 78 10000 4.1 120 00:24 09.05.2020
3369 Clouds 29 1008 70 10000 5.1 180 23:48 08.05.2020
3370 Clouds 29 1008 70 10000 5.1 180 23:28 08.05.2020
3371 Clouds 29 1008 74 10000 4.1 150 22:56 08.05.2020
3372 Clouds 29 1008 74 10000 4.1 150 22:38 08.05.2020
3373 Clouds 29 1008 74 10000 4.1 150 22:19 08.05.2020
3374 Clouds 29 1009 74 10000 6.7 180 21:55 08.05.2020
3375 Clouds 29 1009 74 10000 6.7 180 21:37 08.05.2020
3376 Clouds 29 1010 74 10000 3.6 150 21:18 08.05.2020
3377 Clouds 29 1010 74 10000 3.6 150 20:56 08.05.2020
3378 Clouds 29 1010 74 10000 3.6 150 20:37 08.05.2020
3379 Clouds 29 1010 74 10000 3.6 150 20:19 08.05.2020
3380 Clouds 29 1010 74 10000 3.6 150 20:19 08.05.2020
3381 Clouds 28 1011 78 10000 5.1 170 19:42 08.05.2020
3382 Clouds 28 1011 78 10000 5.1 170 19:21 08.05.2020
3383 Clouds 27 1011 83 10000 5.1 120 18:46 08.05.2020
3384 Clouds 27 1011 83 10000 5.1 120 18:46 08.05.2020
3385 Clouds 27 1011 83 10000 5.1 120 18:28 08.05.2020
3386 Clouds 26 1011 88 10000 3.6 140 17:43 08.05.2020
3387 Clouds 26 1011 88 10000 3.6 140 17:20 08.05.2020
3388 Clouds 25 1010 88 8000 2.6 120 16:56 08.05.2020
3389 Clouds 25 1010 88 8000 2.6 120 16:38 08.05.2020
3390 Clouds 25 1010 88 8000 2.6 120 16:19 08.05.2020
3391 Clear 25 1013 88 0 4.13 146 15:43 08.05.2020
3392 Clear 25 1011 89 0 4.09 141 15:22 08.05.2020
3393 Clear 25 1011 89 0 4.09 141 14:57 08.05.2020
3394 Clear 25 1011 89 0 4.09 141 14:39 08.05.2020
3395 Clouds 25 1011 87 0 3.85 141 14:19 08.05.2020
3396 Clouds 25 1011 87 0 3.85 141 13:56 08.05.2020
3397 Clouds 25 1011 87 0 3.85 141 13:38 08.05.2020
3398 Clouds 25 1010 87 0 3.77 145 13:18 08.05.2020
3399 Clouds 25 1010 87 0 3.77 145 12:44 08.05.2020
3400 Clouds 25 1010 88 0 3.88 147 12:23 08.05.2020
3401 Clouds 25 1010 88 0 3.88 147 11:54 08.05.2020
3402 Clouds 25 1010 88 0 3.88 147 11:36 08.05.2020
3403 Clouds 25 1011 88 0 4.24 143 11:18 08.05.2020
3404 Clouds 25 1011 88 0 4.24 143 10:42 08.05.2020
3405 Clouds 25 1011 89 0 4.23 146 10:20 08.05.2020
3406 Clouds 25 1011 89 0 4.23 146 09:58 08.05.2020
3407 Clouds 25 1011 89 0 4.23 146 09:39 08.05.2020
3408 Clouds 25 1011 90 0 4.34 146 09:18 08.05.2020
3409 Clouds 25 1011 90 0 4.34 146 08:45 08.05.2020
3410 Clear 25 1012 91 0 4.31 144 08:22 08.05.2020
3411 Clear 25 1012 91 0 4.31 144 07:44 08.05.2020
3412 Clear 25 1012 91 0 3.89 147 07:25 08.05.2020
3413 Clear 25 1012 91 0 3.89 147 06:51 08.05.2020
3414 Clear 25 1012 90 0 4.05 150 06:24 08.05.2020
3415 Clear 25 1012 90 0 4.05 150 05:52 08.05.2020
3416 Clear 25 1012 90 0 4.4 152 04:41 08.05.2020
3417 Clouds 25 1010 89 0 3.64 161 02:35 08.05.2020
3418 Clouds 25 1009 88 0 3.62 157 01:56 08.05.2020
3419 Clouds 27 1007 78 10000 4.6 180 01:28 08.05.2020
3420 Clouds 27 1007 78 10000 4.6 180 00:53 08.05.2020
3421 Clouds 27 1007 78 10000 4.6 180 00:32 08.05.2020
3422 Clouds 27 1007 83 10000 5.1 180 23:59 07.05.2020
3423 Clouds 27 1007 83 10000 5.1 180 23:40 07.05.2020
3424 Clouds 27 1007 83 10000 5.1 180 23:22 07.05.2020
3425 Clouds 28 1008 74 10000 3.1 180 22:56 07.05.2020
3426 Clouds 28 1008 74 10000 3.1 180 22:38 07.05.2020
3427 Clouds 28 1008 74 10000 3.1 180 22:19 07.05.2020
3428 Clouds 28 1009 74 10000 6.2 180 21:55 07.05.2020
3429 Clouds 28 1009 74 10000 6.2 180 21:36 07.05.2020
3430 Clouds 29 1010 74 10000 4.1 180 21:18 07.05.2020
3431 Clouds 29 1010 74 10000 4.1 180 20:42 07.05.2020
3432 Clouds 29 1010 74 10000 4.1 180 20:22 07.05.2020
3433 Clouds 28 1011 78 10000 4.6 150 19:54 07.05.2020
3434 Clouds 28 1011 78 10000 4.6 150 19:36 07.05.2020
3435 Clouds 27 1011 83 10000 3.1 150 19:18 07.05.2020
3436 Clouds 27 1011 83 10000 3.1 150 18:43 07.05.2020
3437 Clouds 27 1011 83 10000 3.1 150 18:25 07.05.2020
3438 Clouds 27 1010 83 10000 3.6 180 17:43 07.05.2020
3439 Clouds 27 1010 83 10000 3.6 180 17:21 07.05.2020
3440 Clouds 26 1010 83 10000 2.6 150 16:59 07.05.2020
3441 Clouds 26 1010 83 10000 2.6 150 16:40 07.05.2020
3442 Clear 25 1013 89 0 3.68 145 16:18 07.05.2020
3443 Clear 25 1013 89 0 3.68 145 16:18 07.05.2020
3444 Clear 25 1013 89 0 3.68 145 15:55 07.05.2020
3445 Clear 25 1013 89 0 3.68 145 15:37 07.05.2020
3446 Clear 25 1012 89 0 3.71 154 15:18 07.05.2020
3447 Clear 25 1012 89 0 3.71 154 14:43 07.05.2020
3448 Clouds 25 1011 90 0 3.6 154 14:20 07.05.2020
3449 Clouds 24 1011 92 0 3.26 151 13:44 07.05.2020
3450 Clouds 24 1011 91 0 2.96 153 13:25 07.05.2020
3451 Clouds 24 1011 91 0 2.96 153 12:45 07.05.2020
3452 Clouds 24 1010 91 0 2.77 153 12:20 07.05.2020
3453 Clouds 24 1010 91 0 2.77 153 11:59 07.05.2020
3454 Clouds 24 1010 91 0 2.77 153 11:39 07.05.2020
3455 Clear 24 1010 91 0 2.66 158 11:21 07.05.2020
3456 Clear 24 1010 91 0 2.66 158 10:43 07.05.2020
3457 Clear 24 1011 91 0 2.43 158 10:24 07.05.2020
3458 Clear 24 1011 91 0 2.43 158 09:41 07.05.2020
3459 Clear 24 1011 91 0 2.7 155 09:21 07.05.2020
3460 Clear 24 1011 91 0 2.7 155 08:59 07.05.2020
3461 Clear 24 1011 91 0 2.7 155 08:59 07.05.2020
3462 Clear 24 1011 91 0 2.7 155 08:41 07.05.2020
3463 Clear 24 1011 91 0 2.81 164 08:21 07.05.2020
3464 Clear 24 1011 91 0 2.81 164 07:49 07.05.2020
3465 Clear 24 1011 91 0 2.81 164 07:31 07.05.2020
3466 Clear 24 1012 91 0 2.77 161 06:56 07.05.2020
3467 Clear 24 1012 91 0 2.77 161 06:35 07.05.2020
3468 Clear 25 1012 90 0 2.98 146 05:38 07.05.2020
3469 Clear 25 1011 90 0 3.25 141 04:25 07.05.2020
3470 Clouds 27 1007 78 10000 4.6 150 03:26 07.05.2020
3471 Clouds 27 1007 78 10000 4.6 150 02:53 07.05.2020
3472 Clouds 27 1007 78 10000 4.6 150 01:46 07.05.2020
3473 Clouds 27 1007 78 10000 4.6 150 01:24 07.05.2020
3474 Clouds 25 1009 85 0 3.33 151 00:47 07.05.2020
3475 Clouds 28 1007 78 10000 2.1 180 00:27 07.05.2020
3476 Clouds 28 1007 78 10000 2.1 180 00:27 07.05.2020
3477 Clouds 28 1007 78 10000 2.1 180 23:47 06.05.2020
3478 Clouds 28 1007 78 10000 2.1 180 23:26 06.05.2020
3479 Clouds 28 1007 78 10000 4.6 150 22:58 06.05.2020
3480 Clouds 28 1007 78 10000 4.6 150 22:40 06.05.2020
3481 Clouds 28 1007 78 10000 4.6 150 22:20 06.05.2020
3482 Clouds 29 1008 70 10000 6.2 180 21:57 06.05.2020
3483 Clouds 29 1008 70 10000 6.2 180 21:39 06.05.2020
3484 Clouds 29 1008 70 10000 6.2 180 21:20 06.05.2020
3485 Clouds 29 1009 70 10000 7.2 160 20:43 06.05.2020
3486 Clouds 29 1009 70 10000 7.2 160 20:24 06.05.2020
3487 Clouds 29 1010 70 10000 4.1 180 19:59 06.05.2020
3488 Clouds 29 1010 70 10000 4.1 180 19:39 06.05.2020
3489 Clouds 29 1010 70 10000 4.1 180 19:20 06.05.2020
3490 Clouds 29 1010 70 10000 5.7 150 18:59 06.05.2020
3491 Clouds 29 1010 70 10000 5.7 150 18:59 06.05.2020
3492 Clouds 29 1010 70 10000 5.7 150 18:40 06.05.2020
3493 Clouds 29 1010 70 10000 5.7 150 18:40 06.05.2020
3494 Clouds 29 1010 70 10000 5.7 150 18:21 06.05.2020
3495 Clouds 28 1010 74 10000 6.7 150 17:59 06.05.2020
3496 Clouds 28 1010 74 10000 6.7 150 17:39 06.05.2020
3497 Clouds 28 1010 74 10000 6.7 150 17:21 06.05.2020
3498 Clouds 28 1010 74 10000 6.7 150 17:21 06.05.2020
3499 Clouds 27 1010 78 10000 4.6 90 16:58 06.05.2020
3500 Clouds 27 1010 78 10000 4.6 90 16:40 06.05.2020
3501 Clouds 27 1010 78 10000 4.6 90 16:21 06.05.2020
3502 Clouds 26 1009 83 10000 2.1 120 15:58 06.05.2020
3503 Clouds 26 1009 83 10000 2.1 120 15:40 06.05.2020
3504 Clouds 26 1009 83 10000 2.1 120 15:20 06.05.2020
3505 Clouds 25 1008 88 10000 3.1 140 14:45 06.05.2020
3506 Clouds 25 1008 88 10000 3.1 140 14:20 06.05.2020
3507 Clouds 24 1010 91 0 3.54 133 13:59 06.05.2020
3508 Clouds 24 1010 91 0 3.54 133 13:40 06.05.2020
3509 Clouds 24 1010 90 0 3.39 128 13:22 06.05.2020
3510 Clouds 24 1010 90 0 3.39 128 12:54 06.05.2020
3511 Clouds 24 1010 90 0 3.39 128 12:36 06.05.2020
3512 Clouds 24 1009 91 0 3.17 127 12:18 06.05.2020
3513 Clouds 24 1009 91 0 3.17 127 11:40 06.05.2020
3514 Clouds 24 1009 91 0 3.08 138 11:21 06.05.2020
3515 Clouds 24 1009 91 0 3.08 138 10:56 06.05.2020
3516 Clouds 24 1009 91 0 3.08 138 10:37 06.05.2020
3517 Clouds 24 1010 91 0 2.61 142 10:18 06.05.2020
3518 Clouds 24 1010 91 0 2.61 142 09:40 06.05.2020
3519 Clouds 24 1011 91 0 2.13 118 09:21 06.05.2020
3520 Clouds 24 1011 91 0 2.53 133 08:45 06.05.2020
3521 Clouds 24 1011 91 0 2.46 112 08:22 06.05.2020
3522 Clouds 24 1011 91 0 2.46 112 07:58 06.05.2020
3523 Clouds 24 1011 91 0 2.46 112 07:39 06.05.2020
3524 Clouds 25 1012 91 0 2.55 125 07:20 06.05.2020
3525 Clouds 25 1012 91 0 2.55 125 06:49 06.05.2020
3526 Clouds 25 1012 91 0 2.43 118 06:21 06.05.2020
3527 Clouds 25 1012 91 0 2.43 118 05:50 06.05.2020
3528 Clouds 25 1012 91 0 2.43 118 05:32 06.05.2020
3529 Clouds 25 1011 91 0 3.36 123 03:55 06.05.2020
3530 Clouds 26 1008 88 10000 1.5 150 03:34 06.05.2020
3531 Clouds 26 1008 88 10000 1.5 150 02:58 06.05.2020
3532 Clouds 26 1008 88 10000 1.5 150 02:28 06.05.2020
3533 Clouds 27 1007 78 10000 3.1 150 01:46 06.05.2020
3534 Clouds 27 1007 78 10000 3.1 150 01:26 06.05.2020
3535 Clouds 28 1007 78 10000 4.1 150 00:45 06.05.2020
3536 Clouds 28 1007 78 10000 4.1 150 00:23 06.05.2020
3537 Clouds 29 1007 79 10000 3.6 140 23:42 05.05.2020
3538 Clouds 29 1007 79 10000 3.6 140 23:20 05.05.2020
3539 Clouds 29 1007 79 10000 4.1 180 22:57 05.05.2020
3540 Clouds 29 1007 79 10000 4.1 180 22:38 05.05.2020
3541 Clouds 29 1007 79 10000 4.1 180 22:19 05.05.2020
3542 Clouds 29 1008 79 10000 3.6 180 21:41 05.05.2020
3543 Clouds 29 1008 79 10000 3.6 180 21:22 05.05.2020
3544 Clouds 28 1009 83 10000 6.2 150 20:59 05.05.2020
3545 Clouds 28 1009 83 10000 6.2 150 20:41 05.05.2020
3546 Clouds 28 1009 83 10000 6.2 150 20:20 05.05.2020
3547 Clouds 28 1009 83 10000 7.7 180 19:59 05.05.2020
3548 Clouds 28 1009 83 10000 7.7 180 19:40 05.05.2020
3549 Clouds 28 1009 83 10000 7.7 180 19:40 05.05.2020
3550 Clouds 28 1009 83 10000 7.7 180 19:21 05.05.2020
3551 Clouds 28 1009 78 10000 5.7 150 18:57 05.05.2020
3552 Clouds 28 1009 78 10000 5.7 150 18:57 05.05.2020
3553 Clouds 28 1009 78 10000 5.7 150 18:38 05.05.2020
3554 Clouds 28 1009 78 10000 5.7 150 18:19 05.05.2020
3555 Clouds 27 1009 83 10000 4.6 150 17:56 05.05.2020
3556 Clouds 27 1009 83 10000 4.6 150 17:38 05.05.2020
3557 Clouds 27 1009 83 10000 4.6 150 17:20 05.05.2020
3558 Clouds 26 1009 88 10000 6.7 180 16:38 05.05.2020
3559 Clouds 26 1009 88 10000 6.7 180 16:20 05.05.2020
3560 Clouds 25 1008 94 10000 5.7 150 15:58 05.05.2020
3561 Clouds 25 1008 94 10000 5.7 150 15:39 05.05.2020
3562 Clouds 25 1008 94 10000 5.7 150 15:20 05.05.2020
3563 Clouds 25 1011 92 0 2.87 161 14:55 05.05.2020
3564 Clouds 25 1011 92 0 2.87 161 14:37 05.05.2020
3565 Clouds 25 1011 92 0 2.87 161 14:37 05.05.2020
3566 Clear 25 1010 92 0 3.38 153 14:18 05.05.2020
3567 Clear 25 1010 92 0 3.38 153 13:54 05.05.2020
3568 Clear 25 1010 92 0 3.38 153 13:36 05.05.2020
3569 Clear 25 1010 92 0 3.38 153 13:36 05.05.2020
3570 Clear 25 1009 92 0 3.45 156 13:18 05.05.2020
3571 Clear 25 1009 92 0 3.45 156 12:41 05.05.2020
3572 Clear 25 1009 92 0 3.1 153 12:22 05.05.2020
3573 Clear 25 1009 92 0 3.1 153 11:59 05.05.2020
3574 Clear 25 1009 92 0 3.1 153 11:40 05.05.2020
3575 Clear 25 1009 92 0 2.43 143 11:19 05.05.2020
3576 Clear 25 1009 92 0 2.43 143 10:55 05.05.2020
3577 Clear 25 1009 92 0 2.43 143 10:36 05.05.2020
3578 Clear 25 1010 93 0 2.33 135 10:18 05.05.2020
3579 Clear 25 1010 93 0 2.33 135 09:44 05.05.2020
3580 Clear 25 1011 92 0 2.81 142 09:26 05.05.2020
3581 Clear 25 1011 92 0 2.57 136 08:56 05.05.2020
3582 Clear 25 1011 92 0 2.57 136 08:37 05.05.2020
3583 Clear 25 1011 92 0 3.18 140 08:18 05.05.2020
3584 Clear 25 1011 92 0 3.18 140 07:43 05.05.2020
3585 Clear 25 1012 91 0 3.59 147 07:20 05.05.2020
3586 Clear 25 1012 91 0 3.59 147 06:51 05.05.2020
3587 Clear 25 1012 91 0 3.59 147 06:30 05.05.2020
3588 Clear 25 1012 91 0 4.05 154 05:51 05.05.2020
3589 Clear 25 1011 90 0 4.14 157 04:54 05.05.2020
3590 Clouds 26 1007 83 10000 3.6 180 02:37 05.05.2020
3591 Clouds 27 1006 83 10000 7.7 160 00:56 05.05.2020
3592 Clouds 27 1006 83 10000 7.7 160 00:28 05.05.2020
3593 Clouds 27 1006 83 10000 7.2 160 23:48 04.05.2020
3594 Clouds 27 1006 83 10000 7.2 160 23:25 04.05.2020
3595 Clouds 27 1007 83 10000 7.2 150 22:57 04.05.2020
3596 Clouds 27 1007 83 10000 7.2 150 22:57 04.05.2020
3597 Clouds 27 1007 83 10000 7.2 150 22:38 04.05.2020
3598 Clouds 27 1007 83 10000 7.2 150 22:38 04.05.2020
3599 Clouds 27 1007 83 10000 7.2 150 22:20 04.05.2020
3600 Clouds 27 1007 83 10000 4.6 150 21:56 04.05.2020
3601 Clouds 27 1007 83 10000 4.6 150 21:35 04.05.2020
3602 Clouds 28 1008 78 10000 5.1 130 21:03 04.05.2020
3603 Clouds 28 1008 78 10000 5.1 130 20:39 04.05.2020
3604 Clouds 28 1009 78 10000 5.1 140 20:18 04.05.2020
3605 Clouds 28 1009 78 10000 5.1 140 19:43 04.05.2020
3606 Clouds 28 1009 78 10000 5.1 140 19:23 04.05.2020
3607 Clouds 28 1009 78 10000 5.1 140 19:23 04.05.2020
3608 Clouds 28 1008 78 10000 7.7 150 18:58 04.05.2020
3609 Clouds 28 1008 78 10000 7.7 150 18:38 04.05.2020
3610 Clouds 27 1009 83 10000 6.2 150 18:19 04.05.2020
3611 Clouds 27 1009 83 10000 6.2 150 17:56 04.05.2020
3612 Clouds 27 1009 83 10000 6.2 150 17:37 04.05.2020
3613 Clouds 27 1009 83 10000 6.2 150 17:18 04.05.2020
3614 Clouds 27 1009 83 10000 6.2 150 17:18 04.05.2020
3615 Clouds 27 1009 83 10000 7.2 150 16:43 04.05.2020
3616 Clouds 27 1009 83 10000 7.2 150 16:22 04.05.2020
3617 Rain 25 1008 94 10000 4.1 150 15:55 04.05.2020
3618 Rain 25 1008 94 10000 4.1 150 15:37 04.05.2020
3619 Rain 25 1008 94 10000 4.1 150 15:37 04.05.2020
3620 Rain 25 1008 94 10000 4.1 150 15:18 04.05.2020
3621 Clouds 24 1008 94 10000 4.1 150 14:43 04.05.2020
3622 Clouds 24 1008 94 10000 4.1 150 14:19 04.05.2020
3623 Clear 25 1010 89 0 3.87 142 12:49 04.05.2020
3624 Clear 25 1010 89 0 3.97 146 12:27 04.05.2020
3625 Clear 25 1010 89 0 3.97 146 12:26 04.05.2020
3626 Clear 25 1010 90 0 4.01 150 10:36 04.05.2020
3627 Clear 25 1010 90 0 4.01 150 10:36 04.05.2020
3628 Clear 25 1010 90 0 4.01 150 10:36 04.05.2020
3629 Clear 25 1010 90 0 4.01 150 10:36 04.05.2020
3630 Clouds 25 1011 90 0 3.85 154 09:26 04.05.2020
3631 Clouds 25 1011 90 0 3.85 154 09:26 04.05.2020
3632 Clouds 25 1011 90 0 3.85 154 09:26 04.05.2020
3633 Clouds 25 1011 90 0 3.85 154 09:26 04.05.2020
3634 Clouds 25 1011 90 0 3.85 154 09:26 04.05.2020
3635 Clear 25 1012 90 0 3.97 157 07:52 04.05.2020
3636 Clear 25 1012 90 0 3.97 157 07:33 04.05.2020
3637 Clear 25 1012 90 0 3.97 157 07:33 04.05.2020
3638 Clear 25 1012 90 0 3.97 157 07:33 04.05.2020
3639 Clear 25 1012 90 0 3.97 157 07:33 04.05.2020
3640 Clear 25 1012 90 0 3.97 157 07:33 04.05.2020
3641 Clear 25 1011 89 0 3.36 160 04:59 04.05.2020
3642 Clouds 26 1006 88 10000 4.6 150 03:29 04.05.2020
3643 Clouds 26 1006 88 10000 4.6 150 02:32 04.05.2020
3644 Clouds 28 1006 78 10000 3.6 150 01:05 04.05.2020
3645 Clouds 28 1006 78 10000 5.7 180 23:46 03.05.2020
3646 Clouds 28 1006 78 10000 5.7 180 23:26 03.05.2020
3647 Clouds 29 1007 74 10000 3.1 180 23:00 03.05.2020
3648 Clouds 29 1007 74 10000 3.1 180 23:00 03.05.2020
3649 Clouds 29 1007 74 10000 3.1 180 22:40 03.05.2020
3650 Clouds 29 1007 74 10000 3.1 180 22:22 03.05.2020
3651 Clouds 29 1008 74 10000 6.7 180 21:41 03.05.2020
3652 Clouds 29 1008 74 10000 6.7 180 21:41 03.05.2020
3653 Clouds 29 1008 74 10000 6.7 180 21:21 03.05.2020
3654 Clouds 29 1009 74 10000 6.2 180 20:47 03.05.2020
3655 Clouds 29 1009 74 10000 6.2 180 20:23 03.05.2020
3656 Clouds 28 1011 74 10000 4.1 180 19:57 03.05.2020
3657 Clouds 28 1011 74 10000 4.1 180 19:38 03.05.2020
3658 Clouds 27 1011 83 10000 4.1 150 19:18 03.05.2020
3659 Clouds 27 1011 83 10000 4.1 150 18:39 03.05.2020
3660 Clouds 27 1011 83 10000 4.1 150 18:20 03.05.2020
3661 Clouds 27 1011 83 10000 4.1 150 18:20 03.05.2020
3662 Clouds 27 1011 78 10000 4.6 160 17:56 03.05.2020
3663 Clouds 27 1011 78 10000 4.6 160 17:37 03.05.2020
3664 Clouds 27 1011 78 10000 4.6 160 17:19 03.05.2020
3665 Clear 25 1013 83 0 4.04 132 16:40 03.05.2020
3666 Clear 25 1013 83 0 4.04 132 16:40 03.05.2020
3667 Clouds 26 1010 88 10000 4.1 150 16:19 03.05.2020
3668 Clouds 26 1010 88 10000 4.1 150 15:56 03.05.2020
3669 Clouds 26 1010 88 10000 4.1 150 15:38 03.05.2020
3670 Clouds 26 1010 88 10000 4.1 150 15:38 03.05.2020
3671 Clouds 26 1010 88 10000 4.1 150 15:19 03.05.2020
3672 Clouds 25 1009 88 10000 4.6 150 14:55 03.05.2020
3673 Clouds 25 1009 88 10000 4.6 150 14:37 03.05.2020
3674 Clouds 25 1011 86 0 3.92 141 14:18 03.05.2020
3675 Clouds 25 1011 85 0 4.16 137 13:37 03.05.2020
3676 Clouds 25 1011 85 0 4.16 137 13:37 03.05.2020
3677 Clouds 25 1011 85 0 3.57 143 12:52 03.05.2020
3678 Clouds 25 1011 85 0 3.54 146 12:28 03.05.2020
3679 Clouds 25 1011 85 0 3.54 146 12:28 03.05.2020
3680 Clouds 25 1011 85 0 3.54 146 11:57 03.05.2020
3681 Clouds 25 1011 85 0 3.54 146 11:39 03.05.2020
3682 Clouds 25 1011 85 0 3.86 146 11:20 03.05.2020
3683 Clouds 25 1011 85 0 3.86 146 10:54 03.05.2020
3684 Clear 25 1011 85 0 3.83 145 10:25 03.05.2020
3685 Clear 25 1011 85 0 3.83 145 09:40 03.05.2020
3686 Clear 25 1011 85 0 3.83 145 09:40 03.05.2020
3687 Clouds 25 1012 85 0 3.44 158 08:59 03.05.2020
3688 Clouds 25 1012 85 0 3.44 158 08:59 03.05.2020
3689 Clouds 25 1012 85 0 3.44 158 08:35 03.05.2020
3690 Clouds 25 1012 85 0 3.44 158 08:35 03.05.2020
3691 Clear 25 1012 85 0 2.95 154 07:44 03.05.2020
3692 Clear 25 1013 85 0 2.95 148 06:44 03.05.2020
3693 Clear 25 1013 85 0 2.95 148 06:44 03.05.2020
3694 Clear 25 1013 85 0 3.09 151 05:54 03.05.2020
3695 Clear 25 1013 85 0 3.09 151 05:35 03.05.2020
3696 Clear 25 1012 85 0 3.19 148 04:27 03.05.2020
3697 Clouds 26 1009 83 10000 2.6 150 03:38 03.05.2020
3698 Clouds 26 1009 83 10000 2.6 150 02:31 03.05.2020
3699 Clouds 27 1009 78 10000 4.6 180 01:59 03.05.2020
3700 Clouds 27 1009 78 10000 4.6 180 01:39 03.05.2020
3701 Clouds 27 1009 78 10000 4.6 180 01:20 03.05.2020
3702 Clouds 28 1008 78 10000 3.6 180 00:38 03.05.2020
3703 Clouds 28 1008 78 10000 3.6 180 00:20 03.05.2020
3704 Clouds 28 1008 78 10000 7.2 180 23:45 02.05.2020
3705 Clouds 28 1008 78 10000 7.2 180 23:27 02.05.2020
3706 Clouds 28 1009 74 10000 6.2 180 22:56 02.05.2020
3707 Clouds 28 1009 74 10000 6.2 180 22:37 02.05.2020
3708 Clouds 28 1009 74 10000 6.2 180 22:19 02.05.2020
3709 Clouds 27 1010 78 10000 5.1 150 21:40 02.05.2020
3710 Clouds 27 1010 78 10000 5.1 150 21:20 02.05.2020
3711 Clouds 28 1011 74 10000 5.7 150 20:57 02.05.2020
3712 Clouds 28 1011 74 10000 5.7 150 20:38 02.05.2020
3713 Clouds 28 1011 74 10000 5.7 150 20:19 02.05.2020
3714 Clouds 28 1011 78 10000 5.7 150 19:57 02.05.2020
3715 Clouds 28 1011 78 10000 5.7 150 19:39 02.05.2020
3716 Clouds 28 1011 78 10000 5.7 150 19:19 02.05.2020
3717 Clouds 28 1012 78 10000 5.1 160 18:56 02.05.2020
3718 Clouds 28 1012 78 10000 5.1 160 18:37 02.05.2020
3719 Clouds 28 1012 78 10000 5.1 160 18:19 02.05.2020
3720 Clouds 27 1012 78 10000 6.7 180 17:54 02.05.2020
3721 Clouds 27 1012 78 10000 6.7 180 17:36 02.05.2020
3722 Clouds 27 1011 78 10000 5.1 160 17:18 02.05.2020
3723 Clouds 27 1011 78 10000 5.1 160 16:41 02.05.2020
3724 Clouds 27 1011 78 10000 5.1 160 16:23 02.05.2020
3725 Clouds 25 1011 88 10000 4.1 150 15:44 02.05.2020
3726 Clouds 25 1011 88 10000 4.1 150 15:21 02.05.2020
3727 Clouds 24 1011 94 10000 5.1 160 14:59 02.05.2020
3728 Clouds 24 1011 94 10000 5.1 160 14:40 02.05.2020
3729 Clouds 24 1011 94 10000 5.1 160 14:21 02.05.2020
3730 Clouds 25 1012 86 0 3.82 140 13:40 02.05.2020
3731 Clouds 24 1012 86 0 3.34 146 13:22 02.05.2020
3732 Clouds 24 1012 86 0 3.34 146 12:55 02.05.2020
3733 Clouds 24 1012 86 0 3.34 146 12:37 02.05.2020
3734 Clouds 24 1012 86 0 3.25 145 12:18 02.05.2020
3735 Clouds 24 1012 86 0 3.25 145 11:41 02.05.2020
3736 Clear 24 1012 86 0 3.24 131 11:22 02.05.2020
3737 Clear 24 1012 86 0 3.24 131 10:59 02.05.2020
3738 Clear 24 1012 86 0 3.24 131 10:39 02.05.2020
3739 Clear 24 1012 85 0 3.59 112 10:21 02.05.2020
3740 Clear 24 1012 85 0 3.59 112 09:57 02.05.2020
3741 Clear 24 1012 85 0 3.59 112 09:38 02.05.2020
3742 Clear 25 1012 85 0 2.78 111 09:20 02.05.2020
3743 Clear 25 1012 85 0 2.78 111 09:20 02.05.2020
3744 Clear 25 1012 85 0 2.78 111 08:49 02.05.2020
3745 Clear 25 1012 85 0 2.78 111 08:30 02.05.2020
3746 Clear 25 1012 85 0 2.99 116 07:48 02.05.2020
3747 Clear 25 1013 85 0 3.02 119 07:29 02.05.2020
3748 Clear 25 1013 85 0 3.02 119 07:29 02.05.2020
3749 Clear 25 1013 85 0 3.02 119 06:51 02.05.2020
3750 Clear 25 1013 84 0 3 123 05:30 02.05.2020
3751 Clear 25 1013 84 0 3.13 135 04:59 02.05.2020
3752 Clear 25 1012 84 0 3.59 143 04:25 02.05.2020
3753 Clouds 26 1009 83 10000 4.6 150 02:44 02.05.2020
3754 Clouds 26 1009 83 10000 4.6 150 02:24 02.05.2020
3755 Clouds 27 1008 78 10000 3.1 160 01:49 02.05.2020
3756 Clouds 28 1009 74 10000 5.7 150 00:48 02.05.2020
3757 Clouds 28 1009 74 10000 5.7 150 00:28 02.05.2020
3758 Clouds 29 1008 74 10000 5.7 150 23:58 01.05.2020
3759 Clouds 29 1008 74 10000 5.7 150 23:39 01.05.2020
3760 Clouds 29 1008 74 10000 5.7 150 23:20 01.05.2020
3761 Clouds 29 1009 70 10000 4.6 150 22:55 01.05.2020
3762 Clouds 29 1009 70 10000 4.6 150 22:55 01.05.2020
3763 Clouds 29 1009 70 10000 4.6 150 22:37 01.05.2020
3764 Clouds 29 1010 70 10000 4.6 180 22:18 01.05.2020
3765 Clouds 29 1010 70 10000 4.6 180 21:54 01.05.2020
3766 Clouds 29 1010 70 10000 4.6 180 21:36 01.05.2020
3767 Clouds 29 1011 70 10000 6.2 180 21:18 01.05.2020
3768 Clouds 29 1011 70 10000 6.2 180 20:54 01.05.2020
3769 Clouds 29 1011 70 10000 6.2 180 20:36 01.05.2020
3770 Clouds 28 1012 74 10000 3.6 180 20:18 01.05.2020
3771 Clouds 28 1012 74 10000 3.6 180 19:41 01.05.2020
3772 Clouds 28 1012 74 10000 3.6 180 19:22 01.05.2020
3773 Clouds 28 1012 74 10000 3.6 180 19:22 01.05.2020
3774 Clouds 29 1012 74 10000 5.1 150 18:56 01.05.2020
3775 Clouds 29 1012 74 10000 5.1 150 18:38 01.05.2020
3776 Clouds 29 1012 74 10000 5.1 150 18:19 01.05.2020
3777 Clouds 29 1012 74 10000 5.1 150 18:19 01.05.2020
3778 Clouds 27 1012 83 10000 6.7 150 17:41 01.05.2020
3779 Clouds 27 1012 83 10000 6.7 150 17:23 01.05.2020
3780 Clouds 27 1012 83 10000 6.7 150 17:23 01.05.2020
3781 Clouds 25 1014 83 0 4.25 143 16:58 01.05.2020
3782 Clouds 25 1014 83 0 4.25 143 16:40 01.05.2020
3783 Clouds 25 1012 94 10000 1.5 100 16:21 01.05.2020
3784 Clouds 25 1012 94 10000 1.5 100 15:57 01.05.2020
3785 Clouds 25 1012 94 10000 1.5 100 15:39 01.05.2020
3786 Clouds 25 1012 94 10000 1.5 100 15:19 01.05.2020
3787 Clouds 24 1010 94 10000 2.1 140 14:44 01.05.2020
3788 Clouds 24 1010 94 10000 2.1 140 14:25 01.05.2020
3789 Clouds 25 1012 86 0 4.43 136 13:56 01.05.2020
3790 Clouds 25 1012 86 0 4.43 136 13:38 01.05.2020
3791 Clouds 25 1011 87 0 4.41 135 13:19 01.05.2020
3792 Clouds 25 1011 87 0 4.41 135 12:55 01.05.2020
3793 Clouds 25 1011 87 0 4.41 135 12:37 01.05.2020
3794 Clouds 25 1012 87 0 4.43 131 12:18 01.05.2020
3795 Clouds 25 1012 87 0 4.43 131 11:41 01.05.2020
3796 Clouds 25 1012 87 0 4.41 124 11:23 01.05.2020
3797 Clouds 25 1012 87 0 4.41 124 10:57 01.05.2020
3798 Clouds 25 1012 87 0 4.41 124 10:38 01.05.2020
3799 Clouds 25 1012 87 0 4.41 129 10:19 01.05.2020
3800 Clouds 25 1012 87 0 4.41 129 09:43 01.05.2020
3801 Clouds 25 1012 88 0 4 132 09:19 01.05.2020
3802 Clouds 25 1012 88 0 4 132 08:54 01.05.2020
3803 Clouds 25 1012 88 0 4 132 08:36 01.05.2020
3804 Clouds 25 1012 87 0 4.24 130 08:18 01.05.2020
3805 Clouds 25 1012 87 0 4.24 130 07:41 01.05.2020
3806 Clouds 25 1013 86 0 3.81 151 07:21 01.05.2020
3807 Clouds 25 1013 86 0 3.81 151 07:21 01.05.2020
3808 Clouds 25 1013 86 0 3.81 151 06:39 01.05.2020
3809 Clouds 25 1013 85 0 3.84 145 05:26 01.05.2020
3810 Clouds 25 1012 84 0 4.05 137 04:19 01.05.2020
3811 Clouds 26 1008 83 10000 4.1 120 02:57 01.05.2020
3812 Clouds 26 1008 83 10000 4.1 120 02:38 01.05.2020
3813 Clouds 27 1008 78 10000 5.1 160 01:58 01.05.2020
3814 Clouds 27 1008 78 10000 5.1 160 01:28 01.05.2020
3815 Clouds 27 1008 78 10000 6.2 150 00:41 01.05.2020
3816 Clouds 27 1008 78 10000 6.2 150 00:22 01.05.2020
3817 Clouds 28 1008 74 10000 6.7 180 23:57 30.04.2020
3818 Clouds 28 1008 74 10000 6.7 180 23:39 30.04.2020
3819 Clouds 28 1008 74 10000 6.7 180 23:21 30.04.2020
3820 Clouds 28 1009 74 10000 5.7 190 22:59 30.04.2020
3821 Clouds 28 1009 74 10000 5.7 190 22:39 30.04.2020
3822 Clouds 28 1009 74 10000 5.7 190 22:19 30.04.2020
3823 Clouds 28 1010 78 10000 6.2 180 21:43 30.04.2020
3824 Clouds 28 1010 78 10000 6.2 180 21:23 30.04.2020
3825 Clouds 28 1011 74 10000 5.7 130 20:58 30.04.2020
3826 Clouds 28 1011 74 10000 5.7 130 20:40 30.04.2020
3827 Clouds 28 1011 74 10000 5.7 130 20:19 30.04.2020
3828 Clouds 28 1011 74 10000 5.7 130 20:19 30.04.2020
3829 Clouds 28 1012 74 10000 6.7 150 19:47 30.04.2020
3830 Clouds 28 1012 74 10000 6.7 150 19:27 30.04.2020
3831 Clouds 25 1013 82 0 5.44 156 18:59 30.04.2020
3832 Clouds 25 1013 82 0 5.44 156 18:39 30.04.2020
3833 Clouds 28 1012 78 10000 5.7 180 18:21 30.04.2020
3834 Clouds 28 1012 78 10000 5.7 180 17:59 30.04.2020
3835 Clouds 28 1012 78 10000 5.7 180 17:40 30.04.2020
3836 Clouds 28 1012 78 10000 5.7 180 17:21 30.04.2020
3837 Clouds 26 1012 83 10000 5.7 180 16:57 30.04.2020
3838 Clouds 26 1012 83 10000 5.7 180 16:38 30.04.2020
3839 Clouds 26 1012 83 10000 5.7 180 16:19 30.04.2020
3840 Clouds 25 1011 88 10000 4.1 150 15:48 30.04.2020
3841 Clouds 25 1011 88 10000 4.1 150 15:48 30.04.2020
3842 Clouds 25 1011 88 10000 4.1 150 15:25 30.04.2020
3843 Clouds 25 1011 88 10000 4.6 160 14:57 30.04.2020
3844 Clouds 25 1011 88 10000 4.6 160 14:39 30.04.2020
3845 Clouds 25 1011 88 10000 4.6 160 14:19 30.04.2020
3846 Clouds 25 1012 85 0 5.43 153 13:55 30.04.2020
3847 Clouds 25 1012 85 0 5.43 153 13:36 30.04.2020
3848 Clouds 25 1012 85 0 5.22 152 13:18 30.04.2020
3849 Clouds 25 1012 85 0 5.22 152 12:41 30.04.2020
3850 Clouds 25 1012 85 0 5.03 153 12:20 30.04.2020
3851 Clouds 25 1012 85 0 5.03 153 11:58 30.04.2020
3852 Clouds 25 1012 85 0 5.03 153 11:36 30.04.2020
3853 Clear 25 1012 85 0 4.86 157 11:18 30.04.2020
3854 Clear 25 1012 85 0 4.86 157 10:41 30.04.2020
3855 Clear 25 1012 84 0 4.84 164 10:21 30.04.2020
3856 Clear 25 1012 84 0 4.84 164 09:57 30.04.2020
3857 Clear 25 1012 84 0 4.84 164 09:39 30.04.2020
3858 Clear 25 1012 83 0 4.49 166 09:20 30.04.2020
3859 Clear 25 1012 83 0 4.49 166 08:46 30.04.2020
3860 Clear 25 1013 83 0 4.34 161 08:26 30.04.2020
3861 Clear 25 1013 83 0 4.34 161 07:44 30.04.2020
3862 Clear 25 1013 84 0 4.71 162 07:26 30.04.2020
3863 Clear 25 1013 84 0 4.71 162 06:54 30.04.2020
3864 Clear 25 1013 84 0 4.68 161 06:26 30.04.2020
3865 Clear 25 1013 84 0 4.68 161 05:46 30.04.2020
3866 Clear 25 1013 83 0 4.36 157 04:43 30.04.2020
3867 Clear 25 1012 83 0 4.34 153 04:19 30.04.2020
3868 Clear 25 1011 83 0 4.61 150 02:48 30.04.2020
3869 Clouds 26 1008 83 10000 6.2 140 02:26 30.04.2020
3870 Clouds 26 1008 83 10000 6.2 140 01:36 30.04.2020
3871 Clouds 27 1008 78 10000 5.1 150 00:42 30.04.2020
3872 Clouds 27 1008 78 10000 5.1 150 00:20 30.04.2020
3873 Clouds 27 1008 78 10000 5.1 150 00:20 30.04.2020
3874 Clouds 28 1008 74 10000 5.7 150 23:57 29.04.2020
3875 Clouds 28 1008 74 10000 5.7 150 23:37 29.04.2020
3876 Clouds 28 1008 74 10000 5.7 150 23:19 29.04.2020
3877 Clouds 28 1009 74 10000 7.2 150 22:40 29.04.2020
3878 Clouds 28 1009 74 10000 7.2 150 22:21 29.04.2020
3879 Clouds 29 1010 70 10000 6.7 150 21:59 29.04.2020
3880 Clouds 29 1010 70 10000 6.7 150 21:37 29.04.2020
3881 Clouds 29 1010 70 10000 6.7 150 21:18 29.04.2020
3882 Clouds 28 1010 74 10000 7.7 180 20:55 29.04.2020
3883 Clouds 28 1010 74 10000 7.7 180 20:36 29.04.2020
3884 Clouds 28 1011 74 10000 5.7 150 20:18 29.04.2020
3885 Clouds 28 1011 74 10000 5.7 150 19:42 29.04.2020
3886 Clouds 28 1011 74 10000 5.7 150 19:20 29.04.2020
3887 Clouds 28 1011 74 10000 7.2 150 18:43 29.04.2020
3888 Clouds 28 1011 74 10000 7.2 150 18:25 29.04.2020
3889 Clouds 28 1011 78 10000 6.2 150 17:58 29.04.2020
3890 Clouds 28 1011 78 10000 6.2 150 17:40 29.04.2020
3891 Clouds 28 1011 78 10000 6.2 150 17:21 29.04.2020
3892 Clouds 27 1011 83 10000 6.2 150 16:39 29.04.2020
3893 Clouds 27 1011 83 10000 6.2 150 16:19 29.04.2020
3894 Clouds 25 1010 88 10000 5.1 150 15:57 29.04.2020
3895 Clouds 25 1010 88 10000 5.1 150 15:39 29.04.2020
3896 Clouds 25 1010 88 10000 5.1 150 15:21 29.04.2020
3897 Clouds 25 1010 88 10000 4.1 150 14:57 29.04.2020
3898 Clouds 25 1010 88 10000 4.1 150 14:38 29.04.2020
3899 Clouds 25 1010 88 10000 4.1 150 14:20 29.04.2020
3900 Clear 25 1011 83 0 4.5 150 13:42 29.04.2020
3901 Clear 25 1011 83 0 4.39 148 13:20 29.04.2020
3902 Clear 25 1011 83 0 4.39 148 13:20 29.04.2020
3903 Clear 25 1011 83 0 4.39 148 12:59 29.04.2020
3904 Clear 25 1011 83 0 4.39 148 12:40 29.04.2020
3905 Clear 25 1011 83 0 4.18 148 12:19 29.04.2020
3906 Clear 25 1011 83 0 4.18 148 11:58 29.04.2020
3907 Clear 25 1011 83 0 4.18 148 11:36 29.04.2020
3908 Clear 25 1011 83 0 4.19 148 11:18 29.04.2020
3909 Clear 25 1011 83 0 4.19 148 10:37 29.04.2020
3910 Clear 25 1012 83 0 4.1 145 10:19 29.04.2020
3911 Clear 25 1012 83 0 4.1 145 09:42 29.04.2020
3912 Clear 25 1012 83 0 3.95 146 09:24 29.04.2020
3913 Clear 25 1012 83 0 3.78 145 08:57 29.04.2020
3914 Clear 25 1012 83 0 3.78 145 08:39 29.04.2020
3915 Clear 25 1012 83 0 3.85 152 08:20 29.04.2020
3916 Clear 25 1012 83 0 3.85 152 07:42 29.04.2020
3917 Clear 25 1013 83 0 3.76 157 07:23 29.04.2020
3918 Clear 25 1013 83 0 3.76 157 06:50 29.04.2020
3919 Clear 25 1013 83 0 3.76 157 06:31 29.04.2020
3920 Clear 25 1013 83 0 3.55 153 05:21 29.04.2020
3921 Clear 25 1013 83 0 3.55 153 04:45 29.04.2020
3922 Clear 25 1013 82 0 3.8 154 04:18 29.04.2020
3923 Clouds 26 1009 83 10000 4.1 140 02:42 29.04.2020
3924 Clouds 27 1009 78 10000 5.1 150 01:44 29.04.2020
3925 Clouds 27 1009 78 10000 5.1 150 01:23 29.04.2020
3926 Clouds 28 1009 78 10000 6.2 150 00:41 29.04.2020
3927 Clouds 28 1009 78 10000 6.2 150 00:19 29.04.2020
3928 Clouds 28 1009 74 10000 5.1 180 23:50 28.04.2020
3929 Clouds 28 1009 74 10000 5.1 180 23:24 28.04.2020
3930 Clouds 29 1009 74 10000 4.6 170 22:55 28.04.2020
3931 Clouds 29 1009 74 10000 4.6 170 22:37 28.04.2020
3932 Clouds 29 1010 74 10000 5.1 180 22:18 28.04.2020
3933 Clouds 29 1010 74 10000 5.1 180 21:54 28.04.2020
3934 Clouds 29 1010 74 10000 5.1 180 21:36 28.04.2020
3935 Clouds 29 1010 74 10000 5.1 180 21:36 28.04.2020
3936 Clouds 28 1011 78 10000 5.1 180 21:18 28.04.2020
3937 Clouds 28 1011 78 10000 5.1 180 20:41 28.04.2020
3938 Clouds 28 1011 78 10000 5.1 180 20:21 28.04.2020
3939 Clouds 28 1012 78 10000 6.2 150 19:59 28.04.2020
3940 Clouds 28 1012 78 10000 6.2 150 19:41 28.04.2020
3941 Clouds 28 1012 78 10000 6.2 150 19:22 28.04.2020
3942 Clouds 28 1012 78 10000 8.2 150 18:58 28.04.2020
3943 Clouds 28 1012 78 10000 8.2 150 18:38 28.04.2020
3944 Clouds 28 1012 78 10000 8.2 150 18:19 28.04.2020
3945 Clouds 28 1012 78 10000 8.2 150 18:19 28.04.2020
3946 Clouds 28 1012 78 10000 5.1 180 17:38 28.04.2020
3947 Clouds 28 1012 78 10000 5.1 180 17:20 28.04.2020
3948 Clouds 27 1012 83 10000 6.2 130 16:59 28.04.2020
3949 Clouds 27 1012 83 10000 6.2 130 16:40 28.04.2020
3950 Clouds 27 1012 83 10000 6.2 130 16:22 28.04.2020
3951 Clouds 26 1011 83 10000 3.6 150 15:57 28.04.2020
3952 Clouds 26 1011 83 10000 3.6 150 15:39 28.04.2020
3953 Clouds 26 1013 78 0 4.84 154 15:20 28.04.2020
3954 Clouds 26 1013 78 0 4.84 154 14:56 28.04.2020
3955 Clouds 26 1013 78 0 4.84 154 14:38 28.04.2020
3956 Clouds 26 1012 79 0 4.96 151 14:19 28.04.2020
3957 Clouds 26 1012 79 0 4.96 151 13:56 28.04.2020
3958 Clouds 26 1012 79 0 4.96 151 13:37 28.04.2020
3959 Clouds 26 1012 78 0 4.88 150 13:19 28.04.2020
3960 Clouds 26 1012 78 0 4.88 150 12:43 28.04.2020
3961 Clouds 26 1011 78 0 5.09 147 12:23 28.04.2020
3962 Clouds 26 1011 78 0 5.09 147 11:43 28.04.2020
3963 Clouds 26 1012 79 0 5.29 148 11:23 28.04.2020
3964 Clouds 26 1012 79 0 5.29 148 10:58 28.04.2020
3965 Clouds 26 1012 79 0 5.29 148 10:38 28.04.2020
3966 Clouds 26 1012 79 0 5.29 148 10:38 28.04.2020
3967 Rain 25 1012 80 0 5.29 147 10:19 28.04.2020
3968 Rain 25 1012 80 0 5.29 147 10:19 28.04.2020
3969 Rain 25 1012 80 0 5.29 147 09:45 28.04.2020
3970 Clouds 25 1012 80 0 4.47 137 09:26 28.04.2020
3971 Clouds 25 1012 80 0 4.47 137 08:57 28.04.2020
3972 Clouds 25 1012 80 0 4.47 137 08:38 28.04.2020
3973 Clouds 25 1012 81 0 4.32 133 08:20 28.04.2020
3974 Clouds 25 1012 81 0 4.32 133 07:44 28.04.2020
3975 Clouds 25 1013 81 0 4.49 129 07:19 28.04.2020
3976 Clouds 25 1013 81 0 4.49 129 06:43 28.04.2020
3977 Clouds 25 1013 81 0 4.7 134 05:53 28.04.2020
3978 Clouds 25 1013 81 0 4.7 134 05:35 28.04.2020
3979 Clouds 25 1013 81 0 4.6 140 04:35 28.04.2020
3980 Clouds 26 1009 83 10000 5.7 150 02:39 28.04.2020
3981 Clouds 27 1009 78 10000 5.7 150 01:53 28.04.2020
3982 Clouds 27 1009 78 10000 5.7 150 01:22 28.04.2020
3983 Clouds 28 1008 78 10000 6.2 180 00:42 28.04.2020
3984 Clouds 29 1008 74 10000 7.7 180 23:58 27.04.2020
3985 Clouds 29 1008 74 10000 7.7 180 23:40 27.04.2020
3986 Clouds 29 1008 74 10000 7.7 180 23:20 27.04.2020
3987 Clouds 29 1009 74 10000 4.6 150 22:43 27.04.2020
3988 Clouds 29 1009 74 10000 4.6 150 22:23 27.04.2020
3989 Clouds 29 1009 74 10000 4.1 140 21:57 27.04.2020
3990 Clouds 29 1009 74 10000 4.1 140 21:39 27.04.2020
3991 Clouds 29 1009 74 10000 4.1 140 21:19 27.04.2020
3992 Clouds 29 1010 74 10000 5.7 180 20:56 27.04.2020
3993 Clouds 29 1010 74 10000 5.7 180 20:38 27.04.2020
3994 Clouds 29 1010 74 10000 5.7 180 20:19 27.04.2020
3995 Clouds 29 1011 74 10000 4.6 150 19:55 27.04.2020
3996 Clouds 29 1011 74 10000 4.6 150 19:36 27.04.2020
3997 Clouds 28 1011 78 10000 3.6 150 19:18 27.04.2020
3998 Clouds 28 1011 78 10000 3.6 150 18:40 27.04.2020
3999 Clouds 28 1011 78 10000 3.6 150 18:20 27.04.2020
4000 Clouds 28 1011 78 10000 5.1 150 17:58 27.04.2020
4001 Clouds 28 1011 78 10000 5.1 150 17:40 27.04.2020
4002 Clouds 28 1011 78 10000 5.1 150 17:19 27.04.2020
4003 Clouds 27 1011 83 10000 4.6 150 16:40 27.04.2020
4004 Clouds 27 1011 83 10000 4.6 150 16:40 27.04.2020
4005 Clouds 27 1011 83 10000 4.6 150 16:22 27.04.2020
4006 Clouds 26 1010 83 10000 5.7 150 15:57 27.04.2020
4007 Clouds 26 1010 83 10000 5.7 150 15:38 27.04.2020
4008 Clouds 26 1010 83 10000 5.7 150 15:19 27.04.2020
4009 Clouds 25 1010 88 10000 4.1 150 14:58 27.04.2020
4010 Clouds 25 1010 88 10000 4.1 150 14:39 27.04.2020
4011 Clouds 25 1010 88 10000 4.1 150 14:18 27.04.2020
4012 Rain 26 1012 81 0 5.52 132 13:42 27.04.2020
4013 Rain 26 1012 81 0 5.52 132 13:22 27.04.2020
4014 Rain 26 1012 81 0 5.52 132 12:58 27.04.2020
4015 Rain 26 1012 81 0 5.52 132 12:40 27.04.2020
4016 Clouds 26 1011 78 0 4.12 126 12:20 27.04.2020
4017 Clouds 26 1011 78 0 4.12 126 11:41 27.04.2020
4018 Clouds 26 1011 78 0 4.12 126 11:21 27.04.2020
4019 Clouds 26 1011 78 0 4.12 126 10:58 27.04.2020
4020 Clouds 26 1011 78 0 4.12 126 10:39 27.04.2020
4021 Clouds 26 1011 78 0 4.12 126 10:20 27.04.2020
4022 Clouds 26 1011 78 0 4.12 126 09:44 27.04.2020
4023 Clouds 26 1012 79 0 4.36 139 09:19 27.04.2020
4024 Clouds 26 1012 79 0 4.36 139 08:58 27.04.2020
4025 Clouds 26 1012 79 0 4.36 139 08:40 27.04.2020
4026 Clouds 26 1012 79 0 4.36 139 08:22 27.04.2020
4027 Clouds 26 1012 79 0 4.36 139 07:44 27.04.2020
4028 Clouds 26 1012 79 0 4.36 139 07:20 27.04.2020
4029 Clouds 26 1012 79 0 4.36 139 06:47 27.04.2020
4030 Clouds 26 1013 79 0 4.84 143 06:25 27.04.2020
4031 Clouds 26 1013 79 0 4.84 143 05:50 27.04.2020
4032 Clouds 26 1013 79 0 4.84 143 04:49 27.04.2020
4033 Clouds 26 1013 79 0 4.84 143 03:49 27.04.2020
4034 Clouds 25 1008 83 10000 4.6 150 02:48 27.04.2020
4035 Clouds 27 1008 78 10000 2.6 150 01:34 27.04.2020
4036 Clouds 28 1008 74 10000 6.7 180 00:56 27.04.2020
4037 Clouds 28 1008 74 10000 6.7 180 00:19 27.04.2020
4038 Clouds 28 1008 78 10000 5.7 150 23:56 26.04.2020
4039 Clouds 28 1008 78 10000 5.7 150 23:37 26.04.2020
4040 Clouds 28 1008 78 10000 5.7 150 23:19 26.04.2020
4041 Clouds 29 1009 74 10000 4.6 180 22:56 26.04.2020
4042 Clouds 29 1009 74 10000 4.6 180 22:37 26.04.2020
4043 Clouds 29 1009 74 10000 4.6 180 22:19 26.04.2020
4044 Clouds 28 1009 78 10000 5.1 180 21:56 26.04.2020
4045 Clouds 28 1009 78 10000 5.1 180 21:37 26.04.2020
4046 Clouds 26 1012 78 0 6.32 135 21:18 26.04.2020
4047 Clouds 26 1012 78 0 6.32 135 20:39 26.04.2020
4048 Clouds 26 1012 78 0 6.32 135 20:20 26.04.2020
4049 Clouds 29 1011 66 10000 1 120 19:59 26.04.2020
4050 Clouds 29 1011 66 10000 1 120 19:38 26.04.2020
4051 Clouds 29 1011 66 10000 1 120 19:19 26.04.2020
4052 Clouds 28 1011 69 10000 1 180 18:44 26.04.2020
4053 Clouds 28 1011 69 10000 1 180 18:25 26.04.2020
4054 Clouds 28 1011 69 10000 4.6 160 17:57 26.04.2020
4055 Clouds 28 1011 69 10000 4.6 160 17:39 26.04.2020
4056 Clouds 28 1011 69 10000 4.6 160 17:19 26.04.2020
4057 Clouds 27 1011 78 10000 6.2 130 16:42 26.04.2020
4058 Clouds 27 1011 78 10000 6.2 130 16:24 26.04.2020
4059 Clouds 26 1010 83 10000 4.6 150 15:59 26.04.2020
4060 Clouds 26 1010 83 10000 4.6 150 15:41 26.04.2020
4061 Clouds 26 1010 83 10000 4.6 150 15:21 26.04.2020
4062 Clouds 26 1011 79 0 5.83 150 14:57 26.04.2020
4063 Clouds 26 1011 79 0 5.83 150 14:38 26.04.2020
4064 Clouds 25 1011 79 0 5.73 152 14:18 26.04.2020
4065 Clouds 25 1011 79 0 5.73 152 13:55 26.04.2020
4066 Clouds 25 1011 79 0 5.73 152 13:37 26.04.2020
4067 Clouds 25 1011 79 0 5.73 152 13:18 26.04.2020
4068 Clouds 25 1011 79 0 5.73 152 12:40 26.04.2020
4069 Clouds 25 1011 81 0 5.04 154 12:21 26.04.2020
4070 Clouds 25 1011 81 0 5.04 154 11:59 26.04.2020
4071 Clouds 25 1011 81 0 5.04 154 11:40 26.04.2020
4072 Clouds 25 1011 81 0 5.04 154 11:21 26.04.2020
4073 Clouds 25 1011 81 0 5.04 154 10:55 26.04.2020
4074 Clouds 25 1011 81 0 5.04 154 10:37 26.04.2020
4075 Clouds 25 1011 81 0 5.04 154 10:18 26.04.2020
4076 Clouds 25 1011 81 0 5.04 154 09:39 26.04.2020
4077 Clouds 26 1013 80 0 5.25 154 09:21 26.04.2020
4078 Clouds 26 1013 80 0 5.25 154 08:46 26.04.2020
4079 Clouds 26 1013 80 0 5.25 154 08:23 26.04.2020
4080 Clouds 26 1013 80 0 5.25 154 07:59 26.04.2020
4081 Clouds 26 1013 80 0 5.25 154 07:40 26.04.2020
4082 Clouds 26 1013 80 0 5.25 154 07:20 26.04.2020
4083 Clouds 26 1013 80 0 5.25 154 06:40 26.04.2020
4084 Clouds 26 1013 77 0 5.03 158 05:55 26.04.2020
4085 Clouds 26 1013 77 0 5.03 158 05:37 26.04.2020
4086 Clouds 26 1013 77 0 5.03 158 04:56 26.04.2020
4087 Clouds 26 1013 77 0 5.03 158 03:56 26.04.2020
4088 Clouds 26 1008 83 10000 4.1 150 02:46 26.04.2020
4089 Clouds 26 1008 83 10000 4.1 150 02:26 26.04.2020
4090 Clouds 27 1008 78 10000 6.7 150 01:40 26.04.2020
4091 Clouds 27 1008 78 10000 6.7 150 01:21 26.04.2020
4092 Clouds 28 1008 78 10000 6.2 180 00:39 26.04.2020
4093 Clouds 28 1008 78 10000 6.7 130 00:18 26.04.2020
4094 Clouds 28 1008 78 10000 6.7 130 23:38 25.04.2020
4095 Clouds 28 1008 78 10000 6.7 130 23:20 25.04.2020
4096 Clouds 29 1011 74 10000 8.2 150 22:55 25.04.2020
4097 Clouds 29 1011 74 10000 8.2 150 22:37 25.04.2020
4098 Clouds 29 1011 74 10000 6.2 150 22:18 25.04.2020
4099 Clouds 29 1011 74 10000 6.2 150 22:18 25.04.2020
4100 Clouds 29 1011 74 10000 6.2 150 21:40 25.04.2020
4101 Clouds 29 1011 74 10000 6.2 150 21:20 25.04.2020
4102 Clouds 29 1011 74 10000 6.7 180 20:57 25.04.2020
4103 Clouds 29 1011 74 10000 6.7 180 20:39 25.04.2020
4104 Clouds 29 1011 74 10000 6.7 180 20:20 25.04.2020
4105 Clouds 29 1012 74 10000 5.7 120 19:41 25.04.2020
4106 Clouds 29 1012 74 10000 5.7 120 19:23 25.04.2020
4107 Clouds 28 1012 78 10000 6.2 150 18:58 25.04.2020
4108 Clouds 28 1012 78 10000 6.2 150 18:39 25.04.2020
4109 Clouds 28 1012 78 10000 6.2 150 18:20 25.04.2020
4110 Clouds 28 1012 74 10000 5.1 150 17:57 25.04.2020
4111 Clouds 28 1012 74 10000 5.1 150 17:38 25.04.2020
4112 Clouds 28 1012 74 10000 5.1 150 17:19 25.04.2020
4113 Clouds 27 1012 83 10000 6.7 150 16:54 25.04.2020
4114 Clouds 27 1012 83 10000 6.7 150 16:36 25.04.2020
4115 Clouds 27 1012 83 10000 6.7 150 16:36 25.04.2020
4116 Clouds 26 1010 83 10000 4.1 150 16:18 25.04.2020
4117 Clouds 26 1010 83 10000 4.1 150 15:40 25.04.2020
4118 Clouds 26 1010 83 10000 4.1 150 15:19 25.04.2020
4119 Clouds 25 1009 88 10000 4.1 150 14:58 25.04.2020
4120 Clouds 25 1009 88 10000 4.1 150 14:38 25.04.2020
4121 Clouds 25 1009 88 10000 4.1 150 14:20 25.04.2020
4122 Clouds 25 1011 80 0 6.64 158 13:43 25.04.2020
4123 Clouds 25 1011 80 0 6.64 158 13:19 25.04.2020
4124 Clouds 25 1011 80 0 6.64 158 12:58 25.04.2020
4125 Clouds 25 1011 80 0 6.64 158 12:39 25.04.2020
4126 Clouds 26 1011 80 0 5.84 151 12:20 25.04.2020
4127 Clouds 26 1011 80 0 5.84 151 11:55 25.04.2020
4128 Clouds 26 1011 80 0 5.84 151 11:37 25.04.2020
4129 Clouds 26 1011 80 0 5.84 151 11:19 25.04.2020
4130 Clouds 26 1011 80 0 5.84 151 10:42 25.04.2020
4131 Clouds 26 1011 80 0 5.84 151 10:22 25.04.2020
4132 Clouds 26 1011 80 0 5.84 151 09:47 25.04.2020
4133 Clouds 26 1013 78 0 4.87 150 09:28 25.04.2020
4134 Clouds 26 1012 78 0 5.47 149 08:57 25.04.2020
4135 Clouds 26 1013 78 0 4.99 146 08:38 25.04.2020
4136 Clouds 26 1013 78 0 4.99 146 08:20 25.04.2020
4137 Clouds 26 1013 78 0 4.99 146 07:47 25.04.2020
4138 Clouds 26 1013 78 0 4.99 146 07:24 25.04.2020
4139 Clouds 26 1013 78 0 4.99 146 06:45 25.04.2020
4140 Clouds 26 1013 75 0 4.57 157 06:18 25.04.2020
4141 Clouds 26 1013 77 0 5.06 157 05:39 25.04.2020
4142 Clouds 26 1013 75 0 4.57 157 04:47 25.04.2020
4143 Clouds 27 1008 78 10000 5.7 150 02:59 25.04.2020
4144 Clouds 27 1008 78 10000 5.7 150 02:20 25.04.2020
4145 Clouds 27 1008 78 10000 5.7 150 01:51 25.04.2020
4146 Clouds 27 1008 78 10000 5.7 150 01:27 25.04.2020
4147 Clouds 27 1008 78 10000 5.1 150 00:50 25.04.2020
4148 Clouds 27 1008 78 10000 5.1 150 00:31 25.04.2020
4149 Clouds 28 1009 78 10000 4.6 150 23:43 24.04.2020
4150 Clouds 28 1009 78 10000 4.6 150 23:22 24.04.2020
4151 Clouds 28 1009 78 10000 4.6 150 22:56 24.04.2020
4152 Clouds 28 1009 78 10000 4.6 150 22:37 24.04.2020
4153 Clouds 28 1009 78 10000 4.6 150 22:19 24.04.2020
4154 Clouds 29 1010 74 10000 6.2 150 21:54 24.04.2020
4155 Clouds 29 1010 74 10000 6.2 150 21:36 24.04.2020
4156 Clouds 25 1011 88 10000 7.2 150 21:18 24.04.2020
4157 Clouds 25 1011 88 10000 7.2 150 20:44 24.04.2020
4158 Clouds 25 1011 88 10000 7.2 150 20:19 24.04.2020
4159 Clouds 25 1011 88 10000 7.2 150 20:19 24.04.2020
4160 Clouds 28 1012 78 10000 6.2 180 19:58 24.04.2020
4161 Clouds 28 1012 78 10000 6.2 180 19:39 24.04.2020
4162 Clouds 28 1012 78 10000 6.2 180 19:20 24.04.2020
4163 Clouds 28 1012 78 10000 5.1 150 18:43 24.04.2020
4164 Clouds 28 1012 78 10000 5.1 150 18:25 24.04.2020
4165 Clouds 28 1012 78 10000 5.1 150 17:54 24.04.2020
4166 Clouds 28 1012 78 10000 5.1 150 17:36 24.04.2020
4167 Clouds 26 1014 78 0 6.63 157 17:18 24.04.2020
4168 Clouds 26 1014 78 0 6.63 157 16:55 24.04.2020
4169 Clouds 26 1014 78 0 6.63 157 16:37 24.04.2020
4170 Clouds 26 1014 78 0 6.63 157 16:19 24.04.2020
4171 Clouds 26 1014 78 0 6.63 157 16:19 24.04.2020
4172 Clouds 26 1014 78 0 6.63 157 15:40 24.04.2020
4173 Clouds 26 1012 78 0 6.11 160 15:20 24.04.2020
4174 Clouds 26 1012 77 0 6.03 160 14:41 24.04.2020
4175 Clouds 26 1012 77 0 6.03 160 14:22 24.04.2020
4176 Clouds 26 1012 77 0 6.03 160 13:58 24.04.2020
4177 Clouds 26 1012 77 0 6.03 160 13:39 24.04.2020
4178 Clouds 26 1012 77 0 6.03 160 13:20 24.04.2020
4179 Clouds 26 1012 77 0 6.03 160 12:45 24.04.2020
4180 Clouds 26 1011 76 0 5.87 162 12:25 24.04.2020
4181 Clouds 26 1011 76 0 5.87 162 11:59 24.04.2020
4182 Clouds 26 1011 76 0 5.87 162 11:40 24.04.2020
4183 Clouds 26 1011 76 0 5.87 162 11:20 24.04.2020
4184 Clouds 26 1011 76 0 5.87 162 10:56 24.04.2020
4185 Clouds 26 1011 76 0 5.87 162 10:37 24.04.2020
4186 Clouds 26 1011 76 0 5.87 162 10:37 24.04.2020
4187 Clouds 26 1011 76 0 5.87 162 10:19 24.04.2020
4188 Clouds 26 1011 76 0 5.87 162 09:45 24.04.2020
4189 Clouds 26 1013 78 0 5.65 155 09:24 24.04.2020
4190 Clouds 26 1013 78 0 5.65 155 08:58 24.04.2020
4191 Clouds 26 1013 78 0 5.65 155 08:37 24.04.2020
4192 Clouds 26 1013 78 0 5.65 155 08:18 24.04.2020
4193 Clouds 26 1013 78 0 5.65 155 07:45 24.04.2020
4194 Clouds 26 1013 78 0 5.65 155 07:26 24.04.2020
4195 Clouds 26 1013 78 0 5.65 155 06:51 24.04.2020
4196 Clouds 26 1013 78 0 5.65 155 06:32 24.04.2020
4197 Clouds 26 1013 77 0 5.31 154 05:48 24.04.2020
4198 Clouds 26 1013 77 0 5.31 154 04:30 24.04.2020
4199 Clouds 26 1011 77 0 5.13 153 03:19 24.04.2020
4200 Clouds 26 1011 77 0 5.13 153 02:41 24.04.2020
4201 Clouds 26 1011 77 0 5.15 158 02:20 24.04.2020
4202 Clouds 26 1011 77 0 5.15 158 01:23 24.04.2020
4203 Clouds 26 1011 77 0 5.15 158 00:38 24.04.2020
4204 Clouds 26 1011 77 0 5.27 159 00:18 24.04.2020
4205 Clouds 26 1011 77 0 5.27 159 23:42 23.04.2020
4206 Clouds 26 1011 77 0 5.27 159 23:23 23.04.2020
4207 Clouds 26 1011 77 0 5.27 159 22:55 23.04.2020
4208 Clouds 26 1011 77 0 5.27 159 22:37 23.04.2020
4209 Clouds 26 1011 77 0 5.27 159 22:18 23.04.2020
4210 Clouds 26 1011 77 0 5.27 159 21:56 23.04.2020
4211 Clouds 26 1011 77 0 5.27 159 21:38 23.04.2020
4212 Clouds 26 1013 78 0 5.06 153 21:19 23.04.2020
4213 Clouds 26 1013 78 0 5.06 153 20:41 23.04.2020
4214 Clouds 26 1013 78 0 5.06 153 20:22 23.04.2020
4215 Clouds 26 1013 78 0 5.06 153 19:58 23.04.2020
4216 Clouds 26 1013 78 0 5.06 153 19:40 23.04.2020
4217 Clouds 26 1013 78 0 5.06 153 19:21 23.04.2020
4218 Clouds 26 1013 78 0 5.06 153 18:56 23.04.2020
4219 Clouds 26 1013 78 0 5.06 153 18:38 23.04.2020
4220 Clouds 26 1015 77 0 5.38 141 18:19 23.04.2020
4221 Clouds 26 1015 77 0 5.38 141 18:19 23.04.2020
4222 Clouds 26 1015 77 0 5.38 141 17:55 23.04.2020
4223 Clouds 26 1015 77 0 5.38 141 17:36 23.04.2020
4224 Clouds 26 1015 77 0 5.38 141 17:18 23.04.2020
4225 Clouds 26 1015 77 0 5.38 141 16:43 23.04.2020
4226 Clouds 26 1015 77 0 5.38 141 16:19 23.04.2020
4227 Clouds 26 1015 77 0 5.38 141 15:42 23.04.2020
4228 Rain 26 1013 78 0 5.08 133 15:23 23.04.2020
4229 Rain 26 1013 78 0 5.08 133 14:58 23.04.2020
4230 Rain 26 1013 78 0 5.08 133 14:38 23.04.2020
4231 Rain 26 1013 79 0 4.79 134 14:20 23.04.2020
4232 Rain 26 1013 79 0 4.79 134 14:20 23.04.2020
4233 Rain 26 1013 79 0 4.79 134 13:56 23.04.2020
4234 Rain 26 1013 79 0 4.79 134 13:38 23.04.2020
4235 Rain 26 1013 79 0 4.79 134 13:38 23.04.2020
4236 Rain 26 1013 79 0 4.79 134 13:19 23.04.2020
4237 Rain 26 1013 79 0 4.79 134 12:44 23.04.2020
4238 Clouds 26 1012 78 0 4.64 135 12:25 23.04.2020
4239 Clouds 26 1012 78 0 4.64 135 11:58 23.04.2020
4240 Clouds 26 1012 78 0 4.64 135 11:40 23.04.2020
4241 Clouds 26 1012 78 0 4.64 135 11:21 23.04.2020
4242 Clouds 26 1012 78 0 4.64 135 10:42 23.04.2020
4243 Clouds 26 1012 78 0 4.64 135 10:22 23.04.2020
4244 Clouds 26 1012 78 0 4.64 135 09:55 23.04.2020
4245 Clouds 26 1012 78 0 4.64 135 09:37 23.04.2020
4246 Clouds 26 1013 78 0 5.01 135 09:18 23.04.2020
4247 Clouds 26 1013 78 0 5.01 135 08:42 23.04.2020
4248 Clouds 26 1013 78 0 5.01 135 08:23 23.04.2020
4249 Clouds 26 1013 78 0 5.01 135 07:42 23.04.2020
4250 Clouds 26 1013 78 0 5.01 135 07:23 23.04.2020
4251 Clouds 26 1013 78 0 5.01 135 06:49 23.04.2020
4252 Clouds 26 1013 78 0 5.44 135 06:22 23.04.2020
4253 Clouds 26 1013 78 0 5.44 135 05:29 23.04.2020
4254 Clouds 26 1013 78 0 5.44 135 04:51 23.04.2020
4255 Clouds 26 1011 80 0 5.28 126 02:24 23.04.2020
4256 Clouds 26 1011 80 0 5.28 126 01:49 23.04.2020
4257 Clouds 26 1011 80 0 5.28 126 01:25 23.04.2020
4258 Clouds 26 1011 80 0 5.28 126 00:45 23.04.2020
4259 Clouds 26 1010 80 0 5.13 124 00:18 23.04.2020
4260 Clouds 26 1010 80 0 5.13 124 00:18 23.04.2020
4261 Clouds 26 1010 80 0 5.13 124 23:47 22.04.2020
4262 Clouds 26 1010 80 0 5.13 124 23:23 22.04.2020
4263 Clouds 26 1010 80 0 5.13 124 22:55 22.04.2020
4264 Clouds 26 1010 80 0 5.13 124 22:36 22.04.2020
4265 Clouds 26 1010 80 0 5.13 124 22:18 22.04.2020
4266 Clouds 26 1010 80 0 5.13 124 21:55 22.04.2020
4267 Clouds 26 1010 81 0 5.15 126 21:36 22.04.2020
4268 Clouds 26 1010 80 0 5.13 124 21:36 22.04.2020
4269 Clouds 26 1013 84 0 5.63 122 21:18 22.04.2020
4270 Clouds 26 1013 84 0 5.63 122 20:43 22.04.2020
4271 Clouds 26 1013 84 0 5.63 122 20:19 22.04.2020
4272 Clouds 26 1013 84 0 5.63 122 19:57 22.04.2020
4273 Clouds 26 1013 84 0 5.63 122 19:38 22.04.2020
4274 Clouds 26 1013 84 0 5.63 122 19:18 22.04.2020
4275 Clouds 26 1013 84 0 5.63 122 18:58 22.04.2020
4276 Clouds 26 1013 84 0 5.63 122 18:39 22.04.2020
4277 Clouds 26 1015 83 0 5.11 120 18:21 22.04.2020
4278 Clouds 26 1015 83 0 5.11 120 17:43 22.04.2020
4279 Clouds 26 1015 83 0 5.11 120 17:25 22.04.2020
4280 Clouds 26 1015 83 0 5.11 120 16:58 22.04.2020
4281 Clouds 26 1015 83 0 5.11 120 16:39 22.04.2020
4282 Clouds 26 1015 83 0 5.11 120 16:20 22.04.2020
4283 Clouds 26 1015 83 0 5.11 120 15:41 22.04.2020
4284 Clouds 26 1013 82 0 4.74 127 15:22 22.04.2020
4285 Clouds 26 1013 82 0 4.74 127 14:58 22.04.2020
4286 Clouds 26 1013 84 0 4.96 122 14:38 22.04.2020
4287 Clouds 26 1013 84 0 4.96 122 14:19 22.04.2020
4288 Clouds 26 1013 84 0 4.96 122 13:45 22.04.2020
4289 Clouds 26 1013 84 0 4.96 122 13:21 22.04.2020
4290 Clouds 26 1013 84 0 4.96 122 12:57 22.04.2020
4291 Clouds 26 1013 84 0 4.96 122 12:39 22.04.2020
4292 Clouds 26 1012 82 0 4.2 128 12:21 22.04.2020
4293 Clouds 26 1012 82 0 4.2 128 11:40 22.04.2020
4294 Clouds 26 1012 82 0 4.2 128 11:20 22.04.2020
4295 Clouds 26 1012 82 0 4.2 128 10:58 22.04.2020
4296 Clouds 26 1012 82 0 4.2 128 10:38 22.04.2020
4297 Clouds 26 1012 82 0 4.2 128 10:18 22.04.2020
4298 Clouds 26 1012 82 0 4.2 128 09:39 22.04.2020
4299 Clouds 26 1013 84 0 4.52 122 09:20 22.04.2020
4300 Clouds 26 1013 84 0 4.52 122 08:55 22.04.2020
4301 Clouds 26 1013 84 0 4.52 122 08:37 22.04.2020
4302 Clouds 26 1013 84 0 4.52 122 08:18 22.04.2020
4303 Clouds 26 1013 84 0 4.52 122 07:51 22.04.2020
4304 Clouds 26 1013 84 0 4.52 122 07:23 22.04.2020
4305 Clouds 26 1013 84 0 4.52 122 06:52 22.04.2020
4306 Clouds 26 1013 83 0 4.42 125 05:47 22.04.2020
4307 Clouds 26 1013 83 0 4.42 125 05:27 22.04.2020
4308 Clouds 26 1013 83 0 4.42 125 04:18 22.04.2020
4309 Clouds 29 1009 70 10000 6.7 120 02:39 22.04.2020
4310 Clouds 29 1009 70 10000 6.7 120 01:43 22.04.2020
4311 Clouds 29 1009 70 10000 6.7 120 01:24 22.04.2020
4312 Clouds 29 1008 70 10000 6.7 150 00:46 22.04.2020
4313 Clouds 29 1008 70 10000 6.7 150 00:21 22.04.2020
4314 Clouds 26 1010 82 0 5.23 117 23:56 21.04.2020
4315 Clouds 30 1010 66 10000 7.7 130 23:36 21.04.2020
4316 Clouds 30 1010 66 10000 7.7 130 23:18 21.04.2020
4317 Clouds 30 1010 66 10000 7.7 130 22:39 21.04.2020
4318 Clouds 30 1010 66 10000 7.7 130 22:39 21.04.2020
4319 Clouds 30 1010 66 10000 7.7 130 22:20 21.04.2020
4320 Clouds 30 1010 66 10000 8.2 120 21:57 21.04.2020
4321 Clouds 30 1010 66 10000 8.2 120 21:39 21.04.2020
4322 Clouds 30 1010 66 10000 8.2 120 21:21 21.04.2020
4323 Clouds 31 1011 62 10000 7.7 150 20:41 21.04.2020
4324 Clouds 31 1011 62 10000 7.7 150 20:23 21.04.2020
4325 Clouds 30 1012 66 10000 6.2 160 19:58 21.04.2020
4326 Clouds 30 1012 66 10000 6.2 160 19:39 21.04.2020
4327 Clouds 30 1012 66 10000 6.2 160 19:19 21.04.2020
4328 Clouds 30 1012 66 10000 6.2 120 18:55 21.04.2020
4329 Clouds 30 1012 66 10000 6.2 120 18:37 21.04.2020
4330 Clouds 30 1012 66 10000 6.2 120 18:37 21.04.2020
4331 Clouds 30 1012 66 10000 6.2 120 18:37 21.04.2020
4332 Clouds 29 1012 70 10000 3.6 140 18:18 21.04.2020
4333 Clouds 29 1012 70 10000 3.6 140 17:40 21.04.2020
4334 Clouds 29 1012 70 10000 3.6 140 17:20 21.04.2020
4335 Clouds 26 1015 81 0 5.53 127 16:57 21.04.2020
4336 Clouds 26 1015 81 0 5.53 127 16:37 21.04.2020
4337 Clouds 26 1015 82 0 5.5 123 16:18 21.04.2020
4338 Clouds 26 1015 81 0 5.53 127 15:55 21.04.2020
4339 Clouds 26 1015 82 0 5.5 123 15:37 21.04.2020
4340 Clouds 26 1012 79 0 4.41 127 15:18 21.04.2020
4341 Clouds 26 1012 79 0 4.41 127 14:45 21.04.2020
4342 Clouds 26 1012 79 0 4.41 127 14:23 21.04.2020
4343 Clouds 26 1012 79 0 4.41 127 13:55 21.04.2020
4344 Clouds 26 1012 79 0 4.41 127 13:37 21.04.2020
4345 Clouds 26 1012 79 0 4.41 127 13:18 21.04.2020
4346 Clouds 26 1012 79 0 4.41 127 12:38 21.04.2020
4347 Clouds 26 1011 78 0 3.59 118 12:19 21.04.2020
4348 Clouds 26 1011 78 0 3.59 118 11:57 21.04.2020
4349 Clouds 26 1011 78 0 3.59 118 11:38 21.04.2020
4350 Clouds 26 1011 78 0 3.59 118 11:19 21.04.2020
4351 Clouds 26 1011 78 0 3.59 118 10:58 21.04.2020
4352 Clouds 26 1011 78 0 3.59 118 10:39 21.04.2020
4353 Clouds 26 1011 78 0 3.59 118 10:39 21.04.2020
4354 Clouds 26 1011 78 0 3.59 118 10:20 21.04.2020
4355 Clouds 26 1011 78 0 3.59 118 09:55 21.04.2020
4356 Clouds 26 1011 77 0 3.51 117 09:36 21.04.2020
4357 Clouds 26 1011 77 0 3.51 117 09:36 21.04.2020
4358 Clouds 26 1011 77 0 3.51 117 09:36 21.04.2020
4359 Clouds 26 1013 77 0 3.61 109 09:18 21.04.2020
4360 Clouds 26 1013 77 0 3.61 109 08:42 21.04.2020
4361 Clouds 26 1013 77 0 3.61 109 08:23 21.04.2020
4362 Clouds 26 1013 77 0 3.61 109 07:50 21.04.2020
4363 Clouds 26 1013 77 0 3.61 109 07:26 21.04.2020
4364 Clouds 26 1013 77 0 3.61 109 06:50 21.04.2020
4365 Clouds 26 1014 78 0 3.64 112 06:24 21.04.2020
4366 Clouds 26 1014 78 0 3.64 112 05:49 21.04.2020
4367 Clouds 26 1014 78 0 3.64 112 04:24 21.04.2020
4368 Clouds 26 1014 78 0 3.64 112 03:45 21.04.2020
4369 Clouds 26 1011 80 0 4.89 124 01:46 21.04.2020
4370 Clouds 26 1011 80 0 4.89 124 01:28 21.04.2020
4371 Clouds 26 1011 80 0 4.89 124 00:37 21.04.2020
4372 Clouds 26 1010 81 0 5.47 121 23:47 20.04.2020
4373 Clouds 26 1010 81 0 5.47 121 23:25 20.04.2020
4374 Clouds 26 1010 81 0 5.47 121 22:58 20.04.2020
4375 Clouds 26 1010 81 0 5.47 121 22:39 20.04.2020
4376 Clouds 26 1010 81 0 5.47 121 22:20 20.04.2020
4377 Clouds 26 1010 81 0 5.47 121 22:20 20.04.2020
4378 Clouds 26 1010 81 0 5.47 121 21:57 20.04.2020
4379 Clouds 26 1010 81 0 5.47 121 21:39 20.04.2020
4380 Clouds 26 1013 83 0 6.1 120 21:19 20.04.2020
4381 Clouds 26 1013 83 0 6.1 120 20:58 20.04.2020
4382 Clouds 26 1013 83 0 6.1 120 20:38 20.04.2020
4383 Clouds 26 1013 83 0 6.1 120 20:18 20.04.2020
4384 Clouds 26 1013 83 0 6.1 120 20:18 20.04.2020
4385 Clouds 26 1013 83 0 6.1 120 20:18 20.04.2020
4386 Clouds 26 1013 83 0 6.1 120 19:57 20.04.2020
4387 Clouds 26 1013 83 0 6.1 120 19:38 20.04.2020
4388 Clouds 26 1013 83 0 6.1 120 19:19 20.04.2020
4389 Clouds 26 1013 83 0 6.1 120 18:42 20.04.2020
4390 Clouds 26 1014 83 0 5.68 120 18:22 20.04.2020
4391 Clouds 26 1014 83 0 5.68 120 17:55 20.04.2020
4392 Clouds 26 1014 83 0 5.68 120 17:37 20.04.2020
4393 Clouds 26 1014 83 0 5.68 120 17:19 20.04.2020
4394 Clouds 26 1014 83 0 5.68 120 16:57 20.04.2020
4395 Clouds 26 1014 83 0 5.68 120 16:38 20.04.2020
4396 Clouds 26 1014 83 0 5.68 120 16:18 20.04.2020
4397 Clouds 26 1014 83 0 5.68 120 15:42 20.04.2020
4398 Clouds 26 1011 81 0 5.32 117 15:23 20.04.2020
4399 Clouds 26 1011 81 0 5.32 117 14:55 20.04.2020
4400 Clouds 26 1011 81 0 5.32 117 14:36 20.04.2020
4401 Clouds 26 1012 82 0 5.28 115 14:18 20.04.2020
4402 Clouds 26 1012 82 0 5.28 115 13:41 20.04.2020
4403 Clouds 26 1012 82 0 5.28 115 13:22 20.04.2020
4404 Clouds 26 1012 82 0 5.28 115 12:54 20.04.2020
4405 Clouds 26 1012 82 0 5.28 115 12:36 20.04.2020
4406 Clouds 26 1011 81 0 4.3 116 12:18 20.04.2020
4407 Clouds 26 1011 81 0 4.3 116 11:40 20.04.2020
4408 Clouds 26 1011 81 0 4.3 116 11:21 20.04.2020
4409 Clouds 26 1011 81 0 4.3 116 10:57 20.04.2020
4410 Clouds 26 1011 81 0 4.3 116 10:57 20.04.2020
4411 Clouds 26 1011 81 0 4.3 116 10:57 20.04.2020
4412 Clouds 26 1011 81 0 4.3 116 10:38 20.04.2020
4413 Clouds 26 1011 81 0 4.3 116 10:19 20.04.2020
4414 Clouds 26 1011 81 0 4.3 116 09:55 20.04.2020
4415 Clouds 26 1011 80 0 4.42 115 09:36 20.04.2020
4416 Clouds 26 1012 81 0 4.6 108 09:18 20.04.2020
4417 Clouds 26 1012 81 0 4.6 108 08:41 20.04.2020
4418 Clouds 26 1012 81 0 4.6 108 08:21 20.04.2020
4419 Clouds 26 1012 81 0 4.6 108 07:52 20.04.2020
4420 Clouds 26 1012 81 0 4.6 108 07:29 20.04.2020
4421 Clouds 26 1012 81 0 4.6 108 06:55 20.04.2020
4422 Clouds 26 1012 81 0 4.6 108 06:36 20.04.2020
4423 Clouds 26 1013 81 0 5.42 107 05:38 20.04.2020
4424 Clouds 26 1013 81 0 5.42 107 03:45 20.04.2020
4425 Clouds 26 1011 80 0 5.27 112 02:44 20.04.2020
4426 Clouds 26 1011 84 0 5.31 110 01:32 20.04.2020
4427 Clouds 26 1011 84 0 5.31 110 00:59 20.04.2020
4428 Clouds 26 1011 84 0 5.31 110 00:35 20.04.2020
4429 Clouds 26 1010 85 0 5.74 119 23:56 19.04.2020
4430 Clouds 26 1010 85 0 5.74 119 23:37 19.04.2020
4431 Clouds 26 1010 85 0 5.74 119 23:19 19.04.2020
4432 Clouds 26 1010 85 0 5.74 119 22:39 19.04.2020
4433 Clouds 26 1010 85 0 5.74 119 22:39 19.04.2020
4434 Clouds 26 1010 85 0 5.74 119 22:21 19.04.2020
4435 Clouds 26 1010 85 0 5.74 119 21:56 19.04.2020
4436 Clouds 26 1010 85 0 5.74 119 21:37 19.04.2020
4437 Clouds 26 1013 85 0 5.76 117 21:18 19.04.2020
4438 Clouds 26 1013 85 0 5.76 117 20:41 19.04.2020
4439 Clouds 26 1013 85 0 5.76 117 20:21 19.04.2020
4440 Clouds 26 1013 85 0 5.76 117 19:58 19.04.2020
4441 Clouds 26 1013 85 0 5.76 117 19:40 19.04.2020
4442 Clouds 26 1013 85 0 5.76 117 19:22 19.04.2020
4443 Clouds 26 1013 85 0 5.76 117 18:58 19.04.2020
4444 Clouds 26 1013 85 0 5.76 117 18:39 19.04.2020
4445 Clouds 26 1014 84 0 5.42 118 18:19 19.04.2020
4446 Clouds 26 1014 84 0 5.42 118 17:56 19.04.2020
4447 Clouds 26 1014 84 0 5.42 118 17:38 19.04.2020
4448 Clouds 26 1014 84 0 5.42 118 17:20 19.04.2020
4449 Clouds 26 1014 84 0 5.42 118 16:56 19.04.2020
4450 Clouds 26 1014 84 0 5.42 118 16:37 19.04.2020
4451 Clouds 26 1014 84 0 5.42 118 16:19 19.04.2020
4452 Clouds 26 1014 84 0 5.42 118 15:42 19.04.2020
4453 Clouds 26 1012 83 0 4.43 129 15:21 19.04.2020
4454 Clouds 26 1012 83 0 4.43 129 14:54 19.04.2020
4455 Clear 26 1012 81 0 4.18 122 14:36 19.04.2020
4456 Clear 26 1012 81 0 4.18 122 14:18 19.04.2020
4457 Clear 26 1012 81 0 4.18 122 13:38 19.04.2020
4458 Clear 26 1012 81 0 4.18 122 13:19 19.04.2020
4459 Clear 26 1012 81 0 4.18 122 12:49 19.04.2020
4460 Clear 26 1012 81 0 4.18 122 12:49 19.04.2020
4461 Clear 26 1012 81 0 3.64 114 12:25 19.04.2020
4462 Clear 26 1012 81 0 3.64 114 11:55 19.04.2020
4463 Clear 26 1012 81 0 3.64 114 11:37 19.04.2020
4464 Clear 26 1012 81 0 3.64 114 11:18 19.04.2020
4465 Clear 26 1012 81 0 3.64 114 10:55 19.04.2020
4466 Clear 26 1012 81 0 3.64 114 10:55 19.04.2020
4467 Clear 26 1012 81 0 3.64 114 10:37 19.04.2020
4468 Clear 26 1012 81 0 3.64 114 10:18 19.04.2020
4469 Clear 26 1012 81 0 3.64 114 09:43 19.04.2020
4470 Clear 26 1013 83 0 4.32 102 09:25 19.04.2020
4471 Clear 26 1013 83 0 4.32 102 08:40 19.04.2020
4472 Clouds 26 1013 83 0 3.92 101 08:21 19.04.2020
4473 Clouds 26 1013 83 0 3.92 101 07:58 19.04.2020
4474 Clear 26 1013 83 0 4.32 102 07:39 19.04.2020
4475 Clear 26 1013 83 0 4.32 102 07:20 19.04.2020
4476 Rain 26 1013 84 0 4.8 101 06:27 19.04.2020
4477 Rain 26 1013 84 0 4.8 101 05:43 19.04.2020
4478 Rain 26 1013 84 0 4.8 101 04:22 19.04.2020
4479 Rain 26 1011 84 0 4.94 98 02:52 19.04.2020
4480 Clouds 27 1011 88 10000 1 170 02:19 19.04.2020
4481 Clouds 27 1011 88 10000 1 170 01:31 19.04.2020
4482 Rain 26 1011 84 0 4.94 98 00:41 19.04.2020
4483 Clouds 28 1010 83 10000 1.5 150 00:20 19.04.2020
4484 Clouds 28 1010 83 10000 1.5 150 23:44 18.04.2020
4485 Clouds 28 1010 83 10000 1.5 150 23:20 18.04.2020
4486 Clouds 29 1011 79 10000 2.1 160 22:55 18.04.2020
4487 Clouds 29 1011 79 10000 2.1 160 22:37 18.04.2020
4488 Clouds 29 1011 79 10000 2.1 160 22:19 18.04.2020
4489 Clouds 26 1011 84 0 4.67 102 21:43 18.04.2020
4490 Rain 26 1013 85 0 5.18 96 21:22 18.04.2020
4491 Rain 26 1013 84 0 4.85 93 20:59 18.04.2020
4492 Rain 26 1013 84 0 4.85 93 20:40 18.04.2020
4493 Rain 26 1013 84 0 4.85 93 20:21 18.04.2020
4494 Rain 26 1013 84 0 4.85 93 19:43 18.04.2020
4495 Rain 26 1013 84 0 4.85 93 19:25 18.04.2020
4496 Rain 26 1013 84 0 4.85 93 19:25 18.04.2020
4497 Rain 26 1013 84 0 4.85 93 18:40 18.04.2020
4498 Clouds 26 1015 83 0 4.2 91 18:20 18.04.2020
4499 Clouds 26 1015 83 0 4.2 91 17:59 18.04.2020
4500 Clouds 26 1015 83 0 4.2 91 17:40 18.04.2020
4501 Clouds 26 1015 83 0 4.2 91 17:20 18.04.2020
4502 Clouds 26 1015 83 0 4.2 91 16:43 18.04.2020
4503 Clouds 26 1015 83 0 4.2 91 16:23 18.04.2020
4504 Clouds 26 1015 83 0 4.2 91 15:58 18.04.2020
4505 Clouds 26 1015 83 0 4.2 91 15:38 18.04.2020
4506 Clouds 26 1015 83 0 4.2 91 15:38 18.04.2020
4507 Clouds 26 1012 83 0 4.06 93 15:19 18.04.2020
4508 Rain 26 1012 83 0 3.8 99 14:44 18.04.2020
4509 Rain 26 1012 83 0 3.8 99 14:24 18.04.2020
4510 Rain 26 1012 83 0 3.8 99 13:44 18.04.2020
4511 Rain 26 1012 83 0 3.8 99 13:25 18.04.2020
4512 Rain 26 1012 83 0 3.8 99 12:56 18.04.2020
4513 Rain 26 1012 83 0 3.8 99 12:56 18.04.2020
4514 Rain 26 1012 83 0 3.8 99 12:38 18.04.2020
4515 Rain 26 1012 83 0 3.71 95 12:19 18.04.2020
4516 Rain 26 1012 83 0 3.71 95 11:42 18.04.2020
4517 Rain 26 1012 83 0 3.71 95 11:22 18.04.2020
4518 Rain 26 1012 83 0 3.71 95 10:57 18.04.2020
4519 Rain 26 1012 83 0 3.71 95 10:37 18.04.2020
4520 Rain 26 1012 83 0 3.71 95 10:18 18.04.2020
4521 Rain 26 1011 83 0 3.97 96 09:41 18.04.2020
4522 Rain 26 1012 83 0 3.71 95 09:41 18.04.2020
4523 Rain 26 1013 84 0 3.85 89 09:23 18.04.2020
4524 Rain 26 1013 84 0 3.85 89 08:43 18.04.2020
4525 Rain 26 1013 84 0 3.85 89 08:24 18.04.2020
4526 Rain 26 1013 84 0 3.85 89 07:52 18.04.2020
4527 Rain 26 1013 84 0 3.85 89 07:33 18.04.2020
4528 Rain 26 1013 84 0 3.85 89 06:53 18.04.2020
4529 Rain 26 1013 84 0 3.67 113 05:50 18.04.2020
4530 Rain 26 1013 84 0 3.67 113 05:23 18.04.2020
4531 Rain 26 1013 84 0 3.67 113 04:45 18.04.2020
4532 Rain 26 1013 84 0 3.67 113 04:24 18.04.2020
4533 Rain 27 1011 82 0 3.91 119 02:44 18.04.2020
4534 Clouds 26 1013 88 10000 0.5 180 02:21 18.04.2020
4535 Clouds 26 1013 88 10000 0.5 180 02:21 18.04.2020
4536 Clouds 26 1013 88 10000 0.5 180 02:21 18.04.2020
4537 Clouds 26 1013 88 10000 0.5 180 01:48 18.04.2020
4538 Clouds 26 1013 88 10000 0.5 180 01:27 18.04.2020
4539 Rain 27 1011 82 0 3.64 121 00:38 18.04.2020
4540 Rain 27 1010 81 0 4.79 120 00:18 18.04.2020
4541 Rain 27 1010 81 0 4.79 120 23:41 17.04.2020
4542 Rain 27 1010 81 0 4.79 120 23:20 17.04.2020
4543 Rain 27 1010 81 0 4.79 120 22:59 17.04.2020
4544 Rain 27 1010 81 0 4.79 120 22:40 17.04.2020
4545 Rain 27 1010 81 0 4.79 120 22:20 17.04.2020
4546 Rain 27 1010 81 0 4.79 120 21:58 17.04.2020
4547 Rain 27 1010 81 0 4.79 120 21:39 17.04.2020
4548 Clouds 27 1012 81 0 4.89 126 21:19 17.04.2020
4549 Clouds 27 1012 81 0 4.89 126 20:55 17.04.2020
4550 Clouds 27 1012 81 0 4.89 126 20:36 17.04.2020
4551 Clouds 27 1012 81 0 4.89 126 20:18 17.04.2020
4552 Clouds 27 1012 81 0 4.89 126 19:46 17.04.2020
4553 Clouds 27 1012 81 0 4.89 126 19:24 17.04.2020
4554 Clouds 27 1012 81 0 4.89 126 18:55 17.04.2020
4555 Clouds 27 1012 81 0 4.89 126 18:36 17.04.2020
4556 Clouds 27 1014 83 0 4.66 124 18:18 17.04.2020
4557 Clouds 27 1014 83 0 4.66 124 17:38 17.04.2020
4558 Clouds 27 1014 83 0 4.66 124 17:19 17.04.2020
4559 Clouds 27 1014 83 0 4.66 124 16:44 17.04.2020
4560 Clouds 27 1014 83 0 4.66 124 16:24 17.04.2020
4561 Clouds 27 1014 83 0 4.66 124 15:58 17.04.2020
4562 Clouds 27 1014 83 0 4.66 124 15:38 17.04.2020
4563 Rain 26 1012 84 0 4.93 127 15:19 17.04.2020
4564 Rain 26 1012 84 0 4.93 127 14:41 17.04.2020
4565 Rain 26 1012 84 0 4.93 127 14:41 17.04.2020
4566 Rain 26 1012 84 0 4.93 127 14:41 17.04.2020
4567 Rain 26 1012 84 0 4.4 132 14:22 17.04.2020
4568 Rain 26 1012 84 0 4.4 132 13:58 17.04.2020
4569 Rain 26 1012 84 0 4.4 132 13:37 17.04.2020
4570 Rain 26 1012 84 0 4.4 132 13:19 17.04.2020
4571 Rain 26 1012 84 0 4.4 132 12:46 17.04.2020
4572 Rain 26 1011 84 0 4.23 135 12:26 17.04.2020
4573 Rain 26 1011 84 0 4.23 135 11:42 17.04.2020
4574 Rain 26 1011 84 0 4.23 135 11:20 17.04.2020
4575 Rain 26 1011 84 0 4.23 135 11:20 17.04.2020
4576 Rain 26 1011 84 0 4.23 135 10:59 17.04.2020
4577 Rain 26 1011 84 0 4.23 135 10:39 17.04.2020
4578 Rain 26 1011 84 0 4.23 135 10:19 17.04.2020
4579 Rain 26 1011 84 0 4.23 135 09:54 17.04.2020
4580 Rain 26 1011 85 0 4.75 132 09:36 17.04.2020
4581 Rain 26 1013 85 0 4.71 137 09:18 17.04.2020
4582 Rain 26 1013 85 0 4.71 137 08:44 17.04.2020
4583 Rain 26 1013 85 0 4.71 137 08:24 17.04.2020
4584 Rain 26 1013 85 0 4.71 137 07:44 17.04.2020
4585 Rain 26 1013 85 0 4.71 137 07:24 17.04.2020
4586 Rain 26 1013 85 0 4.71 137 06:50 17.04.2020
4587 Rain 27 1013 86 0 4.42 142 06:23 17.04.2020
4588 Rain 27 1013 86 0 4.42 142 05:27 17.04.2020
4589 Rain 27 1010 84 0 4.99 147 03:20 17.04.2020
4590 Rain 27 1011 83 0 4.81 152 02:33 17.04.2020
4591 Rain 27 1011 83 0 4.81 152 01:29 17.04.2020
4592 Rain 27 1011 83 0 4.81 152 00:52 17.04.2020
4593 Rain 27 1010 82 0 5.38 157 00:19 17.04.2020
4594 Rain 27 1010 82 0 5.38 157 23:45 16.04.2020
4595 Rain 27 1010 82 0 5.38 157 23:22 16.04.2020
4596 Rain 27 1010 82 0 5.38 157 22:57 16.04.2020
4597 Rain 27 1010 82 0 5.38 157 22:37 16.04.2020
4598 Rain 27 1010 82 0 5.38 157 22:19 16.04.2020
4599 Rain 27 1010 82 0 5.38 157 21:43 16.04.2020
4600 Rain 27 1012 82 0 4.87 163 21:20 16.04.2020
4601 Rain 27 1012 82 0 4.87 163 20:59 16.04.2020
4602 Rain 27 1012 82 0 4.87 163 20:40 16.04.2020
4603 Rain 27 1012 82 0 4.87 163 20:20 16.04.2020
4604 Rain 27 1012 82 0 4.87 163 19:55 16.04.2020
4605 Rain 27 1012 82 0 4.87 163 19:37 16.04.2020
4606 Rain 27 1012 82 0 4.87 163 19:18 16.04.2020
4607 Rain 27 1012 82 0 4.87 163 18:42 16.04.2020
4608 Rain 26 1013 83 0 4.74 156 18:24 16.04.2020
4609 Rain 26 1013 83 0 4.74 156 17:57 16.04.2020
4610 Rain 26 1013 83 0 4.74 156 17:39 16.04.2020
4611 Rain 26 1013 83 0 4.74 156 17:18 16.04.2020
4612 Rain 26 1013 83 0 4.74 156 16:42 16.04.2020
4613 Rain 26 1013 83 0 4.74 156 16:24 16.04.2020
4614 Rain 26 1013 83 0 4.74 156 15:45 16.04.2020
4615 Rain 26 1011 83 0 4.71 156 15:20 16.04.2020
4616 Rain 26 1011 83 0 4.71 156 14:59 16.04.2020
4617 Rain 26 1011 83 0 4.71 156 14:40 16.04.2020
4618 Rain 26 1011 83 0 4.71 156 14:40 16.04.2020
4619 Rain 26 1012 83 0 4.25 171 14:21 16.04.2020
4620 Rain 26 1012 83 0 4.25 171 14:21 16.04.2020
4621 Rain 26 1012 83 0 4.25 171 13:57 16.04.2020
4622 Rain 26 1012 83 0 4.25 171 13:38 16.04.2020
4623 Rain 26 1012 83 0 4.25 171 13:20 16.04.2020
4624 Rain 26 1012 83 0 4.25 171 12:57 16.04.2020
4625 Rain 26 1012 83 0 4.25 171 12:38 16.04.2020
4626 Rain 26 1010 84 0 3.64 160 12:19 16.04.2020
4627 Rain 26 1010 84 0 3.64 160 11:55 16.04.2020
4628 Rain 26 1010 84 0 3.64 160 11:37 16.04.2020
4629 Rain 26 1010 84 0 3.64 160 11:18 16.04.2020
4630 Rain 26 1010 84 0 3.64 160 10:40 16.04.2020
4631 Rain 26 1010 84 0 3.64 160 10:19 16.04.2020
4632 Rain 26 1010 84 0 3.64 160 09:59 16.04.2020
4633 Rain 26 1010 84 0 3.64 160 09:38 16.04.2020
4634 Rain 26 1012 85 0 4.49 167 09:20 16.04.2020
4635 Rain 26 1012 85 0 4.49 167 08:43 16.04.2020
4636 Rain 26 1012 85 0 4.49 167 08:23 16.04.2020
4637 Rain 26 1012 85 0 4.49 167 07:46 16.04.2020
4638 Rain 26 1013 86 0 5.57 156 07:28 16.04.2020
4639 Rain 26 1013 86 0 5.57 156 07:28 16.04.2020
4640 Rain 26 1013 86 0 5.57 156 06:46 16.04.2020
4641 Rain 26 1012 84 0 5.01 157 06:26 16.04.2020
4642 Rain 26 1012 84 0 5.01 157 05:49 16.04.2020
4643 Rain 26 1012 84 0 5.01 157 04:44 16.04.2020
4644 Rain 27 1010 84 0 5.46 161 03:24 16.04.2020
4645 Rain 26 1010 86 0 5.06 168 02:52 16.04.2020
4646 Rain 26 1010 86 0 5.06 168 02:32 16.04.2020
4647 Rain 26 1010 86 0 5.06 168 01:20 16.04.2020
4648 Rain 26 1010 86 0 5.06 168 00:37 16.04.2020
4649 Rain 26 1009 86 0 5.92 161 23:59 15.04.2020
4650 Rain 26 1009 86 0 5.92 161 23:41 15.04.2020
4651 Rain 26 1009 86 0 5.92 161 23:22 15.04.2020
4652 Rain 26 1009 86 0 5.92 161 22:41 15.04.2020
4653 Rain 26 1009 86 0 5.92 161 22:22 15.04.2020
4654 Rain 26 1009 86 0 5.92 161 21:59 15.04.2020
4655 Rain 26 1009 86 0 5.91 160 21:41 15.04.2020
4656 Clouds 26 1012 86 0 4.74 154 21:23 15.04.2020
4657 Clouds 26 1012 86 0 4.74 154 20:58 15.04.2020
4658 Clouds 26 1012 86 0 4.74 154 20:40 15.04.2020
4659 Clouds 26 1012 86 0 4.74 154 20:40 15.04.2020
4660 Clouds 26 1012 86 0 4.74 154 20:22 15.04.2020
4661 Clouds 26 1012 86 0 4.74 154 19:46 15.04.2020
4662 Clouds 26 1012 86 0 4.74 154 19:21 15.04.2020
4663 Clouds 26 1012 86 0 4.74 154 18:57 15.04.2020
4664 Clouds 26 1012 86 0 4.74 154 18:38 15.04.2020
4665 Rain 26 1013 86 0 3.95 130 18:20 15.04.2020
4666 Rain 26 1013 86 0 3.95 130 17:40 15.04.2020
4667 Rain 26 1013 86 0 3.95 130 17:22 15.04.2020
4668 Rain 26 1013 86 0 3.95 130 16:58 15.04.2020
4669 Rain 26 1013 86 0 3.95 130 16:40 15.04.2020
4670 Rain 26 1013 86 0 3.95 130 16:20 15.04.2020
4671 Rain 26 1013 86 0 3.95 130 15:59 15.04.2020
4672 Rain 26 1013 86 0 3.95 130 15:40 15.04.2020
4673 Rain 26 1012 87 0 4.22 111 15:20 15.04.2020
4674 Rain 26 1012 87 0 4.22 111 15:00 15.04.2020
4675 Rain 26 1012 87 0 4.22 111 14:41 15.04.2020
4676 Rain 25 1012 87 0 3.42 112 14:23 15.04.2020
4677 Rain 25 1012 87 0 3.42 112 13:59 15.04.2020
4678 Rain 25 1012 87 0 3.42 112 13:40 15.04.2020
4679 Rain 25 1012 87 0 3.42 112 13:21 15.04.2020
4680 Rain 25 1012 87 0 3.42 112 12:57 15.04.2020
4681 Rain 25 1012 87 0 3.42 112 12:39 15.04.2020
4682 Rain 25 1011 88 0 3.29 112 12:21 15.04.2020
4683 Rain 25 1011 88 0 3.29 112 11:45 15.04.2020
4684 Rain 25 1011 88 0 3.29 112 11:25 15.04.2020
4685 Rain 25 1011 88 0 3.29 112 10:59 15.04.2020
4686 Rain 25 1011 88 0 3.29 112 10:37 15.04.2020
4687 Rain 25 1011 88 0 3.29 112 10:19 15.04.2020
4688 Rain 25 1011 88 0 3.29 112 09:56 15.04.2020
4689 Rain 25 1011 88 0 3.29 112 09:37 15.04.2020
4690 Clouds 25 1013 88 0 3.83 129 09:19 15.04.2020
4691 Clouds 25 1013 88 0 3.83 129 08:42 15.04.2020
4692 Clouds 25 1013 88 0 3.83 129 08:23 15.04.2020
4693 Clouds 25 1013 88 0 3.83 129 07:57 15.04.2020
4694 Clouds 25 1013 88 0 3.83 129 07:38 15.04.2020
4695 Clouds 25 1013 88 0 3.83 129 06:49 15.04.2020
4696 Clouds 25 1013 88 0 4.33 135 06:24 15.04.2020
4697 Clouds 25 1013 88 0 4.33 135 05:22 15.04.2020
4698 Clouds 25 1013 88 0 4.33 135 04:46 15.04.2020
4699 Clouds 25 1013 88 0 4.33 135 03:55 15.04.2020
4700 Rain 25 1011 87 0 4.55 142 03:20 15.04.2020
4701 Rain 25 1011 87 0 4.55 142 02:39 15.04.2020
4702 Rain 25 1011 87 0 4.55 142 01:50 15.04.2020
4703 Rain 25 1011 87 0 4.55 142 01:22 15.04.2020
4704 Rain 25 1011 87 0 4.55 142 00:39 15.04.2020
4705 Rain 25 1011 87 0 5.33 141 00:20 15.04.2020
4706 Rain 25 1011 87 0 5.33 141 23:55 14.04.2020
4707 Rain 25 1011 87 0 5.33 141 23:36 14.04.2020
4708 Rain 25 1011 87 0 5.33 141 23:36 14.04.2020
4709 Rain 25 1011 87 0 5.33 141 23:18 14.04.2020
4710 Rain 25 1011 87 0 5.33 141 22:55 14.04.2020
4711 Rain 25 1011 87 0 5.33 141 22:37 14.04.2020
4712 Rain 25 1011 87 0 5.33 141 22:19 14.04.2020
4713 Rain 25 1011 87 0 5.33 141 21:55 14.04.2020
4714 Rain 25 1011 87 0 5.33 141 21:37 14.04.2020
4715 Rain 26 1014 84 0 4.17 141 21:18 14.04.2020
4716 Rain 26 1014 81 0 3.15 154 20:41 14.04.2020
4717 Rain 26 1014 81 0 3.15 154 20:22 14.04.2020
4718 Rain 26 1014 84 0 4.17 141 19:58 14.04.2020
4719 Rain 26 1014 81 0 3.15 154 19:40 14.04.2020
4720 Rain 26 1014 84 0 4.17 141 19:21 14.04.2020
4721 Rain 26 1014 81 0 3.15 154 18:56 14.04.2020
4722 Rain 26 1014 84 0 4.17 141 18:38 14.04.2020
4723 Rain 26 1015 83 0 2.4 139 18:19 14.04.2020
4724 Rain 26 1015 84 0 2.92 145 17:56 14.04.2020
4725 Rain 26 1015 84 0 2.92 145 17:37 14.04.2020
4726 Rain 26 1015 84 0 2.92 145 17:19 14.04.2020
4727 Rain 26 1015 84 0 2.92 145 16:41 14.04.2020
4728 Rain 26 1015 83 0 2.4 139 16:23 14.04.2020
4729 Rain 26 1015 84 0 2.92 145 15:58 14.04.2020
4730 Rain 26 1015 83 0 2.4 139 15:39 14.04.2020
4731 Rain 26 1013 84 0 1.43 160 15:20 14.04.2020
4732 Rain 26 1013 84 0 1.43 160 14:57 14.04.2020
4733 Rain 26 1013 84 0 1.43 160 14:39 14.04.2020
4734 Rain 26 1013 84 0 1.62 152 14:39 14.04.2020
4735 Rain 26 1013 84 0 1.62 152 14:21 14.04.2020
4736 Rain 26 1013 84 0 1.62 152 13:45 14.04.2020
4737 Rain 26 1013 84 0 1.62 152 13:24 14.04.2020
4738 Rain 26 1013 84 0 1.62 152 12:59 14.04.2020
4739 Rain 26 1013 84 0 1.62 152 12:39 14.04.2020
4740 Rain 26 1013 84 0 1.62 152 12:39 14.04.2020
4741 Rain 26 1012 85 0 2.82 158 12:20 14.04.2020
4742 Rain 26 1012 85 0 2.82 158 11:54 14.04.2020
4743 Rain 26 1012 85 0 2.82 158 11:36 14.04.2020
4744 Rain 26 1012 85 0 2.82 158 11:18 14.04.2020
4745 Rain 26 1012 85 0 2.82 158 10:40 14.04.2020
4746 Rain 26 1012 85 0 2.82 158 10:21 14.04.2020
4747 Rain 26 1012 85 0 2.82 158 09:42 14.04.2020
4748 Clouds 26 1014 85 0 3.32 144 09:24 14.04.2020
4749 Clouds 26 1014 85 0 3.32 144 08:57 14.04.2020
4750 Clouds 26 1014 85 0 3.32 144 08:39 14.04.2020
4751 Clouds 26 1014 85 0 3.32 144 08:21 14.04.2020
4752 Clouds 26 1014 85 0 3.32 144 07:51 14.04.2020
4753 Clouds 26 1014 85 0 3.32 144 07:27 14.04.2020
4754 Clouds 26 1014 85 0 3.32 144 06:45 14.04.2020
4755 Rain 27 1015 84 0 2.78 165 05:52 14.04.2020
4756 Rain 27 1015 84 0 2.78 165 03:48 14.04.2020
4757 Rain 27 1012 80 0 3.18 170 02:38 14.04.2020
4758 Rain 27 1012 80 0 3.18 170 01:28 14.04.2020
4759 Rain 27 1012 80 0 3.18 170 00:52 14.04.2020
4760 Clouds 28 1010 83 10000 3.6 270 00:32 14.04.2020
4761 Clouds 28 1010 83 10000 3.6 270 23:59 13.04.2020
4762 Clouds 28 1010 83 10000 3.6 270 23:39 13.04.2020
4763 Clouds 28 1010 83 10000 3.6 270 23:19 13.04.2020
4764 Rain 27 1012 75 0 2.43 171 22:54 13.04.2020
4765 Rain 27 1012 75 0 2.43 171 22:36 13.04.2020
4766 Rain 27 1012 75 0 2.43 171 22:18 13.04.2020
4767 Rain 27 1012 75 0 2.43 171 21:41 13.04.2020
4768 Rain 27 1014 78 0 1.71 117 21:21 13.04.2020
4769 Rain 27 1014 78 0 1.71 117 20:58 13.04.2020
4770 Rain 27 1014 78 0 1.71 117 20:40 13.04.2020
4771 Rain 27 1014 78 0 1.71 117 20:19 13.04.2020
4772 Rain 27 1014 78 0 1.71 117 19:58 13.04.2020
4773 Rain 27 1014 78 0 1.71 117 19:37 13.04.2020
4774 Rain 27 1014 78 0 1.71 117 19:18 13.04.2020
4775 Rain 27 1014 78 0 1.71 117 18:56 13.04.2020
4776 Rain 27 1014 78 0 1.71 117 18:36 13.04.2020
4777 Rain 27 1015 84 0 1.3 54 18:18 13.04.2020
4778 Rain 27 1015 84 0 1.3 54 17:55 13.04.2020
4779 Rain 27 1015 84 0 1.3 54 17:36 13.04.2020
4780 Rain 27 1015 84 0 1.3 54 17:36 13.04.2020
4781 Rain 27 1015 84 0 1.3 54 17:18 13.04.2020
4782 Rain 27 1015 84 0 1.3 54 16:55 13.04.2020
4783 Rain 27 1015 84 0 1.3 54 16:55 13.04.2020
4784 Rain 27 1015 84 0 1.3 54 16:36 13.04.2020
4785 Rain 27 1015 84 0 1.3 54 16:18 13.04.2020
4786 Rain 27 1015 84 0 1.3 54 15:44 13.04.2020
4787 Rain 26 1013 85 0 1.87 38 15:26 13.04.2020
4788 Rain 26 1013 85 0 1.87 38 14:57 13.04.2020
4789 Rain 26 1013 84 0 2.59 69 14:39 13.04.2020
4790 Rain 26 1013 84 0 2.58 82 14:20 13.04.2020
4791 Rain 26 1013 84 0 2.58 82 13:56 13.04.2020
4792 Rain 26 1013 84 0 2.59 69 13:38 13.04.2020
4793 Rain 26 1013 84 0 2.59 69 13:19 13.04.2020
4794 Rain 26 1013 84 0 2.59 69 12:57 13.04.2020
4795 Rain 26 1013 84 0 2.59 69 12:57 13.04.2020
4796 Rain 26 1013 84 0 2.59 69 12:39 13.04.2020
4797 Rain 26 1012 83 0 2.64 64 12:19 13.04.2020
4798 Rain 26 1012 84 0 2.31 93 11:44 13.04.2020
4799 Rain 26 1012 84 0 2.31 93 11:19 13.04.2020
4800 Rain 26 1012 84 0 2.31 93 10:56 13.04.2020
4801 Rain 26 1012 83 0 2.64 64 10:56 13.04.2020
4802 Rain 26 1012 84 0 2.31 93 10:38 13.04.2020
4803 Rain 26 1012 84 0 2.31 93 10:20 13.04.2020
4804 Rain 26 1012 83 0 2.64 64 09:55 13.04.2020
4805 Rain 26 1012 83 0 2.64 64 09:36 13.04.2020
4806 Rain 27 1014 83 0 2.08 118 09:18 13.04.2020
4807 Rain 27 1014 83 0 2.08 118 08:43 13.04.2020
4808 Rain 27 1014 83 0 2.08 118 08:25 13.04.2020
4809 Rain 27 1014 83 0 2.08 118 07:42 13.04.2020
4810 Rain 27 1014 83 0 2.08 118 07:24 13.04.2020
4811 Rain 27 1014 83 0 2.08 118 06:47 13.04.2020
4812 Rain 27 1014 85 0 1.54 163 06:26 13.04.2020
4813 Rain 27 1014 85 0 1.54 163 05:38 13.04.2020
4814 Rain 27 1014 85 0 1.54 163 05:18 13.04.2020
4815 Rain 27 1014 85 0 1.54 163 04:24 13.04.2020
4816 Rain 27 1014 85 0 1.54 163 03:49 13.04.2020
4817 Clouds 26 1011 88 10000 1 330 03:00 13.04.2020
4818 Clouds 26 1011 88 10000 1 330 02:38 13.04.2020
4819 Clouds 27 1011 83 10000 1 360 01:44 13.04.2020
4820 Clouds 27 1011 83 10000 1 360 01:25 13.04.2020
4821 Clouds 28 1010 83 10000 1.5 270 00:43 13.04.2020
4822 Clouds 28 1010 83 10000 1.5 270 00:22 13.04.2020
4823 Clouds 28 1010 83 10000 1 300 23:49 12.04.2020
4824 Clouds 28 1010 83 10000 1 300 23:23 12.04.2020
4825 Clouds 28 1011 83 10000 3.6 280 22:59 12.04.2020
4826 Clouds 28 1011 83 10000 3.6 280 22:38 12.04.2020
4827 Clouds 28 1011 83 10000 3.6 280 22:19 12.04.2020
4828 Clouds 28 1011 83 10000 3.6 280 22:19 12.04.2020
4829 Clouds 28 1011 83 10000 2.1 300 21:41 12.04.2020
4830 Clouds 28 1011 83 10000 2.1 300 21:22 12.04.2020
4831 Clouds 28 1012 83 10000 1.5 270 20:59 12.04.2020
4832 Clouds 28 1012 83 10000 1.5 270 20:40 12.04.2020
4833 Clouds 28 1012 83 10000 1.5 270 20:22 12.04.2020
4834 Clouds 29 1012 74 10000 1.5 270 19:56 12.04.2020
4835 Clouds 29 1012 74 10000 1.5 270 19:37 12.04.2020
4836 Clouds 29 1012 74 10000 1.5 270 19:37 12.04.2020
4837 Clouds 29 1013 74 10000 2.6 270 19:18 12.04.2020
4838 Clouds 29 1013 74 10000 2.6 270 19:18 12.04.2020
4839 Clouds 29 1013 74 10000 2.6 270 18:41 12.04.2020
4840 Clouds 27 1012 88 10000 2.6 210 18:22 12.04.2020
4841 Clouds 27 1012 88 10000 2.6 210 17:57 12.04.2020
4842 Clouds 27 1012 88 10000 2.6 210 17:38 12.04.2020
4843 Clouds 27 1012 88 10000 2.6 210 17:38 12.04.2020
4844 Clouds 27 1012 88 10000 2.6 210 17:20 12.04.2020
4845 Clouds 26 1012 94 10000 2.6 250 16:56 12.04.2020
4846 Clouds 26 1012 94 10000 2.6 250 16:37 12.04.2020
4847 Clouds 26 1012 94 10000 2.6 250 16:19 12.04.2020
4848 Clouds 26 1012 94 10000 1.5 230 15:42 12.04.2020
4849 Clouds 26 1012 94 10000 1.5 230 15:24 12.04.2020
4850 Rain 26 1011 88 0 2.54 106 14:41 12.04.2020
4851 Rain 26 1011 88 0 2.54 106 14:22 12.04.2020
4852 Rain 26 1011 88 0 2.54 106 13:58 12.04.2020
4853 Rain 26 1011 88 0 2.54 106 13:40 12.04.2020
4854 Rain 26 1011 88 0 2.54 106 13:21 12.04.2020
4855 Rain 26 1011 88 0 2.54 106 12:47 12.04.2020
4856 Clear 26 1011 88 0 2.51 126 12:22 12.04.2020
4857 Clear 26 1011 88 0 2.51 126 11:59 12.04.2020
4858 Clear 26 1011 88 0 2.51 126 11:59 12.04.2020
4859 Clear 26 1011 88 0 2.51 126 11:39 12.04.2020
4860 Clear 26 1011 88 0 2.51 126 11:20 12.04.2020
4861 Clear 26 1011 88 0 2.51 126 10:56 12.04.2020
4862 Clear 26 1011 88 0 2.51 126 10:38 12.04.2020
4863 Clear 26 1011 88 0 2.51 126 10:20 12.04.2020
4864 Clear 26 1011 88 0 2.51 126 09:58 12.04.2020
4865 Clear 26 1010 88 0 1.51 100 09:39 12.04.2020
4866 Clouds 26 1013 89 0 1.65 99 09:19 12.04.2020
4867 Clouds 26 1013 89 0 1.65 99 08:50 12.04.2020
4868 Clouds 26 1013 89 0 1.65 99 08:30 12.04.2020
4869 Clouds 26 1013 89 0 1.65 99 07:47 12.04.2020
4870 Clouds 26 1013 89 0 1.65 99 07:19 12.04.2020
4871 Clouds 26 1013 89 0 1.65 99 06:54 12.04.2020
4872 Clouds 27 1013 87 0 2.3 91 06:28 12.04.2020
4873 Clouds 27 1013 87 0 2.3 91 05:48 12.04.2020
4874 Clouds 27 1013 87 0 2.3 91 04:32 12.04.2020
4875 Clouds 27 1009 88 10000 3.6 160 03:30 12.04.2020
4876 Clouds 27 1009 88 10000 3.6 160 02:48 12.04.2020
4877 Clouds 27 1009 88 10000 3.6 160 02:29 12.04.2020
4878 Clouds 28 1008 83 10000 3.6 170 01:23 12.04.2020
4879 Clouds 28 1008 83 10000 4.1 200 00:43 12.04.2020
4880 Clouds 28 1008 83 10000 4.1 200 00:21 12.04.2020
4881 Clouds 28 1008 83 10000 4.1 200 00:21 12.04.2020
4882 Clouds 29 1008 74 10000 4.6 210 23:47 11.04.2020
4883 Clouds 29 1008 74 10000 4.6 210 23:47 11.04.2020
4884 Clouds 29 1008 74 10000 4.6 210 23:26 11.04.2020
4885 Clouds 29 1008 74 10000 4.6 170 22:58 11.04.2020
4886 Clouds 29 1008 74 10000 4.6 170 22:37 11.04.2020
4887 Clouds 29 1008 74 10000 4.6 170 22:18 11.04.2020
4888 Clouds 28 1011 78 10000 3.1 320 21:55 11.04.2020
4889 Clouds 28 1011 78 10000 3.1 320 21:36 11.04.2020
4890 Clouds 28 1011 78 10000 3.1 320 21:18 11.04.2020
4891 Clouds 28 1011 78 10000 2.6 270 20:55 11.04.2020
4892 Clouds 28 1011 78 10000 2.6 270 20:37 11.04.2020
4893 Clouds 28 1011 78 10000 2.6 270 20:37 11.04.2020
4894 Clouds 28 1011 78 10000 2.6 270 20:19 11.04.2020
4895 Clouds 28 1011 83 10000 3.1 30 19:56 11.04.2020
4896 Clouds 28 1011 83 10000 3.1 30 19:37 11.04.2020
4897 Clouds 27 1011 88 10000 3.1 20 19:18 11.04.2020
4898 Clouds 27 1011 88 10000 3.1 20 19:18 11.04.2020
4899 Clouds 27 1011 88 10000 3.1 20 18:55 11.04.2020
4900 Clouds 27 1011 88 10000 3.1 20 18:36 11.04.2020
4901 Clouds 27 1011 83 10000 2.1 30 18:18 11.04.2020
4902 Clouds 27 1011 83 10000 2.1 30 17:56 11.04.2020
4903 Clouds 27 1011 83 10000 2.1 30 17:36 11.04.2020
4904 Clouds 27 1011 83 10000 2.1 30 17:18 11.04.2020
4905 Clouds 27 1010 83 10000 2.6 170 16:42 11.04.2020
4906 Clouds 27 1010 83 10000 2.6 170 16:21 11.04.2020
4907 Clouds 26 1010 88 10000 2.1 160 15:41 11.04.2020
4908 Clouds 26 1010 88 10000 2.1 160 15:20 11.04.2020
4909 Clouds 25 1009 94 10000 2.6 150 14:57 11.04.2020
4910 Clouds 25 1009 94 10000 2.6 150 14:39 11.04.2020
4911 Clouds 25 1009 94 10000 2.6 150 14:20 11.04.2020
4912 Clouds 26 1011 86 0 1.18 44 13:42 11.04.2020
4913 Clouds 26 1011 86 0 1.18 44 13:24 11.04.2020
4914 Clouds 26 1011 86 0 1.18 44 12:57 11.04.2020
4915 Clouds 26 1011 86 0 1.18 44 12:37 11.04.2020
4916 Rain 26 1010 87 0 1.85 25 12:18 11.04.2020
4917 Rain 26 1010 87 0 1.85 25 11:41 11.04.2020
4918 Rain 26 1010 87 0 1.85 25 11:20 11.04.2020
4919 Rain 26 1010 87 0 1.85 25 10:56 11.04.2020
4920 Rain 26 1010 87 0 1.85 25 10:37 11.04.2020
4921 Rain 26 1010 87 0 1.85 25 10:18 11.04.2020
4922 Rain 26 1010 87 0 1.85 25 09:55 11.04.2020
4923 Clouds 26 1010 87 0 1.75 56 09:37 11.04.2020
4924 Clouds 26 1012 87 0 2.51 43 09:18 11.04.2020
4925 Clouds 26 1012 87 0 2.51 43 08:42 11.04.2020
4926 Clouds 26 1012 87 0 2.51 43 08:23 11.04.2020
4927 Clouds 26 1012 87 0 2.51 43 07:43 11.04.2020
4928 Clouds 26 1012 87 0 2.51 43 07:24 11.04.2020
4929 Clouds 26 1012 87 0 2.51 43 06:37 11.04.2020
4930 Clouds 27 1012 86 0 1.11 43 05:58 11.04.2020
4931 Clouds 27 1012 86 0 1.11 43 04:26 11.04.2020
4932 Clouds 26 1007 94 10000 3.1 30 02:53 11.04.2020
4933 Clouds 27 1007 88 10000 2.6 20 01:27 11.04.2020
4934 Clouds 27 1007 88 10000 3.1 10 00:57 11.04.2020
4935 Clouds 27 1007 88 10000 3.1 10 00:38 11.04.2020
4936 Clouds 27 1007 88 10000 3.1 10 00:18 11.04.2020
4937 Rain 27 1007 88 10000 3.6 30 23:42 10.04.2020
4938 Rain 27 1007 88 10000 3.6 30 23:19 10.04.2020
4939 Clouds 29 1008 79 10000 3.6 40 22:58 10.04.2020
4940 Clouds 29 1008 79 10000 3.6 40 22:38 10.04.2020
4941 Clouds 29 1008 79 10000 3.6 40 22:20 10.04.2020
4942 Clouds 29 1008 79 10000 4.1 190 21:42 10.04.2020
4943 Clouds 29 1008 79 10000 4.1 190 21:42 10.04.2020
4944 Clouds 29 1008 79 10000 4.1 190 21:21 10.04.2020
4945 Clouds 29 1009 79 10000 2.6 300 20:59 10.04.2020
4946 Clouds 29 1009 79 10000 2.6 300 20:40 10.04.2020
4947 Clouds 29 1009 79 10000 2.6 300 20:20 10.04.2020
4948 Clouds 30 1009 70 10000 2.1 270 19:55 10.04.2020
4949 Clouds 30 1009 70 10000 2.1 270 19:37 10.04.2020
4950 Clouds 29 1009 74 10000 2.6 330 19:19 10.04.2020
4951 Clouds 29 1009 74 10000 2.6 330 18:55 10.04.2020
4952 Clouds 29 1009 74 10000 2.6 330 18:37 10.04.2020
4953 Clouds 29 1009 74 10000 2.6 330 18:19 10.04.2020
4954 Clouds 29 1009 74 10000 2.6 10 17:56 10.04.2020
4955 Clouds 29 1009 74 10000 2.6 10 17:38 10.04.2020
4956 Clouds 29 1009 74 10000 2.6 10 17:18 10.04.2020
4957 Clouds 28 1008 83 10000 2.1 20 16:42 10.04.2020
4958 Clouds 28 1008 83 10000 2.1 20 16:23 10.04.2020
4959 Clouds 26 1008 83 10000 1 90 15:58 10.04.2020
4960 Clouds 26 1008 83 10000 1 90 15:39 10.04.2020
4961 Clear 26 1008 83 10000 1 90 15:21 10.04.2020
4962 Clouds 24 1008 88 10000 1.5 80 14:58 10.04.2020
4963 Clouds 24 1008 88 10000 1.5 80 14:58 10.04.2020
4964 Clouds 24 1008 88 10000 1.5 80 14:39 10.04.2020
4965 Clouds 24 1008 88 10000 1.5 80 14:21 10.04.2020
4966 Clear 26 1009 85 0 2.23 44 13:45 10.04.2020
4967 Clear 26 1009 85 0 2.23 44 13:23 10.04.2020
4968 Clear 26 1009 85 0 2.23 44 12:56 10.04.2020
4969 Clear 26 1009 85 0 2.23 44 12:37 10.04.2020
4970 Clear 26 1010 85 0 1.13 65 12:19 10.04.2020
4971 Clear 26 1010 85 0 1.13 65 11:43 10.04.2020
4972 Clear 26 1010 85 0 1.13 65 11:24 10.04.2020
4973 Clear 26 1010 85 0 1.13 65 10:57 10.04.2020
4974 Clear 26 1010 85 0 1.13 65 10:38 10.04.2020
4975 Clear 26 1010 85 0 1.13 65 10:19 10.04.2020
4976 Clear 26 1010 85 0 1.13 65 09:43 10.04.2020
4977 Clear 26 1010 85 0 1.13 65 09:43 10.04.2020
4978 Clear 27 1011 87 0 1.04 90 09:21 10.04.2020
4979 Clear 27 1011 87 0 1.04 90 09:21 10.04.2020
4980 Clear 27 1011 87 0 1.04 90 08:47 10.04.2020
4981 Clear 27 1011 87 0 1.04 90 08:27 10.04.2020
4982 Clear 27 1011 87 0 1.04 90 07:49 10.04.2020
4983 Clear 27 1011 87 0 1.04 90 07:30 10.04.2020
4984 Clear 27 1011 87 0 1.04 90 06:59 10.04.2020
4985 Clear 27 1011 87 0 1.04 90 06:30 10.04.2020
4986 Clear 27 1011 86 0 1.92 121 05:59 10.04.2020
4987 Clear 27 1011 86 0 1.92 121 05:22 10.04.2020
4988 Clear 27 1011 86 0 1.92 121 04:42 10.04.2020
4989 Clouds 27 1006 88 10000 1.5 270 03:34 10.04.2020
4990 Clouds 27 1006 88 10000 1.5 270 02:50 10.04.2020
4991 Clouds 27 1006 88 10000 1.5 270 02:31 10.04.2020
4992 Clouds 28 1006 83 10000 2.6 260 01:31 10.04.2020
4993 Clouds 28 1006 83 10000 3.1 270 00:55 10.04.2020
4994 Clouds 28 1006 88 10000 3.1 330 00:37 10.04.2020
4995 Clouds 28 1006 88 10000 3.1 330 00:18 10.04.2020
4996 Clouds 28 1006 88 10000 3.1 330 23:41 09.04.2020
4997 Clouds 28 1006 88 10000 3.1 330 23:22 09.04.2020
4998 Rain 27 1007 94 10000 2.6 10 22:54 09.04.2020
4999 Rain 27 1007 94 10000 2.6 10 22:36 09.04.2020
5000 Rain 27 1007 94 10000 2.6 10 22:18 09.04.2020
5001 Drizzle 27 1008 94 10000 3.1 340 21:38 09.04.2020
5002 Drizzle 27 1008 94 10000 3.1 340 21:19 09.04.2020
5003 Clouds 28 1009 88 10000 4.1 10 20:45 09.04.2020
5004 Clouds 28 1009 88 10000 4.1 10 20:22 09.04.2020
5005 Rain 28 1009 88 10000 4.6 270 19:58 09.04.2020
5006 Rain 28 1009 88 10000 4.6 270 19:37 09.04.2020
5007 Rain 28 1010 88 10000 2.1 320 19:18 09.04.2020
5008 Rain 28 1010 88 10000 2.1 320 18:42 09.04.2020
5009 Rain 28 1010 88 10000 2.1 320 18:20 09.04.2020
5010 Clouds 27 1010 94 10000 1 300 17:42 09.04.2020
5011 Clouds 27 1010 94 10000 1 300 17:24 09.04.2020
5012 Rain 27 1009 88 10000 2.1 20 16:56 09.04.2020
5013 Rain 27 1009 88 10000 2.1 20 16:38 09.04.2020
5014 Rain 27 1009 88 10000 2.1 20 16:38 09.04.2020
5015 Rain 27 1009 88 10000 2.1 20 16:18 09.04.2020
5016 Clouds 26 1009 94 10000 2.6 30 15:55 09.04.2020
5017 Clouds 26 1009 94 10000 2.6 30 15:36 09.04.2020
5018 Clouds 26 1009 94 10000 2.6 30 15:18 09.04.2020
5019 Clouds 26 1008 94 10000 1.5 270 14:40 09.04.2020
5020 Clouds 26 1008 94 10000 1.5 270 14:21 09.04.2020
5021 Clouds 27 1009 85 0 3.14 88 13:44 09.04.2020
5022 Clouds 27 1009 85 0 3.14 88 13:44 09.04.2020
5023 Clouds 27 1009 85 0 3.14 88 13:26 09.04.2020
5024 Clouds 27 1009 85 0 3.14 88 12:59 09.04.2020
5025 Clouds 27 1009 85 0 3.14 88 12:41 09.04.2020
5026 Clouds 27 1009 85 0 2.48 95 12:21 09.04.2020
5027 Clouds 27 1009 85 0 2.48 95 11:58 09.04.2020
5028 Clouds 27 1009 85 0 2.48 95 11:38 09.04.2020
5029 Clouds 27 1009 85 0 2.48 95 11:20 09.04.2020
5030 Clouds 27 1009 85 0 2.48 95 10:56 09.04.2020
5031 Clouds 27 1009 85 0 2.48 95 10:37 09.04.2020
5032 Clouds 27 1009 85 0 2.48 95 10:37 09.04.2020
5033 Clouds 27 1009 85 0 2.48 95 10:18 09.04.2020
5034 Clouds 27 1009 85 0 2.48 95 09:40 09.04.2020
5035 Clouds 27 1011 86 0 3 97 09:21 09.04.2020
5036 Clouds 27 1011 86 0 3 97 08:58 09.04.2020
5037 Clouds 27 1011 86 0 3 97 08:40 09.04.2020
5038 Clouds 27 1011 86 0 3 97 08:21 09.04.2020
5039 Clouds 27 1011 86 0 3 97 07:46 09.04.2020
5040 Clouds 27 1011 86 0 3 97 07:21 09.04.2020
5041 Clouds 27 1011 86 0 3 97 06:48 09.04.2020
5042 Clouds 27 1011 85 0 2.91 119 05:49 09.04.2020
5043 Clouds 27 1011 85 0 2.91 119 05:25 09.04.2020
5044 Clouds 29 1006 79 10000 2.6 270 02:36 09.04.2020
5045 Clouds 29 991 79 10000 3.1 350 01:46 09.04.2020
5046 Clouds 29 991 79 10000 3.1 350 01:27 09.04.2020
5047 Clouds 30 1006 74 10000 3.1 360 00:54 09.04.2020
5048 Clouds 30 1006 74 10000 3.1 360 00:36 09.04.2020
5049 Clouds 32 1006 66 10000 6.7 130 00:18 09.04.2020
5050 Clouds 32 1006 66 10000 6.7 130 00:18 09.04.2020
5051 Clouds 32 1006 66 10000 6.7 130 23:41 08.04.2020
5052 Clouds 31 1007 70 10000 6.2 180 23:22 08.04.2020
5053 Clouds 31 1007 70 10000 6.2 180 22:44 08.04.2020
5054 Clouds 30 1009 74 10000 3.1 170 22:25 08.04.2020
5055 Clouds 30 1009 74 10000 3.1 170 21:57 08.04.2020
5056 Clouds 30 1009 74 10000 3.1 170 21:39 08.04.2020
5057 Clouds 30 1009 74 10000 3.1 170 21:21 08.04.2020
5058 -273 0 0 0 0 0 21:00 08.04.2020
5059 Clouds 30 1010 74 10000 2.6 30 20:40 08.04.2020
5060 Clouds 30 1010 74 10000 2.6 30 20:21 08.04.2020
5061 Clouds 29 1010 83 10000 3.1 10 19:59 08.04.2020
5062 Clouds 29 1010 83 10000 3.1 10 19:38 08.04.2020
5063 Clouds 28 1011 83 10000 2.1 360 19:20 08.04.2020
5064 Clouds 28 1011 83 10000 2.1 360 18:45 08.04.2020
5065 Clouds 28 1011 83 10000 2.1 360 18:26 08.04.2020
5066 Clouds 28 1010 83 10000 2.1 20 17:56 08.04.2020
5067 Clouds 28 1010 83 10000 2.1 20 17:38 08.04.2020
5068 Clouds 28 1010 83 10000 2.1 20 17:19 08.04.2020
5069 Clouds 28 1010 83 10000 1.5 20 16:43 08.04.2020
5070 Clouds 28 1010 83 10000 1.5 20 16:23 08.04.2020
5071 Clouds 26 1009 88 10000 2.1 160 15:58 08.04.2020
5072 Clouds 25 1008 88 10000 2.1 140 15:38 08.04.2020
5073 Clouds 25 1008 88 10000 2.1 140 15:20 08.04.2020
5074 Clouds 25 1008 88 10000 2.1 140 14:45 08.04.2020
5075 Clouds 25 1008 88 10000 2.1 140 14:25 08.04.2020
5076 Clouds 26 1010 81 0 1.56 80 13:56 08.04.2020
5077 Clouds 26 1010 81 0 1.56 80 13:37 08.04.2020
5078 Clouds 26 1010 81 0 1.56 80 13:19 08.04.2020
5079 Clouds 26 1010 81 0 1.56 80 12:42 08.04.2020
5080 Clouds 26 1010 83 0 2.21 64 12:18 08.04.2020
5081 Clouds 26 1010 83 0 2.21 64 11:58 08.04.2020
5082 Clouds 26 1010 83 0 2.21 64 11:39 08.04.2020
5083 Clouds 26 1010 83 0 2.21 64 11:21 08.04.2020
5084 Clouds 26 1010 83 0 2.21 64 11:21 08.04.2020
5085 Clouds 26 1010 83 0 2.21 64 10:55 08.04.2020
5086 Clouds 26 1010 83 0 2.21 64 10:37 08.04.2020
5087 Clouds 26 1010 83 0 2.21 64 10:18 08.04.2020
5088 Clouds 26 1010 83 0 2.21 64 10:18 08.04.2020
5089 Clouds 26 1010 83 0 2.21 64 09:42 08.04.2020
5090 Rain 27 1012 83 0 2.6 55 09:21 08.04.2020
5091 Rain 27 1012 83 0 2.6 55 08:59 08.04.2020
5092 Rain 27 1012 83 0 2.6 55 08:41 08.04.2020
5093 Rain 27 1012 83 0 2.6 55 08:21 08.04.2020
5094 Rain 27 1012 83 0 2.6 55 07:43 08.04.2020
5095 Rain 27 1012 83 0 2.6 55 07:23 08.04.2020
5096 Rain 27 1012 83 0 2.6 55 06:48 08.04.2020
5097 Rain 27 1012 83 0 2.37 47 05:49 08.04.2020
5098 Clouds 27 1007 88 10000 2.6 270 03:34 08.04.2020
5099 Clouds 27 1007 88 10000 2.6 270 02:41 08.04.2020
5100 Clouds 27 1007 88 10000 2.6 270 02:19 08.04.2020
5101 Clouds 28 1007 88 10000 3.1 240 01:30 08.04.2020
5102 Clouds 28 1007 88 10000 2.6 280 00:57 08.04.2020
5103 Clouds 28 1007 88 10000 2.6 280 00:39 08.04.2020
5104 Clouds 28 1007 88 10000 2.6 280 00:19 08.04.2020
5105 Clouds 28 1007 88 10000 3.1 320 23:39 07.04.2020
5106 Clouds 28 1007 88 10000 3.1 320 23:20 07.04.2020
5107 Clouds 29 1008 83 10000 3.1 250 22:56 07.04.2020
5108 Clouds 29 1008 83 10000 3.1 250 22:38 07.04.2020
5109 -273 0 0 0 0 0 22:19 07.04.2020
5110 Clouds 28 1009 88 10000 3.1 300 21:55 07.04.2020
5111 Clouds 28 1009 88 10000 3.1 300 21:37 07.04.2020
5112 Clouds 28 1009 88 10000 3.1 300 21:18 07.04.2020
5113 Clouds 28 1010 88 10000 4.1 350 20:42 07.04.2020
5114 Clouds 28 1010 88 10000 4.1 350 20:21 07.04.2020
5115 Clouds 29 1010 83 10000 5.1 30 19:59 07.04.2020
5116 Clouds 29 1010 83 10000 5.1 30 19:38 07.04.2020
5117 Clouds 29 1010 83 10000 5.1 30 19:38 07.04.2020
5118 Clouds 29 1010 83 10000 5.1 30 19:20 07.04.2020
5119 Clouds 28 1011 88 10000 5.7 40 18:59 07.04.2020
5120 Clouds 28 1011 88 10000 5.7 40 18:41 07.04.2020
5121 Clouds 28 1011 88 10000 5.7 40 18:21 07.04.2020
5122 Clouds 27 1011 94 10000 4.6 30 17:55 07.04.2020
5123 Clouds 27 1011 94 10000 4.6 30 17:37 07.04.2020
5124 Clouds 27 1011 94 10000 4.6 30 17:19 07.04.2020
5125 Clouds 28 1010 88 10000 5.1 40 16:43 07.04.2020
5126 Clouds 28 1010 88 10000 5.1 40 16:25 07.04.2020
5127 Clouds 27 1009 88 10000 2.1 30 15:44 07.04.2020
5128 Clouds 25 1009 94 10000 1.5 90 15:26 07.04.2020
5129 Clouds 25 1009 94 10000 1.5 90 14:55 07.04.2020
5130 Clouds 25 1009 94 10000 1.5 90 14:37 07.04.2020
5131 Clouds 25 1009 94 10000 1.5 90 14:18 07.04.2020
5132 Clouds 27 1011 80 0 1.99 57 13:42 07.04.2020
5133 Clouds 27 1011 80 0 1.99 57 13:19 07.04.2020
5134 Clouds 27 1011 80 0 1.99 57 12:57 07.04.2020
5135 Clouds 27 1011 80 0 1.99 57 12:37 07.04.2020
5136 Clouds 27 1011 80 0 1.99 57 12:37 07.04.2020
5137 Clouds 27 1010 78 0 0.84 50 12:19 07.04.2020
5138 Clouds 27 1010 78 0 0.84 50 11:46 07.04.2020
5139 Clouds 27 1010 78 0 0.84 50 11:27 07.04.2020
5140 Clouds 27 1010 78 0 0.84 50 10:59 07.04.2020
5141 Clouds 27 1010 78 0 0.84 50 10:39 07.04.2020
5142 Clouds 27 1010 78 0 0.84 50 10:39 07.04.2020
5143 Clouds 27 1010 78 0 0.84 50 10:39 07.04.2020
5144 Clouds 27 1010 78 0 0.84 50 10:20 07.04.2020
5145 Clouds 27 1010 78 0 0.84 50 09:46 07.04.2020
5146 Clouds 27 1012 81 0 1.89 90 09:20 07.04.2020
5147 Clouds 27 1012 81 0 1.89 90 08:59 07.04.2020
5148 Clouds 27 1012 81 0 1.89 90 08:39 07.04.2020
5149 Clouds 27 1012 81 0 1.89 90 08:19 07.04.2020
5150 Clouds 27 1012 81 0 1.89 90 07:44 07.04.2020
5151 Clouds 27 1012 81 0 1.89 90 07:26 07.04.2020
5152 Clouds 27 1012 81 0 1.89 90 06:52 07.04.2020
5153 Clouds 27 1012 81 0 2.12 99 06:25 07.04.2020
5154 Clouds 27 1012 81 0 2.12 99 05:48 07.04.2020
5155 Clouds 27 1012 81 0 2.12 99 05:23 07.04.2020
5156 Clouds 28 1007 83 10000 2.1 300 03:34 07.04.2020
5157 Clouds 28 1007 83 10000 2.1 300 02:59 07.04.2020
5158 Clouds 28 1007 83 10000 2.1 300 02:33 07.04.2020
5159 Clouds 28 1007 78 10000 2.6 330 01:33 07.04.2020
5160 Clouds 28 1006 78 10000 3.1 350 00:44 07.04.2020
5161 Clouds 28 1006 78 10000 3.1 350 00:25 07.04.2020
5162 Clouds 28 1007 78 10000 3.6 20 23:39 06.04.2020
5163 Clouds 28 1007 78 10000 3.6 20 23:20 06.04.2020
5164 Clouds 28 1008 78 10000 3.1 40 22:41 06.04.2020
5165 Clouds 28 1008 78 10000 3.1 40 22:23 06.04.2020
5166 Clouds 30 1009 74 10000 4.1 100 21:59 06.04.2020
5167 Clouds 30 1009 74 10000 4.1 100 21:40 06.04.2020
5168 Clouds 30 1009 74 10000 4.1 100 21:19 06.04.2020
5169 Clouds 30 1009 74 10000 4.1 50 20:56 06.04.2020
5170 Clouds 30 1009 74 10000 4.1 50 20:38 06.04.2020
5171 Clouds 30 1009 74 10000 4.1 50 20:19 06.04.2020
5172 Clouds 30 1010 74 10000 5.1 120 19:54 06.04.2020
5173 Clouds 30 1010 74 10000 5.1 120 19:36 06.04.2020
5174 Clouds 31 1010 70 10000 5.7 130 19:18 06.04.2020
5175 Clouds 31 1010 70 10000 5.7 130 18:41 06.04.2020
5176 Clouds 31 1010 70 10000 5.7 130 18:23 06.04.2020
5177 Clouds 30 1009 74 10000 4.6 160 17:55 06.04.2020
5178 Clouds 30 1009 74 10000 4.6 160 17:37 06.04.2020
5179 Clouds 30 1009 74 10000 4.6 160 17:18 06.04.2020
5180 Clouds 30 1009 74 10000 4.6 160 17:18 06.04.2020
5181 Clouds 28 1009 83 10000 4.1 160 16:45 06.04.2020
5182 Clouds 28 1009 83 10000 4.1 160 16:27 06.04.2020
5183 Clouds 25 1007 94 10000 2.6 150 14:46 06.04.2020
5184 Clouds 25 1007 94 10000 2.6 150 14:46 06.04.2020
5185 Clouds 25 1007 94 10000 2.6 150 14:46 06.04.2020
5186 Clouds 25 1007 94 10000 2.6 150 14:46 06.04.2020
5187 Clouds 25 1007 94 10000 2.6 150 14:46 06.04.2020
5188 Clear 27 1010 75 0 2.13 116 13:44 06.04.2020
5189 Clear 27 1010 75 0 2.13 116 13:44 06.04.2020
5190 Clear 27 1010 75 0 2.13 116 13:21 06.04.2020
5191 Clear 27 1010 75 0 2.13 116 12:28 06.04.2020
5192 Clear 27 1010 76 0 2.24 108 12:02 06.04.2020
5193 Clear 27 1010 76 0 2.24 108 11:40 06.04.2020
5194 Clear 27 1010 76 0 2.24 108 11:40 06.04.2020
5195 Clear 27 1010 76 0 2.24 108 11:40 06.04.2020
5196 Clear 27 1010 76 0 2.24 108 11:40 06.04.2020
5197 Clear 27 1010 76 0 2.24 108 11:40 06.04.2020
5198 Clear 27 1010 76 0 2.24 108 10:53 06.04.2020
5199 Clear 27 1010 76 0 2.24 108 10:53 06.04.2020
5200 Clear 27 1010 76 0 2.24 108 10:53 06.04.2020
5201 Clear 27 1010 76 0 2.24 108 10:53 06.04.2020
5202 Clear 27 1010 76 0 2.24 108 10:53 06.04.2020
5203 Clear 27 1010 76 0 2.24 108 10:23 06.04.2020
5204 Clear 27 1010 76 0 2.24 108 10:23 06.04.2020
5205 Clear 27 1010 76 0 2.24 108 10:23 06.04.2020
5206 Clear 27 1010 76 0 2.24 108 10:23 06.04.2020
5207 Clear 27 1010 76 0 2.24 108 10:23 06.04.2020
5208 Clear 27 1010 76 0 2.24 108 09:57 06.04.2020
5209 Clear 27 1010 76 0 2.24 108 09:55 06.04.2020
5210 Clear 27 1010 76 0 2.24 108 09:55 06.04.2020
5211 Clear 27 1010 76 0 2.24 108 09:55 06.04.2020
5212 Clear 27 1010 76 0 2.24 108 09:55 06.04.2020
5213 Clear 27 1010 76 0 2.24 108 09:24 06.04.2020
5214 Clear 27 1011 77 0 2.36 110 08:55 06.04.2020
5215 Clear 27 1011 77 0 2.36 110 08:55 06.04.2020
5216 Clear 27 1011 77 0 2.36 110 08:33 06.04.2020
5217 Clear 27 1011 77 0 2.36 110 08:33 06.04.2020
5218 Clear 27 1011 77 0 2.36 110 07:55 06.04.2020
5219 Clear 27 1011 77 0 2.36 110 07:18 06.04.2020
5220 Clear 27 1011 77 0 2.36 110 06:25 06.04.2020
5221 Clear 27 1012 78 0 1.45 111 04:50 06.04.2020
5222 Clear 27 1012 78 0 1.45 111 04:50 06.04.2020
5223 Clouds 28 1007 78 10000 5.1 150 03:28 06.04.2020
5224 Clouds 28 1007 78 10000 5.1 150 02:48 06.04.2020
5225 Clouds 29 1006 70 0 5.7 160 01:50 06.04.2020
5226 Clouds 30 1006 70 10000 6.2 150 00:46 06.04.2020
5227 Clouds 30 1006 70 10000 6.2 150 00:25 06.04.2020
5228 Clouds 31 1006 62 10000 5.1 160 23:47 05.04.2020
5229 Clouds 31 1006 62 10000 5.1 160 23:29 05.04.2020
5230 Clouds 31 1006 62 10000 5.1 160 23:28 05.04.2020
5231 Clouds 31 1006 62 10000 5.1 160 23:28 05.04.2020
5232 Clouds 31 1006 62 10000 5.1 160 23:28 05.04.2020
5233 Clouds 31 1007 62 10000 6.7 180 22:56 05.04.2020
5234 Clouds 31 1007 62 10000 6.7 180 22:38 05.04.2020
5235 Clouds 31 1007 62 10000 6.7 180 22:18 05.04.2020
5236 Clouds 30 1008 66 10000 4.6 170 21:55 05.04.2020
5237 Clouds 30 1008 66 10000 4.6 170 21:37 05.04.2020
5238 Clouds 30 1008 66 10000 4.6 170 21:18 05.04.2020
5239 Clouds 30 1009 66 10000 4.1 170 20:20 05.04.2020
5240 Clouds 30 1009 66 10000 4.1 170 20:20 05.04.2020
5241 Clouds 30 1009 66 10000 4.1 170 20:20 05.04.2020
5242 Clouds 29 1009 74 10000 3.6 220 19:39 05.04.2020
5243 Clouds 29 1009 74 10000 3.6 220 19:21 05.04.2020
5244 Clouds 29 1010 74 10000 2.6 280 18:44 05.04.2020
5245 Clouds 29 1010 74 10000 2.6 280 18:44 05.04.2020
5246 Clouds 29 1010 74 10000 2.6 280 18:44 05.04.2020
5247 Clouds 29 1010 74 10000 2.6 280 18:44 05.04.2020
5248 Clouds 29 1010 74 10000 2.6 280 18:44 05.04.2020
5249 Clouds 28 1010 78 10000 2.1 300 17:57 05.04.2020
5250 Clouds 28 1010 78 10000 2.1 300 17:39 05.04.2020
5251 Clouds 28 1010 78 10000 2.1 300 17:39 05.04.2020
5252 Clouds 28 1010 78 10000 2.1 300 17:20 05.04.2020
5253 Clouds 28 1010 78 10000 2.1 300 17:20 05.04.2020
5254 Clouds 28 1010 78 10000 2.1 300 17:20 05.04.2020
5255 Clouds 28 1010 78 10000 2.1 300 17:20 05.04.2020
5256 Clouds 28 1010 78 10000 2.1 300 17:20 05.04.2020
5257 Clouds 26 1009 83 10000 1.5 350 16:21 05.04.2020
5258 Clouds 24 1008 88 10000 1.5 60 15:53 05.04.2020
5259 Clouds 24 1008 88 10000 1.5 60 15:33 05.04.2020
5260 Clear 23 1007 88 10000 3.1 120 14:50 05.04.2020
5261 Clear 23 1007 88 10000 3.1 120 14:26 05.04.2020
5262 Clear 26 1010 76 0 2.47 53 13:44 05.04.2020
5263 Clear 26 1010 76 0 2.47 53 13:44 05.04.2020
5264 Clear 26 1010 76 0 2.47 53 12:54 05.04.2020
5265 Clear 26 1010 76 0 2.47 53 12:54 05.04.2020
5266 Clear 26 1010 76 0 2.47 53 12:54 05.04.2020
5267 Clear 26 1010 76 0 2.47 53 12:54 05.04.2020
5268 Clear 26 1010 76 0 2.47 53 12:54 05.04.2020
5269 Clear 26 1009 77 0 2.68 49 11:43 05.04.2020
5270 Clear 26 1009 77 0 2.68 49 11:21 05.04.2020
5271 Clear 26 1009 77 0 2.68 49 11:21 05.04.2020
5272 Clear 26 1009 77 0 2.68 49 10:59 05.04.2020
5273 Clear 26 1009 77 0 2.68 49 10:40 05.04.2020
5274 Clear 26 1009 77 0 2.68 49 10:40 05.04.2020
5275 Clear 26 1009 77 0 2.68 49 10:40 05.04.2020
5276 Clear 26 1009 77 0 2.68 49 10:40 05.04.2020
5277 Clear 26 1009 77 0 2.68 49 10:40 05.04.2020
5278 Clear 26 1009 77 0 2.68 49 10:18 05.04.2020
5279 Clear 26 1009 77 0 2.68 49 09:43 05.04.2020
5280 Clear 26 1009 77 0 2.68 49 09:24 05.04.2020
5281 Clouds 26 1009 78 0 2.8 42 09:24 05.04.2020
5282 Clear 26 1009 77 0 2.68 49 09:24 05.04.2020
5283 Clouds 26 1009 78 0 2.8 42 09:23 05.04.2020
5284 Clear 26 1009 77 0 2.68 49 09:23 05.04.2020
5285 Clear 27 1010 77 0 1.88 31 07:41 05.04.2020
5286 Clear 27 1010 77 0 1.64 45 04:36 05.04.2020
5287 Clear 27 1010 77 0 1.64 45 03:32 05.04.2020
5288 Clouds 26 1006 94 10000 3.1 360 02:52 05.04.2020
5289 Clouds 27 1005 88 10000 3.1 20 01:48 05.04.2020
5290 Clouds 27 1005 88 10000 3.1 20 01:28 05.04.2020
5291 Clouds 27 1005 88 10000 3.1 20 01:28 05.04.2020
5292 Clouds 28 1005 83 10000 4.1 20 00:44 05.04.2020
5293 Clouds 28 1005 83 10000 4.1 20 00:21 05.04.2020
5294 Clouds 27 1005 88 10000 3.1 20 23:55 04.04.2020
5295 Clouds 27 1005 88 10000 3.1 20 23:37 04.04.2020
5296 Clouds 27 1005 88 10000 3.1 20 23:18 04.04.2020
5297 Clouds 27 1006 88 10000 3.1 330 22:40 04.04.2020
5298 Clouds 27 1006 88 10000 3.1 330 22:21 04.04.2020
5299 Rain 27 1006 94 10000 3.6 10 21:58 04.04.2020
5300 Rain 27 1006 94 10000 3.6 10 21:39 04.04.2020
5301 Rain 27 1006 94 10000 3.6 10 21:19 04.04.2020
5302 Rain 27 1007 94 10000 2.6 20 20:58 04.04.2020
5303 Rain 27 1007 94 10000 2.6 20 20:39 04.04.2020
5304 Rain 27 1007 94 10000 2.6 20 20:20 04.04.2020
5305 Drizzle 27 1008 88 10000 3.6 190 19:57 04.04.2020
5306 Drizzle 27 1008 88 10000 3.6 190 19:37 04.04.2020
5307 Drizzle 27 1008 88 10000 3.6 190 19:18 04.04.2020
5308 Clouds 28 1008 83 10000 4.1 160 18:55 04.04.2020
5309 Clouds 28 1008 83 10000 4.1 160 18:37 04.04.2020
5310 Clouds 28 1008 83 10000 4.1 160 18:18 04.04.2020
5311 Clouds 27 1008 88 10000 3.6 150 17:40 04.04.2020
5312 Clouds 27 1008 88 10000 3.6 150 17:20 04.04.2020
5313 Clouds 26 1007 88 10000 1 190 16:55 04.04.2020
5314 Clouds 26 1007 88 10000 1 190 16:37 04.04.2020
5315 Clouds 26 1007 88 10000 1 190 16:18 04.04.2020
5316 Clouds 26 1007 88 10000 1.5 190 15:40 04.04.2020
5317 Clouds 26 1007 88 10000 1.5 190 15:22 04.04.2020
5318 Clouds 25 1006 94 10000 1 240 14:56 04.04.2020
5319 Clouds 25 1006 94 10000 1 240 14:38 04.04.2020
5320 Clouds 25 1006 94 10000 1 240 14:20 04.04.2020
5321 Rain 27 1009 82 0 4.82 47 13:55 04.04.2020
5322 Rain 27 1009 82 0 4.82 47 13:36 04.04.2020
5323 Rain 27 1009 82 0 4.82 47 13:18 04.04.2020
5324 Rain 27 1009 82 0 4.82 47 12:42 04.04.2020
5325 Rain 27 1009 82 0 4.82 47 12:23 04.04.2020
5326 Rain 27 1008 83 0 3.66 50 11:54 04.04.2020
5327 Rain 27 1008 83 0 3.66 50 11:36 04.04.2020
5328 Rain 27 1008 83 0 3.66 50 11:18 04.04.2020
5329 Rain 27 1008 83 0 3.66 50 10:55 04.04.2020
5330 Rain 27 1008 83 0 3.66 50 10:37 04.04.2020
5331 Rain 27 1008 83 0 3.66 50 10:18 04.04.2020
5332 Rain 27 1008 83 0 3.66 50 09:42 04.04.2020
5333 Rain 27 1008 83 0 3.66 50 09:24 04.04.2020
5334 Rain 27 1009 83 0 2.77 36 08:56 04.04.2020
5335 Rain 27 1009 83 0 2.77 36 08:37 04.04.2020
5336 Rain 27 1009 83 0 2.77 36 08:19 04.04.2020
5337 Rain 27 1009 83 0 2.77 36 07:40 04.04.2020
5338 Rain 27 1009 83 0 2.77 36 07:22 04.04.2020
5339 Rain 27 1009 83 0 2.77 36 07:22 04.04.2020
5340 Rain 27 1009 83 0 2.77 36 06:40 04.04.2020
5341 Rain 27 1010 81 0 2.13 58 05:54 04.04.2020
5342 Rain 27 1010 81 0 2.13 58 05:33 04.04.2020
5343 Rain 27 1010 81 0 2.13 58 04:40 04.04.2020
5344 Rain 27 1010 81 0 2.13 58 04:20 04.04.2020
5345 Rain 27 1010 81 0 2.13 58 03:45 04.04.2020
5346 Clouds 26 1005 94 10000 3.6 150 02:49 04.04.2020
5347 Clouds 26 1005 94 10000 3.6 150 02:30 04.04.2020
5348 Rain 26 1005 94 10000 3.1 90 01:48 04.04.2020
5349 Rain 26 1005 94 10000 3.1 90 01:21 04.04.2020
5350 Rain 26 1005 94 10000 4.1 30 00:45 04.04.2020
5351 Rain 26 1005 94 10000 4.1 30 00:26 04.04.2020
5352 Clouds 27 1006 88 10000 4.1 30 23:39 03.04.2020
5353 Clouds 27 1006 88 10000 4.1 30 23:20 03.04.2020
5354 Rain 28 1006 83 10000 4.1 50 22:55 03.04.2020
5355 Rain 28 1006 83 10000 4.1 50 22:36 03.04.2020
5356 Rain 28 1006 83 10000 4.1 50 22:18 03.04.2020
5357 Clouds 29 1007 79 10000 4.6 10 21:42 03.04.2020
5358 Clouds 29 1007 79 10000 4.6 10 21:22 03.04.2020
5359 Clouds 28 1008 83 10000 4.1 360 20:56 03.04.2020
5360 Clouds 28 1008 83 10000 4.1 360 20:36 03.04.2020
5361 Clouds 28 1008 83 10000 4.1 360 20:18 03.04.2020
5362 Clouds 28 1009 83 10000 3.1 40 19:56 03.04.2020
5363 Clouds 28 1009 83 10000 3.1 40 19:37 03.04.2020
5364 Clouds 28 1009 83 10000 3.1 40 19:19 03.04.2020
5365 Clouds 28 1009 83 10000 2.6 350 18:57 03.04.2020
5366 Clouds 28 1009 83 10000 2.6 350 18:39 03.04.2020
5367 Clouds 28 1009 83 10000 2.6 350 18:21 03.04.2020
5368 Clouds 28 1009 83 10000 2.1 10 17:42 03.04.2020
5369 Clouds 28 1009 83 10000 2.1 10 17:20 03.04.2020
5370 Clear 27 1009 78 10000 2.6 360 16:56 03.04.2020
5371 Clear 27 1009 78 10000 2.6 360 16:37 03.04.2020
5372 Clear 27 1009 78 10000 2.6 360 16:19 03.04.2020
5373 Clear 25 1008 88 10000 1.5 70 15:56 03.04.2020
5374 Clear 25 1008 88 10000 1.5 70 15:37 03.04.2020
5375 Clouds 25 1008 88 10000 1.5 70 15:19 03.04.2020
5376 Clouds 27 1010 79 0 2.17 98 14:40 03.04.2020
5377 Clouds 27 1010 79 0 2.55 105 14:22 03.04.2020
5378 Clouds 27 1010 79 0 2.55 105 13:54 03.04.2020
5379 Clouds 27 1010 79 0 2.55 105 13:36 03.04.2020
5380 Clouds 27 1010 79 0 2.55 105 13:18 03.04.2020
5381 Clouds 27 1010 79 0 2.55 105 12:42 03.04.2020
5382 Clouds 27 1009 78 0 1.96 114 12:19 03.04.2020
5383 Clouds 27 1009 78 0 1.96 114 11:56 03.04.2020
5384 Clouds 27 1009 78 0 1.96 114 11:37 03.04.2020
5385 Clouds 27 1009 78 0 1.96 114 11:18 03.04.2020
5386 Clouds 27 1009 78 0 1.96 114 10:57 03.04.2020
5387 Clouds 27 1009 78 0 1.96 114 10:57 03.04.2020
5388 Clouds 27 1009 78 0 1.96 114 10:37 03.04.2020
5389 Clouds 27 1009 78 0 1.96 114 10:19 03.04.2020
5390 Clouds 27 1009 78 0 1.96 114 09:55 03.04.2020
5391 Clouds 27 1009 78 0 1.96 114 09:37 03.04.2020
5392 Clouds 27 1010 78 0 2.22 85 09:19 03.04.2020
5393 Clouds 27 1010 78 0 2.22 85 08:44 03.04.2020
5394 Clouds 27 1010 78 0 2.22 85 08:24 03.04.2020
5395 Clouds 27 1010 78 0 2.22 85 07:51 03.04.2020
5396 Clouds 27 1010 78 0 2.22 85 07:33 03.04.2020
5397 Clouds 27 1010 78 0 2.22 85 06:58 03.04.2020
5398 Clouds 27 1010 78 0 2.22 85 06:28 03.04.2020
5399 Clouds 27 1012 80 0 2.72 93 05:42 03.04.2020
5400 Clouds 27 1012 80 0 2.72 93 04:18 03.04.2020
5401 Clouds 27 1012 80 0 2.72 93 03:32 03.04.2020
5402 Clouds 28 1006 78 10000 4.1 170 02:39 03.04.2020
5403 Clouds 28 1006 83 10000 5.1 170 01:25 03.04.2020
5404 Clouds 29 1006 79 10000 3.1 260 00:46 03.04.2020
5405 Clouds 29 1006 79 10000 3.1 260 00:27 03.04.2020
5406 Clouds 30 1007 74 10000 3.1 330 23:43 02.04.2020
5407 Clouds 30 1007 74 10000 3.1 330 23:25 02.04.2020
5408 Clouds 30 1007 74 10000 3.6 320 23:00 02.04.2020
5409 Clouds 30 1007 74 10000 3.6 320 22:41 02.04.2020
5410 Clouds 30 1007 74 10000 3.6 320 22:22 02.04.2020
5411 Clouds 29 1008 74 10000 4.1 10 21:57 02.04.2020
5412 Clouds 29 1008 74 10000 4.1 10 21:36 02.04.2020
5413 Clouds 29 1008 74 10000 4.1 10 21:18 02.04.2020
5414 Clouds 29 1009 74 10000 4.6 140 20:44 02.04.2020
5415 Clouds 29 1009 74 10000 4.6 140 20:44 02.04.2020
5416 Clouds 29 1009 74 10000 4.6 140 20:24 02.04.2020
5417 Clouds 30 1010 70 10000 5.1 150 19:56 02.04.2020
5418 Clouds 30 1010 70 10000 5.1 150 19:37 02.04.2020
5419 Clouds 30 1010 70 10000 5.1 150 19:19 02.04.2020
5420 Clouds 30 1010 70 10000 4.6 180 18:42 02.04.2020
5421 Clouds 30 1010 70 10000 4.6 180 18:21 02.04.2020
5422 Clouds 30 1010 70 10000 4.1 180 17:57 02.04.2020
5423 Clouds 30 1010 70 10000 4.1 180 17:39 02.04.2020
5424 Clouds 30 1010 70 10000 4.1 180 17:20 02.04.2020
5425 Clouds 28 1010 78 10000 3.1 130 16:57 02.04.2020
5426 Clouds 28 1010 78 10000 3.1 130 16:39 02.04.2020
5427 Clouds 28 1010 78 10000 3.1 130 16:21 02.04.2020
5428 Clouds 26 1009 83 10000 2.1 160 15:55 02.04.2020
5429 Clouds 26 1009 83 10000 2.1 160 15:37 02.04.2020
5430 Clouds 26 1009 83 10000 2.1 160 15:18 02.04.2020
5431 Clouds 23 1008 94 10000 3.1 140 14:40 02.04.2020
5432 Clouds 23 1008 94 10000 3.1 140 14:21 02.04.2020
5433 Clear 26 1011 76 0 0.51 46 13:59 02.04.2020
5434 Clear 26 1011 76 0 0.51 46 13:39 02.04.2020
5435 Clear 26 1011 76 0 0.51 46 13:21 02.04.2020
5436 Clear 26 1011 76 0 0.51 46 12:56 02.04.2020
5437 Clear 26 1011 76 0 0.51 46 12:38 02.04.2020
5438 Clear 26 1010 75 0 0.78 49 12:19 02.04.2020
5439 Clear 26 1010 75 0 0.78 49 12:19 02.04.2020
5440 Clear 26 1010 75 0 0.78 49 11:57 02.04.2020
5441 Clear 26 1010 75 0 0.78 49 11:38 02.04.2020
5442 Clear 26 1010 75 0 0.78 49 11:19 02.04.2020
5443 Clear 26 1010 75 0 0.78 49 10:55 02.04.2020
5444 Clear 26 1010 75 0 0.78 49 10:55 02.04.2020
5445 Clear 26 1010 75 0 0.78 49 10:37 02.04.2020
5446 Clear 26 1010 75 0 0.78 49 10:18 02.04.2020
5447 Clear 26 1010 75 0 0.78 49 09:43 02.04.2020
5448 Clear 26 1010 75 0 0.78 49 09:25 02.04.2020
5449 Clear 26 1011 75 0 1.32 89 08:58 02.04.2020
5450 Clear 26 1011 75 0 1.32 89 08:40 02.04.2020
5451 Clear 26 1011 75 0 1.32 89 08:22 02.04.2020
5452 Clear 26 1011 75 0 1.32 89 07:44 02.04.2020
5453 Clear 26 1011 75 0 1.32 89 07:20 02.04.2020
5454 Clear 26 1011 75 0 1.32 89 06:58 02.04.2020
5455 Clear 26 1011 75 0 1.32 89 06:21 02.04.2020
5456 Clear 27 1012 78 0 1.84 106 05:44 02.04.2020
5457 Clear 27 1012 78 0 1.84 106 03:57 02.04.2020
5458 Clouds 27 1009 69 0 1.54 163 01:34 02.04.2020
5459 Clouds 29 1007 74 10000 1.54 163 00:46 02.04.2020
5460 Clouds 29 1007 74 10000 1.54 163 00:26 02.04.2020
5461 Clouds 30 1007 70 10000 3.1 270 23:41 01.04.2020
5462 Clouds 30 1007 70 10000 3.1 270 23:20 01.04.2020
5463 Clouds 30 1007 70 10000 3.6 300 22:59 01.04.2020
5464 Clouds 30 1007 70 10000 3.6 300 22:39 01.04.2020
5465 Clouds 30 1007 70 10000 3.6 300 22:21 01.04.2020
5466 Clouds 27 1009 72 0 1.05 222 21:42 01.04.2020
5467 Clouds 30 1009 70 10000 3.1 350 21:22 01.04.2020
5468 Clouds 30 1009 70 10000 3.1 350 21:22 01.04.2020
5469 Clouds 30 1009 70 10000 3.1 350 21:21 01.04.2020
5470 Clouds 30 1009 70 10000 3.1 350 21:21 01.04.2020
5471 Clouds 30 1009 70 10000 3.1 350 21:20 01.04.2020
5472 Clouds 30 1009 70 10000 3.1 350 20:57 01.04.2020
5473 Clouds 30 1009 70 10000 3.1 350 20:39 01.04.2020
5474 Clouds 30 1009 70 10000 3.1 350 20:20 01.04.2020
5475 Clouds 30 1009 70 10000 3.1 350 20:20 01.04.2020
5476 Clouds 29 1010 74 10000 2.6 300 19:59 01.04.2020
5477 Clouds 29 1010 74 10000 2.6 300 19:40 01.04.2020
5478 Clouds 29 1010 74 10000 2.6 300 19:20 01.04.2020
5479 Clouds 29 1010 74 10000 2.6 320 18:44 01.04.2020
5480 Clouds 29 1010 74 10000 2.6 320 18:25 01.04.2020
5481 Clouds 28 1010 74 10000 3.1 330 17:58 01.04.2020
5482 Clouds 28 1010 74 10000 3.1 330 17:38 01.04.2020
5483 Clouds 28 1010 74 10000 3.1 330 17:19 01.04.2020
5484 Clouds 27 1009 78 10000 2.1 120 16:58 01.04.2020
5485 Clouds 27 1009 78 10000 2.1 120 16:39 01.04.2020
5486 Clouds 27 1009 78 10000 2.1 120 16:21 01.04.2020
5487 Clouds 25 1009 88 10000 1.5 90 15:57 01.04.2020
5488 Clouds 25 1009 88 10000 1.5 90 15:37 01.04.2020
5489 Clouds 25 1009 88 10000 1.5 90 15:18 01.04.2020
5490 Clouds 23 1008 94 10000 2.1 100 14:41 01.04.2020
5491 Clouds 23 1008 94 10000 2.1 100 14:41 01.04.2020
5492 Clouds 23 1008 94 10000 2.1 100 14:23 01.04.2020
5493 Clouds 26 1010 77 0 1.74 6 13:59 01.04.2020
5494 Clouds 26 1010 77 0 1.74 6 13:40 01.04.2020
5495 Clouds 26 1010 77 0 1.74 6 13:20 01.04.2020
5496 Clouds 26 1010 77 0 1.74 6 12:59 01.04.2020
5497 Clouds 26 1010 77 0 1.74 6 12:41 01.04.2020
5498 Clouds 26 1010 77 0 1.74 6 12:22 01.04.2020
5499 Clouds 26 1009 77 0 2.09 8 11:57 01.04.2020
5500 Clouds 26 1009 77 0 2.09 8 11:38 01.04.2020
5501 Clouds 26 1009 77 0 2.09 8 11:20 01.04.2020
5502 Clouds 26 1009 77 0 2.09 8 10:40 01.04.2020
5503 Clouds 26 1009 77 0 2.09 8 10:21 01.04.2020
5504 Clouds 26 1009 77 0 2.09 8 09:59 01.04.2020
5505 Clouds 26 1009 77 0 2.09 8 09:40 01.04.2020
5506 Clouds 26 1010 77 0 1.78 355 09:20 01.04.2020
5507 Clouds 26 1011 76 0 1.71 350 08:56 01.04.2020
5508 Clouds 26 1011 76 0 1.71 350 08:37 01.04.2020
5509 Clouds 26 1011 76 0 1.71 350 08:18 01.04.2020
5510 Clouds 26 1011 76 0 1.71 350 07:41 01.04.2020
5511 Clouds 26 1011 76 0 1.71 350 07:19 01.04.2020
5512 Clouds 26 1011 76 0 1.71 350 06:43 01.04.2020
5513 Clouds 26 1011 76 0 1.71 350 06:21 01.04.2020
5514 Clouds 27 1011 76 0 0.68 337 05:41 01.04.2020
5515 Clouds 27 1011 76 0 0.68 337 03:57 01.04.2020
5516 Clouds 28 1007 78 10000 2.6 350 03:19 01.04.2020
5517 Clouds 28 1007 78 10000 2.6 350 02:36 01.04.2020
5518 Clouds 28 1007 78 10000 3.1 10 01:50 01.04.2020
5519 Clouds 28 1007 78 10000 3.1 10 01:25 01.04.2020
5520 Clouds 29 1007 74 10000 3.6 360 00:47 01.04.2020
5521 Clouds 29 1007 74 10000 3.6 360 00:22 01.04.2020
5522 Clouds 30 1007 70 10000 3.1 360 23:55 31.03.2020
5523 Clouds 30 1007 70 10000 3.1 360 23:37 31.03.2020
5524 Clouds 30 1007 70 10000 3.1 360 23:19 31.03.2020
5525 Clouds 31 1007 66 10000 3.1 320 22:40 31.03.2020
5526 Clouds 31 1007 66 10000 3.1 320 22:21 31.03.2020
5527 Clouds 31 1007 66 10000 3.1 320 21:58 31.03.2020
5528 Clouds 31 1007 66 10000 3.1 320 21:58 31.03.2020
5529 Clouds 31 1008 66 10000 4.1 350 21:39 31.03.2020
5530 Clouds 31 1008 66 10000 4.1 350 21:21 31.03.2020
5531 Clouds 30 1009 70 10000 3.6 350 20:57 31.03.2020
5532 Clouds 30 1009 70 10000 3.6 350 20:37 31.03.2020
5533 Clouds 30 1009 70 10000 3.6 350 20:37 31.03.2020
5534 Clouds 30 1009 70 10000 3.6 350 20:18 31.03.2020
5535 Clouds 30 1009 70 10000 4.1 340 19:55 31.03.2020
5536 Clouds 30 1009 70 10000 4.1 340 19:37 31.03.2020
5537 Clouds 29 1010 74 10000 4.6 330 19:18 31.03.2020
5538 Clouds 29 1010 74 10000 4.6 330 18:41 31.03.2020
5539 Clouds 28 1009 78 10000 2.6 290 18:20 31.03.2020
5540 Clouds 28 1009 78 10000 2.6 290 17:56 31.03.2020
5541 Clouds 28 1009 78 10000 2.6 290 17:56 31.03.2020
5542 Clouds 28 1009 78 10000 2.6 290 17:56 31.03.2020
5543 Clouds 28 1009 78 10000 2.6 290 17:38 31.03.2020
5544 Clouds 28 1009 78 10000 2.6 290 17:20 31.03.2020
5545 Clouds 27 1009 78 10000 1.5 100 16:42 31.03.2020
5546 Clouds 27 1009 78 10000 1.5 100 16:20 31.03.2020
5547 Clouds 25 1008 83 10000 1.5 120 15:59 31.03.2020
5548 Clouds 25 1008 83 10000 1.5 120 15:41 31.03.2020
5549 Clouds 25 1008 83 10000 1.5 120 15:23 31.03.2020
5550 Clear 22 1007 94 10000 2.1 100 14:58 31.03.2020
5551 Clear 22 1007 94 10000 2.1 100 14:40 31.03.2020
5552 Clear 22 1007 94 10000 2.1 100 14:21 31.03.2020
5553 Clear 26 1010 75 0 3.1 36 13:44 31.03.2020
5554 Clear 26 1010 75 0 3.1 36 13:20 31.03.2020
5555 Clear 26 1010 75 0 3.1 36 12:59 31.03.2020
5556 Clear 26 1010 75 0 3.1 36 12:40 31.03.2020
5557 Clear 26 1010 77 0 4 45 12:19 31.03.2020
5558 Clear 26 1010 77 0 4 45 12:19 31.03.2020
5559 Clear 26 1010 77 0 4 45 11:41 31.03.2020
5560 Clear 26 1010 77 0 4 45 11:21 31.03.2020
5561 Clear 26 1010 77 0 4 45 10:59 31.03.2020
5562 Clear 26 1010 77 0 4 45 10:41 31.03.2020
5563 Clear 26 1010 77 0 4 45 10:22 31.03.2020
5564 Clear 26 1010 77 0 4 45 09:59 31.03.2020
5565 Clear 26 1010 77 0 4 45 09:41 31.03.2020
5566 Clear 26 1010 77 0 3.9 47 09:22 31.03.2020
5567 Clouds 26 1011 75 0 3.35 56 08:57 31.03.2020
5568 Clouds 26 1011 75 0 3.35 56 08:38 31.03.2020
5569 Clouds 26 1011 75 0 3.35 56 08:19 31.03.2020
5570 Clouds 26 1011 75 0 3.35 56 08:19 31.03.2020
5571 Clouds 26 1011 75 0 3.35 56 07:56 31.03.2020
5572 Clouds 26 1011 75 0 3.35 56 07:37 31.03.2020
5573 Clouds 26 1011 75 0 3.35 56 07:18 31.03.2020
5574 Clouds 26 1011 75 0 3.35 56 06:43 31.03.2020
5575 Clouds 27 1011 74 0 2.75 57 05:59 31.03.2020
5576 Clouds 27 1011 74 0 2.75 57 05:39 31.03.2020
5577 Clouds 27 1007 83 10000 3.6 280 03:28 31.03.2020
5578 Clouds 28 1006 78 10000 3.1 270 01:52 31.03.2020
5579 Clouds 28 1006 78 10000 3.1 270 01:33 31.03.2020
5580 Clouds 29 1006 74 10000 3.6 330 00:46 31.03.2020
5581 Clouds 29 1006 74 10000 3.6 330 00:24 31.03.2020
5582 Clouds 30 1007 70 10000 3.6 260 23:41 30.03.2020
5583 Clouds 30 1007 70 10000 3.6 260 23:20 30.03.2020
5584 Clouds 30 1007 70 10000 3.1 330 22:58 30.03.2020
5585 Clouds 30 1007 70 10000 3.1 330 22:39 30.03.2020
5586 Clouds 30 1007 70 10000 3.1 330 22:20 30.03.2020
5587 Clouds 30 1008 70 10000 4.1 350 21:58 30.03.2020
5588 Clouds 30 1008 70 10000 4.1 350 21:39 30.03.2020
5589 Clouds 30 1008 70 10000 4.1 350 21:39 30.03.2020
5590 Clouds 30 1008 70 10000 4.1 350 21:20 30.03.2020
5591 Clouds 30 1009 70 10000 5.1 330 20:59 30.03.2020
5592 Clouds 30 1009 70 10000 5.1 330 20:39 30.03.2020
5593 Clouds 30 1009 70 10000 5.1 330 20:39 30.03.2020
5594 Clouds 30 1009 70 10000 5.1 330 20:20 30.03.2020
5595 Clouds 29 1009 74 10000 5.1 40 19:56 30.03.2020
5596 Clouds 29 1009 74 10000 5.1 40 19:37 30.03.2020
5597 Clouds 29 1009 74 10000 5.1 40 19:19 30.03.2020
5598 Clouds 29 1010 70 10000 6.7 40 18:42 30.03.2020
5599 Clouds 29 1010 70 10000 6.7 40 18:42 30.03.2020
5600 Clouds 29 1010 70 10000 6.7 40 18:24 30.03.2020
5601 Clouds 30 1010 66 0 3.6 60 17:58 30.03.2020
5602 Clouds 30 1010 66 0 3.6 60 17:39 30.03.2020
5603 Clouds 30 1010 66 0 3.6 60 17:19 30.03.2020
5604 Clouds 29 1010 70 10000 3.1 30 16:57 30.03.2020
5605 Clouds 29 1010 70 10000 3.1 30 16:39 30.03.2020
5606 Clouds 29 1010 70 10000 3.1 30 16:20 30.03.2020
5607 Clouds 29 1010 70 10000 3.1 30 16:20 30.03.2020
5608 Clouds 27 1009 78 0 4.47 66 15:55 30.03.2020
5609 Clouds 27 1009 78 0 4.47 66 15:37 30.03.2020
5610 Clouds 27 1009 78 0 5.58 59 15:19 30.03.2020
5611 Clouds 25 1008 83 10000 3.6 70 14:55 30.03.2020
5612 Clouds 25 1008 83 10000 3.6 70 14:37 30.03.2020
5613 Clouds 25 1008 83 10000 3.6 70 14:18 30.03.2020
5614 Clear 26 1010 82 0 5.56 51 13:54 30.03.2020
5615 Clear 26 1010 82 0 5.56 51 13:36 30.03.2020
5616 Clear 26 1010 82 0 5.56 51 13:18 30.03.2020
5617 Clear 26 1010 82 0 5.56 51 12:41 30.03.2020
5618 Clear 26 1010 80 0 4.55 51 12:20 30.03.2020
5619 Clear 26 1010 80 0 4.55 51 11:57 30.03.2020
5620 Clear 26 1010 80 0 4.55 51 11:39 30.03.2020
5621 Clear 26 1010 80 0 4.55 51 11:21 30.03.2020
5622 Clear 26 1010 80 0 4.55 51 10:41 30.03.2020
5623 Clear 26 1010 80 0 4.55 51 10:22 30.03.2020
5624 Clear 26 1010 80 0 4.55 51 09:57 30.03.2020
5625 Clear 26 1010 80 0 4.55 51 09:57 30.03.2020
5626 Clear 26 1010 80 0 4.55 51 09:38 30.03.2020
5627 Clouds 26 1011 76 0 2.6 61 09:19 30.03.2020
5628 Clouds 26 1011 76 0 2.41 60 08:42 30.03.2020
5629 Clouds 26 1011 76 0 2.41 60 08:22 30.03.2020
5630 Clouds 26 1011 76 0 2.41 60 07:50 30.03.2020
5631 Clouds 26 1011 76 0 2.41 60 07:31 30.03.2020
5632 Clouds 26 1011 76 0 2.41 60 06:57 30.03.2020
5633 Clouds 26 1011 76 0 2.41 60 06:33 30.03.2020
5634 Clouds 27 1011 75 0 2.02 51 05:54 30.03.2020
5635 Clouds 27 1011 75 0 2.02 51 05:22 30.03.2020
5636 Clouds 27 1011 75 0 2.02 51 04:23 30.03.2020
5637 Clouds 27 1011 75 0 2.02 51 03:44 30.03.2020
5638 Clouds 28 1008 78 10000 3.1 280 02:39 30.03.2020
5639 Clouds 29 1007 74 10000 4.1 350 01:44 30.03.2020
5640 Clouds 29 1006 74 10000 3.6 360 00:49 30.03.2020
5641 Clouds 29 1006 74 10000 3.6 360 00:22 30.03.2020
5642 Clouds 29 1007 74 10000 4.6 310 23:42 29.03.2020
5643 Clouds 29 1007 74 10000 4.6 310 23:23 29.03.2020
5644 Clouds 30 1007 70 10000 4.1 320 22:57 29.03.2020
5645 Clouds 30 1007 70 10000 4.1 320 22:38 29.03.2020
5646 Clouds 30 1007 70 10000 4.1 320 22:19 29.03.2020
5647 Clouds 31 1008 62 10000 4.6 330 21:55 29.03.2020
5648 Clouds 31 1008 62 10000 4.6 330 21:36 29.03.2020
5649 Clouds 31 1008 62 10000 4.6 330 21:36 29.03.2020
5650 Clouds 31 1008 62 10000 4.6 330 21:18 29.03.2020
5651 Clouds 32 1008 59 10000 4.6 330 20:54 29.03.2020
5652 Clouds 32 1008 59 10000 4.6 330 20:36 29.03.2020
5653 Clouds 32 1008 59 10000 4.6 330 20:18 29.03.2020
5654 Clouds 32 1008 59 10000 5.1 270 19:41 29.03.2020
5655 Clouds 32 1008 59 10000 5.1 270 19:23 29.03.2020
5656 Clouds 31 1009 58 10000 3.6 260 18:57 29.03.2020
5657 Clouds 31 1009 58 10000 3.6 260 18:39 29.03.2020
5658 Clouds 31 1009 58 10000 3.6 260 18:20 29.03.2020
5659 Clouds 30 1008 62 10000 3.1 270 17:56 29.03.2020
5660 Clouds 30 1008 62 10000 3.1 270 17:38 29.03.2020
5661 Clouds 30 1008 62 10000 3.1 270 17:20 29.03.2020
5662 Clouds 28 1008 69 10000 1.5 10 16:57 29.03.2020
5663 Clouds 28 1008 69 10000 1.5 10 16:39 29.03.2020
5664 Clouds 28 1008 69 10000 1.5 10 16:20 29.03.2020
5665 Clouds 25 1008 78 10000 1.5 100 15:43 29.03.2020
5666 Clouds 25 1008 78 10000 1.5 100 15:25 29.03.2020
5667 Clouds 23 1007 83 10000 1.5 40 14:59 29.03.2020
5668 Clouds 23 1007 83 10000 1.5 40 14:40 29.03.2020
5669 Clouds 23 1007 83 10000 1.5 40 14:20 29.03.2020
5670 Clouds 26 1009 77 0 4.09 59 13:58 29.03.2020
5671 Clouds 26 1009 77 0 4.09 59 13:40 29.03.2020
5672 Clouds 26 1009 77 0 4.09 59 13:20 29.03.2020
5673 Clouds 26 1009 77 0 4.09 59 12:57 29.03.2020
5674 Clouds 26 1009 77 0 4.09 59 12:38 29.03.2020
5675 Clouds 26 1009 79 0 4.55 56 12:19 29.03.2020
5676 Clouds 26 1009 79 0 4.55 56 12:19 29.03.2020
5677 Clouds 26 1009 79 0 4.55 56 11:55 29.03.2020
5678 Clouds 26 1009 79 0 4.55 56 11:37 29.03.2020
5679 Clouds 26 1009 79 0 4.55 56 11:18 29.03.2020
5680 Clouds 26 1009 79 0 4.55 56 11:18 29.03.2020
5681 Clouds 26 1009 79 0 4.55 56 10:38 29.03.2020
5682 Clouds 26 1009 79 0 4.55 56 10:19 29.03.2020
5683 Clouds 26 1009 79 0 4.55 56 09:41 29.03.2020
5684 Clouds 26 1009 79 0 4.55 56 09:22 29.03.2020
5685 Clouds 26 1010 80 0 3.94 62 08:56 29.03.2020
5686 Clouds 26 1010 80 0 3.94 62 08:38 29.03.2020
5687 Clouds 26 1010 80 0 3.94 62 08:19 29.03.2020
5688 Clouds 26 1010 80 0 3.94 62 07:42 29.03.2020
5689 Clouds 26 1010 80 0 3.94 62 07:21 29.03.2020
5690 Clouds 26 1011 81 0 3.95 56 05:50 29.03.2020
5691 Clouds 26 1011 81 0 3.95 56 04:29 29.03.2020
5692 Clouds 26 1011 81 0 3.95 56 03:31 29.03.2020
5693 Clouds 27 1005 83 10000 3.1 30 01:51 29.03.2020
5694 Clouds 27 1005 83 10000 3.1 30 01:23 29.03.2020
5695 Clouds 28 1005 78 10000 3.1 10 00:58 29.03.2020
5696 Clouds 28 1005 78 10000 3.1 10 00:33 29.03.2020
5697 Clouds 28 1005 78 10000 2.6 20 23:56 28.03.2020
5698 Clouds 28 1005 78 10000 2.6 20 23:38 28.03.2020
5699 Clouds 28 1005 78 10000 2.6 20 23:18 28.03.2020
5700 Clouds 28 1006 78 10000 4.1 30 22:39 28.03.2020
5701 Clouds 28 1006 78 10000 4.1 30 22:21 28.03.2020
5702 Clouds 29 1006 74 10000 3.1 360 21:55 28.03.2020
5703 Clouds 29 1006 74 10000 3.1 360 21:37 28.03.2020
5704 Clouds 29 1006 74 10000 3.1 360 21:18 28.03.2020
5705 Clouds 29 1006 74 10000 3.1 360 21:18 28.03.2020
5706 Clouds 29 1007 74 10000 3.6 340 20:42 28.03.2020
5707 Clouds 29 1007 74 10000 3.6 340 20:23 28.03.2020
5708 Clouds 29 1008 74 10000 3.6 330 19:57 28.03.2020
5709 Clouds 29 1008 74 10000 3.6 330 19:39 28.03.2020
5710 Clouds 29 1008 74 10000 3.6 330 19:20 28.03.2020
5711 Clouds 29 1008 74 10000 3.6 330 19:20 28.03.2020
5712 Clouds 29 1009 74 10000 3.6 360 18:58 28.03.2020
5713 Clouds 29 1009 74 10000 3.6 360 18:38 28.03.2020
5714 Clouds 29 1009 74 10000 3.6 360 18:19 28.03.2020
5715 Clouds 29 1009 74 10000 3.6 360 18:19 28.03.2020
5716 Clouds 28 1009 78 10000 2.6 340 17:39 28.03.2020
5717 Clouds 28 1009 78 10000 2.6 340 17:20 28.03.2020
5718 Clouds 28 941 78 0 2.6 300 16:43 28.03.2020
5719 Clouds 28 941 78 0 2.6 300 16:20 28.03.2020
5720 Clear 27 941 83 10000 1.5 10 15:58 28.03.2020
5721 Clear 27 941 83 10000 1.5 10 15:39 28.03.2020
5722 Clear 27 941 83 10000 1.5 10 15:19 28.03.2020
5723 Clear 25 1007 83 10000 1 20 14:54 28.03.2020
5724 Clear 25 1007 83 10000 1 20 14:36 28.03.2020
5725 Clouds 25 1007 83 10000 1 20 14:18 28.03.2020
5726 Clouds 22 1007 94 10000 1.5 100 13:38 28.03.2020
5727 Clouds 22 1007 94 10000 1.5 100 13:19 28.03.2020
5728 Clear 25 1009 82 0 2.99 74 12:39 28.03.2020
5729 Clear 25 1009 82 0 2.99 74 12:21 28.03.2020
5730 Clear 25 1009 82 0 2.99 74 11:42 28.03.2020
5731 Clear 25 1009 82 0 2.99 74 11:21 28.03.2020
5732 Clouds 26 1009 81 0 2.12 72 10:56 28.03.2020
5733 Clouds 26 1009 81 0 2.12 72 10:37 28.03.2020
5734 Clouds 26 1009 81 0 2.12 72 10:18 28.03.2020
5735 Clouds 26 1009 81 0 2.12 72 09:41 28.03.2020
5736 Clouds 26 1009 81 0 2.12 72 09:22 28.03.2020
5737 Clouds 26 1009 81 0 2.12 72 08:45 28.03.2020
5738 Clouds 26 1009 81 0 2.12 72 08:27 28.03.2020
5739 Clouds 26 1010 83 0 3.06 113 07:59 28.03.2020
5740 Clouds 26 1010 83 0 3.06 113 07:41 28.03.2020
5741 Clouds 26 1010 83 0 3.06 113 06:54 28.03.2020
5742 Clouds 26 1010 83 0 3.06 113 06:29 28.03.2020
5743 Clouds 26 1010 83 0 3.06 113 05:38 28.03.2020
5744 Clouds 26 1011 82 0 2.53 101 05:19 28.03.2020
5745 Clouds 26 1011 82 0 2.53 101 04:39 28.03.2020
5746 Clouds 26 1011 82 0 2.53 101 02:52 28.03.2020
5747 Clouds 28 1005 74 10000 2.6 320 01:48 28.03.2020
5748 Clouds 28 1005 74 10000 2.6 320 01:23 28.03.2020
5749 Clouds 29 1005 74 10000 3.1 310 00:51 28.03.2020
5750 Clouds 29 1005 74 10000 3.1 310 00:25 28.03.2020
5751 Clouds 29 1005 74 10000 3.6 10 23:44 27.03.2020
5752 Clouds 29 1005 74 10000 3.6 10 23:26 27.03.2020
5753 Clouds 30 1006 70 10000 3.6 350 22:57 27.03.2020
5754 Clouds 30 1006 70 10000 3.6 350 22:39 27.03.2020
5755 Clouds 30 1006 70 10000 3.6 350 22:20 27.03.2020
5756 Clouds 30 1006 70 10000 4.1 310 21:58 27.03.2020
5757 Clouds 30 1006 70 10000 4.1 310 21:40 27.03.2020
5758 Clouds 30 1006 70 10000 4.1 310 21:22 27.03.2020
5759 Clouds 30 1006 70 10000 4.1 310 21:22 27.03.2020
5760 Clouds 30 1007 66 10000 3.6 330 20:56 27.03.2020
5761 Clouds 30 1007 66 10000 3.6 330 20:37 27.03.2020
5762 Clouds 30 1007 66 10000 3.6 330 20:19 27.03.2020
5763 Clouds 30 1008 70 10000 3.6 360 19:43 27.03.2020
5764 Clouds 30 1008 70 10000 3.6 360 19:23 27.03.2020
5765 Clouds 29 1009 74 10000 3.1 330 18:57 27.03.2020
5766 Clouds 29 1009 74 10000 3.1 330 18:38 27.03.2020
5767 Clouds 29 1009 74 10000 3.1 330 18:19 27.03.2020
5768 Clouds 28 1009 78 10000 3.6 350 17:40 27.03.2020
5769 Clouds 28 1009 78 10000 3.6 350 17:20 27.03.2020
5770 Clouds 28 1009 78 10000 3.1 330 16:55 27.03.2020
5771 Clouds 28 1009 78 10000 3.1 330 16:37 27.03.2020
5772 Clouds 28 1009 78 10000 3.1 330 16:19 27.03.2020
5773 Clouds 27 1008 83 10000 2.1 120 15:42 27.03.2020
5774 Clouds 27 1008 83 10000 2.1 120 15:24 27.03.2020
5775 Clouds 24 1007 88 10000 1.5 130 14:46 27.03.2020
5776 Clouds 24 1007 88 10000 1.5 130 14:25 27.03.2020
5777 Clouds 22 1007 94 10000 1.5 90 13:57 27.03.2020
5778 Clouds 22 1007 94 10000 1.5 90 13:38 27.03.2020
5779 Clouds 22 1007 94 10000 1.5 90 13:19 27.03.2020
5780 Clouds 25 1009 79 0 2.62 27 12:55 27.03.2020
5781 Clouds 25 1009 79 0 2.62 27 12:37 27.03.2020
5782 Clouds 25 1009 79 0 2.62 27 12:18 27.03.2020
5783 Clouds 25 1009 79 0 2.62 27 11:41 27.03.2020
5784 Clouds 25 1009 79 0 2.62 27 11:23 27.03.2020
5785 Clouds 25 1009 77 0 3 71 10:55 27.03.2020
5786 Clouds 25 1009 77 0 3 71 10:37 27.03.2020
5787 Clouds 25 1009 77 0 3 71 10:37 27.03.2020
5788 Clouds 25 1009 77 0 3 71 10:18 27.03.2020
5789 Clouds 25 1009 77 0 3 71 09:56 27.03.2020
5790 Clouds 25 1009 77 0 3 71 09:37 27.03.2020
5791 Clouds 25 1009 77 0 3 71 09:18 27.03.2020
5792 Clouds 25 1009 77 0 3 71 08:55 27.03.2020
5793 Clouds 25 1009 77 0 3 71 08:37 27.03.2020
5794 Clouds 26 1010 77 0 2.45 68 08:18 27.03.2020
5795 Clouds 26 1010 77 0 2.45 68 07:49 27.03.2020
5796 Clouds 26 1010 77 0 2.45 68 07:23 27.03.2020
5797 Clouds 26 1010 77 0 2.45 68 06:46 27.03.2020
5798 Clouds 26 1010 77 0 2.45 68 06:27 27.03.2020
5799 Clouds 26 1011 79 0 2.23 58 04:21 27.03.2020
5800 Clouds 28 1006 78 10000 2.6 100 02:25 27.03.2020
5801 Clouds 28 1006 78 10000 2.6 100 01:22 27.03.2020
5802 Clouds 28 1005 78 10000 4.6 150 00:47 27.03.2020
5803 Clouds 28 1005 78 10000 4.6 150 00:23 27.03.2020
5804 Clouds 28 1006 78 10000 3.6 270 23:42 26.03.2020
5805 Clouds 29 1006 74 10000 3.1 300 23:19 26.03.2020
5806 Clouds 29 1006 74 10000 3.1 300 22:57 26.03.2020
5807 Clouds 29 1006 74 10000 3.1 300 22:37 26.03.2020
5808 Clouds 29 1006 74 10000 3.1 300 22:18 26.03.2020
5809 Clouds 29 1007 74 10000 4.1 330 21:40 26.03.2020
5810 Clouds 29 1007 74 10000 4.1 330 21:22 26.03.2020
5811 Clouds 29 1008 74 10000 3.6 350 20:59 26.03.2020
5812 Clouds 29 1008 74 10000 3.6 350 20:39 26.03.2020
5813 Clouds 29 1008 74 10000 3.6 350 20:21 26.03.2020
5814 Clouds 29 1009 74 10000 3.1 350 19:58 26.03.2020
5815 Clouds 29 1009 74 10000 3.1 350 19:40 26.03.2020
5816 Clouds 29 1009 74 10000 3.1 350 19:21 26.03.2020
5817 Clouds 29 1010 70 10000 3.1 270 18:58 26.03.2020
5818 Clouds 29 1010 70 10000 3.1 270 18:40 26.03.2020
5819 Clouds 29 1010 70 10000 3.1 270 18:21 26.03.2020
5820 Clouds 29 1010 70 10000 2.6 280 17:44 26.03.2020
5821 Clouds 29 1010 70 10000 2.6 280 17:44 26.03.2020
5822 Clouds 28 1010 74 10000 3.1 360 17:20 26.03.2020
5823 Clouds 28 1010 74 10000 3.1 360 16:57 26.03.2020
5824 Clouds 28 1010 74 10000 3.1 360 16:38 26.03.2020
5825 Clouds 28 1010 74 10000 3.1 360 16:18 26.03.2020
5826 Clear 26 1009 83 10000 2.1 300 15:42 26.03.2020
5827 Clear 26 1009 83 10000 2.1 300 15:22 26.03.2020
5828 Clouds 23 1008 88 10000 1.5 60 14:59 26.03.2020
5829 Clouds 23 1008 88 10000 1.5 60 14:41 26.03.2020
5830 Clouds 23 1008 88 10000 1.5 60 14:23 26.03.2020
5831 Clouds 21 1008 94 10000 2.1 130 13:45 26.03.2020
5832 Clouds 21 1008 94 10000 2.1 130 13:24 26.03.2020
5833 Clouds 26 1010 78 0 4.43 93 12:59 26.03.2020
5834 Clouds 26 1010 78 0 4.43 93 12:38 26.03.2020
5835 Clouds 26 1010 78 0 4.43 93 12:20 26.03.2020
5836 Clouds 26 1010 78 0 4.43 93 11:46 26.03.2020
5837 Clouds 26 1010 78 0 4.43 93 11:22 26.03.2020
5838 Clouds 26 1010 78 0 4.43 93 11:22 26.03.2020
5839 Clouds 25 1010 78 0 3.26 83 10:56 26.03.2020
5840 Clouds 25 1010 78 0 3.26 83 10:37 26.03.2020
5841 Clouds 25 1010 78 0 3.26 83 10:19 26.03.2020
5842 Clouds 25 1010 78 0 3.26 83 09:44 26.03.2020
5843 Clouds 25 1010 78 0 3.26 83 09:20 26.03.2020
5844 Clouds 25 1010 78 0 3.26 83 08:55 26.03.2020
5845 Clouds 25 1010 78 0 3.26 83 08:37 26.03.2020
5846 Clouds 26 1011 77 0 2.71 72 08:18 26.03.2020
5847 Clouds 26 1011 79 0 2.79 61 07:43 26.03.2020
5848 Clouds 26 1011 79 0 2.79 61 07:21 26.03.2020
5849 Clouds 26 1011 79 0 2.79 61 06:48 26.03.2020
5850 Clouds 26 1011 79 0 2.79 61 05:54 26.03.2020
5851 Clouds 26 1011 78 0 2.99 64 03:59 26.03.2020
5852 Clouds 26 1011 78 0 2.99 64 03:36 26.03.2020
5853 Clouds 26 1011 78 0 2.99 64 02:54 26.03.2020
5854 Clouds 27 1007 78 10000 3.1 250 01:50 26.03.2020
5855 Clouds 28 1007 78 10000 2.6 240 00:45 26.03.2020
5856 Clouds 29 1007 74 10000 4.6 290 23:47 25.03.2020
5857 Clouds 29 1007 74 10000 4.6 290 23:28 25.03.2020
5858 Clouds 29 1007 74 10000 4.1 270 22:58 25.03.2020
5859 Clouds 29 1007 74 10000 4.1 270 22:38 25.03.2020
5860 Clouds 29 1007 74 10000 4.1 270 22:20 25.03.2020
5861 Clouds 30 1008 70 10000 4.1 280 21:55 25.03.2020
5862 Clouds 30 1008 70 10000 4.1 280 21:37 25.03.2020
5863 Clouds 30 1008 70 10000 4.1 280 21:18 25.03.2020
5864 Clouds 29 1009 74 10000 4.1 290 20:40 25.03.2020
5865 Clouds 29 1009 74 10000 4.1 290 20:20 25.03.2020
5866 Clouds 29 1010 74 10000 2.6 350 19:58 25.03.2020
5867 Clouds 29 1010 74 10000 2.6 350 19:39 25.03.2020
5868 Clouds 29 1010 74 10000 2.6 350 19:21 25.03.2020
5869 Clouds 29 1010 74 10000 3.1 300 18:54 25.03.2020
5870 Clouds 29 1010 74 10000 3.1 300 18:36 25.03.2020
5871 Clouds 29 1010 74 10000 3.1 300 18:36 25.03.2020
5872 Clouds 29 1011 74 10000 4.1 20 18:18 25.03.2020
5873 Clouds 29 1011 74 10000 4.1 20 17:41 25.03.2020
5874 Clouds 29 1011 74 10000 4.1 20 17:22 25.03.2020
5875 Clouds 28 1011 78 10000 3.1 20 16:58 25.03.2020
5876 Clouds 28 1011 78 10000 3.1 20 16:39 25.03.2020
5877 Clouds 28 1011 78 10000 3.1 20 16:21 25.03.2020
5878 Clouds 27 1010 83 10000 2.1 20 15:43 25.03.2020
5879 Clouds 27 1010 83 10000 2.1 20 15:21 25.03.2020
5880 Clouds 23 1009 88 10000 1.5 40 14:59 25.03.2020
5881 Clouds 23 1009 88 10000 1.5 40 14:40 25.03.2020
5882 Clouds 23 1009 88 10000 1.5 40 14:20 25.03.2020
5883 Clouds 22 1008 88 10000 2.1 70 13:44 25.03.2020
5884 Clouds 22 1008 88 10000 2.1 70 13:24 25.03.2020
5885 Clouds 25 1011 84 0 4.08 69 12:39 25.03.2020
5886 Clouds 25 1011 84 0 4.08 69 12:21 25.03.2020
5887 Clouds 25 1011 82 0 4.01 70 11:59 25.03.2020
5888 Clouds 25 1011 84 0 4.08 69 11:40 25.03.2020
5889 Clouds 25 1011 84 0 4.08 69 11:21 25.03.2020
5890 Clouds 25 1011 83 0 3.37 67 10:58 25.03.2020
5891 Clouds 25 1011 83 0 3.37 67 10:39 25.03.2020
5892 Clouds 25 1011 83 0 3.37 67 10:39 25.03.2020
5893 Clouds 25 1011 83 0 3.37 67 10:39 25.03.2020
5894 Clouds 25 1011 83 0 3.37 67 10:18 25.03.2020
5895 Clouds 25 1011 83 0 3.37 67 09:43 25.03.2020
5896 Clouds 25 1011 83 0 3.37 67 09:25 25.03.2020
5897 Clouds 25 1011 83 0 3.37 67 08:58 25.03.2020
5898 Clouds 25 1011 83 0 3.37 67 08:39 25.03.2020
5899 Clouds 25 1012 83 0 3.87 66 08:20 25.03.2020
5900 Clouds 25 1012 82 0 3.98 73 07:44 25.03.2020
5901 Clouds 25 1012 82 0 3.98 73 07:24 25.03.2020
5902 Clouds 25 1012 82 0 3.98 73 06:50 25.03.2020
5903 Clouds 25 1012 82 0 3.98 73 06:29 25.03.2020
5904 Clouds 25 1012 82 0 3.98 73 06:29 25.03.2020
5905 Clouds 25 1012 82 0 3.98 73 05:58 25.03.2020
5906 Clouds 25 1012 82 0 3.98 73 05:37 25.03.2020
5907 Clouds 26 1013 80 0 3.57 54 04:41 25.03.2020
5908 Clouds 26 1013 80 0 3.57 54 03:52 25.03.2020
5909 Clouds 26 1013 80 0 3.57 54 03:29 25.03.2020
5910 Clouds 26 1009 88 10000 3.1 330 01:31 25.03.2020
5911 Clouds 27 1008 83 10000 3.1 350 00:49 25.03.2020
5912 Clouds 27 1008 83 10000 3.1 350 00:26 25.03.2020
5913 Clouds 28 1008 78 10000 3.6 350 23:50 24.03.2020
5914 Clouds 28 1008 78 10000 3.6 350 23:28 24.03.2020
5915 Clouds 29 1009 74 10000 4.6 330 22:57 24.03.2020
5916 Clouds 29 1009 74 10000 4.6 330 22:38 24.03.2020
5917 Clouds 29 1009 74 10000 4.6 330 22:19 24.03.2020
5918 Clouds 29 1009 74 10000 4.6 330 22:19 24.03.2020
5919 Clouds 29 1009 74 10000 4.6 330 22:19 24.03.2020
5920 Clouds 26 1010 79 0 3.7 73 21:56 24.03.2020
5921 Clouds 26 1010 79 0 3.7 73 21:38 24.03.2020
5922 Clouds 29 1010 74 10000 3.1 300 21:18 24.03.2020
5923 Clouds 29 1010 74 10000 3.1 300 20:56 24.03.2020
5924 Clouds 29 1010 74 10000 3.1 300 20:38 24.03.2020
5925 Clouds 29 1010 74 10000 3.1 300 20:20 24.03.2020
5926 Clouds 28 1011 78 10000 4.1 10 19:44 24.03.2020
5927 Clouds 28 1011 78 10000 4.1 10 19:19 24.03.2020
5928 Clouds 26 1013 80 0 3.82 96 18:56 24.03.2020
5929 Clouds 26 1013 80 0 3.82 96 18:56 24.03.2020
5930 Clouds 26 1013 80 0 3.82 96 18:37 24.03.2020
5931 Clouds 28 1012 78 10000 3.6 300 18:18 24.03.2020
5932 Clouds 28 1012 78 10000 3.6 300 17:42 24.03.2020
5933 Clouds 28 1012 78 10000 3.6 300 17:24 24.03.2020
5934 Clouds 26 1015 78 0 3.9 80 16:58 24.03.2020
5935 Clouds 26 1015 78 0 3.9 80 16:40 24.03.2020
5936 Clouds 26 1015 78 0 3.9 80 16:22 24.03.2020
5937 Clouds 26 1015 78 0 3.9 80 15:58 24.03.2020
5938 Clouds 26 1015 78 0 3.9 80 15:38 24.03.2020
5939 Clouds 23 1011 88 0 1.5 90 15:20 24.03.2020
5940 Clouds 23 1011 88 0 1.5 90 14:43 24.03.2020
5941 Clouds 23 1011 88 0 1.5 90 14:20 24.03.2020
5942 Clouds 21 1010 94 10000 2.1 60 13:44 24.03.2020
5943 Clouds 21 1010 94 10000 2.1 60 13:24 24.03.2020
5944 Clouds 25 1012 80 0 3.28 73 12:58 24.03.2020
5945 Clouds 25 1012 80 0 3.28 73 12:38 24.03.2020
5946 Clouds 25 1012 80 0 3.28 73 12:38 24.03.2020
5947 Clouds 25 1012 80 0 3.28 73 12:20 24.03.2020
5948 Clouds 25 1012 80 0 3.28 73 11:40 24.03.2020
5949 Clear 25 1012 81 0 3.79 68 11:20 24.03.2020
5950 Clear 25 1012 81 0 3.79 68 10:54 24.03.2020
5951 Clear 25 1012 81 0 3.79 68 10:36 24.03.2020
5952 Clear 25 1012 81 0 3.79 68 10:18 24.03.2020
5953 Clear 25 1012 81 0 3.79 68 09:42 24.03.2020
5954 Clear 25 1012 81 0 3.79 68 09:24 24.03.2020
5955 Clear 25 1012 81 0 3.79 68 08:40 24.03.2020
5956 Clear 25 1012 81 0 3.79 68 08:21 24.03.2020
5957 Clear 25 1012 81 0 3.79 68 08:21 24.03.2020
5958 Clouds 25 1013 81 0 3.51 70 07:51 24.03.2020
5959 Clouds 25 1013 81 0 3.51 70 07:25 24.03.2020
5960 Clouds 25 1013 81 0 3.51 70 07:25 24.03.2020
5961 Clouds 25 1013 81 0 3.51 70 06:58 24.03.2020
5962 Clouds 25 1013 81 0 3.51 70 06:32 24.03.2020
5963 Clouds 25 1013 81 0 3.51 70 05:27 24.03.2020
5964 Clouds 26 1014 80 0 3.75 70 04:31 24.03.2020
5965 Clouds 26 1014 80 0 3.75 70 03:18 24.03.2020
5966 Clouds 27 1010 83 10000 4.1 20 01:49 24.03.2020
5967 Clouds 28 1009 74 10000 4.1 30 00:49 24.03.2020
5968 Clouds 28 1009 74 10000 4.1 30 00:26 24.03.2020
5969 Clouds 29 1009 70 10000 4.6 20 23:46 23.03.2020
5970 Clouds 29 1009 70 10000 4.6 20 23:26 23.03.2020
5971 Clouds 29 1009 70 10000 4.1 10 22:56 23.03.2020
5972 Clouds 29 1009 70 10000 4.1 10 22:37 23.03.2020
5973 Clouds 29 1009 70 10000 4.1 10 22:19 23.03.2020
5974 Clouds 29 1010 70 10000 5.1 60 21:44 23.03.2020
5975 Clouds 29 1010 70 10000 5.1 60 21:21 23.03.2020
5976 Clouds 29 1011 70 10000 3.6 50 20:58 23.03.2020
5977 Clouds 29 1011 70 10000 3.6 50 20:40 23.03.2020
5978 Clouds 29 1011 70 10000 3.6 50 20:22 23.03.2020
5979 Clouds 29 1011 70 10000 6.7 30 19:46 23.03.2020
5980 Clouds 29 1011 70 10000 6.7 30 19:28 23.03.2020
5981 Clouds 29 1012 70 10000 5.7 40 18:59 23.03.2020
5982 Clouds 29 1012 70 10000 5.7 40 18:41 23.03.2020
5983 Clouds 29 1012 70 10000 5.7 40 18:22 23.03.2020
5984 Clouds 29 1012 70 10000 5.7 40 17:56 23.03.2020
5985 Clouds 29 1012 74 10000 6.2 30 17:37 23.03.2020
5986 Clouds 27 1012 83 10000 4.1 330 17:18 23.03.2020
5987 Clouds 27 1012 83 10000 4.1 330 16:43 23.03.2020
5988 Clouds 27 1012 83 10000 4.1 330 16:24 23.03.2020
5989 Clouds 27 1012 83 10000 2.1 320 15:42 23.03.2020
5990 Clouds 27 1012 83 10000 2.1 320 15:20 23.03.2020
5991 Clouds 24 1011 88 10000 1.5 290 14:55 23.03.2020
5992 Clouds 24 1011 88 10000 1.5 290 14:36 23.03.2020
5993 Clouds 24 1011 88 10000 1.5 290 14:18 23.03.2020
5994 Clouds 22 1010 94 10000 1.5 10 13:40 23.03.2020
5995 Clouds 22 1010 94 10000 1.5 10 13:40 23.03.2020
5996 Clouds 22 1010 94 10000 1.5 10 13:22 23.03.2020
5997 Clouds 25 1013 82 0 4.68 61 12:46 23.03.2020
5998 Clouds 25 1013 82 0 4.68 61 12:26 23.03.2020
5999 Clouds 25 1013 82 0 4.68 61 11:59 23.03.2020
6000 Clouds 25 1013 82 0 4.68 61 11:40 23.03.2020
6001 Clouds 25 1013 82 0 4.68 61 11:21 23.03.2020
6002 Clear 25 1011 79 0 4.93 54 10:58 23.03.2020
6003 Clear 25 1011 79 0 4.93 54 10:58 23.03.2020
6004 Clear 25 1011 79 0 4.93 54 10:39 23.03.2020
6005 Clear 25 1011 79 0 4.93 54 10:21 23.03.2020
6006 Clear 25 1011 79 0 4.93 54 09:46 23.03.2020
6007 Clear 25 1011 79 0 4.93 54 09:21 23.03.2020
6008 Clear 25 1011 79 0 4.93 54 08:58 23.03.2020
6009 Clear 25 1011 79 0 4.93 54 08:36 23.03.2020
6010 Clear 26 1012 78 0 4.78 74 08:18 23.03.2020
6011 Clear 26 1013 79 0 4.66 79 07:45 23.03.2020
6012 Clear 26 1013 79 0 4.66 79 07:27 23.03.2020
6013 Clear 26 1013 79 0 4.66 79 06:52 23.03.2020
6014 Clear 26 1013 79 0 4.66 79 05:54 23.03.2020
6015 Clear 26 1013 79 0 4.66 79 05:29 23.03.2020
6016 Clear 26 1013 78 0 4.8 79 03:29 23.03.2020
6017 Clouds 27 1008 83 10000 2.1 300 02:29 23.03.2020
6018 Clouds 27 1008 83 10000 2.1 300 01:34 23.03.2020
6019 Clear 26 1010 75 0 4.33 96 00:40 23.03.2020
6020 Clear 26 1010 75 0 4.33 96 23:48 22.03.2020
6021 Clear 26 1010 75 0 4.33 96 23:26 22.03.2020
6022 Clear 26 1010 73 0 3.52 111 22:45 22.03.2020
6023 Clear 26 1010 73 0 3.52 111 22:26 22.03.2020
6024 Clear 26 1010 73 0 3.52 111 21:56 22.03.2020
6025 Clear 26 1010 73 0 3.52 111 21:37 22.03.2020
6026 Clear 26 1010 73 0 3.52 111 21:19 22.03.2020
6027 Clear 26 1010 73 0 3.52 111 20:46 22.03.2020
6028 Clear 26 1010 73 0 3.52 111 20:26 22.03.2020
6029 Clear 26 1012 77 0 3.96 113 19:59 22.03.2020
6030 Clear 26 1012 77 0 3.96 113 19:40 22.03.2020
6031 Clear 26 1012 77 0 3.96 113 19:21 22.03.2020
6032 Clear 26 1012 77 0 3.96 113 18:59 22.03.2020
6033 Clear 26 1012 77 0 3.96 113 18:41 22.03.2020
6034 Clear 26 1012 77 0 3.96 113 18:22 22.03.2020
6035 Clear 26 1012 77 0 3.96 113 17:59 22.03.2020
6036 Clear 26 1012 77 0 3.96 113 17:39 22.03.2020
6037 Clear 26 1012 77 0 3.96 113 17:39 22.03.2020
6038 Clear 26 1012 77 0 3.96 113 17:21 22.03.2020
6039 Clear 26 1014 78 0 4.16 96 16:58 22.03.2020
6040 Clear 26 1014 78 0 4.16 96 16:40 22.03.2020
6041 Clear 26 1014 78 0 4.16 96 16:21 22.03.2020
6042 Clear 26 1014 78 0 4.16 96 15:57 22.03.2020
6043 Clear 26 1014 78 0 4.16 96 15:39 22.03.2020
6044 Clouds 24 1009 83 10000 1.5 50 14:47 22.03.2020
6045 Clouds 24 1009 83 10000 1.5 50 14:19 22.03.2020
6046 Clouds 22 1008 88 10000 1.5 90 13:56 22.03.2020
6047 Clouds 22 1008 88 10000 1.5 90 13:37 22.03.2020
6048 Clouds 22 1008 88 10000 1.5 90 13:19 22.03.2020
6049 Clouds 26 1011 79 0 3.75 73 12:43 22.03.2020
6050 Clouds 26 1011 79 0 3.75 73 12:20 22.03.2020
6051 Clouds 26 1011 79 0 3.75 73 11:56 22.03.2020
6052 Clouds 26 1011 79 0 3.75 73 11:37 22.03.2020
6053 Clouds 26 1011 78 0 3.7 65 11:19 22.03.2020
6054 Clouds 26 1011 78 0 3.7 65 10:43 22.03.2020
6055 Clouds 26 1011 78 0 3.7 65 10:23 22.03.2020
6056 Clouds 26 1011 78 0 3.7 65 09:48 22.03.2020
6057 Clouds 26 1011 78 0 3.7 65 09:29 22.03.2020
6058 Clouds 26 1011 78 0 3.7 65 08:54 22.03.2020
6059 Clouds 26 1011 78 0 3.7 65 08:36 22.03.2020
6060 Clouds 26 1012 80 0 4.83 65 08:18 22.03.2020
6061 Clouds 26 1012 80 0 5.1 65 07:41 22.03.2020
6062 Clouds 26 1012 80 0 5.1 65 07:18 22.03.2020
6063 Clouds 26 1012 80 0 5.1 65 05:54 22.03.2020
6064 Clouds 26 1013 80 0 4.7 52 04:39 22.03.2020
6065 Clouds 26 1013 80 0 4.7 52 02:34 22.03.2020
6066 Clouds 26 1008 88 10000 5.1 20 01:19 22.03.2020
6067 Clouds 27 1008 83 10000 5.1 20 00:34 22.03.2020
6068 Clouds 28 1008 78 10000 5.22 46 23:47 21.03.2020
6069 Clouds 28 1008 78 10000 5.22 46 23:23 21.03.2020
6070 Clouds 29 1009 74 10000 5.1 30 22:59 21.03.2020
6071 Clouds 29 1009 74 10000 5.1 30 22:38 21.03.2020
6072 Clouds 29 1009 74 10000 5.1 30 22:20 21.03.2020
6073 Clouds 29 1010 74 10000 3.1 20 21:58 21.03.2020
6074 Clouds 29 1010 74 10000 3.1 20 21:38 21.03.2020
6075 Clouds 29 1010 74 10000 3.1 20 21:20 21.03.2020
6076 Clouds 29 1011 79 10000 4.1 10 20:43 21.03.2020
6077 Clouds 29 1011 79 10000 4.1 10 20:22 21.03.2020
6078 Clouds 29 1012 79 10000 3.6 20 19:55 21.03.2020
6079 Clouds 29 1012 79 10000 3.6 20 19:37 21.03.2020
6080 Clouds 29 1012 79 10000 3.6 20 19:18 21.03.2020
6081 Clouds 28 1012 78 10000 4.1 10 18:41 21.03.2020
6082 Clouds 28 1012 78 10000 4.1 10 18:21 21.03.2020
6083 Clouds 28 1013 78 10000 2.6 10 17:59 21.03.2020
6084 Clouds 28 1013 78 10000 2.6 10 17:41 21.03.2020
6085 Clouds 28 1013 78 10000 2.6 10 17:22 21.03.2020
6086 Clouds 27 1012 78 10000 2.6 30 16:42 21.03.2020
6087 Clouds 27 1012 78 10000 2.6 30 16:24 21.03.2020
6088 Clouds 26 1012 83 10000 2.1 40 15:59 21.03.2020
6089 Clouds 26 1012 83 10000 2.1 40 15:40 21.03.2020
6090 Clouds 26 1012 83 10000 2.1 40 15:22 21.03.2020
6091 Clouds 24 1011 88 10000 1.5 90 14:57 21.03.2020
6092 Clouds 24 1011 88 10000 1.5 90 14:38 21.03.2020
6093 Clouds 24 1011 88 10000 1.5 90 14:19 21.03.2020
6094 Clouds 22 1010 94 10000 1.5 90 13:57 21.03.2020
6095 Clouds 22 1010 94 10000 1.5 90 13:39 21.03.2020
6096 Clouds 22 1010 94 10000 1.5 90 13:20 21.03.2020
6097 Clouds 25 1013 79 0 3.5 41 12:54 21.03.2020
6098 Clouds 25 1013 79 0 3.5 41 12:36 21.03.2020
6099 Clouds 25 1013 79 0 3.5 41 12:18 21.03.2020
6100 Clouds 25 1013 79 0 3.5 41 11:54 21.03.2020
6101 Clouds 25 1013 79 0 3.5 41 11:54 21.03.2020
6102 Clouds 25 1013 79 0 3.5 41 11:36 21.03.2020
6103 Clouds 25 1011 78 0 2.54 34 11:18 21.03.2020
6104 Clouds 25 1011 78 0 2.54 34 10:55 21.03.2020
6105 Clouds 25 1011 78 0 2.54 34 10:55 21.03.2020
6106 Clouds 25 1011 78 0 2.54 34 10:37 21.03.2020
6107 Clouds 25 1011 78 0 2.54 34 10:18 21.03.2020
6108 Clouds 25 1011 78 0 2.54 34 09:40 21.03.2020
6109 Clouds 25 1011 78 0 2.54 34 09:21 21.03.2020
6110 Clouds 25 1011 78 0 2.54 34 08:56 21.03.2020
6111 Clouds 25 1011 78 0 2.54 34 08:38 21.03.2020
6112 Clouds 25 1013 79 0 3.21 45 08:19 21.03.2020
6113 Clouds 26 1013 77 0 3.2 50 07:39 21.03.2020
6114 Clouds 26 1013 77 0 3.2 50 07:20 21.03.2020
6115 Clouds 26 1013 77 0 3.2 50 06:44 21.03.2020
6116 Clouds 26 1013 77 0 3.2 50 06:25 21.03.2020
6117 Clouds 26 1013 77 0 3.2 50 05:40 21.03.2020
6118 Clear 26 1014 76 0 3.43 51 04:26 21.03.2020
6119 Clear 26 1014 76 0 3.43 51 02:37 21.03.2020
6120 Clouds 27 1010 83 10000 3.6 40 01:45 21.03.2020
6121 Clouds 27 1010 83 10000 3.6 40 01:25 21.03.2020
6122 Clouds 26 1012 70 0 1.94 77 00:39 21.03.2020
6123 Clouds 26 1012 70 0 1.94 77 00:21 21.03.2020
6124 Clouds 26 1012 70 0 1.94 77 23:43 20.03.2020
6125 Clouds 26 1012 70 0 1.94 77 23:22 20.03.2020
6126 Clear 26 1012 71 0 2.47 125 22:44 20.03.2020
6127 Clouds 28 1011 78 10000 4.1 10 22:25 20.03.2020
6128 Clouds 28 1011 78 10000 4.1 10 21:58 20.03.2020
6129 Clouds 28 1011 78 10000 4.1 10 21:40 20.03.2020
6130 Clouds 28 1011 78 10000 4.1 10 21:20 20.03.2020
6131 Clouds 28 1012 78 10000 3.6 10 20:58 20.03.2020
6132 Clouds 28 1012 78 10000 3.6 10 20:40 20.03.2020
6133 Clouds 28 1012 78 10000 3.6 10 20:19 20.03.2020
6134 Clouds 28 1013 78 10000 3.1 360 19:47 20.03.2020
6135 Clouds 28 1013 78 10000 3.1 360 19:20 20.03.2020
6136 Clouds 28 1014 78 10000 3.6 10 18:58 20.03.2020
6137 Clouds 28 1014 78 10000 3.6 10 18:38 20.03.2020
6138 Clouds 28 1014 78 10000 3.6 10 18:20 20.03.2020
6139 Clouds 28 1014 74 10000 2.6 10 17:56 20.03.2020
6140 Clouds 28 1014 74 10000 2.6 10 17:37 20.03.2020
6141 Clouds 27 1014 83 10000 3.1 20 17:18 20.03.2020
6142 Clouds 27 1014 83 10000 3.1 20 16:41 20.03.2020
6143 Clouds 27 1014 83 10000 3.1 20 16:21 20.03.2020
6144 Clouds 26 1013 83 10000 3.6 40 15:44 20.03.2020
6145 Clouds 26 1013 83 10000 3.6 40 15:23 20.03.2020
6146 Clouds 25 1012 83 10000 2.1 30 14:58 20.03.2020
6147 Clouds 25 1012 83 10000 2.1 30 14:40 20.03.2020
6148 Clouds 25 1012 83 10000 2.1 30 14:20 20.03.2020
6149 Clouds 25 1014 75 0 1.52 72 13:48 20.03.2020
6150 Clouds 25 1014 78 0 2.24 47 13:21 20.03.2020
6151 Clouds 25 1014 78 0 2.24 47 12:58 20.03.2020
6152 Clouds 25 1014 78 0 2.24 47 12:37 20.03.2020
6153 Clouds 25 1014 78 0 2.24 47 12:18 20.03.2020
6154 Clouds 25 1014 78 0 2.24 47 11:39 20.03.2020
6155 Clouds 26 1013 76 0 1.81 64 11:20 20.03.2020
6156 Clouds 26 1013 76 0 1.81 64 10:54 20.03.2020
6157 Clouds 26 1013 76 0 1.81 64 10:36 20.03.2020
6158 Clouds 26 1013 76 0 1.81 64 10:18 20.03.2020
6159 Clouds 26 1013 76 0 1.81 64 09:43 20.03.2020
6160 Clouds 26 1013 76 0 1.81 64 09:20 20.03.2020
6161 Clouds 26 1013 76 0 1.81 64 08:43 20.03.2020
6162 Clouds 26 1013 76 0 1.81 64 08:23 20.03.2020
6163 Clouds 26 1015 76 0 2.16 97 07:57 20.03.2020
6164 Clouds 26 1015 76 0 2.16 97 07:38 20.03.2020
6165 Clouds 26 1015 76 0 2.16 97 07:19 20.03.2020
6166 Clouds 26 1015 76 0 2.16 97 06:42 20.03.2020
6167 Clear 26 1015 76 0 2.03 88 04:57 20.03.2020
6168 Clear 26 1015 76 0 2.03 88 04:27 20.03.2020
6169 Clouds 28 1011 74 10000 2.6 320 02:27 20.03.2020
6170 Clouds 28 1011 74 10000 2.6 320 01:50 20.03.2020
6171 Clouds 28 1010 74 10000 2.6 270 00:38 20.03.2020
6172 Clouds 28 1010 74 10000 2.6 270 23:55 19.03.2020
6173 Clouds 26 1013 75 0 2.97 103 23:36 19.03.2020
6174 Clouds 26 1012 78 0 4.05 104 23:18 19.03.2020
6175 Clouds 26 1012 78 0 4.05 104 22:38 19.03.2020
6176 Clouds 26 1012 78 0 4.05 104 22:20 19.03.2020
6177 Clouds 26 1012 78 0 4.05 104 21:56 19.03.2020
6178 Clouds 26 1012 78 0 4.05 104 21:37 19.03.2020
6179 Clouds 26 1012 78 0 4.05 104 21:18 19.03.2020
6180 Clouds 26 1012 78 0 4.05 104 21:18 19.03.2020
6181 Clouds 26 1012 78 0 4.05 104 20:42 19.03.2020
6182 Clouds 30 1012 70 10000 5.1 30 20:23 19.03.2020
6183 Clouds 30 1012 70 10000 5.1 30 19:56 19.03.2020
6184 Clouds 30 1012 70 10000 5.1 30 19:38 19.03.2020
6185 Clouds 30 1012 70 10000 5.1 30 19:19 19.03.2020
6186 Clouds 26 1014 78 0 4.61 99 18:56 19.03.2020
6187 Clouds 26 1014 78 0 4.61 99 18:38 19.03.2020
6188 Clouds 29 1013 70 10000 1.5 40 18:19 19.03.2020
6189 Clouds 29 1013 70 10000 1.5 40 17:41 19.03.2020
6190 Clouds 28 1013 78 10000 1.5 270 17:19 19.03.2020
6191 Clouds 28 1013 78 10000 1.5 270 16:45 19.03.2020
6192 Clouds 28 1013 78 10000 1.5 270 16:24 19.03.2020
6193 Clouds 26 1015 78 0 4.4 90 15:54 19.03.2020
6194 Clouds 26 1015 78 0 4.4 90 15:36 19.03.2020
6195 Clouds 26 1015 78 0 4.4 90 15:18 19.03.2020
6196 Clouds 26 1015 78 0 4.4 90 14:42 19.03.2020
6197 Clouds 22 1011 94 10000 1.5 60 14:20 19.03.2020
6198 Clouds 22 1011 94 10000 1.5 60 13:41 19.03.2020
6199 Clouds 22 1011 94 10000 1.5 60 13:19 19.03.2020
6200 Clouds 26 1014 78 0 3.75 72 12:56 19.03.2020
6201 Clouds 26 1014 78 0 3.75 72 12:56 19.03.2020
6202 Clouds 26 1014 78 0 3.75 72 12:38 19.03.2020
6203 Clouds 26 1014 78 0 3.75 72 12:19 19.03.2020
6204 Clouds 26 1014 78 0 3.75 72 11:42 19.03.2020
6205 Clouds 26 1014 78 0 3.75 72 11:23 19.03.2020
6206 Clouds 25 1012 80 0 3.01 55 10:57 19.03.2020
6207 Clouds 25 1012 80 0 3.01 55 10:37 19.03.2020
6208 Clouds 25 1012 80 0 3.01 55 10:18 19.03.2020
6209 Clouds 25 1012 80 0 3.01 55 09:44 19.03.2020
6210 Clouds 25 1012 80 0 3.01 55 09:26 19.03.2020
6211 Clouds 25 1012 80 0 3.01 55 08:57 19.03.2020
6212 Clouds 25 1012 80 0 3.01 55 08:38 19.03.2020
6213 Clouds 26 1014 79 0 2.71 66 08:18 19.03.2020
6214 Clouds 26 1014 79 0 2.71 66 07:43 19.03.2020
6215 Clouds 26 1014 79 0 2.71 66 07:22 19.03.2020
6216 Clouds 26 1014 79 0 2.71 66 06:29 19.03.2020
6217 Clouds 26 1014 79 0 2.71 66 05:25 19.03.2020
6218 Clouds 26 1013 78 0 2.98 66 04:51 19.03.2020
6219 Clouds 26 1013 78 0 2.98 66 04:22 19.03.2020
6220 Clouds 26 1013 78 0 2.98 66 02:33 19.03.2020
6221 Clouds 27 1011 71 0 3.02 99 00:53 19.03.2020
6222 Clouds 27 1011 71 0 3.02 99 00:20 19.03.2020
6223 Clouds 27 1011 71 0 3.02 99 23:44 18.03.2020
6224 Clouds 29 1008 74 10000 3.1 300 23:26 18.03.2020
6225 Clouds 29 1008 74 10000 3.1 300 22:43 18.03.2020
6226 Clouds 29 1008 74 10000 3.1 300 22:23 18.03.2020
6227 Clouds 30 1009 70 10000 4.1 330 21:58 18.03.2020
6228 Clouds 30 1009 70 10000 4.1 330 21:40 18.03.2020
6229 Clouds 30 1009 70 10000 4.1 330 21:20 18.03.2020
6230 Clouds 30 1010 70 10000 3.6 300 20:55 18.03.2020
6231 Clouds 30 1010 70 10000 3.6 300 20:37 18.03.2020
6232 Clouds 30 1010 70 10000 3.6 300 20:19 18.03.2020
6233 Clouds 30 1011 70 10000 5.1 40 19:41 18.03.2020
6234 Clouds 30 1011 70 10000 5.1 40 19:21 18.03.2020
6235 Clouds 30 1011 70 10000 5.1 40 19:21 18.03.2020
6236 Clouds 30 1011 70 10000 5.7 30 18:58 18.03.2020
6237 Clouds 30 1011 70 10000 5.7 30 18:58 18.03.2020
6238 Clouds 30 1011 70 10000 5.7 30 18:39 18.03.2020
6239 Clouds 30 1011 70 10000 5.7 30 18:19 18.03.2020
6240 Clouds 30 1011 70 10000 5.7 30 18:19 18.03.2020
6241 Clouds 30 1011 70 10000 5.7 30 17:55 18.03.2020
6242 Clouds 28 1011 78 10000 4.6 10 17:37 18.03.2020
6243 Clouds 28 1011 78 10000 3.1 30 17:19 18.03.2020
6244 Clouds 28 1011 78 10000 3.1 30 16:42 18.03.2020
6245 Clouds 28 1011 78 10000 3.1 30 16:21 18.03.2020
6246 Clouds 26 1011 88 10000 3.1 10 15:57 18.03.2020
6247 Clouds 26 1011 88 10000 3.1 10 15:38 18.03.2020
6248 Clouds 26 1011 88 10000 3.1 10 15:20 18.03.2020
6249 Clouds 24 1010 88 10000 2.1 270 14:42 18.03.2020
6250 Clouds 24 1010 88 10000 2.1 270 14:21 18.03.2020
6251 Clouds 22 1010 94 10000 2.1 120 13:42 18.03.2020
6252 Clouds 22 1010 94 10000 2.1 120 13:19 18.03.2020
6253 Clear 26 1012 74 0 2.03 59 12:55 18.03.2020
6254 Clear 26 1012 74 0 2.03 59 12:37 18.03.2020
6255 Clear 26 1012 74 0 2.03 59 12:18 18.03.2020
6256 Clear 26 1012 74 0 2.03 59 11:38 18.03.2020
6257 Clear 26 1011 74 0 2.62 52 11:19 18.03.2020
6258 Clear 26 1011 74 0 2.62 52 10:57 18.03.2020
6259 Clear 26 1011 74 0 2.62 52 10:37 18.03.2020
6260 Clear 26 1011 74 0 2.62 52 10:19 18.03.2020
6261 Clear 26 1011 74 0 2.62 52 09:42 18.03.2020
6262 Clear 26 1011 74 0 2.62 52 09:23 18.03.2020
6263 Clear 26 1011 74 0 2.62 52 08:55 18.03.2020
6264 Clear 26 1011 74 0 2.62 52 08:37 18.03.2020
6265 Clear 26 1013 76 0 2.99 61 08:19 18.03.2020
6266 Clear 26 1013 76 0 2.99 61 07:41 18.03.2020
6267 Clear 26 1013 76 0 2.99 61 07:23 18.03.2020
6268 Clear 26 1013 76 0 2.99 61 06:43 18.03.2020
6269 Clear 26 1013 76 0 2.99 61 05:53 18.03.2020
6270 Clear 26 1013 77 0 1.93 46 05:19 18.03.2020
6271 Clear 26 1013 77 0 1.93 46 03:53 18.03.2020
6272 Clear 26 1013 77 0 1.93 46 02:37 18.03.2020
6273 Clouds 27 1009 78 10000 4.6 40 01:46 18.03.2020
6274 Clouds 29 1008 70 10000 4.6 30 01:20 18.03.2020
6275 Clouds 29 1008 70 10000 4.6 30 00:22 18.03.2020
6276 Clouds 27 1011 69 0 0.98 346 23:43 17.03.2020
6277 Clouds 27 1011 69 0 0.98 346 23:22 17.03.2020
6278 Clouds 26 1011 70 0 1.48 226 22:47 17.03.2020
6279 Clouds 30 1009 66 10000 3.6 330 22:28 17.03.2020
6280 Clouds 30 1009 66 10000 3.6 330 21:57 17.03.2020
6281 Clouds 30 1009 66 10000 3.6 330 21:37 17.03.2020
6282 Clouds 30 1009 66 10000 3.6 330 21:19 17.03.2020
6283 Clouds 30 1010 66 10000 4.1 350 20:38 17.03.2020
6284 Clouds 30 1010 66 10000 4.1 350 20:20 17.03.2020
6285 Clouds 30 1011 66 10000 3.6 190 19:42 17.03.2020
6286 Clouds 30 1011 66 10000 3.6 190 19:22 17.03.2020
6287 Clouds 29 1012 74 10000 3.1 250 18:59 17.03.2020
6288 Clouds 29 1012 74 10000 3.1 250 18:40 17.03.2020
6289 Clouds 29 1012 74 10000 3.1 250 18:22 17.03.2020
6290 Clouds 29 1012 74 10000 2.6 290 17:59 17.03.2020
6291 Clouds 29 1012 74 10000 2.6 290 17:39 17.03.2020
6292 Clouds 29 1012 74 10000 2.6 290 17:20 17.03.2020
6293 Clouds 28 1012 78 10000 2.1 160 16:43 17.03.2020
6294 Clouds 28 1012 78 10000 2.1 160 16:19 17.03.2020
6295 Clouds 26 1012 88 10000 2.1 180 15:48 17.03.2020
6296 Clouds 26 1012 88 10000 2.1 180 15:23 17.03.2020
6297 Clouds 24 1011 88 10000 2.1 60 14:49 17.03.2020
6298 Clouds 24 1011 88 10000 2.1 60 14:30 17.03.2020
6299 Clouds 22 1010 88 10000 1.5 110 13:59 17.03.2020
6300 Clouds 22 1010 88 10000 1.5 110 13:41 17.03.2020
6301 Clouds 22 1010 88 10000 1.5 110 13:22 17.03.2020
6302 Clear 25 1012 77 0 2.37 28 12:47 17.03.2020
6303 Clear 25 1012 77 0 2.37 28 12:25 17.03.2020
6304 Clear 25 1012 77 0 2.37 28 11:57 17.03.2020
6305 Clear 25 1011 78 0 2.4 31 11:39 17.03.2020
6306 Clear 26 1011 76 0 2.6 44 11:20 17.03.2020
6307 Clear 26 1011 76 0 2.6 44 10:54 17.03.2020
6308 Clear 26 1011 76 0 2.6 44 10:36 17.03.2020
6309 Clear 26 1011 76 0 2.6 44 10:18 17.03.2020
6310 Clear 26 1011 76 0 2.6 44 09:44 17.03.2020
6311 Clear 25 1011 78 0 2.78 42 09:20 17.03.2020
6312 Clear 25 1011 78 0 2.78 42 08:51 17.03.2020
6313 Clear 26 1011 76 0 2.6 44 08:24 17.03.2020
6314 Clouds 26 1013 77 0 2.54 30 07:58 17.03.2020
6315 Clouds 26 1013 77 0 2.54 30 07:40 17.03.2020
6316 Clouds 26 1013 77 0 2.54 30 07:19 17.03.2020
6317 Clouds 26 1013 77 0 2.54 30 06:41 17.03.2020
6318 Clouds 26 1013 77 0 2.54 30 06:19 17.03.2020
6319 Clouds 26 1013 78 0 1.97 14 04:51 17.03.2020
6320 Clouds 26 1013 78 0 1.97 14 03:26 17.03.2020
6321 Clouds 28 1008 74 10000 2.1 360 01:49 17.03.2020
6322 Clouds 28 1008 74 10000 2.1 360 01:29 17.03.2020
6323 Clouds 28 1008 74 10000 2.6 350 00:50 17.03.2020
6324 Clouds 29 1008 70 10000 2.1 330 23:51 16.03.2020
6325 Clouds 29 1008 70 10000 2.1 330 23:33 16.03.2020
6326 Clouds 30 1009 66 10000 2.6 270 22:45 16.03.2020
6327 Clouds 30 1009 66 10000 2.6 270 22:45 16.03.2020
6328 Clouds 30 1009 66 10000 2.6 270 22:26 16.03.2020
6329 Clouds 29 1009 70 10000 2.1 260 21:59 16.03.2020
6330 Clouds 29 1009 70 10000 2.1 260 21:41 16.03.2020
6331 Clouds 29 1009 70 10000 2.1 260 21:23 16.03.2020
6332 Clouds 27 1010 70 0 1.93 158 20:57 16.03.2020
6333 Clouds 27 1010 70 0 1.93 158 20:38 16.03.2020
6334 Clouds 26 1012 73 0 2.86 135 20:19 16.03.2020
6335 Clouds 26 1012 77 0 3.52 123 19:41 16.03.2020
6336 Clouds 26 1012 77 0 3.52 123 19:21 16.03.2020
6337 Clouds 26 1012 77 0 3.52 123 18:56 16.03.2020
6338 Clouds 26 1012 77 0 3.52 123 18:37 16.03.2020
6339 Clouds 26 1012 77 0 3.52 123 18:18 16.03.2020
6340 Clouds 26 1012 77 0 3.52 123 17:42 16.03.2020
6341 Clouds 28 1011 74 10000 2.6 270 17:22 16.03.2020
6342 Clouds 28 1011 74 10000 2.6 270 16:46 16.03.2020
6343 Clouds 28 1011 74 10000 2.6 270 16:27 16.03.2020
6344 Clouds 27 1011 78 10000 1.5 220 15:56 16.03.2020
6345 Clouds 27 1011 78 10000 1.5 220 15:37 16.03.2020
6346 Clouds 27 1011 78 10000 1.5 220 15:18 16.03.2020
6347 Clouds 24 1010 88 10000 1 100 14:39 16.03.2020
6348 Clouds 24 1010 88 10000 1 100 14:19 16.03.2020
6349 Clouds 22 1009 88 10000 1.5 100 13:41 16.03.2020
6350 Clouds 22 1009 88 10000 1.5 100 13:22 16.03.2020
6351 Clear 26 1011 80 0 2.18 38 12:45 16.03.2020
6352 Clear 26 1011 80 0 2.18 38 12:26 16.03.2020
6353 Clear 26 1011 80 0 2.18 38 11:56 16.03.2020
6354 Clear 26 1011 80 0 2.18 38 11:37 16.03.2020
6355 Clear 26 1011 81 0 3 38 11:18 16.03.2020
6356 Clear 26 1011 81 0 3 38 10:40 16.03.2020
6357 Clear 26 1011 81 0 3 38 10:19 16.03.2020
6358 Clear 26 1011 81 0 3 38 09:42 16.03.2020
6359 Clear 26 1011 81 0 3 38 09:24 16.03.2020
6360 Clear 26 1011 81 0 3 38 08:53 16.03.2020
6361 Clear 26 1011 81 0 3 38 08:25 16.03.2020
6362 Clear 26 1011 81 0 3 38 08:25 16.03.2020
6363 Clouds 26 1012 80 0 2.48 57 07:48 16.03.2020
6364 Clouds 26 1012 80 0 2.48 57 07:25 16.03.2020
6365 Clouds 26 1012 80 0 2.48 57 06:52 16.03.2020
6366 Clouds 26 1012 80 0 2.48 57 06:24 16.03.2020
6367 Clouds 26 1013 80 0 2.55 82 04:54 16.03.2020
6368 Clouds 26 1013 80 0 2.55 82 02:41 16.03.2020
6369 Clouds 28 1008 83 10000 3.1 330 00:52 16.03.2020
6370 Clouds 28 1008 83 10000 3.1 330 00:32 16.03.2020
6371 Clouds 29 1008 79 10000 3.1 20 23:46 15.03.2020
6372 Clouds 29 1008 79 10000 3.1 20 23:20 15.03.2020
6373 Clouds 29 1008 79 10000 3.6 350 22:42 15.03.2020
6374 Clouds 29 1008 79 10000 3.6 350 22:22 15.03.2020
6375 Clouds 28 1009 83 10000 2.6 280 21:56 15.03.2020
6376 Clouds 28 1009 83 10000 2.6 280 21:37 15.03.2020
6377 Clouds 28 1009 83 10000 2.6 280 21:18 15.03.2020
6378 Clouds 28 1010 83 10000 1.5 130 20:42 15.03.2020
6379 Clouds 28 1010 83 10000 1.5 130 20:20 15.03.2020
6380 Clouds 29 1011 74 10000 2.1 30 19:56 15.03.2020
6381 Clouds 29 1011 74 10000 2.1 30 19:38 15.03.2020
6382 Clouds 29 1011 74 10000 2.1 30 19:19 15.03.2020
6383 Clouds 30 1012 70 10000 4.6 180 18:55 15.03.2020
6384 Clouds 30 1012 70 10000 4.6 180 18:36 15.03.2020
6385 Clouds 30 1012 70 10000 4.6 180 18:18 15.03.2020
6386 Clouds 30 1012 70 10000 5.1 150 17:40 15.03.2020
6387 Clouds 30 1012 70 10000 5.1 150 17:21 15.03.2020
6388 Clouds 29 1012 74 10000 1 330 16:56 15.03.2020
6389 Clouds 29 1012 74 10000 1 330 16:38 15.03.2020
6390 Clouds 29 1012 74 10000 1 330 16:19 15.03.2020
6391 Clouds 28 1012 78 10000 1 280 15:43 15.03.2020
6392 Clouds 28 1012 78 10000 1 280 15:43 15.03.2020
6393 Clouds 28 1012 78 10000 1 280 15:25 15.03.2020
6394 Clouds 24 1011 94 10000 1 120 14:55 15.03.2020
6395 Clouds 24 1011 94 10000 1 120 14:37 15.03.2020
6396 Clouds 24 1011 94 10000 1 120 14:18 15.03.2020
6397 Clouds 23 1010 94 10000 1 90 13:40 15.03.2020
6398 Clouds 23 1010 94 10000 1 90 13:21 15.03.2020
6399 Clouds 26 1012 82 0 4.1 82 12:58 15.03.2020
6400 Clouds 26 1012 82 0 4.1 82 12:38 15.03.2020
6401 Clouds 26 1012 82 0 4.1 82 12:20 15.03.2020
6402 Clouds 26 1012 82 0 4.1 82 11:42 15.03.2020
6403 Clouds 26 1012 82 0 4.1 82 11:22 15.03.2020
6404 Clear 26 1011 83 0 3.7 92 10:56 15.03.2020
6405 Clear 26 1011 83 0 3.7 92 10:38 15.03.2020
6406 Clear 26 1011 83 0 3.7 92 10:20 15.03.2020
6407 Clear 26 1011 83 0 3.7 92 09:41 15.03.2020
6408 Clear 26 1011 83 0 3.7 92 09:22 15.03.2020
6409 Clear 26 1011 83 0 3.7 92 08:45 15.03.2020
6410 Clear 26 1011 82 0 3.89 93 08:21 15.03.2020
6411 Clouds 26 1013 83 0 3.32 83 07:51 15.03.2020
6412 Clouds 26 1013 83 0 3.32 83 07:32 15.03.2020
6413 Clouds 26 1013 83 0 3.32 83 06:53 15.03.2020
6414 Clouds 26 1013 83 0 3.32 83 06:18 15.03.2020
6415 Clouds 26 1013 84 0 4.13 74 05:19 15.03.2020
6416 Clouds 26 1013 84 0 4.13 74 04:43 15.03.2020
6417 Clouds 26 1013 84 0 4.13 74 04:24 15.03.2020
6418 Clouds 26 1013 84 0 4.13 74 03:54 15.03.2020
6419 Clouds 26 1013 84 0 4.13 74 02:44 15.03.2020
6420 Clouds 28 1009 78 10000 1.5 270 01:35 15.03.2020
6421 Clouds 29 1009 70 10000 2.1 300 00:46 15.03.2020
6422 Clouds 29 1009 70 10000 2.1 300 00:27 15.03.2020
6423 Clouds 29 1008 70 10000 4.1 360 23:55 14.03.2020
6424 Clouds 29 1008 70 10000 4.1 360 23:37 14.03.2020
6425 Clouds 29 1008 70 10000 4.1 360 23:18 14.03.2020
6426 Clouds 28 1009 78 10000 1.5 270 22:42 14.03.2020
6427 Clouds 28 1009 78 10000 1.5 270 22:23 14.03.2020
6428 Clouds 29 1010 74 10000 2.6 240 21:56 14.03.2020
6429 Clouds 29 1010 74 10000 2.6 240 21:36 14.03.2020
6430 Clouds 29 1010 74 10000 2.6 240 21:18 14.03.2020
6431 Clouds 28 1011 78 10000 3.1 30 20:58 14.03.2020
6432 Clouds 28 1011 78 10000 3.1 30 20:40 14.03.2020
6433 Clouds 28 1011 78 10000 3.1 30 20:19 14.03.2020
6434 Clouds 28 1012 78 10000 2.1 270 19:43 14.03.2020
6435 Clouds 28 1012 78 10000 2.1 270 19:25 14.03.2020
6436 Clouds 29 1013 79 10000 2.1 330 18:41 14.03.2020
6437 Clouds 29 1013 79 10000 2.1 330 18:23 14.03.2020
6438 Clouds 27 1013 83 10000 1.5 280 17:56 14.03.2020
6439 Clouds 27 1013 83 10000 1.5 280 17:37 14.03.2020
6440 Clouds 26 1012 88 10000 1 30 17:19 14.03.2020
6441 Clouds 26 1012 88 10000 1 30 16:40 14.03.2020
6442 Clouds 26 1012 88 10000 1 30 16:22 14.03.2020
6443 Clouds 26 1012 88 10000 3.1 30 15:54 14.03.2020
6444 Clouds 26 1012 88 10000 3.1 30 15:26 14.03.2020
6445 Clouds 23 1011 94 10000 2.6 30 14:47 14.03.2020
6446 Clouds 23 1011 94 10000 2.6 30 14:24 14.03.2020
6447 Clouds 23 1011 88 10000 4.1 120 13:58 14.03.2020
6448 Clouds 23 1011 88 10000 4.1 120 13:39 14.03.2020
6449 Clouds 23 1011 88 10000 4.1 120 13:20 14.03.2020
6450 Clear 25 1012 80 0 3.48 59 12:46 14.03.2020
6451 Clear 25 1012 80 0 3.48 59 12:27 14.03.2020
6452 Clear 25 1012 80 0 3.48 59 11:56 14.03.2020
6453 Clear 25 1012 80 0 3.48 59 11:56 14.03.2020
6454 Clear 25 1012 80 0 3.48 59 11:38 14.03.2020
6455 Clear 26 1011 81 0 2.63 52 11:19 14.03.2020
6456 Clear 26 1011 81 0 2.63 52 10:42 14.03.2020
6457 Clear 26 1011 81 0 2.63 52 10:42 14.03.2020
6458 Clear 26 1011 81 0 2.63 52 10:23 14.03.2020
6459 Clear 26 1011 81 0 2.63 52 09:47 14.03.2020
6460 Clear 26 1011 81 0 2.63 52 09:24 14.03.2020
6461 Clear 26 1011 81 0 2.63 52 08:51 14.03.2020
6462 Clear 26 1011 79 0 2.57 53 08:29 14.03.2020
6463 Clouds 26 1013 81 0 3.17 74 07:55 14.03.2020
6464 Clouds 26 1013 81 0 3.17 74 07:37 14.03.2020
6465 Clouds 26 1013 81 0 3.17 74 07:19 14.03.2020
6466 Clouds 26 1013 81 0 3.17 74 06:40 14.03.2020
6467 Clouds 26 1013 81 0 3.17 74 06:40 14.03.2020
6468 Clouds 26 1013 81 0 3.17 74 05:24 14.03.2020
6469 Clouds 26 1013 81 0 2.46 81 03:46 14.03.2020
6470 Clouds 26 1013 81 0 2.46 81 03:24 14.03.2020
6471 Clouds 27 1008 88 10000 2.1 330 02:22 14.03.2020
6472 Clouds 28 1007 78 10000 2.6 360 00:44 14.03.2020
6473 Clouds 29 1007 79 10000 1.5 210 23:45 13.03.2020
6474 Clouds 29 1007 79 10000 1.5 210 23:27 13.03.2020
6475 Clouds 30 1008 74 10000 1.5 240 22:49 13.03.2020
6476 Clouds 30 1008 74 10000 1.5 240 22:26 13.03.2020
6477 Clouds 29 1008 79 10000 1 300 21:44 13.03.2020
6478 Clouds 29 1008 79 10000 1 300 21:21 13.03.2020
6479 Clouds 29 1009 79 10000 2.1 330 20:57 13.03.2020
6480 Clouds 29 1009 79 10000 2.1 330 20:38 13.03.2020
6481 Clouds 29 1009 79 10000 2.1 330 20:19 13.03.2020
6482 Clouds 29 1011 79 10000 3.1 30 19:45 13.03.2020
6483 Clouds 29 1011 79 10000 3.1 30 19:27 13.03.2020
6484 Clouds 28 1011 78 10000 3.1 30 18:47 13.03.2020
6485 Clouds 28 1011 78 10000 3.1 30 18:28 13.03.2020
6486 Clouds 29 1011 79 10000 3.6 300 17:57 13.03.2020
6487 Clouds 26 1012 84 0 5.18 111 17:37 13.03.2020
6488 Clouds 29 1011 70 10000 2.1 300 17:18 13.03.2020
6489 Clouds 29 1011 70 10000 2.1 300 16:41 13.03.2020
6490 Clouds 29 1011 70 10000 2.1 300 16:23 13.03.2020
6491 Clouds 28 1010 78 10000 1 120 15:56 13.03.2020
6492 Clouds 28 1010 78 10000 1 120 15:37 13.03.2020
6493 Clouds 28 1010 78 10000 1 120 15:19 13.03.2020
6494 Clouds 26 1009 83 10000 1 60 14:41 13.03.2020
6495 Clouds 26 1009 83 10000 1 60 14:22 13.03.2020
6496 Clouds 25 1008 83 10000 1.5 90 13:56 13.03.2020
6497 Clouds 25 1008 83 10000 1.5 90 13:38 13.03.2020
6498 Clouds 25 1008 83 10000 1.5 90 13:18 13.03.2020
6499 Clouds 26 1010 82 0 3.26 98 12:40 13.03.2020
6500 Clouds 26 1010 82 0 3.26 98 12:21 13.03.2020
6501 Clouds 26 1010 82 0 3.26 98 11:57 13.03.2020
6502 Clouds 26 1010 82 0 3.26 98 11:38 13.03.2020
6503 Clouds 26 1010 82 0 3.83 147 11:19 13.03.2020
6504 Clouds 26 1010 82 0 3.83 147 10:47 13.03.2020
6505 Clouds 26 1010 82 0 3.83 147 10:27 13.03.2020
6506 Clouds 26 1010 82 0 3.83 147 09:57 13.03.2020
6507 Clouds 26 1010 82 0 3.83 147 09:38 13.03.2020
6508 Clouds 26 1010 82 0 3.83 147 09:20 13.03.2020
6509 Clouds 26 1010 82 0 3.83 147 08:42 13.03.2020
6510 Clear 26 1010 82 0 3.47 150 08:22 13.03.2020
6511 Clear 26 1012 82 0 3.13 168 07:47 13.03.2020
6512 Clear 26 1012 82 0 3.13 168 07:27 13.03.2020
6513 Clear 26 1012 82 0 3.13 168 06:46 13.03.2020
6514 Clear 26 1012 82 0 3.13 168 06:24 13.03.2020
6515 Clear 26 1012 82 0 3.13 168 05:46 13.03.2020
6516 Clear 26 1011 82 0 3.11 148 05:19 13.03.2020
6517 Clear 26 1011 82 0 3.11 148 04:35 13.03.2020
6518 Clear 26 1011 82 0 3.11 148 02:58 13.03.2020
6519 Clouds 26 1007 88 10000 4.1 190 01:41 13.03.2020
6520 Clouds 26 1007 88 10000 4.1 190 01:18 13.03.2020
6521 Clouds 26 1007 88 10000 4.6 180 00:43 13.03.2020
6522 Clouds 26 1007 88 10000 4.6 180 00:20 13.03.2020
6523 Clouds 26 1007 83 10000 3.1 150 23:40 12.03.2020
6524 Clouds 26 1007 83 10000 3.1 150 23:22 12.03.2020
6525 Rain 25 1007 94 6000 4.1 170 22:47 12.03.2020
6526 Rain 25 1007 94 6000 4.1 170 22:29 12.03.2020
6527 Clouds 26 1008 79 0 2.24 104 21:59 12.03.2020
6528 Clouds 26 1008 79 0 2.24 104 21:40 12.03.2020
6529 Clouds 28 1008 78 10000 2.6 300 21:21 12.03.2020
6530 Clouds 28 1008 78 10000 2.6 300 20:42 12.03.2020
6531 Clouds 28 1008 78 10000 2.6 300 20:20 12.03.2020
6532 Clouds 28 1008 78 10000 2.6 300 20:20 12.03.2020
6533 Clouds 28 1008 78 10000 2.1 220 19:56 12.03.2020
6534 Clouds 28 1008 78 10000 2.1 220 19:37 12.03.2020
6535 Clouds 28 1008 78 10000 2.1 220 19:18 12.03.2020
6536 Clouds 29 1009 74 10000 3.1 210 18:42 12.03.2020
6537 Clouds 29 1009 74 10000 3.1 210 18:22 12.03.2020
6538 Clouds 29 1009 74 10000 3.1 210 17:56 12.03.2020
6539 Clouds 28 1009 78 10000 3.1 270 17:37 12.03.2020
6540 Clouds 28 1009 78 10000 3.1 270 17:18 12.03.2020
6541 Clouds 27 1008 83 10000 3.1 330 16:41 12.03.2020
6542 Clouds 27 1008 83 10000 3.1 330 16:23 12.03.2020
6543 Clouds 27 1008 83 10000 0.5 210 15:49 12.03.2020
6544 Clouds 27 1008 83 10000 0.5 210 15:28 12.03.2020
6545 Clouds 25 1007 88 10000 2.6 120 14:58 12.03.2020
6546 Clouds 25 1007 88 10000 2.6 120 14:38 12.03.2020
6547 Clouds 25 1007 88 10000 2.6 120 14:38 12.03.2020
6548 Clouds 25 1007 88 10000 2.6 120 14:18 12.03.2020
6549 Clouds 24 1006 94 10000 1 140 13:40 12.03.2020
6550 Clouds 24 1006 94 10000 1 140 13:21 12.03.2020
6551 Clear 26 1009 82 0 2.32 86 12:55 12.03.2020
6552 Clear 26 1009 82 0 2.32 86 12:37 12.03.2020
6553 Clear 26 1009 82 0 2.32 86 12:18 12.03.2020
6554 Clear 26 1009 82 0 2.32 86 11:55 12.03.2020
6555 Clear 26 1009 82 0 2.32 86 11:36 12.03.2020
6556 Clear 26 1009 83 0 2.24 64 11:18 12.03.2020
6557 Clear 26 1009 83 0 2.24 64 10:43 12.03.2020
6558 Clear 26 1009 83 0 2.24 64 10:23 12.03.2020
6559 Clear 26 1009 83 0 2.24 64 09:56 12.03.2020
6560 Clear 26 1009 83 0 2.24 64 09:37 12.03.2020
6561 Clear 26 1009 83 0 2.24 64 09:19 12.03.2020
6562 Clear 26 1009 83 0 2.24 64 08:38 12.03.2020
6563 Clear 26 1011 83 0 1.88 63 08:18 12.03.2020
6564 Clear 26 1011 83 0 1.88 63 07:47 12.03.2020
6565 Clear 26 1011 83 0 1.88 63 07:22 12.03.2020
6566 Clear 26 1011 83 0 1.88 63 06:20 12.03.2020
6567 Clear 26 1011 83 0 1.88 63 05:34 12.03.2020
6568 Clear 26 1011 83 0 2.73 80 03:34 12.03.2020
6569 Clouds 27 1006 83 10000 1 270 01:57 12.03.2020
6570 Clouds 27 1006 83 10000 1 270 01:21 12.03.2020
6571 Clouds 26 1006 94 10000 2.1 300 00:42 12.03.2020
6572 Clouds 29 1006 79 10000 2.1 300 23:57 11.03.2020
6573 Clouds 29 1006 79 10000 2.1 300 23:28 11.03.2020
6574 Clouds 29 1006 74 10000 2.1 60 22:59 11.03.2020
6575 Clouds 29 1006 74 10000 2.1 60 22:39 11.03.2020
6576 Clouds 29 1006 74 10000 2.1 60 22:21 11.03.2020
6577 Clouds 28 1007 78 10000 2.6 30 21:56 11.03.2020
6578 Clouds 28 1007 78 10000 2.6 30 21:37 11.03.2020
6579 Clouds 28 1007 78 10000 2.6 30 21:19 11.03.2020
6580 Clouds 30 1008 74 10000 2.1 300 20:55 11.03.2020
6581 Clouds 30 1008 74 10000 2.1 300 20:36 11.03.2020
6582 Clouds 30 1008 74 10000 2.1 300 20:18 11.03.2020
6583 Clouds 30 1009 74 10000 1.5 300 19:42 11.03.2020
6584 Clouds 30 1009 74 10000 1.5 300 19:23 11.03.2020
6585 Clouds 29 1010 79 10000 4.31 101 18:56 11.03.2020
6586 Clouds 29 1010 79 10000 4.31 101 18:36 11.03.2020
6587 Clouds 29 1010 79 10000 4.31 101 18:18 11.03.2020
6588 Clouds 29 1010 79 0 4.1 30 17:40 11.03.2020
6589 Clouds 29 1010 79 0 4.1 30 17:21 11.03.2020
6590 Clouds 29 1009 74 10000 5.7 30 16:56 11.03.2020
6591 Clouds 29 1009 74 10000 5.7 30 16:37 11.03.2020
6592 Clouds 29 1009 74 10000 5.7 30 16:19 11.03.2020
6593 Clouds 27 1009 83 10000 1 30 15:42 11.03.2020
6594 Clouds 27 1009 83 10000 1 30 15:22 11.03.2020
6595 Clouds 25 1009 94 10000 1.5 360 14:44 11.03.2020
6596 Clouds 25 1009 94 10000 1.5 360 14:23 11.03.2020
6597 Clouds 26 1010 83 0 3.73 73 13:58 11.03.2020
6598 Clouds 26 1010 83 0 3.73 73 13:39 11.03.2020
6599 Clouds 26 1010 83 0 3.73 73 13:21 11.03.2020
6600 Clouds 26 1010 84 0 4.06 70 12:41 11.03.2020
6601 Clouds 26 1010 84 0 4.06 70 12:21 11.03.2020
6602 Clouds 26 1010 84 0 4.06 70 11:57 11.03.2020
6603 Clouds 26 1010 84 0 4.06 70 11:57 11.03.2020
6604 Clouds 26 1010 84 0 4.06 70 11:38 11.03.2020
6605 Clouds 26 1010 84 0 4.57 96 11:19 11.03.2020
6606 Clouds 26 1010 84 0 4.57 96 10:43 11.03.2020
6607 Clouds 26 1010 84 0 4.57 96 10:19 11.03.2020
6608 Clouds 26 1010 84 0 4.57 96 09:43 11.03.2020
6609 Clouds 26 1010 84 0 4.57 96 09:25 11.03.2020
6610 Clouds 26 1010 84 0 4.57 96 08:58 11.03.2020
6611 Clouds 26 1010 84 0 4.57 96 08:40 11.03.2020
6612 Clear 26 1012 84 0 4.84 87 08:19 11.03.2020
6613 Clear 26 1012 84 0 4.86 85 07:43 11.03.2020
6614 Clear 26 1012 84 0 4.86 85 07:19 11.03.2020
6615 Clear 26 1012 84 0 4.86 85 06:44 11.03.2020
6616 Clear 26 1012 84 0 4.86 85 05:36 11.03.2020
6617 Clear 26 1012 83 0 3.93 62 04:31 11.03.2020
6618 Clouds 28 1008 78 10000 3.6 60 02:24 11.03.2020
6619 Clouds 28 1008 78 10000 3.6 60 01:28 11.03.2020
6620 Clouds 28 1007 78 10000 4.6 30 00:46 11.03.2020
6621 Clouds 29 1008 74 10000 4.1 30 23:58 10.03.2020
6622 Clouds 29 1008 74 10000 4.1 30 23:40 10.03.2020
6623 Clouds 29 1008 74 10000 4.1 30 23:21 10.03.2020
6624 Clouds 29 1008 74 10000 1.5 280 22:39 10.03.2020
6625 Clouds 29 1008 74 10000 1.5 280 22:20 10.03.2020
6626 Clouds 29 1008 74 10000 2.1 270 21:57 10.03.2020
6627 Clouds 29 1008 74 10000 2.1 270 21:57 10.03.2020
6628 Clouds 29 1008 74 10000 2.1 270 21:38 10.03.2020
6629 Clouds 29 1008 74 10000 2.1 270 21:20 10.03.2020
6630 Clouds 29 1010 74 10000 1.5 320 20:58 10.03.2020
6631 Clouds 29 1010 74 10000 1.5 320 20:40 10.03.2020
6632 Clouds 29 1010 74 10000 1.5 320 20:18 10.03.2020
6633 Clouds 29 1011 79 10000 2.6 360 19:56 10.03.2020
6634 Clouds 29 1011 79 10000 2.6 360 19:37 10.03.2020
6635 Clouds 29 1011 79 10000 2.6 360 19:18 10.03.2020
6636 Clouds 29 1012 79 10000 2.1 270 18:44 10.03.2020
6637 Clouds 29 1012 79 10000 2.1 270 18:25 10.03.2020
6638 Clouds 29 1012 79 10000 2.6 300 17:57 10.03.2020
6639 Clouds 29 1012 79 10000 2.6 300 17:38 10.03.2020
6640 Clouds 29 1012 79 10000 2.6 300 17:20 10.03.2020
6641 Clouds 28 1011 78 10000 1.5 330 16:38 10.03.2020
6642 Clouds 28 1011 78 10000 1.5 330 16:18 10.03.2020
6643 Clouds 27 1011 83 10000 2.1 120 15:55 10.03.2020
6644 Clouds 27 1011 83 10000 2.1 120 15:37 10.03.2020
6645 Clouds 27 1011 83 10000 2.1 120 15:18 10.03.2020
6646 Clouds 25 1010 88 10000 1 120 14:40 10.03.2020
6647 Clouds 25 1010 88 10000 1 120 14:19 10.03.2020
6648 Clouds 24 1009 94 10000 1.5 100 13:54 10.03.2020
6649 Clouds 24 1009 94 10000 1.5 100 13:36 10.03.2020
6650 Clouds 24 1009 94 10000 1.5 100 13:18 10.03.2020
6651 Clear 26 1011 84 0 5.78 85 12:39 10.03.2020
6652 Clear 26 1011 84 0 5.78 85 12:19 10.03.2020
6653 Clear 26 1011 84 0 5.78 85 11:43 10.03.2020
6654 Clear 26 1011 84 0 5.78 85 11:25 10.03.2020
6655 Clear 26 1011 83 0 4.97 78 10:59 10.03.2020
6656 Clear 26 1011 83 0 4.97 78 10:41 10.03.2020
6657 Clear 26 1011 83 0 4.97 78 10:22 10.03.2020
6658 Clear 26 1011 83 0 4.97 78 09:56 10.03.2020
6659 Clear 26 1011 83 0 4.97 78 09:37 10.03.2020
6660 Clear 26 1011 83 0 4.97 78 09:18 10.03.2020
6661 Clear 26 1011 83 0 4.97 78 08:45 10.03.2020
6662 Clear 26 1011 83 0 4.97 78 08:26 10.03.2020
6663 Clear 27 1012 83 0 5.38 78 07:46 10.03.2020
6664 Clear 27 1012 83 0 5.38 78 07:28 10.03.2020
6665 Clear 27 1012 83 0 5.38 78 06:42 10.03.2020
6666 Clear 27 1012 83 0 5.38 78 06:23 10.03.2020
6667 Clear 27 1012 83 0 5.38 78 05:38 10.03.2020
6668 Clear 27 1012 82 0 4.71 64 04:34 10.03.2020
6669 Clear 27 1012 82 0 4.71 64 03:31 10.03.2020
6670 Clouds 28 1008 78 10000 1 270 01:43 10.03.2020
6671 Clouds 28 1007 78 10000 0.5 270 00:52 10.03.2020
6672 Clouds 28 1007 78 10000 0.5 270 00:29 10.03.2020
6673 Clouds 29 1007 74 10000 2.1 300 23:55 09.03.2020
6674 Clouds 29 1007 74 10000 2.1 300 23:36 09.03.2020
6675 Clouds 29 1007 74 10000 3.1 270 23:18 09.03.2020
6676 Clouds 29 1007 74 10000 3.1 270 22:38 09.03.2020
6677 Clouds 29 1007 74 10000 3.1 270 22:20 09.03.2020
6678 Clouds 29 1008 79 10000 2.6 280 21:45 09.03.2020
6679 Clouds 29 1008 79 10000 2.6 280 21:22 09.03.2020
6680 Clouds 30 1008 74 10000 2.6 210 20:59 09.03.2020
6681 Clouds 30 1008 74 10000 2.6 210 20:41 09.03.2020
6682 Clouds 30 1008 74 10000 2.6 210 20:22 09.03.2020
6683 Clouds 29 1009 79 10000 2.1 330 19:59 09.03.2020
6684 Clouds 29 1009 79 10000 2.1 330 19:59 09.03.2020
6685 Clouds 29 1009 79 10000 2.1 330 19:41 09.03.2020
6686 Clouds 29 1009 79 10000 2.1 330 19:18 09.03.2020
6687 Clouds 29 1010 79 10000 2.1 300 18:56 09.03.2020
6688 Clouds 29 1010 79 10000 2.1 300 18:37 09.03.2020
6689 Clouds 29 1010 79 10000 2.1 300 18:18 09.03.2020
6690 Clouds 28 1011 88 10000 2.1 300 17:55 09.03.2020
6691 Clouds 28 1011 88 10000 2.1 300 17:37 09.03.2020
6692 Clouds 27 1011 83 10000 1.5 30 17:19 09.03.2020
6693 Clear 27 1013 80 0 4.6 87 16:42 09.03.2020
6694 Clouds 28 1011 78 10000 1 30 16:22 09.03.2020
6695 Clouds 28 1011 78 10000 1 30 15:59 09.03.2020
6696 Clouds 28 1011 78 10000 1 30 15:40 09.03.2020
6697 Clouds 28 1011 78 10000 1 30 15:22 09.03.2020
6698 Clouds 28 1011 78 10000 1 30 15:22 09.03.2020
6699 Clouds 25 1009 94 10000 1 120 14:59 09.03.2020
6700 Clouds 25 1009 94 10000 1 120 14:38 09.03.2020
6701 Clouds 25 1009 94 10000 1 120 14:20 09.03.2020
6702 Clouds 23 1006 94 10000 1.5 120 13:58 09.03.2020
6703 Clouds 23 1006 94 10000 1.5 120 13:39 09.03.2020
6704 Clouds 23 1006 94 10000 1.5 120 13:39 09.03.2020
6705 Clouds 23 1006 94 10000 1.5 120 13:20 09.03.2020
6706 Clear 26 1011 83 0 4.37 73 12:43 09.03.2020
6707 Clear 26 1011 83 0 4.37 73 12:23 09.03.2020
6708 Clear 26 1011 83 0 4.37 73 11:58 09.03.2020
6709 Clear 26 1011 83 0 4.37 73 11:38 09.03.2020
6710 Clear 26 1010 82 0 3.73 70 11:20 09.03.2020
6711 Clear 26 1010 82 0 3.73 70 10:55 09.03.2020
6712 Clear 26 1010 82 0 3.73 70 10:36 09.03.2020
6713 Clear 26 1010 82 0 3.73 70 10:18 09.03.2020
6714 Clear 26 1010 82 0 3.73 70 09:40 09.03.2020
6715 Clear 26 1010 82 0 3.73 70 09:21 09.03.2020
6716 Clear 26 1010 82 0 3.73 70 08:44 09.03.2020
6717 Clear 26 1010 82 0 3.73 70 08:26 09.03.2020
6718 Clear 27 1011 83 0 3.2 72 07:43 09.03.2020
6719 Clear 27 1011 83 0 3.2 72 07:22 09.03.2020
6720 Clear 27 1011 83 0 3.2 72 06:46 09.03.2020
6721 Clear 27 1011 83 0 3.2 72 06:28 09.03.2020
6722 Clear 27 1011 83 0 3.2 72 05:58 09.03.2020
6723 Clear 27 1011 83 0 3.2 72 05:39 09.03.2020
6724 Clear 27 1011 83 0 3.42 72 04:43 09.03.2020
6725 Clear 27 1011 83 0 3.42 72 04:23 09.03.2020
6726 Clear 27 1011 83 0 3.42 72 03:28 09.03.2020
6727 Rain 26 1006 94 10000 0.5 300 01:50 09.03.2020
6728 Clouds 26 1005 94 10000 1.5 180 00:40 09.03.2020
6729 Clouds 26 1005 94 1